# Wetter Temperatur Luftdruck Luftfeuchtigkeit Sichtweite Windgeschwindigkeit Windrichtung Zeit
1 Clouds 17 1021 88 10000 2.1 80 02:49 05.04.2020
2 Clouds 17 1022 88 10000 4.1 100 01:47 05.04.2020
3 Clouds 17 1022 88 10000 4.1 100 01:28 05.04.2020
4 Clouds 17 1022 88 10000 3.1 80 00:44 05.04.2020
5 Clouds 18 1021 88 10000 5.1 90 00:21 05.04.2020
6 Clouds 18 1021 88 10000 5.1 90 23:55 04.04.2020
7 Clouds 17 1022 88 10000 3.1 80 23:36 04.04.2020
8 Clouds 18 1021 82 10000 2.6 90 23:18 04.04.2020
9 Clouds 17 1023 88 10000 2.1 60 22:40 04.04.2020
10 Clouds 19 1021 73 10000 4.1 60 22:21 04.04.2020
11 Clouds 19 1021 73 10000 4.1 60 21:58 04.04.2020
12 Clouds 19 1021 73 10000 4.1 60 21:40 04.04.2020
13 Clouds 19 1021 73 10000 4.1 60 21:19 04.04.2020
14 Clouds 19 1021 73 10000 5.1 90 20:59 04.04.2020
15 Clouds 19 1021 73 10000 5.1 90 20:40 04.04.2020
16 Clouds 20 1021 73 10000 5.1 90 20:21 04.04.2020
17 Clouds 20 1021 64 10000 5.1 80 19:57 04.04.2020
18 Clouds 20 1021 64 10000 5.1 80 19:37 04.04.2020
19 Clouds 20 1021 64 10000 5.1 80 19:19 04.04.2020
20 Clouds 20 1020 56 10000 5.1 60 18:56 04.04.2020
21 Clouds 21 1020 56 10000 5.1 60 18:38 04.04.2020
22 Clouds 23 1020 56 10000 5.1 60 18:19 04.04.2020
23 Clouds 23 1020 56 10000 6.2 70 17:56 04.04.2020
24 Clouds 24 1020 53 10000 7.2 70 17:38 04.04.2020
25 Clouds 25 1019 50 10000 5.1 90 17:18 04.04.2020
26 Clouds 25 1019 50 10000 5.1 90 16:42 04.04.2020
27 Clouds 23 1019 50 10000 5.1 90 16:22 04.04.2020
28 Clouds 25 1019 44 10000 5.1 60 15:55 04.04.2020
29 Clouds 25 1019 44 10000 5.1 60 15:37 04.04.2020
30 Clouds 25 1019 44 10000 5.1 60 15:18 04.04.2020
31 Clouds 25 1019 44 10000 5.1 60 15:18 04.04.2020
32 Clouds 25 1020 47 10000 5.1 40 14:42 04.04.2020
33 Clouds 25 1020 47 10000 5.1 40 14:22 04.04.2020
34 Clouds 25 1021 47 10000 5.1 60 13:56 04.04.2020
35 Clouds 25 1021 47 10000 5.1 60 13:38 04.04.2020
36 Clouds 25 1021 47 10000 5.1 60 13:19 04.04.2020
37 Clouds 24 1022 53 10000 5.1 30 12:45 04.04.2020
38 Clouds 24 1022 53 10000 5.1 30 12:24 04.04.2020
39 Clouds 23 1023 57 10000 4.1 60 11:59 04.04.2020
40 Clouds 24 1023 57 10000 4.1 60 11:38 04.04.2020
41 Clouds 23 1023 57 10000 4.1 60 11:19 04.04.2020
42 Clouds 22 1023 64 10000 2.1 60 10:56 04.04.2020
43 Clouds 22 1023 64 10000 2.1 60 10:38 04.04.2020
44 Clouds 22 1023 64 10000 2.1 60 10:19 04.04.2020
45 Clouds 21 1023 77 10000 2.6 30 09:54 04.04.2020
46 Clouds 20 1023 77 10000 2.6 30 09:36 04.04.2020
47 Clouds 20 1023 77 10000 2.6 30 09:18 04.04.2020
48 Clouds 19 1022 82 10000 3.6 60 08:41 04.04.2020
49 Clouds 19 1022 82 10000 3.6 60 08:21 04.04.2020
50 Clouds 17 1021 100 10000 1.51 50 07:46 04.04.2020
51 Clouds 17 1021 100 10000 1.51 50 07:26 04.04.2020
52 Clouds 16 1022 93 10000 1 0 06:53 04.04.2020
53 Clouds 15 1022 93 10000 1 40 06:20 04.04.2020
54 Mist 16 1020 93 5000 2.1 70 05:43 04.04.2020
55 Mist 16 1020 93 5000 2.1 70 05:43 04.04.2020
56 Mist 15 1020 93 5000 2.1 70 05:24 04.04.2020
57 Fog 15 1020 93 7000 2.6 80 04:31 04.04.2020
58 Mist 16 1020 93 5000 2.6 50 03:53 04.04.2020
59 Clouds 16 1021 93 10000 1.5 10 02:54 04.04.2020
60 Clouds 17 1021 93 10000 1.5 10 02:34 04.04.2020
61 Clouds 17 1021 93 10000 1.5 10 01:57 04.04.2020
62 Clouds 17 1021 93 10000 1.5 10 01:25 04.04.2020
63 Rain 15 1009 87 0 4.92 59 00:50 04.04.2020
64 Rain 17 1022 93 10000 3.1 40 00:30 04.04.2020
65 Rain 17 1022 93 10000 3.1 40 23:41 03.04.2020
66 Rain 17 1022 93 10000 3.1 40 23:21 03.04.2020
67 Rain 16 1022 93 10000 3.6 40 22:59 03.04.2020
68 Rain 16 1022 93 10000 3.6 40 22:39 03.04.2020
69 Rain 16 1022 93 10000 3.6 40 22:39 03.04.2020
70 Clouds 18 1020 82 10000 4.1 60 22:19 03.04.2020
71 Clouds 18 1020 82 10000 4.1 60 21:45 03.04.2020
72 Clouds 19 1020 82 10000 4.1 60 21:27 03.04.2020
73 Clouds 19 1020 77 10000 3.1 40 20:59 03.04.2020
74 Clouds 19 1020 77 10000 3.1 40 20:40 03.04.2020
75 Clouds 19 1020 77 10000 3.1 40 20:22 03.04.2020
76 Clouds 20 1019 60 10000 5.1 60 19:58 03.04.2020
77 Clouds 20 1019 60 10000 5.1 60 19:39 03.04.2020
78 Clouds 21 1018 56 10000 5.1 70 19:21 03.04.2020
79 Clouds 21 1018 56 10000 5.1 70 19:00 03.04.2020
80 Clouds 21 1018 56 10000 5.1 70 19:00 03.04.2020
81 Clouds 21 1018 56 10000 5.1 70 18:41 03.04.2020
82 Clouds 21 1018 56 10000 5.1 70 18:23 03.04.2020
83 Clouds 22 1018 53 10000 9.3 70 17:58 03.04.2020
84 Clouds 22 1018 53 10000 9.3 70 17:39 03.04.2020
85 Clouds 22 1018 53 10000 9.3 70 17:19 03.04.2020
86 Clouds 23 1017 47 10000 7.7 30 16:46 03.04.2020
87 Clouds 24 1017 47 10000 7.7 30 16:22 03.04.2020
88 Clouds 24 1017 50 10000 6.2 90 15:59 03.04.2020
89 Clouds 24 1017 50 10000 6.2 90 15:40 03.04.2020
90 Clouds 25 1017 50 10000 6.2 90 15:21 03.04.2020
91 Rain 25 1010 35 0 4.58 69 14:56 03.04.2020
92 Rain 20 1008 70 0 4.02 121 14:38 03.04.2020
93 Clouds 24 1019 50 10000 7.7 60 14:20 03.04.2020
94 Clouds 24 1019 50 10000 7.7 60 13:45 03.04.2020
95 Clouds 24 1019 50 10000 7.7 60 13:26 03.04.2020
96 Clouds 24 1020 53 10000 9.3 90 12:56 03.04.2020
97 Clouds 24 1020 53 10000 9.3 90 12:37 03.04.2020
98 Clouds 24 1021 60 10000 9.3 90 12:18 03.04.2020
99 Clouds 24 1021 60 10000 9.3 90 11:55 03.04.2020
100 Clouds 24 1021 60 10000 9.3 90 11:37 03.04.2020
101 Clouds 23 1021 60 10000 9.3 90 11:18 03.04.2020
102 Clouds 23 1022 60 10000 5.1 90 10:55 03.04.2020
103 Clouds 22 1022 60 10000 5.1 90 10:36 03.04.2020
104 Clouds 22 1022 64 10000 5.1 70 10:18 03.04.2020
105 Clouds 22 1022 64 10000 5.1 70 09:40 03.04.2020
106 Clouds 21 1022 64 10000 5.1 70 09:22 03.04.2020
107 Clouds 19 1021 77 10000 5.1 70 08:59 03.04.2020
108 Clouds 19 1021 77 10000 5.1 70 08:40 03.04.2020
109 Clouds 20 1021 77 10000 5.1 70 08:40 03.04.2020
110 Clouds 20 1021 77 10000 5.1 70 08:22 03.04.2020
111 Clouds 18 1021 88 10000 4.1 60 07:50 03.04.2020
112 Clouds 18 1021 88 10000 4.1 60 07:32 03.04.2020
113 Clouds 17 1020 93 10000 3.6 60 06:55 03.04.2020
114 Clouds 17 1020 93 10000 3.6 60 06:25 03.04.2020
115 Clouds 17 1019 93 10000 3.6 90 05:42 03.04.2020
116 Clouds 16 1019 93 10000 2.6 50 03:47 03.04.2020
117 Clouds 16 1019 93 10000 2.6 50 03:29 03.04.2020
118 Clouds 16 1019 100 10000 2.1 20 02:29 03.04.2020
119 Clouds 17 1020 93 10000 1.5 50 01:24 03.04.2020
120 Clouds 17 1020 93 10000 2.1 40 00:41 03.04.2020
121 Clouds 17 1020 93 10000 2.1 40 00:20 03.04.2020
122 Clouds 18 1021 88 10000 2.1 30 23:43 02.04.2020
123 Clouds 18 1021 88 10000 2.1 30 23:42 02.04.2020
124 Clouds 18 1021 88 10000 2.1 30 23:24 02.04.2020
125 Clouds 18 1021 93 10000 2.1 30 22:59 02.04.2020
126 Clouds 18 1021 93 10000 2.1 40 22:41 02.04.2020
127 Rain 19 1020 88 10000 1.94 43 22:21 02.04.2020
128 Rain 19 1020 88 10000 1.94 43 21:57 02.04.2020
129 Rain 19 1020 88 10000 1.94 43 21:36 02.04.2020
130 Rain 19 1020 88 10000 3.89 66 21:18 02.04.2020
131 Rain 19 1019 82 10000 4.1 60 20:44 02.04.2020
132 Rain 19 1019 82 10000 4.1 60 20:24 02.04.2020
133 Clouds 19 1019 77 10000 5.1 70 19:56 02.04.2020
134 Clouds 20 1019 77 10000 5.1 70 19:37 02.04.2020
135 Clouds 20 1019 77 10000 5.1 70 19:19 02.04.2020
136 Clouds 21 1018 64 10000 9.3 60 18:42 02.04.2020
137 Clouds 22 1018 64 10000 9.3 60 18:21 02.04.2020
138 Clouds 24 1018 64 10000 6.2 60 17:59 02.04.2020
139 Clouds 24 1018 64 10000 6.2 60 17:59 02.04.2020
140 Clouds 24 1018 64 10000 6.2 60 17:40 02.04.2020
141 Clouds 24 1018 64 10000 6.2 60 17:22 02.04.2020
142 Clouds 24 1018 47 10000 7.7 60 16:57 02.04.2020
143 Clouds 24 1018 47 10000 7.7 60 16:39 02.04.2020
144 Clouds 24 1018 47 10000 7.7 60 16:21 02.04.2020
145 Clouds 24 1017 50 10000 11.3 60 15:56 02.04.2020
146 Clouds 24 1017 50 10000 11.3 60 15:38 02.04.2020
147 Clouds 25 1017 50 10000 11.3 60 15:18 02.04.2020
148 Clouds 25 1017 50 10000 11.3 60 15:18 02.04.2020
149 Clouds 26 1018 50 10000 7.7 60 14:55 02.04.2020
150 Clouds 27 1019 44 10000 8.2 50 14:37 02.04.2020
151 Clouds 26 1019 50 10000 7.7 50 14:18 02.04.2020
152 Clouds 26 1020 50 10000 8.7 60 13:40 02.04.2020
153 Clouds 25 1020 53 10000 7.7 60 13:21 02.04.2020
154 Clouds 25 1020 53 10000 7.7 60 12:59 02.04.2020
155 Clouds 25 1020 53 10000 7.7 60 12:41 02.04.2020
156 Clouds 25 1020 53 10000 7.7 60 12:19 02.04.2020
157 Clouds 25 1020 53 10000 7.7 70 12:19 02.04.2020
158 Clouds 25 1020 53 10000 7.7 60 12:19 02.04.2020
159 Clouds 25 1020 53 10000 7.7 60 12:19 02.04.2020
160 Clouds 25 1020 53 10000 7.7 70 11:57 02.04.2020
161 Clouds 24 1020 53 10000 7.7 70 11:38 02.04.2020
162 Clouds 24 1020 53 10000 7.7 70 11:19 02.04.2020
163 Clouds 24 1020 53 10000 7.7 70 11:19 02.04.2020
164 Clouds 24 1021 60 10000 6.2 80 10:55 02.04.2020
165 Clouds 24 1021 60 10000 6.2 80 10:37 02.04.2020
166 Clouds 22 1021 82 10000 5.1 70 10:19 02.04.2020
167 Clouds 21 1021 82 10000 5.1 70 09:56 02.04.2020
168 Clouds 21 1021 82 10000 5.1 70 09:38 02.04.2020
169 Clouds 21 1021 82 0 4.1 40 09:19 02.04.2020
170 Clouds 20 1021 82 0 4.1 40 08:46 02.04.2020
171 Clouds 20 1021 82 0 4.1 40 08:26 02.04.2020
172 Clouds 19 1021 88 0 1.89 46 07:45 02.04.2020
173 Clouds 18 1021 88 0 1.89 46 07:21 02.04.2020
174 Clouds 17 1020 88 0 1.89 46 06:59 02.04.2020
175 Clouds 15 1020 100 10000 0.5 0 06:22 02.04.2020
176 Clear 15 1020 93 10000 1 0 05:45 02.04.2020
177 Clouds 17 1019 88 10000 3.1 40 04:46 02.04.2020
178 Clouds 16 1020 100 10000 1 10 01:54 02.04.2020
179 Clouds 16 1021 93 10000 1.5 330 00:51 02.04.2020
180 Clouds 17 1021 82 10000 1.56 20 00:29 02.04.2020
181 Clouds 16 1022 88 10000 1.5 330 23:59 01.04.2020
182 Clouds 17 1022 88 10000 1.5 360 23:37 01.04.2020
183 Clouds 17 1022 88 10000 1.5 360 23:18 01.04.2020
184 Clouds 17 1022 93 10000 3.6 20 22:41 01.04.2020
185 Clouds 17 1022 93 10000 3.6 20 22:22 01.04.2020
186 Clouds 17 1022 93 10000 3.1 20 21:58 01.04.2020
187 Clouds 17 1022 93 10000 3.1 20 21:58 01.04.2020
188 Clouds 17 1022 88 10000 3.6 30 21:39 01.04.2020
189 Rain 17 1022 88 10000 3.6 30 21:19 01.04.2020
190 Rain 17 1022 88 10000 3.6 30 21:19 01.04.2020
191 Rain 18 1022 82 10000 3.6 30 20:55 01.04.2020
192 Rain 18 1022 82 10000 2.6 40 20:37 01.04.2020
193 Rain 19 1021 68 10000 4.1 70 20:18 01.04.2020
194 Rain 19 1021 68 10000 4.1 70 19:43 01.04.2020
195 Rain 19 1021 68 10000 4.1 70 19:43 01.04.2020
196 Clouds 20 1020 64 10000 3.1 80 19:23 01.04.2020
197 Clouds 20 1020 64 10000 3.1 80 18:59 01.04.2020
198 Clouds 20 1020 64 10000 3.1 80 18:41 01.04.2020
199 Clouds 22 1020 64 10000 3.1 80 18:21 01.04.2020
200 Clouds 23 1019 57 10000 6.2 90 17:56 01.04.2020
201 Clouds 24 1019 57 10000 6.2 90 17:37 01.04.2020
202 Clouds 24 1019 57 10000 6.2 90 17:18 01.04.2020
203 Clouds 22 1020 64 10000 7.7 90 16:54 01.04.2020
204 Clouds 22 1019 61 10000 7.2 110 16:36 01.04.2020
205 Clouds 24 1019 42 10000 7.2 70 16:18 01.04.2020
206 Clouds 25 1019 42 10000 7.2 70 15:42 01.04.2020
207 Clouds 27 1019 42 10000 7.2 70 15:22 01.04.2020
208 Clouds 26 1020 44 10000 8.2 40 14:58 01.04.2020
209 Clouds 26 1020 54 10000 7.2 60 14:39 01.04.2020
210 Clouds 26 1021 50 10000 10.3 50 14:20 01.04.2020
211 Clouds 26 1021 50 10000 10.3 50 13:59 01.04.2020
212 Clouds 26 1021 50 10000 10.3 50 13:38 01.04.2020
213 Clouds 25 1022 57 10000 5.1 80 13:20 01.04.2020
214 Clouds 25 1022 57 10000 5.1 80 12:57 01.04.2020
215 Clouds 25 1022 57 10000 5.1 80 12:37 01.04.2020
216 Clouds 25 1022 57 10000 5.1 80 12:18 01.04.2020
217 Clouds 25 1021 53 10000 9.3 40 11:56 01.04.2020
218 Clouds 25 1021 53 10000 9.3 40 11:37 01.04.2020
219 Clouds 25 1021 53 10000 9.3 40 11:37 01.04.2020
220 Clouds 25 1021 53 10000 9.3 40 11:37 01.04.2020
221 Clouds 24 1021 53 10000 9.3 40 11:18 01.04.2020
222 Clouds 22 1023 64 10000 4.1 360 10:38 01.04.2020
223 Clouds 22 1023 64 10000 4.1 360 10:20 01.04.2020
224 Clouds 22 1023 73 10000 5.1 70 09:58 01.04.2020
225 Clouds 21 1023 73 10000 5.1 70 09:39 01.04.2020
226 Clouds 21 1023 73 10000 5.1 70 09:19 01.04.2020
227 Clouds 19 1023 82 10000 4.1 30 08:44 01.04.2020
228 Clouds 19 1023 82 10000 4.1 30 08:19 01.04.2020
229 Clouds 18 1023 93 10000 2.6 70 07:56 01.04.2020
230 Clouds 18 1023 93 10000 2.6 70 07:38 01.04.2020
231 Clouds 17 1023 93 10000 2.6 70 07:18 01.04.2020
232 Fog 16 1021 100 500 1.91 42 06:39 01.04.2020
233 Fog 16 1021 100 500 1.08 28 06:20 01.04.2020
234 Clouds 16 1021 93 10000 1.08 28 05:24 01.04.2020
235 Clouds 16 1021 93 10000 1.5 10 03:39 01.04.2020
236 Clouds 17 1020 88 10000 1.11 52 02:59 01.04.2020
237 Clouds 17 1021 88 10000 1.42 36 02:31 01.04.2020
238 Clouds 16 1021 93 10000 2.1 50 01:49 01.04.2020
239 Clouds 16 1022 93 10000 2.6 40 01:24 01.04.2020
240 Clouds 17 1022 93 10000 2.6 40 00:47 01.04.2020
241 Clouds 18 1021 93 10000 5.1 70 00:22 01.04.2020
242 Clouds 18 1021 93 10000 5.1 70 23:55 31.03.2020
243 Clouds 18 1021 93 10000 5.1 70 23:37 31.03.2020
244 Clouds 17 1023 88 10000 3.1 60 23:19 31.03.2020
245 Clouds 17 1022 88 10000 2.6 60 22:40 31.03.2020
246 Clouds 18 1021 88 10000 5.1 50 22:21 31.03.2020
247 Clouds 18 1021 88 10000 5.1 50 21:58 31.03.2020
248 Clouds 18 1021 88 10000 5.1 50 21:39 31.03.2020
249 Clouds 19 1021 88 10000 5.1 50 21:21 31.03.2020
250 Clouds 19 1020 77 10000 5.1 70 20:57 31.03.2020
251 Clouds 19 1020 77 10000 5.1 70 20:37 31.03.2020
252 Clouds 20 1020 73 10000 4.1 70 20:19 31.03.2020
253 Clouds 20 1020 73 10000 4.1 70 19:55 31.03.2020
254 Clouds 20 1020 73 10000 4.1 70 19:37 31.03.2020
255 Clouds 21 1019 64 10000 5.1 60 19:18 31.03.2020
256 Clouds 21 1019 64 10000 5.1 60 18:43 31.03.2020
257 Clouds 25 1019 53 10000 7.7 80 18:20 31.03.2020
258 Clouds 25 1019 53 10000 7.7 80 17:56 31.03.2020
259 Clouds 25 1019 53 10000 7.7 80 17:56 31.03.2020
260 Clouds 25 1019 53 10000 7.7 80 17:38 31.03.2020
261 Clouds 25 1019 53 10000 7.7 80 17:38 31.03.2020
262 Clouds 25 1019 53 10000 7.7 80 17:20 31.03.2020
263 Clouds 24 1018 53 10000 10.3 90 16:42 31.03.2020
264 Clouds 24 1018 53 10000 10.3 90 16:20 31.03.2020
265 Clouds 25 1018 50 10000 10.3 70 15:59 31.03.2020
266 Clouds 24 1018 50 10000 10.3 70 15:41 31.03.2020
267 Clouds 26 1018 50 10000 10.3 70 15:23 31.03.2020
268 Clouds 26 1019 47 10000 5.1 90 15:00 31.03.2020
269 Clouds 26 1019 47 10000 5.1 90 15:00 31.03.2020
270 Clouds 26 1019 47 10000 5.1 90 14:41 31.03.2020
271 Clouds 26 1020 47 10000 5.1 70 14:22 31.03.2020
272 Clouds 25 1020 47 10000 5.1 70 13:58 31.03.2020
273 Clouds 24 1020 54 10000 7.7 70 13:39 31.03.2020
274 Clouds 25 1021 53 10000 6.2 60 13:19 31.03.2020
275 Clouds 24 1021 53 10000 6.2 60 12:44 31.03.2020
276 Clouds 25 1021 53 10000 6.2 60 12:20 31.03.2020
277 Clouds 25 1021 53 10000 6.2 60 12:20 31.03.2020
278 Clouds 25 1022 61 10000 5.1 60 11:56 31.03.2020
279 Clouds 23 1023 69 10000 5.1 60 11:36 31.03.2020
280 Clouds 23 1023 69 10000 5.1 60 11:18 31.03.2020
281 Clouds 23 1023 69 10000 5.1 60 10:55 31.03.2020
282 Clouds 22 1023 69 10000 5.1 60 10:37 31.03.2020
283 Clouds 22 1023 69 10000 5.1 60 10:37 31.03.2020
284 Clouds 22 1023 69 10000 5.1 60 10:18 31.03.2020
285 Clouds 21 1023 73 10000 4.1 70 09:43 31.03.2020
286 Clouds 21 1023 73 10000 4.1 70 09:24 31.03.2020
287 Clouds 19 1023 88 10000 3.6 40 08:57 31.03.2020
288 Clouds 18 1023 88 10000 3.1 60 08:39 31.03.2020
289 Clouds 19 1021 88 10000 4.1 70 08:19 31.03.2020
290 Clouds 18 1021 88 10000 4.1 70 07:56 31.03.2020
291 Clouds 18 1021 88 10000 4.1 70 07:38 31.03.2020
292 Clouds 18 1021 88 10000 4.1 70 07:19 31.03.2020
293 Clouds 17 1020 88 10000 1.72 54 06:47 31.03.2020
294 Clouds 17 1020 88 10000 0.99 15 06:23 31.03.2020
295 Clouds 17 1020 93 10000 0.99 15 05:40 31.03.2020
296 Clouds 16 1020 93 10000 3.1 40 03:43 31.03.2020
297 Clouds 16 1020 93 10000 2.6 30 02:19 31.03.2020
298 Clouds 17 1020 93 10000 2.6 60 01:45 31.03.2020
299 Clouds 18 1020 88 10000 1 37 00:51 31.03.2020
300 Clouds 18 1020 88 10000 1.66 38 00:25 31.03.2020
301 Clouds 18 1020 88 10000 1.66 38 23:58 30.03.2020
302 Clouds 18 1021 82 10000 2.1 60 23:38 30.03.2020
303 Clouds 18 1021 82 10000 2.1 60 23:18 30.03.2020
304 Clouds 18 1021 82 10000 1.66 38 22:55 30.03.2020
305 Clouds 18 1021 88 10000 1.5 10 22:36 30.03.2020
306 Clouds 18 1021 88 10000 1.5 10 22:18 30.03.2020
307 Clouds 18 1021 88 10000 1 350 21:55 30.03.2020
308 Clouds 18 1021 88 10000 2.1 10 21:36 30.03.2020
309 Clouds 18 1021 88 10000 2.1 10 21:18 30.03.2020
310 Clouds 18 1021 88 10000 2.6 10 20:42 30.03.2020
311 Clouds 18 1020 88 10000 3.6 60 20:24 30.03.2020
312 Clouds 18 1020 88 10000 3.6 60 19:59 30.03.2020
313 Clouds 18 1020 82 10000 3.1 70 19:40 30.03.2020
314 Clouds 18 1020 82 10000 3.1 70 19:21 30.03.2020
315 Clouds 18 1019 88 10000 4.1 80 18:56 30.03.2020
316 Clouds 19 1019 68 10000 5.1 90 18:38 30.03.2020
317 Clouds 19 1019 68 10000 5.1 90 18:38 30.03.2020
318 Clouds 23 1018 64 10000 7.7 90 18:19 30.03.2020
319 Clouds 23 1018 64 10000 7.7 90 17:56 30.03.2020
320 Clouds 23 1018 64 10000 7.7 90 17:56 30.03.2020
321 Clouds 23 1018 64 10000 7.7 90 17:37 30.03.2020
322 Clouds 23 1018 64 10000 7.7 90 17:37 30.03.2020
323 Clouds 23 1018 64 10000 7.7 90 17:18 30.03.2020
324 Clouds 24 1017 60 10000 7.7 60 16:54 30.03.2020
325 Clouds 24 1017 60 10000 7.7 60 16:36 30.03.2020
326 Clouds 22 1017 60 10000 7.7 60 16:18 30.03.2020
327 Clouds 23 1016 57 10000 3.62 77 15:41 30.03.2020
328 Clouds 25 1016 57 10000 4.85 75 15:22 30.03.2020
329 Clouds 25 1017 57 10000 7.7 60 14:59 30.03.2020
330 Clouds 25 1017 57 10000 7.7 60 14:39 30.03.2020
331 Clouds 26 1018 54 10000 7.7 70 14:19 30.03.2020
332 Clouds 26 1018 54 10000 7.7 70 14:19 30.03.2020
333 Clouds 26 1018 54 10000 7.7 70 13:58 30.03.2020
334 Clouds 24 1018 54 10000 7.7 70 13:40 30.03.2020
335 Clouds 24 1018 54 10000 7.7 70 13:20 30.03.2020
336 Rain 20 1009 79 0 4.34 73 12:54 30.03.2020
337 Rain 20 1009 77 0 0.45 84 12:36 30.03.2020
338 Rain 20 1009 77 0 0.45 84 12:36 30.03.2020
339 Clouds 24 1020 60 10000 5.1 60 12:18 30.03.2020
340 Clouds 24 1013 38 0 1.27 61 11:42 30.03.2020
341 Clouds 23 1021 69 10000 6.2 70 11:24 30.03.2020
342 Clouds 23 1021 69 10000 6.2 70 10:57 30.03.2020
343 Clouds 24 1013 38 0 1.27 61 10:38 30.03.2020
344 Clouds 21 1021 73 10000 4.1 50 10:20 30.03.2020
345 Clouds 21 1021 73 10000 4.1 50 09:54 30.03.2020
346 Clouds 21 1021 73 10000 4.1 50 09:36 30.03.2020
347 Clouds 21 1021 73 10000 4.1 50 09:18 30.03.2020
348 Clouds 19 1021 82 10000 5.1 60 08:39 30.03.2020
349 Clouds 19 1021 82 10000 5.1 60 08:20 30.03.2020
350 Clouds 19 1020 82 10000 3.6 60 07:45 30.03.2020
351 Clouds 18 1020 82 10000 3.6 60 07:23 30.03.2020
352 Clouds 16 1020 93 10000 1.05 32 06:47 30.03.2020
353 Clouds 15 1019 93 10000 1.05 32 06:29 30.03.2020
354 Clear 13 1012 93 0 0.8 5 05:46 30.03.2020
355 Clear 13 1011 93 0 0.8 5 04:40 30.03.2020
356 Clouds 16 1020 93 10000 0.8 5 04:20 30.03.2020
357 Clouds 16 1020 93 10000 0.67 7 03:19 30.03.2020
358 Clouds 17 1020 93 10000 0.9 15 01:59 30.03.2020
359 Clouds 17 1020 93 10000 0.9 15 01:24 30.03.2020
360 Clouds 17 1021 88 10000 0.9 15 00:30 30.03.2020
361 Clouds 17 1021 88 10000 1.36 18 23:59 29.03.2020
362 Clouds 17 1021 88 10000 1.36 18 23:41 29.03.2020
363 Clouds 17 1021 88 10000 1.36 18 23:22 29.03.2020
364 Thunderstorm 18 1021 82 10000 7.2 30 22:56 29.03.2020
365 Thunderstorm 18 1021 82 10000 7.2 30 22:37 29.03.2020
366 Thunderstorm 18 1021 82 10000 7.2 30 22:18 29.03.2020
367 Clouds 18 1020 77 10000 1.36 18 21:40 29.03.2020
368 Clouds 18 1020 77 10000 1.78 49 21:21 29.03.2020
369 Clouds 18 1020 77 10000 1.78 49 20:56 29.03.2020
370 Clouds 17 1021 77 10000 2.6 50 20:38 29.03.2020
371 Clouds 19 1020 68 10000 2.6 60 20:19 29.03.2020
372 Clouds 19 1020 68 10000 2.6 60 19:59 29.03.2020
373 Clouds 19 1020 68 10000 2.6 60 19:41 29.03.2020
374 Clouds 19 1020 68 10000 2.6 60 19:23 29.03.2020
375 Clouds 20 1018 64 10000 5.1 70 18:57 29.03.2020
376 Clouds 20 1018 64 10000 5.1 70 18:39 29.03.2020
377 Clouds 22 1018 64 10000 5.1 70 18:20 29.03.2020
378 Clouds 24 1018 53 10000 5.1 30 17:56 29.03.2020
379 Clouds 24 1019 57 10000 5.7 60 17:38 29.03.2020
380 Clouds 23 1018 47 10000 5.1 70 17:19 29.03.2020
381 Clouds 23 1018 47 10000 5.1 70 16:57 29.03.2020
382 Clouds 23 1018 47 10000 5.1 70 16:38 29.03.2020
383 Clouds 23 1018 47 10000 5.1 70 16:19 29.03.2020
384 Clouds 23 1018 50 10000 5.1 60 15:43 29.03.2020
385 Clouds 25 1018 50 10000 5.1 60 15:25 29.03.2020
386 Clouds 25 1019 47 10000 5.1 70 14:59 29.03.2020
387 Clouds 25 1019 47 10000 5.1 70 14:40 29.03.2020
388 Clouds 25 1019 47 10000 5.1 70 14:20 29.03.2020
389 Clouds 24 1019 53 10000 2.6 70 13:58 29.03.2020
390 Clouds 24 1019 53 10000 2.6 70 13:40 29.03.2020
391 Clouds 25 1019 53 10000 2.6 70 13:21 29.03.2020
392 Clouds 24 1021 44 10000 2.6 90 12:57 29.03.2020
393 Clouds 24 1021 44 10000 2.6 90 12:38 29.03.2020
394 Clouds 24 1021 44 10000 2.6 90 12:19 29.03.2020
395 Clouds 25 1021 44 10000 5.1 60 11:57 29.03.2020
396 Clouds 25 1021 44 10000 5.1 60 11:37 29.03.2020
397 Clouds 23 1021 44 10000 5.1 60 11:19 29.03.2020
398 Clouds 24 1022 57 10000 4.1 20 10:39 29.03.2020
399 Clouds 21 1022 68 10000 3.6 170 10:19 29.03.2020
400 Clouds 21 1022 68 10000 3.6 170 09:54 29.03.2020
401 Clouds 20 1023 68 10000 2.6 190 09:36 29.03.2020
402 Clouds 20 1021 77 10000 0.33 189 09:18 29.03.2020
403 Clouds 19 1021 77 10000 0.66 250 08:41 29.03.2020
404 Clouds 19 1021 77 10000 0.66 250 08:22 29.03.2020
405 Clouds 16 1021 88 10000 0.66 250 07:45 29.03.2020
406 Clouds 16 1021 88 10000 0.66 250 07:23 29.03.2020
407 Clouds 14 1022 93 10000 3.1 290 05:59 29.03.2020
408 Rain 15 1021 93 10000 3.1 280 04:56 29.03.2020
409 Rain 15 1023 93 10000 2.6 70 03:41 29.03.2020
410 Rain 15 1022 93 10000 4.1 50 01:57 29.03.2020
411 Rain 15 1022 93 10000 4.1 50 01:39 29.03.2020
412 Rain 15 1022 93 10000 4.1 50 01:20 29.03.2020
413 Rain 15 1023 93 10000 4.1 20 00:40 29.03.2020
414 Rain 15 1023 93 10000 6.2 30 00:18 29.03.2020
415 Clouds 16 1022 93 10000 2.6 310 23:40 28.03.2020
416 Clouds 16 1022 93 10000 2.6 310 23:40 28.03.2020
417 Clouds 16 1022 93 10000 3.1 270 23:22 28.03.2020
418 Clouds 16 1022 93 10000 3.1 270 22:43 28.03.2020
419 Clouds 16 1022 93 10000 3.1 270 22:22 28.03.2020
420 Rain 16 1022 93 10000 4.1 270 21:57 28.03.2020
421 Clouds 16 1021 93 10000 3.1 300 21:39 28.03.2020
422 Clouds 16 1021 93 10000 3.1 300 21:20 28.03.2020
423 Clouds 16 1021 93 10000 3.1 300 20:57 28.03.2020
424 Clouds 16 1021 93 10000 3.1 300 20:38 28.03.2020
425 Clouds 16 1021 93 10000 3.1 300 20:19 28.03.2020
426 Rain 16 1021 93 10000 2.1 180 19:55 28.03.2020
427 Rain 16 1021 93 10000 2.1 180 19:36 28.03.2020
428 Rain 16 1021 93 10000 2.1 180 19:18 28.03.2020
429 Clouds 17 1020 93 10000 5.1 270 18:42 28.03.2020
430 Clouds 17 1021 82 10000 3.1 300 18:20 28.03.2020
431 Rain 17 1020 82 10000 3.1 290 17:43 28.03.2020
432 Rain 19 1019 77 3000 7.2 200 17:24 28.03.2020
433 Rain 19 1019 77 3000 7.2 200 16:59 28.03.2020
434 Clouds 19 1020 73 10000 6.2 70 16:40 28.03.2020
435 Clouds 21 1018 69 10000 3.1 170 16:18 28.03.2020
436 Clouds 21 1018 69 10000 3.1 170 15:55 28.03.2020
437 Clouds 22 1018 69 10000 3.1 170 15:37 28.03.2020
438 Clouds 22 1018 69 10000 3.1 170 15:18 28.03.2020
439 Clouds 23 1018 50 10000 4.1 90 14:41 28.03.2020
440 Clouds 23 1018 50 10000 4.1 90 14:21 28.03.2020
441 Clouds 23 1018 50 10000 4.1 90 14:21 28.03.2020
442 Clouds 23 1019 50 10000 4.1 100 13:43 28.03.2020
443 Clouds 23 1019 50 10000 4.1 100 13:24 28.03.2020
444 Clouds 23 1020 50 10000 4.1 80 12:57 28.03.2020
445 Clouds 23 1020 50 10000 4.1 80 12:37 28.03.2020
446 Clouds 22 1021 57 10000 4.1 50 12:18 28.03.2020
447 Clouds 22 1021 57 10000 4.1 50 11:41 28.03.2020
448 Clouds 22 1021 57 10000 4.1 50 11:21 28.03.2020
449 Clouds 21 1023 73 10000 3.1 40 10:41 28.03.2020
450 Clouds 21 1023 73 10000 3.1 40 10:22 28.03.2020
451 Clouds 21 1023 64 10000 4.1 300 09:59 28.03.2020
452 Clouds 21 1023 64 10000 4.1 300 09:39 28.03.2020
453 -273 0 0 0 0 0 09:20 28.03.2020
454 Clouds 21 1023 64 10000 1.63 212 08:42 28.03.2020
455 Clouds 21 1023 64 10000 1.86 252 08:23 28.03.2020
456 Clouds 20 1023 68 10000 2.6 270 07:49 28.03.2020
457 Clouds 19 1024 77 10000 1 0 07:31 28.03.2020
458 Clouds 18 1023 82 10000 2.1 250 06:42 28.03.2020
459 Clouds 17 1022 93 10000 5.1 290 06:18 28.03.2020
460 Clouds 16 1022 93 10000 5.1 290 05:24 28.03.2020
461 Clouds 15 1022 87 10000 2.6 230 04:48 28.03.2020
462 Rain 15 1022 93 10000 2.6 250 04:28 28.03.2020
463 Rain 15 1021 93 10000 1.5 250 02:46 28.03.2020
464 Rain 18 1021 93 10000 0.74 270 01:46 28.03.2020
465 Rain 18 1021 93 10000 0.48 327 01:20 28.03.2020
466 Clouds 16 1022 93 10000 0.5 0 00:47 28.03.2020
467 Clouds 16 1022 93 10000 1 0 00:21 28.03.2020
468 Clouds 17 1023 93 10000 2.1 30 23:43 27.03.2020
469 Clouds 17 1023 88 10000 1 10 23:24 27.03.2020
470 Clouds 17 1023 88 10000 1 10 22:57 27.03.2020
471 Clouds 17 1023 93 10000 2.1 10 22:39 27.03.2020
472 Clouds 17 1023 88 10000 2.6 30 22:20 27.03.2020
473 Clouds 17 1023 88 10000 2.6 30 21:57 27.03.2020
474 Clouds 17 1023 88 10000 3.1 40 21:38 27.03.2020
475 Clouds 17 1023 88 10000 3.1 40 21:20 27.03.2020
476 Clouds 17 1023 88 10000 3.1 40 20:55 27.03.2020
477 Clouds 17 1023 88 10000 3.1 40 20:37 27.03.2020
478 Clouds 18 1021 77 10000 1.83 50 20:18 27.03.2020
479 Clouds 18 1021 77 10000 1.83 50 19:42 27.03.2020
480 Clouds 19 1021 77 10000 1.83 50 19:23 27.03.2020
481 Clouds 19 1020 73 10000 2.6 70 18:56 27.03.2020
482 Clouds 19 1020 73 10000 2.6 70 18:38 27.03.2020
483 Clouds 19 1020 73 10000 2.6 70 18:38 27.03.2020
484 Clouds 18 1021 73 10000 4.1 70 18:19 27.03.2020
485 Clouds 19 1020 68 10000 4.6 80 17:40 27.03.2020
486 Clouds 24 1018 57 10000 5.1 90 17:20 27.03.2020
487 Clouds 24 1018 57 10000 5.1 90 16:55 27.03.2020
488 Clouds 24 1019 60 10000 5.1 90 16:37 27.03.2020
489 Clouds 24 1019 60 10000 5.1 90 16:19 27.03.2020
490 Clouds 25 1018 50 10000 5.1 80 15:42 27.03.2020
491 Clouds 25 1018 50 10000 5.1 80 15:24 27.03.2020
492 Clouds 25 1018 50 10000 5.1 80 14:46 27.03.2020
493 Clouds 25 1019 50 10000 2.6 360 14:25 27.03.2020
494 Clouds 25 1019 50 10000 2.6 360 13:57 27.03.2020
495 Clouds 25 1019 50 10000 2.6 360 13:38 27.03.2020
496 Clouds 25 1019 50 10000 2.6 360 13:20 27.03.2020
497 Clouds 24 1020 57 10000 4.1 30 12:57 27.03.2020
498 Clouds 24 1020 57 10000 3.6 50 12:38 27.03.2020
499 Clouds 23 1019 56 10000 5.1 60 12:18 27.03.2020
500 Clouds 23 1019 56 10000 5.1 60 11:41 27.03.2020
501 Clouds 23 1019 56 10000 5.1 60 11:23 27.03.2020
502 Clouds 22 1021 64 10000 2.6 330 10:55 27.03.2020
503 Clouds 22 1021 64 10000 2.6 330 10:37 27.03.2020
504 Clouds 21 1023 68 10000 2.6 40 10:18 27.03.2020
505 Clouds 21 1023 68 10000 2.6 40 09:56 27.03.2020
506 Clouds 21 1023 68 10000 2.6 350 09:37 27.03.2020
507 Clouds 21 1023 68 10000 2.6 350 09:18 27.03.2020
508 Clouds 18 1024 88 10000 1 0 08:56 27.03.2020
509 Rain 24 1013 36 0 2.08 214 08:37 27.03.2020
510 Rain 20 1016 45 0 1.63 276 08:19 27.03.2020
511 Rain 20 1016 46 0 1.39 310 07:50 27.03.2020
512 Clouds 17 1021 93 10000 1.39 310 07:23 27.03.2020
513 Rain 20 1016 46 0 1.39 310 06:51 27.03.2020
514 Rain 20 1016 46 0 1.39 310 06:33 27.03.2020
515 Clouds 16 1022 100 10000 1.78 327 04:23 27.03.2020
516 Clouds 17 1019 93 10000 1.78 327 02:32 27.03.2020
517 Rain 16 1013 59 0 1.36 297 01:23 27.03.2020
518 Rain 17 1012 57 0 0.3 50 00:48 27.03.2020
519 Rain 17 1012 57 0 0.3 50 00:23 27.03.2020
520 Rain 17 1012 57 0 0.3 50 23:44 26.03.2020
521 Rain 17 1021 93 10000 2.1 330 23:22 26.03.2020
522 Rain 17 1021 93 10000 2.1 330 22:58 26.03.2020
523 Rain 17 1021 93 10000 2.1 330 22:38 26.03.2020
524 Rain 17 1021 93 10000 2.1 330 22:19 26.03.2020
525 Rain 17 1022 93 10000 2.6 200 21:56 26.03.2020
526 Rain 17 1022 93 10000 2.6 190 21:37 26.03.2020
527 Thunderstorm 17 1019 93 10000 1.17 36 21:18 26.03.2020
528 Thunderstorm 17 1019 93 10000 1.17 36 20:56 26.03.2020
529 Thunderstorm 17 1019 93 10000 1.17 36 20:37 26.03.2020
530 Thunderstorm 17 1019 93 10000 1.96 62 20:19 26.03.2020
531 Rain 18 1020 93 10000 2.1 210 19:54 26.03.2020
532 Rain 18 1020 93 10000 2.1 160 19:36 26.03.2020
533 Thunderstorm 18 1018 93 10000 3.6 160 19:18 26.03.2020
534 Thunderstorm 18 1018 93 10000 1.5 180 18:41 26.03.2020
535 Thunderstorm 18 1018 93 10000 1.5 180 18:23 26.03.2020
536 Thunderstorm 17 1018 93 10000 5.7 310 17:55 26.03.2020
537 Thunderstorm 17 1017 93 3000 7.2 330 17:37 26.03.2020
538 Rain 22 1008 46 0 3.55 77 17:18 26.03.2020
539 Rain 22 1008 46 0 3.55 77 16:40 26.03.2020
540 Clouds 25 1014 57 10000 7.2 130 16:21 26.03.2020
541 Clouds 25 1014 57 10000 7.2 130 15:57 26.03.2020
542 Clouds 25 1014 57 10000 7.2 130 15:57 26.03.2020
543 Rain 22 1008 46 0 3.55 77 15:39 26.03.2020
544 -273 0 0 0 0 0 15:20 26.03.2020
545 Clouds 27 1014 44 10000 4.1 140 14:57 26.03.2020
546 Rain 22 1008 46 0 3.55 77 14:37 26.03.2020
547 Clouds 28 1014 51 10000 2.59 108 14:18 26.03.2020
548 Clouds 29 1015 45 10000 2.6 0 13:41 26.03.2020
549 Clouds 27 1016 50 10000 2.6 180 13:22 26.03.2020
550 Clouds 27 1016 50 10000 2.6 180 12:56 26.03.2020
551 Clouds 27 1017 51 10000 2.6 0 12:37 26.03.2020
552 Clouds 26 1017 50 10000 5.1 190 12:18 26.03.2020
553 Clouds 26 1018 54 10000 2.1 0 11:44 26.03.2020
554 Clouds 25 1018 57 10000 5.1 240 11:20 26.03.2020
555 Clouds 25 1018 57 10000 5.1 240 10:55 26.03.2020
556 Clouds 25 1019 61 10000 3.1 210 10:36 26.03.2020
557 Clouds 25 1019 57 10000 5.1 210 10:18 26.03.2020
558 Clouds 24 1019 57 10000 5.1 210 09:42 26.03.2020
559 Clouds 24 1019 57 10000 5.1 210 09:19 26.03.2020
560 Clouds 23 1020 64 10000 1 127 08:46 26.03.2020
561 Clouds 23 1021 73 10000 1.5 0 08:27 26.03.2020
562 Clouds 22 1020 73 10000 1 0 07:58 26.03.2020
563 Clouds 21 1020 83 10000 3.1 220 07:40 26.03.2020
564 Clouds 20 1019 93 10000 0.87 343 07:20 26.03.2020
565 Clouds 20 1019 93 10000 0.87 343 06:46 26.03.2020
566 Clouds 18 1018 93 10000 0.87 343 05:52 26.03.2020
567 Clouds 18 1018 93 10000 2.1 60 03:58 26.03.2020
568 Clouds 18 1018 93 10000 2.1 60 03:35 26.03.2020
569 Clouds 18 1019 88 10000 0.42 33 02:53 26.03.2020
570 Clouds 18 1018 88 10000 3.6 40 01:44 26.03.2020
571 Clouds 18 1018 88 10000 3.1 30 00:43 26.03.2020
572 Clouds 19 1019 88 10000 2.6 10 23:45 25.03.2020
573 Clouds 19 1019 93 10000 2.6 30 23:27 25.03.2020
574 Clouds 19 1019 93 10000 2.6 30 22:58 25.03.2020
575 Clouds 19 1019 88 10000 3.1 20 22:38 25.03.2020
576 Clouds 19 1018 93 10000 4.1 20 22:19 25.03.2020
577 Clouds 19 1018 93 10000 4.1 20 21:55 25.03.2020
578 Clouds 20 1019 82 10000 3.1 30 21:37 25.03.2020
579 Clouds 20 1018 82 10000 2.6 60 21:18 25.03.2020
580 Clouds 20 1018 82 10000 2.6 60 21:18 25.03.2020
581 Clouds 20 1019 82 10000 3.1 30 20:40 25.03.2020
582 Clouds 21 1017 77 10000 5.1 70 20:20 25.03.2020
583 Clouds 21 1017 77 10000 5.1 70 19:59 25.03.2020
584 Clouds 20 1018 82 10000 3.1 60 19:41 25.03.2020
585 Clouds 20 1016 88 10000 3.1 60 19:21 25.03.2020
586 Clouds 20 1016 88 10000 3.1 60 18:56 25.03.2020
587 Clouds 21 1017 73 10000 4.1 60 18:37 25.03.2020
588 Clouds 21 1015 83 10000 2.24 82 18:19 25.03.2020
589 Clouds 20 1016 82 10000 2.1 250 17:42 25.03.2020
590 Clouds 21 1015 73 10000 2.24 82 17:23 25.03.2020
591 Clouds 22 1015 73 10000 3.82 116 16:59 25.03.2020
592 Clouds 22 1015 73 10000 2.6 140 16:41 25.03.2020
593 Clouds 22 1015 73 10000 2.6 140 16:21 25.03.2020
594 Clouds 20 1015 82 10000 3.6 170 15:55 25.03.2020
595 Clouds 20 1015 82 10000 3.6 170 15:37 25.03.2020
596 Clouds 18 1015 88 10000 7.2 160 15:18 25.03.2020
597 Clouds 19 1016 88 10000 8.2 200 14:40 25.03.2020
598 Clouds 20 1015 83 10000 5.1 210 14:21 25.03.2020
599 Clouds 20 1015 83 10000 5.1 210 13:46 25.03.2020
600 Rain 27 1016 44 10000 3.1 80 13:25 25.03.2020
601 Rain 27 1016 44 10000 3.1 80 12:55 25.03.2020
602 Clouds 27 1017 47 10000 3.6 90 12:37 25.03.2020
603 Clouds 26 1018 50 10000 2.1 120 12:18 25.03.2020
604 Clouds 26 1018 50 10000 2.1 120 11:41 25.03.2020
605 Clouds 26 1019 53 10000 5.1 80 11:21 25.03.2020
606 Clouds 26 1018 50 10000 2.1 120 11:21 25.03.2020
607 Clouds 26 1019 53 10000 5.1 80 10:59 25.03.2020
608 Clouds 26 1019 54 10000 2.1 150 10:40 25.03.2020
609 Clouds 25 1019 57 10000 2.6 210 10:19 25.03.2020
610 Clouds 24 1019 57 10000 2.6 210 09:59 25.03.2020
611 Clouds 24 1019 57 10000 2.6 210 09:40 25.03.2020
612 Clouds 24 1019 57 10000 2.6 210 09:22 25.03.2020
613 Clouds 23 1019 64 10000 2.6 120 08:54 25.03.2020
614 Clouds 23 1020 69 10000 1.5 80 08:36 25.03.2020
615 Clouds 22 1020 68 10000 4.1 30 08:18 25.03.2020
616 Clouds 21 1020 77 10000 1 0 07:39 25.03.2020
617 Clouds 20 1019 77 10000 0.57 25 07:19 25.03.2020
618 Clouds 19 1020 88 10000 2.1 30 06:45 25.03.2020
619 Clouds 18 1019 88 10000 0.57 25 06:25 25.03.2020
620 Mist 18 1020 93 4000 2.6 30 05:50 25.03.2020
621 Clouds 17 1019 93 10000 1.21 22 04:59 25.03.2020
622 Clouds 18 1019 93 10000 1 0 04:39 25.03.2020
623 Clouds 18 1019 93 10000 0.5 0 03:35 25.03.2020
624 Clouds 16 1019 93 10000 2.1 290 01:57 25.03.2020
625 Clouds 16 1019 93 10000 2.6 250 01:20 25.03.2020
626 Clouds 16 1019 93 10000 3.1 230 00:47 25.03.2020
627 Clouds 17 1019 93 10000 1.01 23 00:19 25.03.2020
628 Clouds 17 1020 88 10000 2.1 200 23:45 24.03.2020
629 Clouds 17 1020 88 10000 2.1 200 23:25 24.03.2020
630 Clouds 18 1020 88 10000 2.1 230 22:56 24.03.2020
631 Clouds 19 1020 88 10000 2.1 50 22:37 24.03.2020
632 Clouds 19 1020 88 10000 2.1 50 22:19 24.03.2020
633 Clouds 19 1020 88 10000 2.1 50 21:55 24.03.2020
634 Clouds 19 1021 88 10000 2.6 50 21:36 24.03.2020
635 Clouds 20 1020 73 10000 2.6 90 21:18 24.03.2020
636 Clouds 19 1020 88 10000 2.6 60 20:43 24.03.2020
637 Clouds 19 1020 88 10000 2.1 40 20:24 24.03.2020
638 Clouds 19 1020 88 10000 2.1 40 19:57 24.03.2020
639 Clouds 20 1019 82 10000 3.6 80 19:39 24.03.2020
640 Clouds 21 1018 73 10000 5.1 90 19:18 24.03.2020
641 Clouds 21 1018 73 10000 5.1 90 18:55 24.03.2020
642 Clouds 21 1018 73 10000 5.1 90 18:36 24.03.2020
643 Clouds 21 1018 73 10000 5.1 90 18:18 24.03.2020
644 Clouds 22 1017 64 10000 5.1 80 17:42 24.03.2020
645 Clouds 22 1017 64 10000 5.1 80 17:22 24.03.2020
646 Clouds 22 1018 68 10000 4.6 80 16:58 24.03.2020
647 Clouds 23 1017 64 10000 5.1 90 16:39 24.03.2020
648 Clouds 23 1017 64 10000 5.1 90 16:21 24.03.2020
649 Clouds 22 1017 57 10000 8.7 90 15:57 24.03.2020
650 Clouds 23 1017 57 10000 8.7 90 15:37 24.03.2020
651 Clouds 24 1017 57 10000 8.7 90 15:19 24.03.2020
652 Clouds 24 1017 47 10000 6.7 70 14:42 24.03.2020
653 Clouds 27 1018 47 10000 6.2 70 14:19 24.03.2020
654 Clouds 26 1018 54 10000 5.1 60 13:43 24.03.2020
655 Clouds 26 1018 54 10000 5.1 60 13:24 24.03.2020
656 Clouds 26 1018 54 10000 6.2 60 12:55 24.03.2020
657 Clouds 27 1019 51 10000 4.1 100 12:37 24.03.2020
658 Clouds 26 1020 47 10000 2.6 90 12:18 24.03.2020
659 Clouds 26 1020 47 10000 2.6 90 11:39 24.03.2020
660 Clouds 25 1021 50 10000 3.1 60 11:20 24.03.2020
661 Clouds 25 1020 50 10000 4.1 40 10:43 24.03.2020
662 Clouds 24 1021 64 10000 2.6 360 10:20 24.03.2020
663 Clouds 24 1021 64 10000 2.6 360 09:59 24.03.2020
664 Clouds 23 1021 57 10000 4.1 70 09:41 24.03.2020
665 Clouds 23 1021 57 10000 4.1 70 09:22 24.03.2020
666 Clouds 22 1021 64 10000 2.6 30 08:39 24.03.2020
667 Clouds 22 1021 64 10000 2.6 30 08:21 24.03.2020
668 Clouds 21 1022 68 10000 3.6 80 07:50 24.03.2020
669 Clouds 19 1021 77 10000 3.1 70 07:25 24.03.2020
670 Clouds 19 1022 82 10000 2.1 60 06:58 24.03.2020
671 Clouds 18 1021 88 10000 1.14 171 06:32 24.03.2020
672 Clouds 16 1022 93 10000 1 0 05:29 24.03.2020
673 Clouds 17 1021 63 10000 0.65 269 04:41 24.03.2020
674 Clouds 17 1021 93 10000 1 350 03:19 24.03.2020
675 Clouds 17 1021 93 10000 1.02 127 01:59 24.03.2020
676 Clouds 16 1021 93 10000 1.5 320 00:52 24.03.2020
677 Clouds 17 1021 93 10000 2.1 30 00:26 24.03.2020
678 Clouds 17 1022 93 10000 2.1 40 23:50 23.03.2020
679 Clouds 18 1022 93 10000 2.1 50 23:29 23.03.2020
680 Clouds 18 1022 88 10000 2.1 40 22:59 23.03.2020
681 Clouds 17 1022 88 10000 1 20 22:40 23.03.2020
682 Clouds 18 1022 88 10000 1 20 22:22 23.03.2020
683 Clouds 17 1022 77 10000 2.6 60 21:44 23.03.2020
684 Clouds 18 1022 77 10000 3.1 70 21:21 23.03.2020
685 Clouds 18 1022 77 10000 3.1 70 21:00 23.03.2020
686 Clouds 18 1022 77 10000 2.6 80 20:41 23.03.2020
687 Clouds 19 1022 77 10000 2.6 80 20:23 23.03.2020
688 Clouds 19 1021 77 10000 1.5 60 19:55 23.03.2020
689 Clouds 19 1021 77 10000 2.1 70 19:37 23.03.2020
690 Clouds 20 1021 73 10000 2.1 80 19:18 23.03.2020
691 Clouds 20 1020 64 10000 3.1 80 18:43 23.03.2020
692 Clouds 20 1020 64 10000 3.1 80 18:24 23.03.2020
693 Clouds 21 1020 60 10000 4.1 90 17:58 23.03.2020
694 Clouds 21 1019 64 10000 5.1 70 17:39 23.03.2020
695 Clouds 21 1019 60 10000 5.7 80 17:19 23.03.2020
696 Clouds 22 1019 53 10000 7.2 90 16:43 23.03.2020
697 Clouds 23 1019 53 10000 7.2 90 16:25 23.03.2020
698 Clouds 25 1018 42 10000 9.3 70 15:44 23.03.2020
699 Clouds 23 1019 44 10000 5.7 70 15:21 23.03.2020
700 Clouds 24 1019 44 10000 5.7 70 14:57 23.03.2020
701 Clouds 24 1019 44 10000 6.2 60 14:37 23.03.2020
702 Clouds 26 1019 44 10000 6.2 60 14:18 23.03.2020
703 Clouds 27 1019 42 10000 5.7 50 13:54 23.03.2020
704 Clouds 27 1019 42 10000 5.7 50 13:54 23.03.2020
705 Clouds 27 1019 39 10000 6.2 60 13:36 23.03.2020
706 Clouds 27 1019 39 10000 6.2 60 13:36 23.03.2020
707 Clouds 26 1019 39 10000 6.2 60 13:18 23.03.2020
708 Clouds 26 1019 34 10000 6.2 60 12:41 23.03.2020
709 Clouds 25 1021 44 10000 5.1 40 12:22 23.03.2020
710 Clouds 25 1022 50 10000 4.1 50 11:55 23.03.2020
711 Clouds 25 1022 50 10000 4.1 50 11:37 23.03.2020
712 Clouds 24 1022 53 10000 4.6 60 11:18 23.03.2020
713 Clouds 24 1023 53 10000 3.1 80 10:41 23.03.2020
714 Clouds 24 1023 57 10000 2.6 0 10:23 23.03.2020
715 Clouds 24 1023 57 10000 2.6 0 09:59 23.03.2020
716 Clouds 23 1023 69 10000 1.5 100 09:40 23.03.2020
717 Clouds 22 1023 69 10000 1.5 100 09:19 23.03.2020
718 Clouds 21 1024 68 10000 1.5 0 08:38 23.03.2020
719 Clouds 20 1024 68 10000 1.5 0 08:19 23.03.2020
720 Clouds 20 1024 73 10000 1.5 50 07:51 23.03.2020
721 Clouds 20 1023 77 10000 2.1 50 07:33 23.03.2020
722 Clouds 18 1024 77 10000 2.1 300 06:55 23.03.2020
723 Clouds 17 1023 88 10000 2.1 40 06:33 23.03.2020
724 Clouds 15 1021 93 10000 1.35 36 05:44 23.03.2020
725 Fog 14 1022 100 800 1 0 03:54 23.03.2020
726 Clouds 16 1020 82 10000 3.6 100 02:44 23.03.2020
727 Clouds 16 1020 87 10000 2.1 100 01:50 23.03.2020
728 Clouds 16 1021 82 10000 2.1 310 00:46 23.03.2020
729 Clouds 16 1021 82 10000 3.1 340 00:26 23.03.2020
730 Clouds 17 1022 82 10000 2.6 350 23:42 22.03.2020
731 Clouds 17 1022 82 10000 2.6 350 23:24 22.03.2020
732 Clouds 18 1021 77 10000 1.18 80 22:42 22.03.2020
733 Clouds 18 1021 72 10000 2.6 10 22:21 22.03.2020
734 Clouds 18 1021 72 10000 2.6 10 21:41 22.03.2020
735 Clouds 18 1021 72 10000 2.6 10 21:23 22.03.2020
736 Clouds 18 1022 77 10000 1.5 340 20:59 22.03.2020
737 Clouds 18 1021 68 10000 2.6 40 20:40 22.03.2020
738 Clouds 19 1021 68 10000 2.6 40 20:22 22.03.2020
739 Clouds 18 1022 77 10000 1.5 80 19:56 22.03.2020
740 Clouds 19 1021 64 10000 3.1 90 19:38 22.03.2020
741 Clouds 19 1021 64 10000 3.1 90 19:19 22.03.2020
742 Clouds 20 1021 72 10000 3.6 80 18:58 22.03.2020
743 Clouds 20 1020 60 10000 5.1 70 18:40 22.03.2020
744 Clouds 20 1020 60 10000 5.1 70 18:21 22.03.2020
745 Clouds 20 1021 64 10000 4.6 90 17:57 22.03.2020
746 Clouds 21 1020 53 10000 5.1 90 17:38 22.03.2020
747 Clouds 23 1020 56 10000 5.1 70 17:20 22.03.2020
748 Clouds 23 1020 56 10000 5.1 70 16:57 22.03.2020
749 Clouds 25 1020 47 10000 5.1 70 16:39 22.03.2020
750 Clouds 25 1020 47 10000 5.1 70 16:39 22.03.2020
751 Clouds 25 1020 47 10000 5.1 70 16:20 22.03.2020
752 Clouds 24 1019 41 10000 5.1 80 15:40 22.03.2020
753 Clouds 24 1019 41 10000 5.1 80 15:20 22.03.2020
754 Clouds 24 1019 39 10000 6.7 50 14:46 22.03.2020
755 Clouds 24 1019 39 10000 6.7 50 14:46 22.03.2020
756 Clouds 26 1019 39 10000 6.7 50 14:19 22.03.2020
757 Clouds 26 1019 39 10000 6.7 50 14:19 22.03.2020
758 Clouds 26 1019 36 10000 8.7 90 13:44 22.03.2020
759 Clouds 26 1019 36 10000 8.7 90 13:20 22.03.2020
760 Clouds 26 1019 36 10000 8.7 90 13:20 22.03.2020
761 Clouds 25 1021 47 10000 6.2 60 12:59 22.03.2020
762 Clouds 24 1020 41 10000 6.7 70 12:41 22.03.2020
763 Clouds 24 1022 53 10000 5.7 70 12:19 22.03.2020
764 Clouds 24 1021 44 10000 7.7 90 11:43 22.03.2020
765 Clouds 25 1021 44 10000 7.7 90 11:25 22.03.2020
766 Clouds 23 1023 56 10000 4.6 70 10:58 22.03.2020
767 Clouds 24 1022 47 10000 3.6 60 10:40 22.03.2020
768 Clouds 23 1022 47 10000 3.6 60 10:22 22.03.2020
769 Clouds 22 1024 56 10000 4.6 70 09:46 22.03.2020
770 Clouds 22 1023 60 10000 6.2 30 09:27 22.03.2020
771 Clouds 20 1024 73 10000 4.1 60 08:48 22.03.2020
772 Clouds 20 1023 72 10000 4.6 70 08:30 22.03.2020
773 Clouds 19 1024 82 10000 4.1 60 07:55 22.03.2020
774 Clouds 17 1023 88 10000 3.6 50 07:37 22.03.2020
775 Clouds 17 1021 88 10000 4.1 60 06:41 22.03.2020
776 Clouds 16 1021 93 10000 2.6 60 05:51 22.03.2020
777 Clouds 16 1021 93 10000 2.6 80 04:39 22.03.2020
778 Clouds 15 1021 87 10000 3.1 40 01:47 22.03.2020
779 Clouds 15 1021 93 10000 1 50 00:50 22.03.2020
780 Clouds 16 1021 88 10000 1.44 57 00:31 22.03.2020
781 Clouds 15 1021 82 10000 2.1 350 23:46 21.03.2020
782 Clouds 15 1021 82 10000 2.1 20 23:22 21.03.2020
783 Clouds 15 1021 82 10000 2.1 50 22:59 21.03.2020
784 Clouds 15 1021 77 10000 3.6 100 22:38 21.03.2020
785 Clouds 16 1021 77 10000 3.6 100 22:38 21.03.2020
786 Clouds 17 1021 77 10000 3.6 100 22:20 21.03.2020
787 Clouds 17 1021 77 10000 4.6 100 21:58 21.03.2020
788 Clouds 15 1021 82 10000 4.6 90 21:38 21.03.2020
789 Clouds 16 1021 82 10000 4.6 90 21:20 21.03.2020
790 Clouds 16 1021 82 10000 4.6 80 20:43 21.03.2020
791 Clouds 17 1021 82 10000 4.6 80 20:22 21.03.2020
792 Clouds 17 1021 77 10000 5.1 80 19:56 21.03.2020
793 Clouds 17 1020 77 10000 4.6 90 19:38 21.03.2020
794 Clouds 18 1020 77 10000 4.6 90 19:19 21.03.2020
795 Clouds 18 1021 77 10000 3.6 90 18:54 21.03.2020
796 Clouds 19 1019 68 10000 5.1 90 18:36 21.03.2020
797 Clouds 19 1020 64 10000 5.7 100 18:18 21.03.2020
798 Clouds 19 1020 60 10000 6.2 100 17:42 21.03.2020
799 Clouds 23 1019 53 10000 7.2 100 17:22 21.03.2020
800 Clouds 24 1018 50 10000 6.2 70 16:43 21.03.2020
801 Clouds 24 1018 50 10000 6.2 70 16:43 21.03.2020
802 Clouds 23 1018 50 10000 6.2 70 16:24 21.03.2020
803 Clouds 23 1018 50 10000 6.2 70 16:24 21.03.2020
804 Clouds 23 1019 47 10000 7.2 90 15:59 21.03.2020
805 Clouds 23 1019 47 10000 6.7 90 15:41 21.03.2020
806 Clouds 23 1019 47 10000 6.7 90 15:23 21.03.2020
807 Clouds 23 1019 47 10000 7.2 90 14:57 21.03.2020
808 Clouds 24 1019 44 10000 7.7 90 14:39 21.03.2020
809 Clouds 26 1019 44 10000 7.7 90 14:20 21.03.2020
810 Clouds 26 1018 41 10000 8.7 60 13:58 21.03.2020
811 Clouds 26 1018 41 10000 8.7 60 13:39 21.03.2020
812 Clouds 26 1018 41 10000 8.7 60 13:21 21.03.2020
813 Clouds 26 1010 39 0 6.32 76 12:58 21.03.2020
814 Clouds 26 1010 39 0 6.32 76 12:37 21.03.2020
815 Clouds 26 1010 39 0 6.32 76 12:19 21.03.2020
816 Clouds 26 1010 39 0 6.32 76 11:55 21.03.2020
817 Clouds 26 1010 39 0 6.32 76 11:37 21.03.2020
818 Clouds 25 1014 43 0 5.91 71 11:18 21.03.2020
819 Clouds 25 1014 43 0 5.91 71 10:56 21.03.2020
820 Clouds 25 1014 43 0 5.91 71 10:38 21.03.2020
821 Clouds 20 1010 62 0 2.24 345 10:19 21.03.2020
822 Clouds 25 1014 43 0 5.91 71 09:55 21.03.2020
823 Clouds 25 1014 43 0 5.91 71 09:36 21.03.2020
824 Clouds 25 1014 43 0 5.91 71 09:18 21.03.2020
825 Clouds 25 1014 43 0 5.91 71 08:41 21.03.2020
826 Clouds 25 1014 45 0 5.75 71 08:23 21.03.2020
827 Clouds 20 1017 74 0 2.77 64 07:42 21.03.2020
828 Clouds 19 1022 88 10000 5.1 70 07:23 21.03.2020
829 Clouds 19 1022 88 10000 5.1 70 06:46 21.03.2020
830 Clouds 19 1022 88 10000 5.1 70 06:27 21.03.2020
831 Clouds 18 1020 93 0 5.1 90 05:46 21.03.2020
832 Clouds 18 1020 93 0 4.1 80 04:46 21.03.2020
833 Clouds 15 1016 96 0 1.29 70 02:48 21.03.2020
834 Clouds 15 1016 96 0 1.29 70 02:30 21.03.2020
835 Clouds 16 1014 95 0 1.47 71 01:32 21.03.2020
836 Clouds 16 1014 95 0 1.47 71 00:48 21.03.2020
837 Clouds 16 1014 95 0 1.47 71 00:25 21.03.2020
838 Clouds 16 1014 95 0 1.47 71 23:49 20.03.2020
839 Clouds 19 1021 88 10000 5.1 50 23:26 20.03.2020
840 Clouds 19 1021 88 10000 5.1 50 22:57 20.03.2020
841 Clouds 19 1021 88 10000 5.1 50 22:39 20.03.2020
842 Clouds 19 1021 88 10000 5.1 50 22:20 20.03.2020
843 Clouds 19 1021 82 10000 2.1 60 21:55 20.03.2020
844 Clouds 19 1021 82 10000 2.1 60 21:37 20.03.2020
845 Clouds 19 1021 82 10000 2.1 60 21:18 20.03.2020
846 Clouds 18 1022 88 10000 4.1 50 20:55 20.03.2020
847 Clouds 16 1010 84 0 5.36 99 20:37 20.03.2020
848 Clouds 16 1010 86 0 3.13 105 20:18 20.03.2020
849 Clouds 16 1011 84 0 2.68 119 19:44 20.03.2020
850 Clouds 16 1010 84 0 3.13 82 19:18 20.03.2020
851 Clouds 18 1020 73 10000 4.6 50 18:54 20.03.2020
852 Clouds 19 1020 73 10000 4.6 50 18:36 20.03.2020
853 Clouds 20 1020 73 10000 4.6 50 18:18 20.03.2020
854 Clouds 20 1020 73 10000 4.6 50 18:18 20.03.2020
855 Clouds 21 1019 68 10000 9.3 70 17:39 20.03.2020
856 Clouds 23 1019 68 10000 5.1 80 17:21 20.03.2020
857 Clouds 23 1019 68 10000 5.1 80 16:57 20.03.2020
858 Clouds 22 1019 57 10000 9.3 80 16:39 20.03.2020
859 Clouds 22 1019 57 10000 9.3 80 16:39 20.03.2020
860 Clouds 23 1019 57 10000 9.3 80 16:18 20.03.2020
861 Clouds 24 1018 53 10000 6.2 70 15:42 20.03.2020
862 Clouds 24 1018 53 10000 6.2 70 15:21 20.03.2020
863 Clouds 24 1019 57 10000 6.2 100 14:55 20.03.2020
864 Clouds 24 1018 57 10000 4.1 80 14:37 20.03.2020
865 Clouds 25 1018 57 10000 4.1 80 14:18 20.03.2020
866 Rain 24 1019 53 10000 9.3 90 13:42 20.03.2020
867 Clouds 24 1020 50 10000 5.7 60 13:19 20.03.2020
868 Clouds 26 1020 50 10000 5.7 50 12:40 20.03.2020
869 Clouds 25 1021 57 10000 5.7 70 12:22 20.03.2020
870 Clouds 25 1021 57 10000 5.7 70 11:57 20.03.2020
871 Clouds 24 1021 60 10000 5.7 60 11:38 20.03.2020
872 Clouds 25 1022 61 10000 5.7 60 11:19 20.03.2020
873 Clouds 24 1022 53 10000 7.2 90 10:41 20.03.2020
874 Clouds 24 1022 53 10000 7.2 90 10:21 20.03.2020
875 Clouds 23 1023 64 10000 5.1 60 09:57 20.03.2020
876 Clouds 23 1022 64 10000 5.1 80 09:39 20.03.2020
877 Clouds 22 1022 64 10000 5.1 80 09:19 20.03.2020
878 Clouds 20 1022 77 10000 6.2 70 08:42 20.03.2020
879 Clouds 20 1022 77 10000 6.2 70 08:22 20.03.2020
880 Clouds 19 1023 82 10000 4.6 80 07:54 20.03.2020
881 Clouds 19 1022 88 10000 5.1 80 07:36 20.03.2020
882 Clouds 18 1023 93 10000 4.1 70 07:18 20.03.2020
883 Clouds 18 1021 93 10000 4.1 80 06:41 20.03.2020
884 Fog 16 1021 100 900 3.6 90 04:51 20.03.2020
885 Mist 16 1021 100 2000 3.6 90 03:22 20.03.2020
886 Clouds 16 1020 93 10000 2.6 20 01:58 20.03.2020
887 Clouds 17 1021 93 10000 3.1 30 00:59 20.03.2020
888 Clouds 17 1021 93 10000 3.1 30 00:30 20.03.2020
889 Clouds 17 1022 93 10000 2.1 20 23:47 19.03.2020
890 Clouds 17 1022 93 10000 2.1 20 23:28 19.03.2020
891 Clouds 17 1022 93 10000 1.5 10 22:57 19.03.2020
892 Clouds 18 1022 88 10000 2.1 50 22:38 19.03.2020
893 Clouds 18 1022 88 10000 2.1 50 22:20 19.03.2020
894 Clouds 18 1023 88 10000 3.1 40 21:42 19.03.2020
895 Clouds 18 1022 88 10000 1.5 40 21:20 19.03.2020
896 Clouds 18 1023 88 10000 3.1 60 20:59 19.03.2020
897 Clouds 18 1021 82 10000 4.1 70 20:41 19.03.2020
898 Clouds 19 1021 82 10000 4.1 70 20:23 19.03.2020
899 Clouds 18 1023 82 10000 3.6 50 19:55 19.03.2020
900 Clouds 18 1022 82 10000 4.6 70 19:37 19.03.2020
901 Clouds 19 1022 82 10000 4.6 70 19:19 19.03.2020
902 Clouds 18 1021 52 10000 3.1 60 18:55 19.03.2020
903 Clouds 19 1021 52 10000 3.1 60 18:37 19.03.2020
904 Clouds 19 1021 52 10000 3.1 60 18:37 19.03.2020
905 Clouds 20 1021 52 10000 3.1 60 18:19 19.03.2020
906 Clouds 20 1020 68 10000 6.2 80 17:41 19.03.2020
907 Clouds 22 1020 73 10000 4.6 70 17:19 19.03.2020
908 Clouds 21 1019 60 10000 5.1 70 16:44 19.03.2020
909 Clouds 21 1019 60 10000 5.1 70 16:24 19.03.2020
910 Clouds 22 1019 60 10000 5.1 70 16:24 19.03.2020
911 Clouds 23 1019 53 10000 9.3 90 15:54 19.03.2020
912 Clouds 23 1019 53 10000 9.3 90 15:36 19.03.2020
913 Clouds 23 1019 53 10000 9.3 90 15:18 19.03.2020
914 Clouds 24 1019 47 10000 4.1 70 14:42 19.03.2020
915 Clouds 25 1019 47 10000 4.1 70 14:21 19.03.2020
916 Clouds 26 1019 47 10000 5.1 80 13:41 19.03.2020
917 Clouds 26 1019 47 10000 5.1 80 13:19 19.03.2020
918 Clouds 25 1021 50 10000 5.7 60 12:57 19.03.2020
919 Clouds 24 1021 53 10000 5.1 70 12:39 19.03.2020
920 Clouds 24 1021 53 10000 5.1 70 12:20 19.03.2020
921 Clouds 24 1022 57 10000 5.1 50 11:42 19.03.2020
922 Clouds 24 1022 57 10000 5.1 50 11:23 19.03.2020
923 Clouds 23 1023 60 10000 4.6 70 10:57 19.03.2020
924 Clouds 23 1023 64 10000 4.1 80 10:38 19.03.2020
925 Clouds 22 1023 69 10000 4.6 60 10:19 19.03.2020
926 Clouds 22 1023 69 10000 4.6 60 09:45 19.03.2020
927 Clouds 22 1023 68 10000 5.1 60 09:27 19.03.2020
928 Clouds 20 1024 77 10000 4.1 50 08:58 19.03.2020
929 Clouds 20 1023 72 10000 4.1 30 08:40 19.03.2020
930 Clouds 20 1023 72 10000 4.1 30 08:19 19.03.2020
931 Clouds 18 1023 72 10000 2.1 60 07:44 19.03.2020
932 Clouds 18 1023 72 10000 2.1 60 07:23 19.03.2020
933 Clouds 16 1022 88 10000 3.04 40 06:34 19.03.2020
934 Clouds 15 1023 93 10000 3.1 20 05:47 19.03.2020
935 Rain 15 1022 93 10000 6.7 10 04:53 19.03.2020
936 Rain 15 1021 93 10000 2.6 20 04:34 19.03.2020
937 Clouds 17 1021 93 10000 7.2 10 02:34 19.03.2020
938 Clouds 17 1021 88 10000 3.1 80 00:57 19.03.2020
939 Clouds 17 1021 88 10000 1 30 00:22 19.03.2020
940 Clouds 17 1021 88 10000 1 360 23:48 18.03.2020
941 Clouds 17 1021 88 10000 1 360 23:27 18.03.2020
942 Clouds 17 1021 88 10000 3.33 40 22:44 18.03.2020
943 Clouds 17 1021 88 10000 3.33 40 22:24 18.03.2020
944 Clouds 18 1022 88 10000 2.1 60 21:59 18.03.2020
945 Clouds 17 1022 88 10000 3.1 50 21:41 18.03.2020
946 Clouds 18 1022 88 10000 3.1 50 21:21 18.03.2020
947 Clouds 18 1022 82 10000 2.1 30 20:57 18.03.2020
948 Clouds 19 1021 77 10000 3.33 40 20:39 18.03.2020
949 Rain 19 1021 77 10000 4.16 63 20:20 18.03.2020
950 Clouds 19 1022 82 10000 4.6 50 19:56 18.03.2020
951 Clouds 19 1022 82 10000 4.6 50 19:56 18.03.2020
952 Clouds 19 1021 77 10000 3.6 30 19:36 18.03.2020
953 Clouds 19 1021 77 10000 3.1 60 19:18 18.03.2020
954 Clouds 20 1020 68 10000 8.2 30 18:41 18.03.2020
955 Clouds 19 1021 82 10000 3.6 70 18:20 18.03.2020
956 Clouds 20 1020 77 10000 4.1 80 17:58 18.03.2020
957 Clouds 21 1019 64 10000 5.7 80 17:39 18.03.2020
958 Clouds 22 1019 64 10000 5.7 80 17:21 18.03.2020
959 Clouds 23 1019 64 10000 6.2 80 16:55 18.03.2020
960 Clouds 23 1019 53 10000 7.2 70 16:37 18.03.2020
961 Clouds 23 1019 53 10000 7.2 70 16:19 18.03.2020
962 Clouds 23 1018 47 10000 8.2 80 15:44 18.03.2020
963 Clouds 24 1018 47 10000 8.2 80 15:20 18.03.2020
964 Clouds 25 1017 41 10000 10.3 80 14:45 18.03.2020
965 Clouds 27 1018 44 10000 7.2 70 14:22 18.03.2020
966 Clouds 25 1018 44 10000 7.2 70 13:58 18.03.2020
967 Clouds 26 1018 47 10000 6.7 50 13:36 18.03.2020
968 Clouds 26 1018 44 10000 8.2 40 13:18 18.03.2020
969 Clouds 25 1020 57 10000 6.2 70 12:41 18.03.2020
970 Clouds 25 1020 57 10000 6.2 70 12:19 18.03.2020
971 Clouds 26 1020 47 10000 5.1 60 11:40 18.03.2020
972 Clouds 24 1022 61 10000 5.7 70 11:21 18.03.2020
973 Clouds 24 1022 61 10000 5.7 70 10:58 18.03.2020
974 Clouds 23 1022 64 10000 5.1 60 10:39 18.03.2020
975 Clouds 23 1022 64 10000 5.1 60 10:20 18.03.2020
976 Clouds 22 1022 64 10000 5.1 60 09:44 18.03.2020
977 Clouds 22 1022 68 10000 6.2 60 09:26 18.03.2020
978 Clouds 21 1023 73 10000 4.6 90 08:58 18.03.2020
979 Clouds 21 1022 73 10000 4.1 50 08:39 18.03.2020
980 Clouds 21 1022 73 10000 4.1 50 08:21 18.03.2020
981 Clouds 19 1021 82 10000 5.1 90 07:49 18.03.2020
982 Clouds 19 1021 82 10000 5.1 90 07:30 18.03.2020
983 Clouds 16 1021 93 10000 4.6 90 06:45 18.03.2020
984 Clouds 17 1021 93 10000 4.6 90 06:23 18.03.2020
985 Clouds 17 1020 93 10000 5.1 80 05:35 18.03.2020
986 Clouds 17 1020 93 10000 4.1 70 04:27 18.03.2020
987 Clouds 17 1020 88 10000 4.1 90 02:49 18.03.2020
988 Clouds 18 1019 93 10000 4.1 80 01:48 18.03.2020
989 Clouds 18 1019 93 10000 4.1 80 01:27 18.03.2020
990 Clouds 18 1021 93 10000 2.6 80 00:26 18.03.2020
991 Clouds 18 1021 88 10000 2.6 20 23:57 17.03.2020
992 Clouds 18 1021 88 10000 2.6 10 23:37 17.03.2020
993 Clouds 18 1021 88 10000 2.6 20 23:18 17.03.2020
994 Clouds 19 1021 82 10000 4.1 60 22:41 17.03.2020
995 Clouds 19 1021 82 10000 4.1 60 22:22 17.03.2020
996 Clouds 18 1022 88 10000 2.6 20 21:42 17.03.2020
997 Clouds 18 1022 88 10000 2.6 20 21:22 17.03.2020
998 Clouds 19 1020 88 10000 2.1 60 20:41 17.03.2020
999 Clouds 19 1020 88 10000 2.1 60 20:23 17.03.2020
1000 Clouds 19 1021 82 10000 4.6 70 19:59 17.03.2020
1001 Clouds 20 1020 77 10000 2.6 50 19:40 17.03.2020
1002 Clouds 20 1020 77 10000 2.6 50 19:18 17.03.2020
1003 Clouds 20 1020 77 10000 3.6 50 18:56 17.03.2020
1004 Clouds 20 1018 73 10000 3.6 40 18:38 17.03.2020
1005 Clouds 20 1018 73 10000 3.6 40 18:38 17.03.2020
1006 Clouds 20 1019 73 10000 4.6 50 18:20 17.03.2020
1007 Clouds 21 1018 64 10000 4.1 20 17:41 17.03.2020
1008 Clouds 21 1018 64 10000 4.1 20 17:41 17.03.2020
1009 Clouds 21 1018 64 10000 4.1 20 17:41 17.03.2020
1010 Clouds 23 1018 60 10000 8.2 60 17:22 17.03.2020
1011 Clouds 23 1018 60 10000 8.2 60 16:56 17.03.2020
1012 Clouds 24 1017 57 10000 5.1 20 16:38 17.03.2020
1013 Clouds 24 1017 57 10000 5.1 20 16:18 17.03.2020
1014 Clouds 26 1016 50 10000 10.3 60 15:43 17.03.2020
1015 Clouds 24 1016 50 10000 10.3 60 15:21 17.03.2020
1016 Clouds 25 1016 47 10000 7.7 60 14:44 17.03.2020
1017 Clouds 27 1016 47 10000 7.7 60 14:21 17.03.2020
1018 Clouds 27 1017 51 10000 6.7 50 13:46 17.03.2020
1019 Clouds 27 1017 47 10000 7.7 70 13:28 17.03.2020
1020 Clouds 26 1018 54 10000 6.7 50 12:59 17.03.2020
1021 Clouds 26 1018 54 10000 4.1 70 12:40 17.03.2020
1022 Clouds 26 1018 54 10000 4.1 70 12:22 17.03.2020
1023 Clouds 26 1019 54 10000 6.2 50 11:47 17.03.2020
1024 Clouds 25 1019 57 10000 5.1 60 11:29 17.03.2020
1025 Clouds 25 1020 57 10000 5.1 50 10:58 17.03.2020
1026 Clouds 25 1020 53 10000 5.1 60 10:38 17.03.2020
1027 Clouds 23 1021 64 10000 5.1 60 10:20 17.03.2020
1028 Clouds 23 1021 64 10000 5.1 60 09:59 17.03.2020
1029 Clouds 24 1021 57 10000 4.1 90 09:40 17.03.2020
1030 Clouds 24 1021 57 10000 4.1 90 09:19 17.03.2020
1031 Clouds 22 1021 73 10000 5.1 60 08:48 17.03.2020
1032 Clouds 22 1021 73 10000 5.1 60 08:23 17.03.2020
1033 Clouds 21 1022 78 10000 4.1 70 07:50 17.03.2020
1034 Clouds 21 1021 83 10000 2.6 60 07:28 17.03.2020
1035 Clouds 20 1022 88 10000 2.1 50 06:59 17.03.2020
1036 Clouds 19 1021 82 10000 4.1 60 06:34 17.03.2020
1037 Clouds 19 1021 82 10000 1.5 90 05:56 17.03.2020
1038 Clouds 18 1019 88 10000 1.5 350 03:56 17.03.2020
1039 Clouds 18 1018 88 10000 1.5 70 02:46 17.03.2020
1040 Clouds 18 1019 88 10000 2.6 350 01:49 17.03.2020
1041 Clouds 18 1018 82 10000 2.35 43 01:25 17.03.2020
1042 Clouds 18 1019 88 10000 3.6 330 00:46 17.03.2020
1043 Clouds 18 1020 82 10000 2.1 40 23:48 16.03.2020
1044 Clouds 19 1020 82 10000 1 360 23:30 16.03.2020
1045 Clouds 19 1020 73 10000 2.95 60 22:42 16.03.2020
1046 Clouds 19 1020 73 10000 2.95 60 22:24 16.03.2020
1047 Clouds 20 1021 68 10000 2.6 40 21:58 16.03.2020
1048 Clouds 20 1019 64 10000 2.1 40 21:40 16.03.2020
1049 Clouds 20 1019 64 10000 2.1 40 21:22 16.03.2020
1050 Clouds 21 1020 77 10000 3.1 350 20:56 16.03.2020
1051 Clouds 21 1019 64 10000 2.6 10 20:37 16.03.2020
1052 Clouds 21 1019 64 10000 2.6 10 20:19 16.03.2020
1053 Clouds 21 1018 64 10000 4.1 70 19:41 16.03.2020
1054 Clouds 21 1018 64 10000 4.1 70 19:21 16.03.2020
1055 Clouds 21 1019 73 10000 5.1 50 18:56 16.03.2020
1056 Clouds 21 1017 64 10000 4.1 50 18:37 16.03.2020
1057 Clouds 21 1018 68 10000 5.1 50 18:18 16.03.2020
1058 Clouds 22 1016 60 10000 6.2 60 17:42 16.03.2020
1059 Clouds 22 1016 60 10000 6.2 60 17:22 16.03.2020
1060 Clouds 24 1017 57 10000 6.7 70 16:45 16.03.2020
1061 Clouds 25 1015 47 10000 7.2 70 16:27 16.03.2020
1062 Clouds 25 1016 51 10000 6.7 50 15:56 16.03.2020
1063 Clouds 26 1014 44 10000 6.2 70 15:37 16.03.2020
1064 Clouds 26 1014 44 10000 6.2 70 15:18 16.03.2020
1065 Clouds 27 1015 37 10000 8.2 90 14:39 16.03.2020
1066 Clouds 27 1016 45 10000 6.2 60 14:19 16.03.2020
1067 Clouds 27 1016 34 10000 8.2 80 13:41 16.03.2020
1068 Clouds 27 1016 34 10000 8.2 80 13:22 16.03.2020
1069 Clouds 27 1017 39 10000 6.2 30 12:45 16.03.2020
1070 Clouds 27 1017 39 10000 6.2 30 12:26 16.03.2020
1071 Clouds 27 1018 42 10000 5.1 50 11:58 16.03.2020
1072 Clouds 27 1018 42 10000 7.2 50 11:39 16.03.2020
1073 Clouds 25 1020 57 10000 4.6 40 11:18 16.03.2020
1074 Clouds 26 1019 54 10000 4.1 90 10:41 16.03.2020
1075 Clouds 26 1019 54 10000 4.1 90 10:19 16.03.2020
1076 Clouds 24 1019 61 10000 5.1 50 09:44 16.03.2020
1077 Clouds 24 1019 61 10000 5.1 50 09:24 16.03.2020
1078 Clouds 22 1019 73 10000 4.6 60 08:54 16.03.2020
1079 Clouds 21 1020 77 10000 3.6 60 08:25 16.03.2020
1080 Clouds 21 1020 77 10000 3.6 60 07:50 16.03.2020
1081 Clouds 20 1021 94 10000 3.1 40 07:27 16.03.2020
1082 Fog 19 1021 93 7000 2.1 50 06:54 16.03.2020
1083 Clouds 19 1020 88 10000 2.6 30 06:26 16.03.2020
1084 Fog 17 1020 100 400 2.6 80 05:50 16.03.2020
1085 Clouds 18 1018 93 10000 1.61 43 02:45 16.03.2020
1086 Clouds 18 1018 88 10000 2.7 35 01:20 16.03.2020
1087 Clouds 19 1019 93 10000 2.7 35 00:40 16.03.2020
1088 Clouds 19 1019 88 10000 2.7 35 23:48 15.03.2020
1089 Clouds 19 1019 88 10000 2.09 40 23:20 15.03.2020
1090 Clouds 19 1019 83 10000 2.09 40 22:43 15.03.2020
1091 Clouds 20 1019 83 10000 2.09 40 22:23 15.03.2020
1092 Clouds 20 1021 88 10000 2.6 80 21:59 15.03.2020
1093 Clouds 20 1020 83 10000 2.09 40 21:38 15.03.2020
1094 Clouds 20 1020 83 10000 2.09 40 21:19 15.03.2020
1095 Clouds 20 1020 83 10000 3.1 70 20:43 15.03.2020
1096 Clouds 20 1020 83 10000 4.6 70 20:22 15.03.2020
1097 Clouds 20 1019 83 10000 3.6 50 19:58 15.03.2020
1098 Clouds 20 1018 73 10000 3.6 60 19:40 15.03.2020
1099 Clouds 20 1019 83 10000 3.1 70 19:21 15.03.2020
1100 Clouds 21 1019 83 10000 3.1 70 18:56 15.03.2020
1101 Clouds 21 1017 60 10000 5.1 80 18:38 15.03.2020
1102 Clouds 21 1017 60 10000 5.1 80 18:20 15.03.2020
1103 Clouds 21 1018 64 10000 6.2 70 17:41 15.03.2020
1104 Clouds 25 1018 64 10000 6.2 70 17:22 15.03.2020
1105 Clouds 25 1017 57 10000 6.7 70 16:59 15.03.2020
1106 Clouds 26 1016 50 10000 6.7 70 16:40 15.03.2020
1107 Clouds 26 1016 50 10000 6.7 70 16:21 15.03.2020
1108 Clouds 27 1017 47 10000 6.7 60 15:54 15.03.2020
1109 Clouds 25 1016 44 10000 6.2 50 15:36 15.03.2020
1110 Clouds 25 1016 44 10000 6.2 50 15:18 15.03.2020
1111 Clouds 26 1016 42 10000 6.2 80 14:39 15.03.2020
1112 Clouds 28 1016 42 10000 6.2 80 14:21 15.03.2020
1113 Clouds 28 1017 45 10000 6.2 80 13:56 15.03.2020
1114 Clouds 27 1017 37 10000 5.1 40 13:37 15.03.2020
1115 Clouds 27 1017 37 10000 5.1 40 13:18 15.03.2020
1116 Clouds 25 1019 47 10000 5.1 60 12:40 15.03.2020
1117 Clouds 26 1019 47 10000 5.1 60 12:22 15.03.2020
1118 Clouds 26 1019 42 10000 4.1 80 11:44 15.03.2020
1119 Clouds 27 1019 42 10000 4.1 80 11:25 15.03.2020
1120 Clouds 25 1020 50 10000 4.1 70 10:59 15.03.2020
1121 Clouds 25 1020 41 10000 5.1 70 10:40 15.03.2020
1122 Clouds 25 1020 41 10000 5.1 70 10:21 15.03.2020
1123 Clouds 25 1021 57 10000 2.6 90 09:59 15.03.2020
1124 Clouds 24 1020 57 10000 3.1 70 09:38 15.03.2020
1125 Clouds 24 1020 57 10000 3.1 70 09:19 15.03.2020
1126 Mist 23 1021 60 10000 2.6 110 08:41 15.03.2020
1127 Mist 23 1021 60 10000 2.6 110 08:19 15.03.2020
1128 Clouds 21 1022 69 10000 2.6 80 07:48 15.03.2020
1129 Clouds 18 1022 93 10000 1.5 200 07:22 15.03.2020
1130 Fog 18 1021 93 600 2.43 23 06:43 15.03.2020
1131 Mist 16 1021 93 5000 1.5 240 05:48 15.03.2020
1132 Mist 16 1021 93 4000 1.5 200 04:57 15.03.2020
1133 Mist 16 1020 88 4000 1.5 0 04:38 15.03.2020
1134 Mist 17 1020 88 4000 1.5 0 04:20 15.03.2020
1135 Clouds 17 1020 93 10000 1.5 60 03:19 15.03.2020
1136 Clouds 18 1019 88 10000 1.92 35 02:22 15.03.2020
1137 Clouds 17 1021 88 10000 2.6 10 00:59 15.03.2020
1138 Clouds 18 1021 88 10000 2.6 10 00:40 15.03.2020
1139 Clouds 18 1021 88 10000 2.6 10 00:19 15.03.2020
1140 Clouds 19 1021 82 10000 2.6 20 23:39 14.03.2020
1141 Clouds 19 1021 82 10000 2.6 40 23:20 14.03.2020
1142 Clouds 19 1021 82 10000 2.6 40 22:56 14.03.2020
1143 Clouds 19 1021 88 10000 1.5 70 22:37 14.03.2020
1144 Clouds 19 1021 88 10000 1.5 70 22:37 14.03.2020
1145 Clouds 19 1021 88 10000 1.5 70 22:19 14.03.2020
1146 Clouds 19 1022 82 10000 3.1 70 21:55 14.03.2020
1147 Clouds 20 1021 73 10000 4.1 70 21:36 14.03.2020
1148 Clouds 20 1021 73 10000 4.1 70 21:18 14.03.2020
1149 Clouds 19 1022 82 10000 2.6 40 20:56 14.03.2020
1150 Clouds 19 1022 82 10000 2.6 40 20:56 14.03.2020
1151 Clouds 19 1020 73 10000 2.6 30 20:38 14.03.2020
1152 Clouds 20 1020 73 10000 2.6 30 20:18 14.03.2020
1153 Clouds 19 1021 73 10000 3.1 20 19:41 14.03.2020
1154 Clouds 20 1021 73 10000 3.1 20 19:20 14.03.2020
1155 Clouds 21 1020 68 10000 4.1 40 18:40 14.03.2020
1156 Clouds 21 1020 68 10000 4.1 60 18:21 14.03.2020
1157 Clouds 21 1019 60 10000 5.1 70 17:43 14.03.2020
1158 Clouds 23 1019 60 10000 5.1 70 17:24 14.03.2020
1159 Clouds 24 1019 60 10000 5.7 70 16:59 14.03.2020
1160 Clouds 24 1018 57 10000 5.1 90 16:39 14.03.2020
1161 Clouds 25 1019 57 10000 5.7 60 16:20 14.03.2020
1162 Clouds 25 1019 57 10000 5.7 60 15:48 14.03.2020
1163 Clouds 26 1018 50 10000 7.7 60 15:25 14.03.2020
1164 Clouds 27 1018 47 10000 4.1 90 14:45 14.03.2020
1165 Clouds 26 1019 54 10000 5.1 0 14:23 14.03.2020
1166 Clouds 26 1019 54 10000 5.1 0 13:57 14.03.2020
1167 Clouds 26 1019 54 10000 5.1 0 13:39 14.03.2020
1168 Clouds 26 1019 54 10000 5.1 0 13:20 14.03.2020
1169 Clouds 21 1009 76 0 0.45 318 12:44 14.03.2020
1170 Clouds 24 1021 50 10000 2.6 30 12:26 14.03.2020
1171 Clouds 24 1021 50 10000 2.6 30 11:48 14.03.2020
1172 Clouds 24 1021 50 10000 2.6 30 11:28 14.03.2020
1173 Clouds 24 1022 61 10000 5.7 70 10:59 14.03.2020
1174 Clouds 24 1021 57 10000 5.1 90 10:41 14.03.2020
1175 Clouds 24 1021 57 10000 5.1 90 10:23 14.03.2020
1176 Clouds 23 1023 64 10000 3.6 20 09:44 14.03.2020
1177 Clouds 22 1022 69 10000 3.6 60 09:24 14.03.2020
1178 Clouds 21 1023 78 10000 4.1 50 08:48 14.03.2020
1179 Clouds 21 1022 73 10000 6.2 50 08:29 14.03.2020
1180 Clouds 20 1023 83 10000 3.6 60 07:55 14.03.2020
1181 Clouds 20 1022 82 10000 3.6 70 07:37 14.03.2020
1182 Clouds 19 1022 82 10000 3.6 70 07:19 14.03.2020
1183 Clouds 18 1021 88 10000 2.09 17 06:40 14.03.2020
1184 Clouds 17 1022 93 10000 1 0 05:24 14.03.2020
1185 Clouds 17 1021 88 10000 1 180 03:46 14.03.2020
1186 Clouds 18 1021 88 10000 0.84 321 03:24 14.03.2020
1187 Clouds 18 1020 82 10000 0.84 321 02:22 14.03.2020
1188 Clouds 18 1021 88 10000 1 20 00:46 14.03.2020
1189 Clouds 17 1022 88 10000 2.1 30 23:46 13.03.2020
1190 Clouds 18 1022 88 10000 2.1 30 23:28 13.03.2020
1191 Clouds 19 1023 82 10000 2.1 50 22:49 13.03.2020
1192 Clouds 19 1022 77 10000 3.1 80 22:26 13.03.2020
1193 Clouds 18 1023 82 10000 2.6 60 21:44 13.03.2020
1194 Clouds 19 1022 82 10000 3.6 70 21:22 13.03.2020
1195 Clouds 19 1022 82 10000 3.6 70 20:59 13.03.2020
1196 Clouds 19 1022 77 10000 2.6 60 20:40 13.03.2020
1197 Clouds 20 1022 77 10000 2.6 60 20:20 13.03.2020
1198 Clouds 20 1021 77 10000 3.6 40 19:48 13.03.2020
1199 Clouds 20 1020 73 10000 4.1 70 19:30 13.03.2020
1200 Clouds 20 1021 73 10000 3.6 40 18:49 13.03.2020
1201 Clouds 21 1019 68 10000 7.2 50 18:31 13.03.2020
1202 Clouds 21 1020 68 10000 5.1 50 17:57 13.03.2020
1203 Clouds 21 1018 60 10000 5.7 60 17:38 13.03.2020
1204 Clouds 23 1018 60 10000 5.7 60 17:20 13.03.2020
1205 Clouds 24 1018 57 10000 7.2 70 16:42 13.03.2020
1206 Clouds 23 1018 57 10000 7.2 70 16:24 13.03.2020
1207 Clouds 23 1018 60 10000 6.2 70 15:56 13.03.2020
1208 Clouds 23 1018 53 10000 6.7 70 15:37 13.03.2020
1209 Clouds 23 1018 53 10000 6.7 70 15:19 13.03.2020
1210 Clouds 25 1017 53 10000 7.7 70 14:41 13.03.2020
1211 Clouds 26 1018 54 10000 6.7 70 14:22 13.03.2020
1212 Clouds 26 1018 54 10000 6.7 70 13:57 13.03.2020
1213 Clouds 25 1019 53 10000 6.2 70 13:39 13.03.2020
1214 Clouds 26 1019 54 10000 5.1 70 13:19 13.03.2020
1215 Clouds 26 1019 54 10000 5.1 70 12:54 13.03.2020
1216 Clouds 24 1019 54 10000 6.2 70 12:36 13.03.2020
1217 Clouds 25 1019 54 10000 6.2 70 12:18 13.03.2020
1218 Clouds 25 1021 57 10000 5.7 70 11:42 13.03.2020
1219 Clouds 25 1021 57 10000 5.7 70 11:24 13.03.2020
1220 Clouds 25 1021 53 10000 5.1 60 10:57 13.03.2020
1221 Clouds 23 1021 60 10000 4.6 60 10:38 13.03.2020
1222 Clouds 23 1021 60 10000 4.6 60 10:20 13.03.2020
1223 Clouds 23 1021 64 10000 3.1 50 09:43 13.03.2020
1224 Clouds 22 1022 69 10000 5.7 60 09:24 13.03.2020
1225 Clouds 21 1022 73 10000 4.1 40 08:46 13.03.2020
1226 Clouds 20 1022 77 10000 5.1 50 08:23 13.03.2020
1227 Clouds 20 1022 77 10000 5.1 50 07:58 13.03.2020
1228 Clouds 20 1022 82 10000 5.1 60 07:38 13.03.2020
1229 Clouds 20 1022 88 10000 4.6 60 07:18 13.03.2020
1230 Clouds 18 1021 93 10000 3.1 40 06:43 13.03.2020
1231 Clouds 18 1021 93 10000 2.6 40 05:56 13.03.2020
1232 Clouds 18 1021 93 10000 2.6 50 05:37 13.03.2020
1233 Clouds 17 1020 93 10000 3.1 70 04:38 13.03.2020
1234 Clouds 18 1020 88 10000 2.6 50 03:46 13.03.2020
1235 Clouds 17 1019 93 10000 2.1 350 01:48 13.03.2020
1236 Clouds 18 1019 93 10000 2.1 350 01:19 13.03.2020
1237 Clouds 18 1019 88 10000 2.6 10 00:56 13.03.2020
1238 Clouds 18 1020 88 10000 1.5 10 00:29 13.03.2020
1239 Clouds 18 1020 88 10000 2.1 30 23:59 12.03.2020
1240 Clouds 18 1021 88 10000 2.6 40 23:29 12.03.2020
1241 Clouds 18 1021 88 10000 2.1 50 22:58 12.03.2020
1242 Clouds 17 1021 88 10000 2.1 40 22:40 12.03.2020
1243 Clouds 18 1021 88 10000 2.1 40 22:22 12.03.2020
1244 Clouds 18 1020 82 10000 2.1 60 21:46 12.03.2020
1245 Clouds 18 1020 82 10000 2.1 60 21:28 12.03.2020
1246 Clouds 19 1021 82 10000 3.1 70 20:59 12.03.2020
1247 Clouds 18 1020 82 10000 3.6 40 20:40 12.03.2020
1248 Clouds 19 1020 82 10000 3.6 40 20:19 12.03.2020
1249 Clouds 19 1020 77 10000 3.6 30 19:42 12.03.2020
1250 Clouds 19 1020 77 10000 3.6 30 19:21 12.03.2020
1251 Clouds 19 1019 73 10000 3.6 50 18:45 12.03.2020
1252 Clouds 20 1019 73 10000 3.6 50 18:25 12.03.2020
1253 Clouds 21 1019 68 10000 4.6 60 17:57 12.03.2020
1254 Clouds 21 1018 68 10000 4.1 60 17:39 12.03.2020
1255 Clouds 21 1018 68 10000 4.1 60 17:21 12.03.2020
1256 Clouds 23 1018 69 10000 6.7 60 16:58 12.03.2020
1257 Clouds 23 1017 69 10000 7.7 60 16:38 12.03.2020
1258 Clouds 21 1017 57 10000 8.2 70 16:19 12.03.2020
1259 Clouds 22 1017 57 10000 9.8 70 15:45 12.03.2020
1260 Clouds 23 1017 57 10000 9.8 70 15:27 12.03.2020
1261 Clouds 24 1016 47 10000 5.1 60 14:43 12.03.2020
1262 Clouds 24 1016 47 10000 5.1 60 14:24 12.03.2020
1263 Clouds 26 1017 50 10000 6.7 60 13:57 12.03.2020
1264 Clouds 26 1017 47 10000 8.2 70 13:37 12.03.2020
1265 Clouds 26 1017 47 10000 8.2 70 13:19 12.03.2020
1266 Clouds 26 1018 44 10000 8.2 40 12:41 12.03.2020
1267 Clouds 26 1018 44 10000 8.2 40 12:22 12.03.2020
1268 Clouds 25 1019 57 10000 5.7 40 11:58 12.03.2020
1269 Clouds 23 1020 60 10000 6.2 40 11:39 12.03.2020
1270 Clouds 23 1020 60 10000 6.2 40 11:20 12.03.2020
1271 Clouds 24 1020 53 10000 6.7 40 10:59 12.03.2020
1272 Clouds 23 1021 57 10000 7.7 40 10:41 12.03.2020
1273 Clouds 23 1021 57 10000 7.7 40 10:22 12.03.2020
1274 Clouds 23 1020 60 10000 5.1 30 09:48 12.03.2020
1275 Clouds 23 1020 60 10000 5.1 30 09:28 12.03.2020
1276 Clouds 23 1020 60 10000 5.1 30 09:28 12.03.2020
1277 Clouds 22 1022 69 10000 5.7 40 08:54 12.03.2020
1278 Clouds 21 1021 77 10000 4.1 20 08:36 12.03.2020
1279 Clouds 20 1022 83 10000 4.6 40 08:18 12.03.2020
1280 Clouds 20 1021 77 10000 3.1 40 07:45 12.03.2020
1281 Clouds 20 1021 77 10000 3.1 40 07:21 12.03.2020
1282 Clouds 17 1021 93 10000 3.1 10 05:57 12.03.2020
1283 Clouds 17 1019 88 10000 2.6 50 05:27 12.03.2020
1284 Clouds 17 1019 93 10000 2.6 40 02:47 12.03.2020
1285 Clouds 18 1019 88 10000 2.6 30 01:39 12.03.2020
1286 Clouds 18 1019 88 10000 2.6 30 01:20 12.03.2020
1287 Clouds 18 1019 88 10000 4.1 60 00:41 12.03.2020
1288 Clouds 18 1021 93 10000 2.1 10 23:56 11.03.2020
1289 Clouds 18 1021 100 10000 2.6 20 23:27 11.03.2020
1290 Clouds 19 1020 88 10000 3.1 30 22:55 11.03.2020
1291 Clouds 19 1020 88 10000 3.1 30 22:37 11.03.2020
1292 Clouds 19 1020 88 10000 3.1 30 22:18 11.03.2020
1293 Clouds 19 1021 94 10000 2.6 40 21:54 11.03.2020
1294 Clouds 19 1020 88 10000 5.1 50 21:36 11.03.2020
1295 Clouds 19 1020 88 10000 5.1 50 21:18 11.03.2020
1296 Clouds 19 1021 94 10000 4.1 40 20:55 11.03.2020
1297 Clouds 19 1019 88 10000 5.1 40 20:36 11.03.2020
1298 Clouds 19 1020 94 10000 4.1 30 20:18 11.03.2020
1299 Clouds 19 1018 83 10000 3.1 60 19:41 11.03.2020
1300 Clouds 19 1018 83 10000 3.1 60 19:22 11.03.2020
1301 Clouds 19 1019 82 10000 4.6 30 18:56 11.03.2020
1302 Clouds 20 1018 77 10000 5.1 50 18:36 11.03.2020
1303 Clouds 20 1018 77 10000 5.1 50 18:18 11.03.2020
1304 Clouds 22 1017 64 10000 7.7 70 17:40 11.03.2020
1305 Clouds 22 1017 64 10000 7.7 70 17:21 11.03.2020
1306 Clouds 23 1017 64 10000 6.7 70 16:56 11.03.2020
1307 Clouds 23 1016 50 10000 5.1 80 16:37 11.03.2020
1308 Clouds 24 1017 47 10000 4.6 60 16:19 11.03.2020
1309 Clouds 24 1016 47 10000 4.1 60 15:42 11.03.2020
1310 Clouds 25 1016 47 10000 4.1 60 15:23 11.03.2020
1311 Clouds 25 1016 50 10000 2.6 30 14:44 11.03.2020
1312 Clouds 25 1016 50 10000 2.6 30 14:24 11.03.2020
1313 Clouds 26 1017 54 10000 5.1 40 13:59 11.03.2020
1314 Clouds 26 1018 54 10000 4.6 40 13:40 11.03.2020
1315 Clouds 26 1018 54 10000 4.6 40 13:22 11.03.2020
1316 Clouds 26 1018 57 10000 5.1 50 12:55 11.03.2020
1317 Clouds 25 1018 53 10000 6.2 70 12:37 11.03.2020
1318 Clouds 25 1018 53 10000 6.2 70 12:18 11.03.2020
1319 Clouds 25 1019 53 10000 5.1 40 11:40 11.03.2020
1320 Clouds 25 1020 57 10000 5.1 60 11:20 11.03.2020
1321 Clouds 23 1020 60 10000 3.1 60 10:46 11.03.2020
1322 Clouds 23 1020 60 10000 3.1 60 10:20 11.03.2020
1323 Clouds 22 1021 73 10000 3.6 30 09:55 11.03.2020
1324 Clouds 22 1021 68 10000 5.1 60 09:36 11.03.2020
1325 Clouds 22 1021 68 10000 5.1 60 09:18 11.03.2020
1326 Clouds 21 1021 77 10000 2.6 60 08:42 11.03.2020
1327 Clouds 21 1021 77 10000 2.6 60 08:42 11.03.2020
1328 Clouds 21 1021 77 10000 2.6 60 08:23 11.03.2020
1329 Clouds 20 1021 83 10000 2.6 20 07:47 11.03.2020
1330 Clouds 20 1021 77 10000 4.1 30 07:20 11.03.2020
1331 Clouds 18 1021 88 10000 2.1 70 06:49 11.03.2020
1332 Clouds 18 1019 88 10000 3.1 90 06:20 11.03.2020
1333 Clouds 17 1019 93 10000 3.1 60 05:23 11.03.2020
1334 Drizzle 17 1019 100 10000 5.7 70 02:36 11.03.2020
1335 Clouds 17 1019 100 10000 2.6 70 01:44 11.03.2020
1336 Clouds 18 1019 93 10000 3.6 60 00:53 11.03.2020
1337 Clouds 17 1020 93 10000 2.1 40 00:31 11.03.2020
1338 Clouds 17 1020 93 10000 2.1 40 23:47 10.03.2020
1339 Clouds 18 1020 88 10000 2.1 20 23:22 10.03.2020
1340 Clouds 18 1021 88 10000 2.1 10 22:55 10.03.2020
1341 Clouds 18 1020 93 10000 2.88 58 22:36 10.03.2020
1342 Clouds 18 1020 93 10000 2.88 58 22:18 10.03.2020
1343 Clouds 18 1021 93 10000 2.1 360 21:55 10.03.2020
1344 Clouds 18 1021 93 10000 2.6 360 21:37 10.03.2020
1345 Clouds 18 1021 93 10000 2.6 360 21:18 10.03.2020
1346 Clouds 18 1021 93 10000 2.6 10 21:18 10.03.2020
1347 Clouds 18 1020 88 10000 3.1 30 20:42 10.03.2020
1348 Rain 18 1020 88 10000 3.1 30 20:19 10.03.2020
1349 Rain 19 1020 88 10000 2.6 50 19:58 10.03.2020
1350 Rain 18 1020 88 10000 3.1 30 19:40 10.03.2020
1351 Rain 19 1020 88 10000 3.1 30 19:21 10.03.2020
1352 Clouds 18 1019 82 10000 3.1 50 18:55 10.03.2020
1353 Clouds 19 1019 82 10000 3.6 60 18:36 10.03.2020
1354 Clouds 20 1019 82 10000 3.6 60 18:18 10.03.2020
1355 Clouds 21 1018 68 10000 5.1 60 17:41 10.03.2020
1356 Clouds 22 1018 68 10000 5.1 60 17:22 10.03.2020
1357 Clouds 22 1018 68 10000 5.7 60 16:54 10.03.2020
1358 Clouds 23 1017 69 10000 7.2 70 16:36 10.03.2020
1359 Clouds 24 1017 64 10000 8.2 70 16:18 10.03.2020
1360 Clouds 23 1016 53 10000 7.7 90 15:41 10.03.2020
1361 Clouds 24 1016 53 10000 7.7 90 15:20 10.03.2020
1362 Clouds 25 1017 54 10000 6.2 60 14:58 10.03.2020
1363 Clouds 25 1016 50 10000 5.1 60 14:40 10.03.2020
1364 Clouds 25 1016 50 10000 5.1 60 14:19 10.03.2020
1365 Clouds 25 1017 50 10000 5.1 90 13:43 10.03.2020
1366 Clouds 26 1017 50 10000 5.1 90 13:25 10.03.2020
1367 Clouds 25 1018 57 10000 4.6 50 12:55 10.03.2020
1368 Clouds 25 1018 57 10000 7.7 70 12:37 10.03.2020
1369 Clouds 25 1019 61 10000 4.6 30 12:18 10.03.2020
1370 Clouds 25 1019 57 10000 5.1 30 11:42 10.03.2020
1371 Clouds 24 1019 57 10000 5.1 30 11:24 10.03.2020
1372 Clouds 24 1020 65 10000 4.6 40 11:24 10.03.2020
1373 Clouds 24 1020 65 10000 4.6 40 10:57 10.03.2020
1374 Clouds 23 1020 60 10000 4.1 40 10:39 10.03.2020
1375 Clouds 23 1020 60 10000 4.1 40 10:19 10.03.2020
1376 Clouds 22 1020 73 10000 3.1 30 09:45 10.03.2020
1377 Clouds 21 1022 78 10000 3.6 50 09:20 10.03.2020
1378 Clouds 21 1022 78 10000 3.6 50 08:58 10.03.2020
1379 Clouds 21 1021 77 10000 5.1 60 08:40 10.03.2020
1380 Clouds 19 1021 83 10000 2.6 30 08:20 10.03.2020
1381 Clouds 18 1021 88 10000 1.93 229 07:42 10.03.2020
1382 Clouds 18 1021 88 10000 1.93 229 07:23 10.03.2020
1383 Clouds 17 1020 100 9000 1.93 229 06:38 10.03.2020
1384 Clouds 17 1020 93 10000 1 250 05:55 10.03.2020
1385 Clouds 16 1020 93 10000 2.6 160 05:36 10.03.2020
1386 Clouds 17 1018 93 10000 1.2 244 04:33 10.03.2020
1387 Clouds 17 1019 100 10000 2.1 230 03:19 10.03.2020
1388 Clouds 18 1019 93 10000 3.1 190 01:43 10.03.2020
1389 Clouds 16 1019 93 10000 3.1 190 00:52 10.03.2020
1390 Clouds 17 1020 93 10000 2.1 230 00:29 10.03.2020
1391 Rain 16 1020 93 10000 2.6 230 23:55 09.03.2020
1392 Clouds 17 1021 93 10000 3.1 240 23:36 09.03.2020
1393 Clouds 19 1021 93 10000 2.1 250 23:18 09.03.2020
1394 Clouds 18 1020 88 10000 3.6 290 22:38 09.03.2020
1395 Clouds 18 1020 88 10000 3.6 290 22:20 09.03.2020
1396 Clouds 19 1020 82 10000 3.1 270 21:45 09.03.2020
1397 Clouds 19 1020 82 10000 3.1 270 21:22 09.03.2020
1398 Clouds 18 1021 88 10000 1.58 50 20:59 09.03.2020
1399 Clouds 18 1020 82 10000 1.58 50 20:41 09.03.2020
1400 Clouds 18 1021 88 10000 1 310 20:23 09.03.2020
1401 Clouds 19 1021 88 10000 1 310 19:59 09.03.2020
1402 Clouds 19 1019 82 10000 2.18 55 19:41 09.03.2020
1403 Clouds 19 1019 82 10000 2.18 55 19:20 09.03.2020
1404 Clouds 19 1020 82 10000 0.5 330 18:57 09.03.2020
1405 Clouds 19 1018 88 10000 2.18 55 18:38 09.03.2020
1406 Clouds 19 1019 82 10000 1.5 330 18:18 09.03.2020
1407 Clouds 19 1018 88 10000 2.18 55 17:56 09.03.2020
1408 Clouds 19 1018 88 10000 2.18 55 17:37 09.03.2020
1409 Clouds 19 1018 88 10000 4.59 60 17:19 09.03.2020
1410 Clouds 21 1018 88 10000 3.1 70 16:56 09.03.2020
1411 Rain 22 1017 60 10000 2.1 20 16:38 09.03.2020
1412 Rain 22 1017 60 10000 2.1 20 16:20 09.03.2020
1413 Clouds 25 1016 57 10000 7.2 90 15:56 09.03.2020
1414 Clouds 22 1017 57 10000 7.7 40 15:38 09.03.2020
1415 Clouds 24 1017 57 10000 7.7 40 15:18 09.03.2020
1416 Clouds 23 1017 65 10000 6.7 70 14:39 09.03.2020
1417 Clouds 25 1017 65 10000 6.7 70 14:21 09.03.2020
1418 Clouds 23 1016 61 10000 7.2 70 13:59 09.03.2020
1419 Clouds 23 1016 61 10000 7.2 70 13:39 09.03.2020
1420 Clouds 23 1016 61 10000 7.2 70 13:39 09.03.2020
1421 Clouds 24 1018 69 10000 6.7 70 13:21 09.03.2020
1422 Clouds 25 1018 57 10000 6.2 70 12:59 09.03.2020
1423 Clouds 25 1018 57 10000 6.2 70 12:39 09.03.2020
1424 Clouds 25 1019 61 10000 3.1 90 12:19 09.03.2020
1425 Clouds 25 1019 57 10000 6.2 80 11:40 09.03.2020
1426 Clouds 24 1020 65 10000 3.1 70 11:20 09.03.2020
1427 Clouds 24 1020 57 10000 3.66 39 10:58 09.03.2020
1428 Clouds 23 1020 57 10000 3.66 39 10:40 09.03.2020
1429 Clouds 24 1021 65 10000 2.6 70 10:19 09.03.2020
1430 Clouds 26 1012 53 0 3.66 39 09:42 09.03.2020
1431 Clouds 22 1021 73 10000 3.1 80 09:24 09.03.2020
1432 Clouds 20 1021 73 10000 3.1 80 08:54 09.03.2020
1433 Clouds 21 1021 73 10000 3.1 80 08:36 09.03.2020
1434 Clouds 20 1022 83 10000 1 0 08:18 09.03.2020
1435 Clouds 20 1021 83 10000 2.57 27 07:39 09.03.2020
1436 Clouds 18 1021 88 10000 0.5 0 07:20 09.03.2020
1437 Clouds 18 1020 88 10000 2.57 27 06:41 09.03.2020
1438 Clouds 17 1021 93 10000 2.6 350 06:23 09.03.2020
1439 Clouds 17 1019 93 10000 2.57 27 05:45 09.03.2020
1440 Clouds 17 1019 88 10000 1.67 33 04:59 09.03.2020
1441 Clouds 17 1019 88 10000 1.67 33 04:40 09.03.2020
1442 Clouds 17 1019 100 10000 1.67 33 04:21 09.03.2020
1443 Clouds 16 1020 93 10000 1.5 40 02:55 09.03.2020
1444 Rain 17 1020 93 10000 1.5 50 00:46 09.03.2020
1445 Clouds 17 1020 93 10000 2.1 20 00:27 09.03.2020
1446 Clouds 17 1020 93 10000 2.1 20 23:59 08.03.2020
1447 Clouds 18 1020 93 10000 2.1 20 23:39 08.03.2020
1448 Clouds 19 1021 88 10000 2.6 70 23:20 08.03.2020
1449 Clouds 19 1020 88 10000 0.93 53 22:42 08.03.2020
1450 Clouds 18 1021 88 10000 0.93 53 22:22 08.03.2020
1451 Clouds 18 1021 88 10000 0.93 53 21:59 08.03.2020
1452 Clouds 18 1021 88 10000 0.93 53 21:59 08.03.2020
1453 Clouds 18 1021 88 10000 0.93 53 21:41 08.03.2020
1454 Rain 17 1021 82 10000 2.1 30 21:23 08.03.2020
1455 Rain 17 1021 82 10000 2.6 50 20:58 08.03.2020
1456 Rain 18 1021 82 10000 2.6 50 20:38 08.03.2020
1457 Rain 18 1021 82 10000 2.6 50 20:20 08.03.2020
1458 Rain 19 1020 82 10000 2.6 50 19:40 08.03.2020
1459 Clouds 19 1020 88 10000 3.1 70 19:20 08.03.2020
1460 Clouds 19 1020 88 10000 3.1 70 18:57 08.03.2020
1461 Clouds 19 1018 82 10000 4.1 70 18:38 08.03.2020
1462 Clouds 19 1019 82 10000 3.6 90 18:20 08.03.2020
1463 Clouds 20 1017 77 10000 4.1 90 17:41 08.03.2020
1464 Clouds 21 1018 77 10000 6.2 90 17:22 08.03.2020
1465 Clouds 21 1018 77 10000 6.2 90 16:59 08.03.2020
1466 Clouds 21 1017 64 10000 8.7 80 16:40 08.03.2020
1467 Clouds 22 1017 64 10000 8.7 80 16:22 08.03.2020
1468 Clouds 22 1017 57 10000 6.2 70 15:41 08.03.2020
1469 Clouds 24 1017 57 10000 6.2 70 15:22 08.03.2020
1470 Clouds 24 1016 57 10000 5.1 90 14:59 08.03.2020
1471 Clouds 23 1018 57 10000 6.2 60 14:38 08.03.2020
1472 Clouds 24 1018 57 10000 6.2 60 14:20 08.03.2020
1473 Clouds 24 1018 57 10000 6.2 60 13:55 08.03.2020
1474 Clouds 24 1017 53 10000 5.1 50 13:36 08.03.2020
1475 Clouds 24 1017 53 10000 5.1 50 13:18 08.03.2020
1476 Clouds 24 1018 64 10000 4.1 30 12:37 08.03.2020
1477 Clouds 23 1020 69 10000 4.1 40 12:18 08.03.2020
1478 Clouds 23 1020 60 10000 5.1 90 11:42 08.03.2020
1479 Clouds 23 1021 69 10000 5.7 50 11:23 08.03.2020
1480 Clouds 23 1020 69 10000 5.1 50 10:57 08.03.2020
1481 Clouds 23 1020 69 10000 5.1 50 10:57 08.03.2020
1482 Clouds 23 1020 69 10000 5.1 50 10:39 08.03.2020
1483 Clouds 23 1020 69 10000 5.1 50 10:21 08.03.2020
1484 Clouds 22 1022 83 10000 4.1 60 09:40 08.03.2020
1485 Clouds 21 1022 83 10000 4.1 60 09:22 08.03.2020
1486 Clouds 20 1022 83 10000 4.1 60 08:49 08.03.2020
1487 Clouds 20 1021 82 10000 5.1 70 08:24 08.03.2020
1488 Clouds 19 1021 82 10000 4.1 90 07:50 08.03.2020
1489 Clouds 19 1021 82 10000 4.1 90 07:28 08.03.2020
1490 Clouds 17 1021 93 10000 1 0 06:51 08.03.2020
1491 Clouds 17 1021 93 10000 1 0 06:33 08.03.2020
1492 Clouds 17 1021 93 10000 1.5 140 05:49 08.03.2020
1493 Clouds 17 1020 93 10000 3.6 70 04:24 08.03.2020
1494 Clouds 17 1020 93 10000 2.1 60 03:19 08.03.2020
1495 Clouds 18 1020 88 10000 4.1 60 01:55 08.03.2020
1496 Clouds 18 1020 88 10000 4.1 60 01:20 08.03.2020
1497 Clouds 19 1020 82 10000 3.1 90 00:41 08.03.2020
1498 Clouds 18 1021 82 10000 3.1 330 23:59 07.03.2020
1499 Clouds 19 1021 82 10000 3.1 330 23:41 07.03.2020
1500 Clouds 19 1021 82 10000 3.6 330 23:20 07.03.2020
1501 Clouds 18 1021 82 10000 3.1 350 22:38 07.03.2020
1502 Clouds 20 1021 82 10000 3.1 350 22:20 07.03.2020
1503 Clouds 20 1021 73 10000 3.1 360 21:47 07.03.2020
1504 Clouds 20 1021 83 10000 2.1 30 21:24 07.03.2020
1505 Clouds 19 1021 83 10000 2.6 30 20:42 07.03.2020
1506 Clouds 20 1021 83 10000 2.6 30 20:23 07.03.2020
1507 Clouds 20 1020 68 10000 3.1 70 19:58 07.03.2020
1508 Clouds 20 1020 68 10000 3.1 70 19:40 07.03.2020
1509 Thunderstorm 20 1020 83 10000 4.1 80 19:20 07.03.2020
1510 Clouds 21 1019 60 10000 4.1 50 18:41 07.03.2020
1511 Clouds 20 1019 60 10000 4.1 40 18:22 07.03.2020
1512 Clouds 20 1018 60 10000 5.7 50 17:54 07.03.2020
1513 Clouds 21 1018 57 10000 7.2 70 17:36 07.03.2020
1514 Clouds 24 1018 57 10000 7.2 70 17:18 07.03.2020
1515 Clouds 26 1018 47 10000 7.2 60 16:42 07.03.2020
1516 Clouds 27 1017 51 10000 8.2 80 16:23 07.03.2020
1517 Clouds 25 1018 44 10000 5.1 90 15:57 07.03.2020
1518 Clouds 25 1018 44 10000 5.1 90 15:39 07.03.2020
1519 Clouds 25 1018 44 10000 5.1 90 15:39 07.03.2020
1520 Clouds 27 1018 47 10000 6.2 70 15:21 07.03.2020
1521 Clouds 27 1017 44 10000 5.1 40 14:56 07.03.2020
1522 Clouds 27 1018 42 10000 6.2 70 14:37 07.03.2020
1523 Clouds 27 1018 42 10000 6.2 70 14:19 07.03.2020
1524 Clouds 27 1018 42 10000 6.2 70 13:40 07.03.2020
1525 Clouds 27 1019 51 10000 5.7 70 13:20 07.03.2020
1526 Clouds 27 1018 42 10000 6.2 50 12:43 07.03.2020
1527 Clouds 25 1020 57 10000 5.1 50 12:21 07.03.2020
1528 Clouds 25 1019 47 10000 5.1 90 11:58 07.03.2020
1529 Clouds 25 1019 47 10000 5.1 90 11:39 07.03.2020
1530 Clouds 25 1021 57 10000 5.1 30 11:21 07.03.2020
1531 Clouds 25 1021 54 10000 4.1 50 10:42 07.03.2020
1532 Clouds 23 1022 60 10000 5.1 40 10:21 07.03.2020
1533 Clouds 23 1022 60 10000 5.1 40 09:58 07.03.2020
1534 Clouds 23 1022 60 10000 5.1 40 09:39 07.03.2020
1535 Clouds 22 1022 73 10000 2.6 80 09:19 07.03.2020
1536 Clouds 22 1021 60 10000 2.6 10 08:44 07.03.2020
1537 Clouds 20 1023 73 10000 1.5 90 08:21 07.03.2020
1538 Clouds 19 1021 88 10000 1.28 33 07:56 07.03.2020
1539 Clouds 19 1021 88 10000 1.28 33 07:37 07.03.2020
1540 Clouds 18 1021 93 10000 1.28 33 07:19 07.03.2020
1541 Rain 17 1022 93 10000 1.5 270 06:35 07.03.2020
1542 Rain 16 1022 93 10000 1.5 270 05:55 07.03.2020
1543 Clouds 16 1022 93 10000 1.5 270 05:33 07.03.2020
1544 Thunderstorm 16 1022 93 10000 4.1 60 02:58 07.03.2020
1545 Thunderstorm 16 1022 93 10000 4.1 60 02:35 07.03.2020
1546 Thunderstorm 16 1021 93 6000 4.1 10 01:46 07.03.2020
1547 Rain 18 1020 68 10000 5.1 20 00:42 07.03.2020
1548 Clouds 19 1021 68 10000 4.1 80 00:23 07.03.2020
1549 Clouds 18 1021 68 10000 1.5 140 23:56 06.03.2020
1550 Clouds 18 1021 68 10000 1.5 140 23:38 06.03.2020
1551 Clouds 19 1021 56 10000 2.44 76 23:19 06.03.2020
1552 Clouds 19 1021 56 10000 2.44 76 22:42 06.03.2020
1553 Clouds 19 1022 68 10000 1.5 10 22:18 06.03.2020
1554 Clouds 19 1021 60 10000 2.44 76 21:45 06.03.2020
1555 Clouds 20 1022 72 10000 1.5 350 21:19 06.03.2020
1556 Clouds 20 1021 56 10000 2.44 76 20:40 06.03.2020
1557 Clouds 19 1022 72 10000 2.6 340 20:21 06.03.2020
1558 Clouds 20 1020 60 10000 3.17 73 19:54 06.03.2020
1559 Clouds 20 1021 72 10000 4.1 30 19:34 06.03.2020
1560 Clouds 20 1019 56 10000 3.1 60 18:59 06.03.2020
1561 Clouds 21 1019 56 10000 3.1 60 18:41 06.03.2020
1562 Clouds 21 1019 56 10000 3.1 60 18:19 06.03.2020
1563 Clouds 22 1020 60 10000 5.7 70 17:55 06.03.2020
1564 Clouds 22 1018 53 10000 5.1 60 17:36 06.03.2020
1565 Clouds 25 1019 50 10000 7.2 60 17:18 06.03.2020
1566 Clouds 28 1018 37 10000 7.7 60 16:42 06.03.2020
1567 Clouds 28 1018 37 10000 7.7 60 16:20 06.03.2020
1568 Clouds 26 1017 34 10000 5.1 80 15:58 06.03.2020
1569 Clouds 26 1017 34 10000 5.1 80 15:39 06.03.2020
1570 Clouds 25 1018 39 10000 6.7 70 15:20 06.03.2020
1571 Clouds 28 1017 34 10000 5.1 80 14:39 06.03.2020
1572 Clouds 28 1018 39 10000 6.2 50 14:20 06.03.2020
1573 Clouds 28 1018 32 10000 6.7 90 13:43 06.03.2020
1574 Clouds 28 1019 37 10000 4.6 40 13:23 06.03.2020
1575 Clouds 29 1019 28 10000 7.7 50 12:58 06.03.2020
1576 Clouds 29 1019 28 10000 7.7 50 12:38 06.03.2020
1577 Clouds 27 1020 42 10000 5.1 60 12:19 06.03.2020
1578 Clouds 28 1020 30 10000 5.1 60 11:57 06.03.2020
1579 Clouds 28 1020 30 10000 5.1 60 11:39 06.03.2020
1580 Clouds 26 1021 42 10000 4.1 80 11:20 06.03.2020
1581 Clouds 27 1021 32 10000 6.7 90 10:40 06.03.2020
1582 Clouds 25 1022 41 10000 2.1 40 10:21 06.03.2020
1583 Clouds 25 1021 44 10000 4.1 60 09:56 06.03.2020
1584 Clouds 23 1023 57 10000 1 0 09:37 06.03.2020
1585 Clouds 24 1023 57 10000 1 0 09:19 06.03.2020
1586 Clouds 23 1022 53 10000 3.35 20 08:46 06.03.2020
1587 Haze 20 1023 77 5000 1 0 08:27 06.03.2020
1588 Clouds 20 1022 68 10000 1.3 1 07:58 06.03.2020
1589 Clouds 20 1022 68 10000 1.3 1 07:39 06.03.2020
1590 Clouds 18 1021 77 10000 4.1 270 06:59 06.03.2020
1591 Clouds 18 1021 77 10000 4.1 270 06:59 06.03.2020
1592 Clouds 17 1021 77 10000 4.1 270 06:41 06.03.2020
1593 Clouds 15 1021 82 10000 3.6 300 05:50 06.03.2020
1594 Clouds 15 1021 82 10000 1.5 310 05:31 06.03.2020
1595 Clouds 15 1021 87 0 0.12 81 04:58 06.03.2020
1596 Clouds 16 1020 82 10000 0.12 81 02:56 06.03.2020
1597 Clouds 16 1021 77 10000 1 0 01:42 06.03.2020
1598 Clouds 17 1021 77 10000 1 0 01:23 06.03.2020
1599 Clouds 14 1012 82 0 2.24 77 00:39 06.03.2020
1600 Clouds 15 1012 82 0 2.24 91 00:19 06.03.2020
1601 Clouds 15 1012 82 0 3.13 71 23:42 05.03.2020
1602 Clear 17 1021 72 0 1.12 5 23:22 05.03.2020
1603 Clouds 17 1022 68 10000 1.5 330 22:41 05.03.2020
1604 Clouds 18 1022 68 10000 1.5 330 22:23 05.03.2020
1605 Clear 18 1021 68 0 2.07 34 21:58 05.03.2020
1606 Clear 18 1021 68 0 2.07 34 21:39 05.03.2020
1607 Clouds 19 1022 68 10000 2.1 360 21:21 05.03.2020
1608 Clear 19 1021 56 0 2.07 34 20:59 05.03.2020
1609 Clear 19 1021 56 0 2.07 34 20:41 05.03.2020
1610 Clear 19 1021 56 0 2.07 34 20:41 05.03.2020
1611 Clouds 19 1022 72 10000 2.1 30 20:20 05.03.2020
1612 Clouds 19 1021 56 10000 2.04 66 19:58 05.03.2020
1613 Clouds 19 1021 56 10000 2.04 66 19:39 05.03.2020
1614 Clouds 20 1021 64 10000 2.1 70 19:19 05.03.2020
1615 Clouds 20 1020 49 10000 2.6 90 18:58 05.03.2020
1616 Clouds 21 1021 49 10000 3.6 80 18:37 05.03.2020
1617 Clouds 21 1021 49 10000 3.6 80 18:18 05.03.2020
1618 Clouds 21 1019 43 10000 4.1 90 17:54 05.03.2020
1619 Clouds 21 1020 47 10000 4.6 80 17:36 05.03.2020
1620 Clouds 25 1020 47 10000 4.6 80 17:18 05.03.2020
1621 Clouds 26 1019 29 10000 5.1 90 16:41 05.03.2020
1622 Clouds 25 1019 22 10000 5.1 80 16:22 05.03.2020
1623 Clouds 25 1019 22 10000 5.1 80 15:46 05.03.2020
1624 Clouds 25 1019 32 10000 5.1 80 15:24 05.03.2020
1625 Clouds 25 1018 28 10000 4.1 60 14:59 05.03.2020
1626 Clouds 26 1018 28 10000 4.1 60 14:41 05.03.2020
1627 Clouds 26 1019 36 10000 6.2 40 14:22 05.03.2020
1628 Clouds 26 1019 26 10000 4.1 50 13:57 05.03.2020
1629 Clouds 26 1019 26 10000 4.1 50 13:38 05.03.2020
1630 Clouds 26 1020 34 10000 4.1 40 13:20 05.03.2020
1631 Clouds 24 1021 44 10000 3.6 40 12:43 05.03.2020
1632 Clouds 25 1021 44 10000 3.6 40 12:21 05.03.2020
1633 Clouds 25 1021 31 10000 5.1 60 11:58 05.03.2020
1634 Clouds 24 1022 44 10000 3.6 10 11:39 05.03.2020
1635 Clouds 25 1022 44 10000 3.6 10 11:20 05.03.2020
1636 Clouds 24 1021 44 10000 5.1 70 10:58 05.03.2020
1637 Clouds 24 1021 44 10000 5.1 70 10:58 05.03.2020
1638 Clouds 24 1021 44 10000 5.1 70 10:40 05.03.2020
1639 Clouds 23 1023 53 10000 1 0 10:21 05.03.2020
1640 Clouds 21 1023 64 10000 1.13 199 09:59 05.03.2020
1641 Clouds 21 1023 68 10000 3.6 20 09:40 05.03.2020
1642 Clouds 20 1023 68 10000 3.6 20 09:21 05.03.2020
1643 Clouds 20 1023 64 10000 2.6 30 08:43 05.03.2020
1644 Clouds 18 1024 77 10000 3.1 20 08:24 05.03.2020
1645 Clouds 17 1023 82 10000 3.1 40 07:45 05.03.2020
1646 Clouds 16 1024 93 10000 3.1 360 07:22 05.03.2020
1647 Clouds 17 1024 88 10000 2.6 340 06:46 05.03.2020
1648 Clouds 17 1024 88 10000 2.6 340 06:46 05.03.2020
1649 Rain 16 1025 93 10000 2.6 10 06:21 05.03.2020
1650 Rain 17 1025 93 10000 3.1 30 05:38 05.03.2020
1651 Clouds 15 1024 93 10000 2.1 50 04:26 05.03.2020
1652 Rain 15 1024 93 10000 0.97 212 03:59 05.03.2020
1653 Rain 15 1024 93 10000 2.6 350 03:19 05.03.2020
1654 Clouds 15 1024 88 10000 3.6 40 01:29 05.03.2020
1655 Clouds 14 1023 88 10000 6.2 290 00:58 05.03.2020
1656 Clouds 15 1023 88 10000 6.2 290 00:25 05.03.2020
1657 Clouds 15 1023 88 10000 5.7 280 23:42 04.03.2020
1658 Clouds 16 1024 82 10000 7.7 280 23:22 04.03.2020
1659 Clouds 16 1024 77 10000 3.6 330 22:57 04.03.2020
1660 Clouds 16 1024 77 10000 3.6 330 22:39 04.03.2020
1661 Clouds 16 1024 88 10000 7.2 250 22:19 04.03.2020
1662 Rain 17 1024 82 10000 6.7 270 21:57 04.03.2020
1663 Rain 17 1024 82 10000 6.7 270 21:38 04.03.2020
1664 Rain 18 1024 77 10000 4.6 270 21:20 04.03.2020
1665 Clouds 18 1023 68 10000 10.3 280 20:54 04.03.2020
1666 Clouds 17 1024 77 10000 1 0 20:36 04.03.2020
1667 Clouds 18 1024 77 10000 1 0 20:18 04.03.2020
1668 Clouds 17 1023 77 10000 1 350 19:42 04.03.2020
1669 Clouds 18 1023 77 10000 1 350 19:22 04.03.2020
1670 Clouds 19 1021 56 10000 2.1 70 18:54 04.03.2020
1671 Clouds 18 1022 68 10000 1.5 50 18:36 04.03.2020
1672 Clouds 19 1022 68 10000 1.5 50 18:18 04.03.2020
1673 Clouds 20 1020 52 10000 5.1 30 17:40 04.03.2020
1674 Clouds 20 1019 53 10000 9.8 40 17:21 04.03.2020
1675 Clouds 20 1019 53 10000 9.8 40 16:59 04.03.2020
1676 Clouds 20 1019 53 10000 9.8 40 16:40 04.03.2020
1677 Clouds 20 1018 44 10000 6.2 80 16:22 04.03.2020
1678 Clouds 22 1018 44 10000 6.2 80 15:55 04.03.2020
1679 Clouds 18 1011 75 0 4.59 84 15:36 04.03.2020
1680 Clouds 23 1018 39 10000 4.1 110 15:18 04.03.2020
1681 Clouds 23 1018 39 10000 4.1 110 14:41 04.03.2020
1682 Clouds 22 1019 42 10000 5.1 40 14:21 04.03.2020
1683 Clouds 22 1019 42 10000 5.1 40 13:59 04.03.2020
1684 Clouds 27 1011 40 0 4.51 70 13:40 04.03.2020
1685 Clouds 26 1020 44 10000 3.1 50 13:21 04.03.2020
1686 Clouds 26 1020 44 10000 3.1 50 13:21 04.03.2020
1687 Clouds 26 1020 44 10000 3.1 50 12:59 04.03.2020
1688 Clouds 20 1021 44 10000 2.6 320 12:41 04.03.2020
1689 Clouds 20 1021 44 10000 2.6 320 12:23 04.03.2020
1690 Clouds 21 1021 44 10000 2.6 320 11:55 04.03.2020
1691 Clouds 20 1023 57 10000 3.1 70 11:37 04.03.2020
1692 Clouds 20 1023 57 10000 3.1 70 11:19 04.03.2020
1693 Clouds 17 1014 90 0 3.33 25 10:42 04.03.2020
1694 Clouds 21 1023 69 10000 3.33 25 10:23 04.03.2020
1695 Clouds 21 1023 69 10000 3.33 25 09:55 04.03.2020
1696 Clouds 21 1025 73 10000 1.5 60 09:37 04.03.2020
1697 Clouds 21 1025 73 10000 1.5 60 09:18 04.03.2020
1698 Clouds 21 1025 83 10000 1.5 70 08:41 04.03.2020
1699 Clouds 19 1025 83 10000 1.5 70 08:22 04.03.2020
1700 Clouds 19 1024 88 10000 3.1 140 07:47 04.03.2020
1701 Clouds 18 1024 93 10000 1.5 120 07:28 04.03.2020
1702 Clouds 18 1023 93 5000 1.44 51 06:49 04.03.2020
1703 Clouds 18 1024 93 10000 1 0 06:26 04.03.2020
1704 Clouds 17 1023 88 10000 2.6 120 05:57 04.03.2020
1705 Clouds 16 1023 100 10000 4.1 100 05:21 04.03.2020
1706 Clouds 17 1021 93 10000 0.4 40 03:52 04.03.2020
1707 Clouds 17 1021 93 10000 0.4 40 03:33 04.03.2020
1708 Clouds 18 1021 93 10000 0.4 40 02:58 04.03.2020
1709 Clouds 18 1022 93 10000 1 0 02:27 04.03.2020
1710 Clouds 18 1021 93 10000 1.82 40 01:56 04.03.2020
1711 Clouds 17 1022 93 10000 1 0 01:33 04.03.2020
1712 Clouds 18 1021 88 10000 1.22 13 00:41 04.03.2020
1713 Clouds 18 1023 93 10000 1 350 00:21 04.03.2020
1714 Clouds 18 1022 88 10000 1.22 13 23:43 03.03.2020
1715 Clouds 19 1023 82 10000 2.1 320 23:23 03.03.2020
1716 Clouds 19 1023 82 10000 1.74 39 22:56 03.03.2020
1717 Clouds 19 1023 82 10000 1.74 39 22:37 03.03.2020
1718 Clouds 19 1023 88 10000 2.1 320 22:18 03.03.2020
1719 Clouds 19 1023 82 10000 1.74 39 21:43 03.03.2020
1720 Clouds 18 1023 88 10000 2.1 10 21:22 03.03.2020
1721 Clouds 19 1022 82 10000 1.74 39 20:58 03.03.2020
1722 Clouds 19 1022 82 10000 1.74 39 20:39 03.03.2020
1723 Clouds 20 1023 83 10000 4.1 10 20:19 03.03.2020
1724 Clouds 19 1022 77 10000 2.6 40 19:56 03.03.2020
1725 Clouds 19 1022 77 10000 2.6 40 19:37 03.03.2020
1726 Clouds 19 1022 83 10000 2.6 20 19:18 03.03.2020
1727 Clouds 20 1021 73 10000 4.1 70 18:57 03.03.2020
1728 Clouds 20 1021 73 10000 4.1 70 18:38 03.03.2020
1729 Clouds 20 1021 78 10000 5.1 50 18:19 03.03.2020
1730 Clouds 21 1020 64 10000 5.1 50 17:55 03.03.2020
1731 Clouds 21 1020 64 10000 6.2 60 17:36 03.03.2020
1732 Clouds 22 1020 64 10000 6.2 60 17:18 03.03.2020
1733 Clouds 22 1020 57 10000 5.7 80 16:55 03.03.2020
1734 Clouds 21 1020 53 10000 7.2 80 16:36 03.03.2020
1735 Clouds 23 1020 53 10000 7.2 80 16:18 03.03.2020
1736 Clouds 24 1019 53 10000 5.1 50 15:41 03.03.2020
1737 Clouds 23 1019 57 10000 8.2 70 15:21 03.03.2020
1738 Clouds 24 1019 50 10000 5.1 40 14:54 03.03.2020
1739 Clouds 24 1019 47 10000 6.2 80 14:36 03.03.2020
1740 Clouds 24 1019 47 10000 6.2 80 14:18 03.03.2020
1741 Clouds 27 1019 47 10000 6.2 80 13:42 03.03.2020
1742 Clouds 25 1020 61 10000 4.6 60 13:24 03.03.2020
1743 Clouds 26 1020 54 10000 4.6 30 12:55 03.03.2020
1744 Clouds 26 1020 54 10000 4.6 30 12:36 03.03.2020
1745 Clouds 26 1021 61 10000 4.1 70 12:18 03.03.2020
1746 Clouds 25 1021 57 10000 6.2 70 11:38 03.03.2020
1747 Clouds 25 1023 61 10000 2.6 60 11:19 03.03.2020
1748 Clouds 23 1023 64 10000 5.1 70 10:57 03.03.2020
1749 Clouds 23 1023 64 10000 5.1 70 10:39 03.03.2020
1750 Clouds 23 1023 64 10000 3.6 50 10:19 03.03.2020
1751 Clouds 24 1023 60 10000 2.6 50 09:45 03.03.2020
1752 Clouds 23 1024 69 10000 2.6 50 09:23 03.03.2020
1753 Clouds 23 1023 69 10000 2.1 70 08:59 03.03.2020
1754 Clouds 23 1023 69 10000 2.1 70 08:40 03.03.2020
1755 Clouds 20 1024 73 10000 3.1 20 08:22 03.03.2020
1756 Clouds 20 1023 68 10000 0.72 150 07:44 03.03.2020
1757 Clouds 18 1024 82 10000 1 0 07:24 03.03.2020
1758 Clouds 18 1023 93 10000 0.72 150 06:55 03.03.2020
1759 Clouds 17 1023 93 10000 1 220 06:27 03.03.2020
1760 Clouds 18 1022 93 10000 0.72 150 05:49 03.03.2020
1761 Clouds 18 1023 93 10000 1.5 230 05:31 03.03.2020
1762 Clouds 16 1021 88 10000 3.1 290 04:44 03.03.2020
1763 Clouds 16 1021 93 10000 2.1 230 02:24 03.03.2020
1764 Clouds 16 1021 93 10000 1 0 01:20 03.03.2020
1765 Clouds 16 1022 93 10000 2.1 240 00:38 03.03.2020
1766 Clouds 16 1022 93 10000 2.1 240 00:19 03.03.2020
1767 Clouds 16 1022 93 10000 1.5 180 23:43 02.03.2020
1768 Clouds 16 1023 88 10000 2.1 90 23:23 02.03.2020
1769 Clouds 16 1023 88 10000 1.5 170 22:56 02.03.2020
1770 Clouds 16 1023 93 10000 1 240 22:38 02.03.2020
1771 Clouds 16 1023 93 10000 1 240 22:19 02.03.2020
1772 Clouds 17 1023 88 10000 1.5 50 21:43 02.03.2020
1773 Clouds 17 1023 88 10000 1.5 50 21:24 02.03.2020
1774 Clouds 17 1022 93 10000 2.25 24 20:59 02.03.2020
1775 Clouds 18 1022 93 10000 2.25 24 20:41 02.03.2020
1776 Clouds 18 1021 82 10000 2.85 51 20:22 02.03.2020
1777 Clouds 18 1021 82 10000 2.85 51 19:58 02.03.2020
1778 Clouds 19 1021 82 10000 2.85 51 19:39 02.03.2020
1779 Clouds 18 1022 82 10000 1.5 120 19:20 02.03.2020
1780 Clouds 18 1021 88 10000 2.85 51 18:56 02.03.2020
1781 Clouds 18 1021 82 10000 1.5 50 18:38 02.03.2020
1782 Clouds 18 1021 82 10000 1.5 50 18:18 02.03.2020
1783 Clouds 19 1020 82 10000 2.85 51 17:56 02.03.2020
1784 Clouds 19 1020 82 10000 2.85 51 17:38 02.03.2020
1785 Clouds 18 1019 82 10000 4.38 70 17:19 02.03.2020
1786 Clouds 19 1019 82 10000 4.38 70 16:42 02.03.2020
1787 Clouds 19 1019 82 10000 1.5 310 16:23 02.03.2020
1788 Clouds 18 1019 82 10000 1.5 30 15:56 02.03.2020
1789 Clouds 18 1019 82 10000 1.5 30 15:56 02.03.2020
1790 Clouds 18 1019 82 10000 3.1 30 15:38 02.03.2020
1791 Clouds 18 1019 82 10000 3.1 30 15:18 02.03.2020
1792 Thunderstorm 17 1019 88 10000 5.1 150 14:37 02.03.2020
1793 Thunderstorm 20 1018 73 10000 2.1 80 14:19 02.03.2020
1794 Thunderstorm 20 1018 73 10000 2.1 80 14:19 02.03.2020
1795 Rain 21 1019 77 10000 3.1 30 13:45 02.03.2020
1796 Clouds 24 1019 64 10000 3.6 210 13:20 02.03.2020
1797 Clouds 24 1019 64 10000 5.1 160 12:59 02.03.2020
1798 Clouds 22 1019 64 10000 5.1 160 12:41 02.03.2020
1799 Clouds 22 1020 57 10000 2.1 0 12:19 02.03.2020
1800 Clouds 22 1020 57 10000 2.1 0 12:19 02.03.2020
1801 Clouds 25 1021 61 10000 4.1 160 11:39 02.03.2020
1802 Rain 23 1014 69 0 3.86 223 11:21 02.03.2020
1803 Rain 23 1014 69 0 3.86 223 10:58 02.03.2020
1804 Clouds 23 1023 69 10000 2.6 260 10:38 02.03.2020
1805 Clouds 20 1023 69 10000 2.6 260 10:19 02.03.2020
1806 Clouds 21 1023 69 10000 2.6 260 09:51 02.03.2020
1807 Clouds 20 1023 73 10000 3.6 280 09:31 02.03.2020
1808 Clouds 19 1022 77 10000 5.1 270 08:49 02.03.2020
1809 Clouds 18 1023 82 10000 4.1 260 08:24 02.03.2020
1810 Clouds 17 1022 82 10000 5.1 90 07:52 02.03.2020
1811 Clouds 17 1022 82 10000 5.7 250 07:33 02.03.2020
1812 Clouds 17 1021 88 10000 5.1 270 06:53 02.03.2020
1813 Clouds 16 1022 88 10000 3.1 210 06:26 02.03.2020
1814 Clouds 17 1021 100 10000 3.6 240 05:27 02.03.2020
1815 Clouds 16 1019 93 10000 2.33 191 03:59 02.03.2020
1816 Clouds 15 1021 100 10000 3.1 230 03:19 02.03.2020
1817 Clouds 16 1020 93 10000 2.1 70 02:32 02.03.2020
1818 Clouds 16 1020 93 10000 0.5 0 01:40 02.03.2020
1819 Clouds 16 1021 93 10000 1 0 01:22 02.03.2020
1820 Clouds 16 1021 93 10000 1.5 180 00:22 02.03.2020
1821 Clouds 16 1021 93 10000 2.6 190 23:56 01.03.2020
1822 Clouds 16 1022 93 10000 1 0 23:37 01.03.2020
1823 Clouds 17 1022 93 10000 1 0 23:18 01.03.2020
1824 Clouds 17 1021 93 10000 1 0 22:36 01.03.2020
1825 Clouds 17 1021 93 10000 1 0 22:18 01.03.2020
1826 Thunderstorm 18 1020 88 10000 4.24 53 21:42 01.03.2020
1827 Clouds 18 1021 93 10000 2.6 60 21:24 01.03.2020
1828 Thunderstorm 18 1020 82 10000 4.24 53 20:58 01.03.2020
1829 Thunderstorm 18 1020 82 10000 4.24 53 20:39 01.03.2020
1830 Thunderstorm 18 1021 93 5000 4.6 30 20:21 01.03.2020
1831 Clouds 18 1019 82 10000 3.6 340 19:42 01.03.2020
1832 Clouds 18 1019 88 10000 3.6 150 19:23 01.03.2020
1833 Clouds 18 1018 82 10000 4.1 140 18:58 01.03.2020
1834 Clouds 19 1018 82 10000 4.1 140 18:39 01.03.2020
1835 Rain 19 1019 82 10000 3.1 260 18:19 01.03.2020
1836 Clouds 19 1018 83 10000 2.6 180 17:57 01.03.2020
1837 Clouds 19 1018 83 10000 2.6 180 17:38 01.03.2020
1838 Clouds 20 1018 77 10000 4.6 180 17:20 01.03.2020
1839 Clouds 22 1017 73 10000 5.1 140 16:55 01.03.2020
1840 Clouds 22 1017 73 10000 5.1 140 16:37 01.03.2020
1841 Clouds 22 1017 57 10000 1.5 0 16:18 01.03.2020
1842 Clouds 22 1016 60 10000 5.1 270 15:56 01.03.2020
1843 Clouds 23 1016 60 10000 5.1 270 15:37 01.03.2020
1844 Clouds 22 1016 53 10000 4.6 300 15:37 01.03.2020
1845 Clouds 24 1016 53 10000 4.6 300 15:18 01.03.2020
1846 Clouds 22 1015 60 10000 3.6 340 14:55 01.03.2020
1847 Clouds 23 1016 44 10000 6.2 310 14:37 01.03.2020
1848 Clouds 26 1016 44 10000 6.2 310 14:18 01.03.2020
1849 Clouds 26 1016 53 10000 5.1 300 13:44 01.03.2020
1850 Clouds 28 1017 42 10000 4.1 50 13:21 01.03.2020
1851 Clouds 28 1017 45 10000 5.1 60 12:59 01.03.2020
1852 Clouds 28 1017 45 10000 5.1 60 12:41 01.03.2020
1853 Clouds 28 1018 39 10000 2.6 0 12:20 01.03.2020
1854 Clouds 27 1018 51 10000 2.6 130 11:42 01.03.2020
1855 Clouds 27 1019 51 10000 2.6 160 11:23 01.03.2020
1856 Clouds 26 1019 57 10000 2.76 19 10:57 01.03.2020
1857 Clouds 24 1021 57 10000 2.6 210 10:38 01.03.2020
1858 Clouds 25 1021 57 10000 2.6 210 10:19 01.03.2020
1859 Clouds 25 1021 57 10000 2.6 210 10:19 01.03.2020
1860 Clouds 24 1020 57 10000 3.1 150 09:55 01.03.2020
1861 Clouds 25 1021 65 10000 1.5 130 09:36 01.03.2020
1862 Clouds 24 1021 65 10000 1.5 130 09:18 01.03.2020
1863 Clouds 23 1021 64 10000 2.6 60 08:39 01.03.2020
1864 Clouds 20 1022 83 10000 0.5 0 08:19 01.03.2020
1865 Clouds 20 1020 82 10000 1.95 12 07:42 01.03.2020
1866 Clouds 19 1021 83 10000 1.95 12 07:23 01.03.2020
1867 Clouds 19 1020 93 10000 1.95 12 06:53 01.03.2020
1868 Clouds 19 1020 93 10000 1.95 12 06:53 01.03.2020
1869 Clouds 18 1021 93 10000 0.5 0 06:33 01.03.2020
1870 Clouds 17 1020 88 10000 2.1 350 04:24 01.03.2020
1871 Clouds 18 1019 88 10000 2.1 350 02:29 01.03.2020
1872 Rain 19 1019 82 10000 1.91 23 01:53 01.03.2020
1873 Clouds 18 1019 88 10000 2.1 350 01:22 01.03.2020
1874 Clouds 18 1020 93 10000 1.5 350 00:43 01.03.2020
1875 Clouds 18 1020 88 10000 2.1 20 00:21 01.03.2020
1876 Clouds 18 1020 88 10000 3.1 10 23:49 29.02.2020
1877 Clouds 18 1020 88 10000 3.1 10 23:49 29.02.2020
1878 Clouds 18 1020 88 10000 2.6 10 23:31 29.02.2020
1879 Clouds 19 1021 88 10000 2.1 360 22:44 29.02.2020
1880 Clouds 19 1021 88 10000 3.1 40 22:24 29.02.2020
1881 Clouds 19 1021 83 10000 3.1 80 21:43 29.02.2020
1882 Clouds 20 1021 83 10000 3.1 80 21:25 29.02.2020
1883 Clouds 19 1021 83 10000 3.6 70 20:44 29.02.2020
1884 Clouds 20 1020 83 10000 4.1 80 20:22 29.02.2020
1885 Clouds 21 1018 69 10000 2.6 60 19:57 29.02.2020
1886 Clouds 21 1019 73 10000 2.1 70 19:38 29.02.2020
1887 Clouds 21 1019 73 10000 2.1 70 19:20 29.02.2020
1888 Clouds 21 1019 73 10000 2.1 70 19:20 29.02.2020
1889 Clouds 21 1018 60 10000 4.1 90 18:44 29.02.2020
1890 Clouds 21 1018 64 10000 4.1 80 18:25 29.02.2020
1891 Clouds 22 1017 60 10000 5.1 60 17:58 29.02.2020
1892 Clouds 22 1017 60 10000 5.1 60 17:40 29.02.2020
1893 Clouds 22 1017 60 10000 5.1 60 17:40 29.02.2020
1894 Clouds 23 1018 57 10000 5.7 80 17:21 29.02.2020
1895 Clouds 23 1017 57 10000 3.6 90 16:56 29.02.2020
1896 Clouds 24 1017 57 10000 3.6 90 16:37 29.02.2020
1897 Clouds 24 1017 54 10000 5.7 80 16:18 29.02.2020
1898 Clouds 24 1017 54 10000 5.7 80 16:18 29.02.2020
1899 Clouds 27 1016 47 10000 2.6 70 15:41 29.02.2020
1900 Clouds 27 1017 42 10000 2.6 60 15:23 29.02.2020
1901 Clouds 28 1017 39 10000 2.6 30 14:42 29.02.2020
1902 Clouds 27 1017 39 10000 2.6 30 14:24 29.02.2020
1903 Clouds 28 1017 39 10000 2.6 30 14:24 29.02.2020
1904 Clouds 27 1017 39 10000 3.1 40 13:58 29.02.2020
1905 Clouds 25 1018 34 10000 2.1 0 13:38 29.02.2020
1906 Clouds 25 1018 34 10000 2.1 0 13:20 29.02.2020
1907 Clouds 24 1019 44 10000 2.6 70 12:43 29.02.2020
1908 Clouds 25 1019 44 10000 2.6 70 12:22 29.02.2020
1909 Clouds 24 1020 47 10000 2.6 0 11:57 29.02.2020
1910 Clouds 25 1021 50 10000 1.5 0 11:39 29.02.2020
1911 Clouds 24 1021 50 10000 1.5 0 11:21 29.02.2020
1912 Clouds 24 1021 57 10000 3.1 100 10:46 29.02.2020
1913 Clouds 23 1022 57 10000 2.1 90 10:28 29.02.2020
1914 Clouds 24 1022 60 10000 2.6 60 09:50 29.02.2020
1915 Clouds 24 1022 57 10000 2.1 80 09:27 29.02.2020
1916 Clouds 23 1023 64 10000 1.5 0 08:43 29.02.2020
1917 Clouds 20 1023 64 10000 1.5 0 08:24 29.02.2020
1918 Clouds 19 1023 73 10000 1.24 277 07:59 29.02.2020
1919 Clouds 19 1023 73 10000 1.24 277 07:41 29.02.2020
1920 Clouds 19 1023 73 10000 1.24 277 07:18 29.02.2020
1921 Clouds 17 1022 88 10000 1 240 06:45 29.02.2020
1922 Clouds 16 1022 88 10000 2.1 200 06:25 29.02.2020
1923 Clouds 16 1022 93 10000 1.5 180 05:47 29.02.2020
1924 Clouds 15 1021 87 10000 1.5 240 04:46 29.02.2020
1925 Clouds 15 1021 87 10000 1.5 310 03:40 29.02.2020
1926 Clouds 16 1021 87 10000 2.1 250 03:22 29.02.2020
1927 Clouds 16 1020 82 10000 0.5 297 02:38 29.02.2020
1928 Clouds 16 1021 88 10000 1.02 345 01:23 29.02.2020
1929 Clouds 16 1021 88 10000 1.02 345 00:37 29.02.2020
1930 Clouds 17 1022 88 10000 1.02 345 23:56 28.02.2020
1931 Clouds 17 1022 88 10000 1.02 345 23:36 28.02.2020
1932 Clouds 18 1022 82 10000 2.1 40 23:18 28.02.2020
1933 Clouds 19 1021 77 10000 2.09 52 22:41 28.02.2020
1934 Clouds 19 1022 77 10000 1.5 40 22:19 28.02.2020
1935 Clouds 19 1021 68 10000 2.1 20 21:41 28.02.2020
1936 Clouds 19 1022 72 10000 1.5 50 21:21 28.02.2020
1937 Clouds 19 1021 68 10000 2.6 60 20:54 28.02.2020
1938 Clouds 18 1021 73 10000 3.6 30 20:36 28.02.2020
1939 Clouds 20 1021 73 10000 3.6 30 20:18 28.02.2020
1940 Clouds 20 1020 64 10000 3.6 50 19:55 28.02.2020
1941 Clouds 20 1020 64 10000 3.6 50 19:37 28.02.2020
1942 Clouds 20 1021 68 10000 3.6 50 19:18 28.02.2020
1943 Clouds 20 1019 60 10000 3.6 40 18:43 28.02.2020
1944 Clouds 20 1020 64 10000 4.1 60 18:22 28.02.2020
1945 Clouds 21 1018 60 10000 4.1 60 17:41 28.02.2020
1946 Clouds 23 1019 60 10000 5.7 60 17:23 28.02.2020
1947 Clouds 23 1019 60 10000 5.7 60 17:23 28.02.2020
1948 Clouds 24 1018 53 10000 7.2 90 16:56 28.02.2020
1949 Clouds 25 1018 53 10000 6.7 70 16:37 28.02.2020
1950 Clouds 25 1018 53 10000 6.7 70 16:18 28.02.2020
1951 Clouds 23 1018 53 10000 7.7 70 15:42 28.02.2020
1952 Clouds 26 1018 50 10000 6.7 70 15:20 28.02.2020
1953 Clouds 26 1018 50 10000 4.1 80 14:59 28.02.2020
1954 Clouds 26 1018 50 10000 4.1 80 14:41 28.02.2020
1955 Clouds 27 1019 47 10000 5.7 70 14:19 28.02.2020
1956 Clouds 26 1018 47 10000 3.6 40 13:57 28.02.2020
1957 Clouds 26 1018 47 10000 3.6 40 13:39 28.02.2020
1958 Clouds 24 1019 50 10000 5.7 60 13:19 28.02.2020
1959 Clouds 24 1021 53 10000 7.2 60 12:43 28.02.2020
1960 Clouds 24 1021 53 10000 7.2 60 12:24 28.02.2020
1961 Clouds 25 1021 53 10000 7.2 60 11:43 28.02.2020
1962 Clouds 24 1021 53 10000 7.7 50 11:24 28.02.2020
1963 Clouds 23 1021 57 10000 5.1 70 10:59 28.02.2020
1964 Clouds 23 1021 57 10000 5.1 70 10:41 28.02.2020
1965 Clouds 23 1022 60 10000 6.2 50 10:22 28.02.2020
1966 Clouds 22 1021 68 10000 6.2 20 09:47 28.02.2020
1967 Clouds 22 1022 69 10000 5.7 60 09:21 28.02.2020
1968 Clouds 21 1022 73 10000 5.1 80 08:57 28.02.2020
1969 Clouds 20 1023 82 10000 4.6 60 08:39 28.02.2020
1970 Clouds 20 1023 82 10000 4.6 60 08:20 28.02.2020
1971 Clouds 19 1021 82 10000 5.7 70 07:41 28.02.2020
1972 Clouds 19 1022 88 10000 3.6 50 07:22 28.02.2020
1973 Clouds 18 1021 88 10000 3.1 50 06:45 28.02.2020
1974 Clouds 17 1022 93 10000 3.1 50 06:24 28.02.2020
1975 Clouds 17 1020 93 10000 4.1 70 04:46 28.02.2020
1976 Clouds 16 1021 93 10000 4.1 80 04:18 28.02.2020
1977 Clouds 18 1020 88 10000 4.1 90 02:46 28.02.2020
1978 Clouds 18 1020 93 10000 3.1 70 02:27 28.02.2020
1979 Clouds 18 1020 93 10000 3.1 30 01:26 28.02.2020
1980 Clouds 17 1021 93 10000 2.1 30 00:30 28.02.2020
1981 Clouds 17 1021 93 10000 3.6 60 23:42 27.02.2020
1982 Clouds 18 1021 93 10000 3.6 40 23:21 27.02.2020
1983 Clouds 19 1021 88 10000 3.1 50 22:46 27.02.2020
1984 Clouds 18 1022 93 10000 3.6 60 22:27 27.02.2020
1985 Clouds 18 1021 88 10000 5.1 50 21:59 27.02.2020
1986 Clouds 19 1021 88 10000 5.1 50 21:41 27.02.2020
1987 Clouds 19 1022 93 10000 3.1 50 21:19 27.02.2020
1988 Clouds 19 1020 88 10000 3.1 80 20:57 27.02.2020
1989 Clouds 19 1020 88 10000 3.1 80 20:39 27.02.2020
1990 Clouds 19 1021 94 10000 5.1 60 20:20 27.02.2020
1991 Clouds 19 1021 94 10000 5.1 60 20:20 27.02.2020
1992 Clouds 18 1021 94 10000 4.1 50 19:56 27.02.2020
1993 Clouds 19 1021 94 10000 4.1 50 19:37 27.02.2020
1994 Clouds 19 1021 94 10000 4.1 50 19:18 27.02.2020
1995 Clouds 19 1020 88 10000 4.6 50 18:40 27.02.2020
1996 Clouds 19 1020 88 10000 5.1 40 18:22 27.02.2020
1997 Clouds 19 1019 88 10000 5.1 40 17:58 27.02.2020
1998 Clouds 19 1019 88 10000 5.1 40 17:40 27.02.2020
1999 Clouds 19 1019 88 10000 5.7 40 17:19 27.02.2020
2000 Rain 19 1019 77 10000 6.7 50 16:56 27.02.2020
2001 Clouds 22 1018 64 10000 7.2 50 16:38 27.02.2020
2002 Clouds 22 1018 64 10000 7.2 50 16:18 27.02.2020
2003 Clouds 22 1018 60 10000 6.2 40 15:56 27.02.2020
2004 Clouds 22 1018 60 10000 6.2 40 15:36 27.02.2020
2005 Clouds 22 1018 64 10000 8.2 30 15:18 27.02.2020
2006 Clouds 24 1018 57 10000 7.7 30 14:42 27.02.2020
2007 Clouds 23 1018 54 10000 8.7 70 14:23 27.02.2020
2008 Clouds 23 1018 50 10000 8.2 60 13:57 27.02.2020
2009 Clouds 24 1018 50 10000 8.2 60 13:39 27.02.2020
2010 Clouds 24 1018 50 10000 8.2 60 13:39 27.02.2020
2011 Clouds 24 1019 51 10000 8.7 50 13:20 27.02.2020
2012 Clouds 25 1019 53 10000 8.2 50 12:45 27.02.2020
2013 Clouds 25 1019 53 10000 8.2 50 12:45 27.02.2020
2014 Clouds 25 1020 57 10000 7.2 60 12:23 27.02.2020
2015 Clouds 24 1020 57 10000 5.7 50 11:57 27.02.2020
2016 Clouds 24 1020 57 10000 5.7 50 11:38 27.02.2020
2017 Clouds 24 1021 65 10000 5.1 40 11:20 27.02.2020
2018 Clouds 24 1021 60 10000 6.2 80 10:42 27.02.2020
2019 Clouds 23 1022 78 10000 3.6 40 10:20 27.02.2020
2020 Clouds 23 1022 69 10000 7.2 70 09:46 27.02.2020
2021 Clouds 22 1022 68 10000 4.6 60 09:28 27.02.2020
2022 Clouds 22 1022 64 10000 5.1 50 08:56 27.02.2020
2023 Clouds 20 1023 77 10000 2.6 60 08:38 27.02.2020
2024 Clouds 20 1023 77 10000 2.6 60 08:18 27.02.2020
2025 Clouds 20 1021 88 10000 3.62 47 07:42 27.02.2020
2026 Clouds 18 1022 88 10000 2.1 330 07:24 27.02.2020
2027 Clouds 18 1021 93 10000 3.1 300 06:31 27.02.2020
2028 Rain 16 1021 100 10000 1.5 350 05:24 27.02.2020
2029 Rain 16 1021 93 10000 2.6 20 03:21 27.02.2020
2030 Rain 17 1021 93 10000 6.2 90 01:39 27.02.2020
2031 Rain 17 1021 100 10000 5.1 90 00:43 27.02.2020
2032 Clouds 17 1021 93 10000 3.1 60 00:22 27.02.2020
2033 Drizzle 17 1021 93 10000 3.1 30 23:38 26.02.2020
2034 Rain 18 1021 93 10000 4.6 50 23:18 26.02.2020
2035 Clouds 19 1021 82 10000 4.1 90 22:56 26.02.2020
2036 Clouds 19 1021 82 10000 4.1 90 22:38 26.02.2020
2037 Clouds 19 1021 82 10000 2.6 20 22:19 26.02.2020
2038 Clouds 19 1021 82 10000 2.6 30 21:40 26.02.2020
2039 Clouds 19 1021 82 10000 2.6 50 21:21 26.02.2020
2040 Clouds 18 1021 93 10000 3.6 60 20:57 26.02.2020
2041 Clouds 18 1021 93 10000 3.6 60 20:38 26.02.2020
2042 Clouds 18 1021 93 10000 3.6 60 20:38 26.02.2020
2043 Clouds 19 1021 88 10000 3.6 80 20:19 26.02.2020
2044 Clouds 19 1021 88 10000 5.1 70 19:57 26.02.2020
2045 Clouds 20 1021 88 10000 5.1 70 19:38 26.02.2020
2046 Clouds 20 1020 88 10000 4.1 80 19:19 26.02.2020
2047 Rain 19 1020 94 8000 6.7 80 18:57 26.02.2020
2048 Rain 20 1019 73 1000 9.8 60 18:38 26.02.2020
2049 Rain 22 1019 73 1000 9.8 60 18:19 26.02.2020
2050 Clouds 22 1017 60 10000 7.2 70 17:41 26.02.2020
2051 Clouds 23 1018 53 10000 7.2 50 17:21 26.02.2020
2052 Clouds 23 1016 50 10000 6.2 30 16:57 26.02.2020
2053 Clouds 24 1016 50 10000 6.2 30 16:39 26.02.2020
2054 Clouds 24 1017 44 10000 6.7 50 16:20 26.02.2020
2055 Clouds 25 1016 44 10000 6.2 20 15:46 26.02.2020
2056 Clouds 24 1017 44 10000 6.2 50 15:28 26.02.2020
2057 Clouds 25 1018 44 10000 6.2 20 14:56 26.02.2020
2058 Clouds 26 1018 44 10000 6.2 20 14:37 26.02.2020
2059 Clouds 26 1017 47 10000 5.7 50 14:18 26.02.2020
2060 Clouds 28 1017 39 10000 9.3 90 13:42 26.02.2020
2061 Clouds 27 1018 47 10000 3.6 50 13:20 26.02.2020
2062 Clouds 25 1020 57 10000 4.6 60 12:39 26.02.2020
2063 Clouds 25 1020 57 10000 4.6 60 12:20 26.02.2020
2064 Clouds 24 1020 57 10000 4.6 60 11:57 26.02.2020
2065 Clouds 24 1021 61 10000 3.6 30 11:39 26.02.2020
2066 Clouds 22 1020 57 10000 2.6 60 11:21 26.02.2020
2067 Clouds 22 1020 57 10000 2.6 60 10:42 26.02.2020
2068 Clouds 21 1022 69 10000 4.1 20 10:23 26.02.2020
2069 Clouds 21 1022 69 10000 4.1 20 09:57 26.02.2020
2070 Clouds 22 1022 69 10000 4.1 20 09:39 26.02.2020
2071 Clouds 21 1023 73 10000 3.1 50 09:20 26.02.2020
2072 Clouds 20 1023 77 10000 3.6 60 08:39 26.02.2020
2073 Clouds 20 1023 77 10000 3.6 60 08:19 26.02.2020
2074 Clouds 20 1022 82 10000 2.6 90 07:51 26.02.2020
2075 Clouds 19 1022 82 10000 3.6 70 07:30 26.02.2020
2076 Clouds 18 1022 82 10000 1.5 40 06:58 26.02.2020
2077 Clouds 18 1022 82 10000 1.5 40 06:39 26.02.2020
2078 Clouds 17 1021 88 10000 2.62 41 06:18 26.02.2020
2079 Clouds 17 1021 93 10000 2.1 230 05:47 26.02.2020
2080 Clouds 17 1020 88 10000 1.26 91 04:52 26.02.2020
2081 Clouds 16 1020 93 10000 1.5 280 02:55 26.02.2020
2082 Rain 18 1020 82 10000 2.6 360 01:51 26.02.2020
2083 Clouds 18 1020 88 10000 2.6 10 01:24 26.02.2020
2084 Clouds 18 1021 82 10000 2.1 20 00:28 26.02.2020
2085 Clouds 17 1021 88 10000 1 0 23:59 25.02.2020
2086 Clouds 17 1021 88 10000 1 0 23:41 25.02.2020
2087 Clouds 17 1021 88 10000 0.5 270 23:21 25.02.2020
2088 Clouds 17 1021 88 10000 2.1 280 22:43 25.02.2020
2089 Clouds 18 1021 82 10000 1.5 230 22:20 25.02.2020
2090 Clouds 18 1021 82 10000 2.79 87 21:59 25.02.2020
2091 Clouds 18 1021 82 10000 2.6 230 21:38 25.02.2020
2092 Clouds 18 1021 82 10000 2.6 230 21:20 25.02.2020
2093 Clouds 18 1020 82 10000 2.79 87 20:56 25.02.2020
2094 Clouds 18 1020 82 10000 2.79 87 20:56 25.02.2020
2095 Clouds 18 1020 82 10000 2.79 87 20:37 25.02.2020
2096 Clouds 19 1020 77 10000 2.1 270 20:19 25.02.2020
2097 Clouds 19 1020 73 10000 2.6 230 19:44 25.02.2020
2098 Clouds 19 1020 64 10000 3.1 200 19:23 25.02.2020
2099 Clouds 20 1019 60 10000 2.6 30 18:59 25.02.2020
2100 Clouds 20 1019 60 10000 2.6 30 18:40 25.02.2020
2101 Clouds 22 1019 57 10000 3.6 50 18:20 25.02.2020
2102 Clouds 22 1018 60 10000 3.43 57 17:56 25.02.2020
2103 Clouds 22 1018 53 10000 5.7 50 17:37 25.02.2020
2104 Clouds 23 1018 53 10000 5.7 50 17:18 25.02.2020
2105 Clouds 23 1017 44 10000 3.1 70 16:55 25.02.2020
2106 Clouds 24 1017 44 10000 6.2 50 16:37 25.02.2020
2107 Clouds 24 1017 44 10000 6.2 50 16:19 25.02.2020
2108 Clouds 26 1016 42 10000 5.1 60 15:45 25.02.2020
2109 Clouds 26 1016 42 10000 5.1 60 15:45 25.02.2020
2110 Clouds 26 1017 42 10000 4.6 60 15:20 25.02.2020
2111 Clouds 25 1017 37 10000 5.7 60 14:59 25.02.2020
2112 Clouds 25 1017 37 10000 5.7 60 14:39 25.02.2020
2113 Clouds 25 1017 37 10000 5.7 60 14:39 25.02.2020
2114 Clouds 28 1017 37 10000 6.2 70 14:18 25.02.2020
2115 Clouds 28 1017 37 10000 6.2 70 14:18 25.02.2020
2116 Clouds 27 1017 44 10000 5.1 270 13:58 25.02.2020
2117 Clouds 27 1017 44 10000 5.1 270 13:40 25.02.2020
2118 Clouds 29 1018 35 10000 5.1 90 13:20 25.02.2020
2119 Clouds 29 1018 35 10000 5.1 90 13:20 25.02.2020
2120 Clouds 29 1018 39 10000 3.1 70 12:56 25.02.2020
2121 Clouds 29 1019 37 10000 1.5 0 12:37 25.02.2020
2122 Clouds 26 1019 37 10000 1.5 0 12:19 25.02.2020
2123 Clouds 26 1018 37 10000 5.1 90 11:55 25.02.2020
2124 Clouds 25 1020 42 10000 4.6 70 11:37 25.02.2020
2125 Clouds 25 1020 42 10000 4.6 70 11:18 25.02.2020
2126 Clouds 26 1019 37 10000 5.1 50 10:41 25.02.2020
2127 Clouds 24 1021 47 10000 3.6 30 10:23 25.02.2020
2128 Clouds 24 1021 50 10000 3.6 40 09:42 25.02.2020
2129 Clouds 24 1021 47 10000 3.1 10 09:23 25.02.2020
2130 Clouds 23 1021 50 10000 2.6 10 08:58 25.02.2020
2131 Clouds 22 1021 56 10000 3.6 50 08:39 25.02.2020
2132 Clouds 22 1021 56 10000 3.6 50 08:21 25.02.2020
2133 Clouds 22 1021 53 10000 3.1 40 07:48 25.02.2020
2134 Clouds 20 1021 60 10000 4.1 40 07:21 25.02.2020
2135 Clouds 19 1020 68 10000 4.1 20 06:53 25.02.2020
2136 Clouds 16 1020 72 10000 2.99 26 05:44 25.02.2020
2137 Clouds 16 1020 77 10000 2.17 11 03:54 25.02.2020
2138 Clouds 16 1021 77 10000 2.6 10 02:32 25.02.2020
2139 Clouds 17 1021 77 10000 2.6 360 00:57 25.02.2020
2140 Clouds 17 1021 72 10000 2.1 320 00:30 25.02.2020
2141 Clouds 17 1022 72 10000 2.1 340 23:47 24.02.2020
2142 Clouds 18 1022 72 10000 2.1 350 23:28 24.02.2020
2143 Clouds 18 1021 60 10000 2.09 42 22:56 24.02.2020
2144 Clouds 15 1011 78 0 4.02 84 22:36 24.02.2020
2145 Clouds 18 1021 52 10000 2.09 42 22:18 24.02.2020
2146 Clouds 19 1021 52 10000 2.09 42 21:54 24.02.2020
2147 Clouds 19 1021 52 10000 2.09 42 21:36 24.02.2020
2148 Clouds 18 1021 52 10000 3.1 50 21:18 24.02.2020
2149 Clouds 19 1021 52 10000 3.1 50 20:41 24.02.2020
2150 Clouds 19 1021 60 10000 3.6 40 20:20 24.02.2020
2151 Clouds 20 1020 46 10000 2.1 50 19:59 24.02.2020
2152 Clouds 20 1020 46 10000 2.1 50 19:40 24.02.2020
2153 Clouds 20 1020 49 10000 4.1 50 19:22 24.02.2020
2154 Clouds 20 1019 38 10000 3.6 60 18:56 24.02.2020
2155 Clouds 19 1019 43 10000 3.6 30 18:38 24.02.2020
2156 Clouds 20 1019 43 10000 3.6 30 18:19 24.02.2020
2157 Clouds 20 1019 43 10000 3.6 30 18:19 24.02.2020
2158 Clouds 21 1018 35 10000 6.2 70 17:42 24.02.2020
2159 Clouds 22 1018 31 10000 5.7 70 17:21 24.02.2020
2160 Clouds 23 1017 36 10000 4.6 70 16:59 24.02.2020
2161 Clouds 23 1017 36 10000 4.6 70 16:40 24.02.2020
2162 Clouds 26 1018 31 10000 7.7 70 16:21 24.02.2020
2163 Clouds 24 1017 36 10000 7.7 70 15:59 24.02.2020
2164 Clouds 23 1018 36 10000 6.2 70 15:40 24.02.2020
2165 Clouds 24 1018 36 10000 6.2 70 15:21 24.02.2020
2166 Clouds 24 1018 36 10000 6.2 70 15:21 24.02.2020
2167 Clouds 25 1018 39 10000 6.2 80 14:58 24.02.2020
2168 Clouds 25 1018 39 10000 6.2 80 14:40 24.02.2020
2169 Clouds 25 1018 44 10000 6.7 70 14:19 24.02.2020
2170 Clouds 25 1018 39 10000 4.6 90 13:56 24.02.2020
2171 Clouds 25 1018 39 10000 4.6 90 13:37 24.02.2020
2172 Clouds 25 1019 41 10000 6.2 60 13:19 24.02.2020
2173 Clouds 25 1019 39 10000 8.7 90 12:55 24.02.2020
2174 Clouds 24 1020 41 10000 6.7 70 12:37 24.02.2020
2175 Clouds 25 1020 41 10000 6.7 70 12:18 24.02.2020
2176 Clouds 24 1020 44 10000 7.7 30 11:42 24.02.2020
2177 Clouds 24 1021 50 10000 6.7 40 11:23 24.02.2020
2178 Clouds 24 1021 47 10000 6.2 60 10:44 24.02.2020
2179 Clouds 23 1022 50 10000 8.2 50 10:25 24.02.2020
2180 Clouds 23 1021 56 10000 7.2 60 09:41 24.02.2020
2181 Clouds 22 1022 64 10000 6.2 50 09:20 24.02.2020
2182 Clouds 21 1021 72 10000 6.2 30 08:57 24.02.2020
2183 Clouds 20 1021 72 10000 6.2 30 08:37 24.02.2020
2184 Clouds 19 1022 88 10000 5.1 60 08:19 24.02.2020
2185 Clouds 18 1022 88 10000 5.1 60 07:41 24.02.2020
2186 Clouds 18 1011 66 0 0.45 64 07:23 24.02.2020
2187 Fog 17 1021 100 1000 3.6 50 06:34 24.02.2020
2188 Fog 15 1021 100 1000 3.6 50 05:52 24.02.2020
2189 Clouds 16 1021 93 10000 3.1 40 05:28 24.02.2020
2190 Clouds 16 1020 93 10000 2.1 20 03:27 24.02.2020
2191 Clouds 16 1020 93 10000 2.6 10 02:51 24.02.2020
2192 Clouds 17 1019 93 10000 1.87 58 01:41 24.02.2020
2193 Clouds 16 1020 93 10000 3.1 360 00:52 24.02.2020
2194 Clouds 17 1021 88 10000 2.6 20 00:21 24.02.2020
2195 Clouds 17 1021 88 10000 2.6 20 23:58 23.02.2020
2196 Clouds 17 1021 88 10000 2.6 20 23:40 23.02.2020
2197 Clear 18 1021 88 10000 2.6 10 23:18 23.02.2020
2198 Clear 18 1021 82 10000 2.6 50 22:54 23.02.2020
2199 Clear 18 1021 82 10000 2.6 50 22:36 23.02.2020
2200 Clear 19 1021 88 10000 2.6 10 22:18 23.02.2020
2201 Clear 18 1021 77 10000 2.69 53 21:43 23.02.2020
2202 Clear 18 1021 82 10000 2.1 20 21:19 23.02.2020
2203 Clear 17 1021 82 10000 3.1 30 20:55 23.02.2020
2204 Clear 18 1021 82 10000 3.1 30 20:37 23.02.2020
2205 Clouds 20 1021 73 10000 3.6 50 20:19 23.02.2020
2206 Clouds 20 1020 73 10000 2.1 30 19:55 23.02.2020
2207 Clouds 19 1020 73 10000 2.6 70 19:36 23.02.2020
2208 Clouds 21 1020 73 10000 2.6 70 19:18 23.02.2020
2209 Clouds 21 1018 50 10000 3.1 50 18:41 23.02.2020
2210 Clouds 21 1019 64 10000 4.6 60 18:21 23.02.2020
2211 Clouds 21 1018 50 10000 5.1 50 17:59 23.02.2020
2212 Clouds 21 1018 50 10000 5.1 50 17:41 23.02.2020
2213 Clouds 22 1019 53 10000 7.2 60 17:22 23.02.2020
2214 Clouds 22 1018 50 10000 7.2 50 16:58 23.02.2020
2215 Clouds 23 1018 50 10000 7.2 50 16:40 23.02.2020
2216 Clouds 23 1018 50 10000 7.7 50 16:21 23.02.2020
2217 Clouds 24 1017 44 10000 10.3 70 15:56 23.02.2020
2218 Clouds 24 1017 44 10000 10.3 70 15:37 23.02.2020
2219 Clouds 24 1018 54 10000 6.2 60 15:19 23.02.2020
2220 Clouds 24 1017 50 10000 8.2 80 14:55 23.02.2020
2221 Clouds 24 1018 54 10000 8.2 60 14:37 23.02.2020
2222 Clouds 24 1018 54 10000 8.2 60 14:19 23.02.2020
2223 Clouds 25 1018 53 10000 8.7 80 13:55 23.02.2020
2224 Clouds 25 1018 53 10000 8.7 80 13:37 23.02.2020
2225 Clouds 24 1019 54 10000 6.2 60 13:19 23.02.2020
2226 Clouds 24 1019 57 10000 5.1 80 12:40 23.02.2020
2227 Clouds 24 1020 64 10000 6.2 20 12:21 23.02.2020
2228 Clouds 24 1020 57 10000 6.2 70 11:39 23.02.2020
2229 Clouds 24 1021 65 10000 6.2 40 11:20 23.02.2020
2230 Clouds 23 1021 60 10000 7.2 50 10:59 23.02.2020
2231 Clouds 22 1022 73 10000 6.2 50 10:41 23.02.2020
2232 Clouds 22 1022 73 10000 6.2 50 10:23 23.02.2020
2233 Clouds 22 1021 73 10000 5.1 60 09:56 23.02.2020
2234 Clouds 22 1021 73 10000 5.1 60 09:38 23.02.2020
2235 Clouds 20 1021 82 10000 7.7 50 09:19 23.02.2020
2236 Clouds 20 1021 82 10000 7.7 50 08:50 23.02.2020
2237 Clouds 20 1023 82 10000 5.7 50 08:29 23.02.2020
2238 Clouds 19 1021 88 10000 5.1 30 07:48 23.02.2020
2239 Clouds 18 1022 88 10000 4.6 50 07:30 23.02.2020
2240 Clouds 18 1021 93 10000 5.1 60 06:27 23.02.2020
2241 Clouds 16 1020 93 10000 5.1 50 05:39 23.02.2020
2242 Clouds 17 1020 93 10000 3.6 50 04:24 23.02.2020
2243 Clouds 17 1020 93 10000 3.6 40 02:58 23.02.2020
2244 Clouds 17 1020 93 10000 2.6 60 01:48 23.02.2020
2245 Clouds 17 1021 93 10000 2.1 50 01:22 23.02.2020
2246 Clouds 17 1021 93 10000 2.6 40 00:45 23.02.2020
2247 Clouds 17 1021 93 10000 2.6 40 00:23 23.02.2020
2248 Clouds 16 1008 85 0 0.89 258 23:44 22.02.2020
2249 Clouds 18 1021 93 10000 3.1 64 23:26 22.02.2020
2250 Clouds 18 1021 93 10000 3.1 64 22:55 22.02.2020
2251 Clouds 18 1021 93 10000 3.1 64 22:36 22.02.2020
2252 Clouds 18 1022 93 10000 3.6 70 22:18 22.02.2020
2253 Clouds 19 1022 93 10000 3.6 70 21:40 22.02.2020
2254 Clouds 19 1022 82 10000 4.6 70 21:21 22.02.2020
2255 Clouds 19 1020 77 10000 7.2 60 20:43 22.02.2020
2256 Clouds 20 1021 82 10000 4.6 50 20:24 22.02.2020
2257 Clouds 20 1020 73 10000 4.1 40 19:54 22.02.2020
2258 Clouds 20 1020 73 10000 4.1 40 19:36 22.02.2020
2259 Clouds 20 1020 83 10000 4.1 50 19:18 22.02.2020
2260 Clouds 20 1020 83 10000 4.1 50 19:18 22.02.2020
2261 Clouds 20 1019 64 10000 5.1 60 18:39 22.02.2020
2262 Clouds 21 1020 69 10000 6.7 60 18:21 22.02.2020
2263 Rain 21 1018 60 10000 5.1 80 17:57 22.02.2020
2264 Rain 22 1018 60 10000 5.1 80 17:37 22.02.2020
2265 Clouds 23 1019 64 10000 6.7 80 17:19 22.02.2020
2266 Clouds 23 1018 47 10000 9.3 90 16:55 22.02.2020
2267 Clouds 24 1018 47 10000 9.3 90 16:37 22.02.2020
2268 Clouds 24 1018 57 10000 7.7 90 16:19 22.02.2020
2269 Clouds 25 1018 44 10000 8.2 60 15:42 22.02.2020
2270 Clouds 27 1018 47 10000 6.7 60 15:22 22.02.2020
2271 Clouds 25 1018 50 10000 5.1 80 14:43 22.02.2020
2272 Clouds 27 1018 47 10000 7.7 70 14:22 22.02.2020
2273 Clouds 26 1018 44 10000 8.2 70 13:56 22.02.2020
2274 Clouds 26 1018 44 10000 8.2 70 13:38 22.02.2020
2275 Clouds 26 1019 47 10000 5.7 50 13:18 22.02.2020
2276 Clouds 27 1019 44 10000 5.1 80 12:41 22.02.2020
2277 Clouds 27 1020 51 10000 6.7 60 12:23 22.02.2020
2278 Clouds 26 1020 50 10000 6.2 60 11:46 22.02.2020
2279 Clouds 25 1021 54 10000 5.7 60 11:28 22.02.2020
2280 Clouds 24 1021 53 10000 6.2 60 10:57 22.02.2020
2281 Clouds 25 1021 53 10000 6.2 60 10:39 22.02.2020
2282 Clouds 24 1023 57 10000 7.2 60 10:19 22.02.2020
2283 Clouds 24 1022 57 10000 5.7 40 09:57 22.02.2020
2284 Clouds 24 1022 57 10000 5.7 40 09:38 22.02.2020
2285 Clouds 22 1023 73 10000 5.1 40 09:19 22.02.2020
2286 Clouds 22 1022 68 10000 5.1 30 08:46 22.02.2020
2287 Clouds 21 1023 77 10000 5.1 40 08:27 22.02.2020
2288 Clouds 20 1022 73 10000 5.1 90 07:45 22.02.2020
2289 Clouds 19 1023 93 10000 3.6 50 07:19 22.02.2020
2290 Clouds 19 1022 88 10000 5.1 70 06:47 22.02.2020
2291 Clouds 18 1022 93 10000 3.1 50 06:26 22.02.2020
2292 Clouds 17 1021 93 10000 1.5 30 04:30 22.02.2020
2293 Mist 18 1020 93 5000 2.6 360 03:21 22.02.2020
2294 Mist 17 1020 100 4000 2.1 30 02:28 22.02.2020
2295 Clouds 18 1020 88 10000 2.1 70 01:41 22.02.2020
2296 Clouds 18 1021 93 10000 3.1 60 01:23 22.02.2020
2297 Clouds 18 1021 93 10000 2.19 32 00:41 22.02.2020
2298 Clouds 18 1022 93 10000 2.6 20 00:21 22.02.2020
2299 Clouds 18 1022 93 10000 4.1 50 23:43 21.02.2020
2300 Rain 18 1022 88 10000 4.1 60 23:21 21.02.2020
2301 Clouds 19 1023 88 10000 5.1 90 22:45 21.02.2020
2302 Rain 18 1023 93 10000 3.1 50 22:27 21.02.2020
2303 Clouds 19 1023 82 10000 2.6 70 21:58 21.02.2020
2304 Clouds 19 1023 82 10000 2.6 70 21:40 21.02.2020
2305 Clouds 19 1023 82 10000 2.6 70 21:40 21.02.2020
2306 Clouds 19 1022 82 10000 5.1 80 21:21 21.02.2020
2307 Clouds 19 1021 73 10000 4.1 90 20:48 21.02.2020
2308 Clouds 20 1021 72 10000 3.6 80 20:28 21.02.2020
2309 Clouds 20 1020 64 10000 4.1 50 19:41 21.02.2020
2310 Rain 20 1021 68 10000 3.6 80 19:23 21.02.2020
2311 Clouds 21 1020 60 10000 5.1 60 18:55 21.02.2020
2312 Clouds 20 1020 64 10000 5.1 80 18:37 21.02.2020
2313 Clouds 20 1020 64 10000 5.1 80 18:19 21.02.2020
2314 Clouds 21 1019 60 10000 6.2 90 17:40 21.02.2020
2315 Clouds 23 1019 50 10000 8.7 80 17:21 21.02.2020
2316 Clouds 24 1018 39 10000 6.2 70 16:57 21.02.2020
2317 Clouds 25 1018 39 10000 6.2 70 16:39 21.02.2020
2318 Clouds 24 1018 39 10000 7.2 60 16:20 21.02.2020
2319 Clouds 25 1018 39 10000 7.7 80 15:45 21.02.2020
2320 Clouds 25 1018 42 10000 5.1 40 15:19 21.02.2020
2321 Clouds 25 1018 39 10000 5.1 60 14:57 21.02.2020
2322 Clouds 26 1018 39 10000 5.1 60 14:39 21.02.2020
2323 Clouds 22 1018 77 10000 6.2 40 14:19 21.02.2020
2324 Clouds 27 1018 44 10000 7.2 90 13:42 21.02.2020
2325 Clouds 27 1019 42 10000 6.2 80 13:23 21.02.2020
2326 Clouds 26 1018 47 10000 5.1 60 12:54 21.02.2020
2327 Clouds 26 1018 47 10000 5.1 60 12:36 21.02.2020
2328 Clouds 27 1020 44 10000 4.1 60 12:18 21.02.2020
2329 Clouds 26 1020 42 10000 4.1 60 11:40 21.02.2020
2330 Clouds 25 1021 53 10000 4.1 40 11:21 21.02.2020
2331 Clouds 25 1020 42 10000 5.1 70 10:56 21.02.2020
2332 Clouds 24 1022 53 10000 3.1 100 10:38 21.02.2020
2333 Clouds 24 1022 53 10000 3.1 100 10:19 21.02.2020
2334 Clouds 24 1022 57 10000 5.1 90 09:56 21.02.2020
2335 Clouds 23 1023 64 10000 2.1 0 09:37 21.02.2020
2336 Clouds 22 1023 64 10000 2.1 0 09:18 21.02.2020
2337 Clouds 22 1022 68 10000 5.1 90 08:41 21.02.2020
2338 Clouds 20 1023 82 10000 1.5 90 08:22 21.02.2020
2339 Clouds 20 1021 82 10000 3.1 60 07:58 21.02.2020
2340 Clouds 20 1021 82 10000 3.1 60 07:40 21.02.2020
2341 Clouds 19 1022 93 10000 1.5 0 07:18 21.02.2020
2342 Clouds 18 1021 93 10000 3.11 42 06:50 21.02.2020
2343 Fog 18 1021 93 500 1 0 06:30 21.02.2020
2344 Clouds 17 1020 93 10000 3.6 40 05:42 21.02.2020
2345 Clouds 16 1020 93 10000 3.6 60 04:36 21.02.2020
2346 Clouds 17 1020 93 10000 3.6 60 04:18 21.02.2020
2347 Clouds 18 1020 88 10000 3.6 70 03:31 21.02.2020
2348 Clouds 18 1019 88 10000 2.58 27 01:51 21.02.2020
2349 Clouds 18 1020 82 10000 2.6 20 01:24 21.02.2020
2350 Clouds 18 1021 82 10000 3.1 50 00:45 21.02.2020
2351 Clouds 18 1021 82 10000 4.1 60 00:23 21.02.2020
2352 Clouds 18 1021 82 10000 4.1 60 00:23 21.02.2020
2353 Clouds 19 1021 82 10000 3.6 40 23:46 20.02.2020
2354 Clouds 19 1021 82 10000 3.1 70 23:25 20.02.2020
2355 Clouds 19 1021 77 10000 4.6 70 22:57 20.02.2020
2356 Clouds 19 1021 77 10000 4.6 70 22:38 20.02.2020
2357 Clouds 19 1022 82 10000 2.6 40 22:20 20.02.2020
2358 Rain 20 1021 73 10000 3.1 80 21:56 20.02.2020
2359 Rain 19 1021 77 10000 4.1 70 21:37 20.02.2020
2360 Rain 19 1021 77 10000 4.1 70 21:37 20.02.2020
2361 Rain 20 1021 77 10000 4.1 70 21:37 20.02.2020
2362 Rain 20 1021 73 10000 3.1 80 21:37 20.02.2020
2363 Rain 20 1021 77 10000 4.1 70 21:37 20.02.2020
2364 Rain 20 1021 77 10000 4.1 70 21:19 20.02.2020
2365 Rain 20 1020 56 10000 3.6 90 20:54 20.02.2020
2366 Clouds 19 1020 60 10000 2.6 70 20:36 20.02.2020
2367 Clouds 21 1020 60 10000 2.6 70 20:18 20.02.2020
2368 Clouds 21 1019 49 10000 2.6 30 19:56 20.02.2020
2369 Rain 17 1009 75 0 4.47 101 19:38 20.02.2020
2370 -273 0 0 0 0 0 19:38 20.02.2020
2371 Clouds 21 1018 44 10000 3.6 40 19:20 20.02.2020
2372 Clouds 21 1018 44 10000 3.6 40 18:39 20.02.2020
2373 Clouds 22 1019 56 10000 4.6 50 18:20 20.02.2020
2374 Clouds 22 1018 47 10000 4.1 70 17:54 20.02.2020
2375 Clouds 23 1018 47 10000 4.1 70 17:36 20.02.2020
2376 Clouds 23 1018 47 10000 4.1 70 17:18 20.02.2020
2377 Clouds 24 1017 36 10000 9.8 70 16:54 20.02.2020
2378 Clouds 24 1018 42 10000 6.7 80 16:36 20.02.2020
2379 Clouds 26 1018 42 10000 6.7 80 16:18 20.02.2020
2380 Clouds 25 1017 37 10000 5.7 60 15:41 20.02.2020
2381 Clouds 27 1017 37 10000 5.7 60 15:20 20.02.2020
2382 Clouds 27 1017 32 10000 6.2 80 14:55 20.02.2020
2383 Clouds 27 1017 32 10000 6.2 80 14:37 20.02.2020
2384 Clouds 27 1018 32 10000 4.6 50 14:19 20.02.2020
2385 Clouds 28 1018 30 10000 6.7 70 13:44 20.02.2020
2386 Clouds 27 1018 37 10000 5.1 50 13:20 20.02.2020
2387 Clouds 27 1019 30 10000 6.2 80 12:58 20.02.2020
2388 Clouds 26 1020 37 10000 6.2 50 12:38 20.02.2020
2389 Clouds 27 1020 37 10000 6.2 50 12:19 20.02.2020
2390 Clouds 27 1019 34 10000 4.6 60 11:54 20.02.2020
2391 Clouds 26 1021 36 10000 5.1 50 11:36 20.02.2020
2392 Clouds 26 1021 36 10000 5.1 50 11:18 20.02.2020
2393 Clouds 26 1020 34 10000 3.1 80 10:42 20.02.2020
2394 Clouds 25 1021 44 10000 4.6 40 10:21 20.02.2020
2395 Clouds 25 1021 44 10000 4.6 40 10:21 20.02.2020
2396 Clouds 25 1021 36 10000 4.6 60 09:55 20.02.2020
2397 Clouds 26 1021 36 10000 4.6 60 09:36 20.02.2020
2398 Clouds 24 1022 50 10000 4.1 50 09:18 20.02.2020
2399 Clouds 27 1012 43 0 4.93 44 08:39 20.02.2020
2400 Clouds 20 1012 65 0 4.93 44 08:21 20.02.2020
2401 Clouds 19 1012 64 0 3.65 20 07:45 20.02.2020
2402 Clouds 19 1020 82 10000 3.65 20 07:26 20.02.2020
2403 Clouds 19 1020 82 10000 3.65 20 06:55 20.02.2020
2404 Clouds 17 1021 93 10000 1 320 06:27 20.02.2020
2405 Clouds 17 1020 88 10000 3.65 20 05:47 20.02.2020
2406 Clouds 16 1019 88 10000 1.61 29 04:56 20.02.2020
2407 Clouds 16 1020 93 10000 2.6 40 04:28 20.02.2020
2408 Clouds 16 1020 93 10000 1.5 350 03:35 20.02.2020
2409 Clouds 17 1021 88 10000 2.1 10 02:28 20.02.2020
2410 Clouds 17 1021 88 10000 2.6 340 01:21 20.02.2020
2411 Clouds 17 1021 88 10000 2.27 22 00:34 20.02.2020
2412 Clouds 17 1022 88 10000 1 20 23:54 19.02.2020
2413 Clouds 17 1022 82 10000 2.1 20 23:23 19.02.2020
2414 Clouds 16 1022 88 10000 0.5 0 22:56 19.02.2020
2415 Clouds 17 1022 82 10000 2.1 80 22:38 19.02.2020
2416 Clouds 17 1022 82 10000 2.1 80 22:20 19.02.2020
2417 Clouds 17 1022 82 10000 3.1 50 21:55 19.02.2020
2418 Clouds 17 1022 82 10000 3.1 30 21:37 19.02.2020
2419 Clouds 18 1022 82 10000 3.1 30 21:18 19.02.2020
2420 Clouds 18 1021 72 10000 2.6 60 20:55 19.02.2020
2421 Clouds 17 1021 82 10000 2.6 40 20:36 19.02.2020
2422 Clouds 18 1021 82 10000 2.6 40 20:18 19.02.2020
2423 Clouds 18 1020 72 10000 3.6 30 19:55 19.02.2020
2424 Clouds 18 1020 72 10000 3.6 30 19:36 19.02.2020
2425 Clouds 19 1020 64 10000 4.1 90 19:18 19.02.2020
2426 Clouds 19 1020 64 10000 4.1 90 18:55 19.02.2020
2427 Rain 16 1010 84 0 1.34 70 18:37 19.02.2020
2428 Clouds 19 1019 73 10000 5.1 90 18:19 19.02.2020
2429 Clouds 19 1019 73 10000 5.1 90 17:42 19.02.2020
2430 Clouds 20 1018 53 10000 5.1 70 17:19 19.02.2020
2431 Clouds 21 1018 53 10000 5.1 70 16:44 19.02.2020
2432 Clouds 23 1018 44 10000 5.1 70 16:19 19.02.2020
2433 Clouds 24 1018 44 10000 5.1 70 15:58 19.02.2020
2434 Clouds 23 1018 44 10000 8.7 90 15:39 19.02.2020
2435 Clouds 23 1018 44 10000 8.7 90 15:20 19.02.2020
2436 Clouds 23 1018 44 10000 8.7 90 14:42 19.02.2020
2437 Clouds 26 1019 44 10000 7.2 70 14:23 19.02.2020
2438 Clouds 23 1019 44 10000 7.2 70 13:59 19.02.2020
2439 Clouds 25 1019 44 10000 7.2 70 13:40 19.02.2020
2440 Clouds 24 1020 47 10000 4.6 40 13:20 19.02.2020
2441 Clouds 27 1011 46 0 5.88 70 12:40 19.02.2020
2442 Clouds 25 1021 53 10000 6.2 70 12:19 19.02.2020
2443 Clouds 25 1021 53 10000 6.2 70 12:19 19.02.2020
2444 Clouds 25 1021 53 10000 6.2 70 11:58 19.02.2020
2445 Clouds 22 1011 58 0 0.89 107 11:37 19.02.2020
2446 Clouds 24 1022 57 10000 6.2 20 11:19 19.02.2020
2447 Clouds 24 1022 57 10000 6.2 20 11:19 19.02.2020
2448 Clouds 24 1022 57 10000 6.2 20 10:56 19.02.2020
2449 Clouds 24 1022 57 10000 6.2 20 10:37 19.02.2020
2450 Clouds 23 1023 60 10000 5.7 30 10:19 19.02.2020
2451 Clouds 24 1022 57 10000 3.1 40 09:56 19.02.2020
2452 Clouds 23 1023 64 10000 6.2 70 09:37 19.02.2020
2453 Clouds 22 1023 64 10000 6.2 70 09:18 19.02.2020
2454 Clouds 22 1023 68 10000 3.6 80 08:43 19.02.2020
2455 Clouds 20 1024 82 10000 3.1 50 08:23 19.02.2020
2456 Clouds 19 1023 88 10000 4.1 60 07:41 19.02.2020
2457 Clouds 19 1023 88 10000 2.6 70 07:20 19.02.2020
2458 Clouds 18 1023 88 10000 2.6 70 06:53 19.02.2020
2459 Clouds 17 1023 93 10000 2.6 40 06:20 19.02.2020
2460 Clouds 16 1022 93 10000 1.5 40 04:20 19.02.2020
2461 Clouds 17 1021 93 10000 2.1 90 02:54 19.02.2020
2462 Clouds 17 1021 93 10000 1 60 02:30 19.02.2020
2463 Clouds 16 1021 93 10000 1 20 01:24 19.02.2020
2464 Clouds 16 1021 93 10000 1.5 60 00:49 19.02.2020
2465 Clouds 16 1022 93 10000 2.1 20 00:29 19.02.2020
2466 Clouds 17 1022 88 10000 1.5 20 23:44 18.02.2020
2467 Clouds 17 1022 88 10000 2.1 20 23:20 18.02.2020
2468 Clouds 18 1022 88 10000 4.1 50 22:57 18.02.2020
2469 Clouds 18 1022 88 10000 4.1 50 22:39 18.02.2020
2470 Clouds 18 1022 88 10000 3.6 40 22:19 18.02.2020
2471 Clouds 18 1021 88 10000 5.1 60 21:55 18.02.2020
2472 Clear 17 1022 82 10000 4.1 40 21:37 18.02.2020
2473 Clear 17 1022 82 10000 4.1 40 21:37 18.02.2020
2474 Clear 18 1022 82 10000 4.1 40 21:18 18.02.2020
2475 Clouds 18 1021 82 10000 3.1 60 20:56 18.02.2020
2476 Clouds 18 1021 82 10000 3.1 60 20:56 18.02.2020
2477 Clouds 19 1021 82 10000 3.1 60 20:38 18.02.2020
2478 Clouds 19 1021 82 10000 3.1 60 20:38 18.02.2020
2479 Clouds 19 1022 82 10000 3.6 60 20:19 18.02.2020
2480 Clouds 19 1020 68 10000 5.1 60 19:42 18.02.2020
2481 Clouds 20 1021 77 10000 3.6 50 19:20 18.02.2020
2482 Clouds 20 1020 64 10000 7.7 60 18:59 18.02.2020
2483 Clouds 20 1020 64 10000 7.7 60 18:41 18.02.2020
2484 Clouds 21 1021 68 10000 5.1 70 18:20 18.02.2020
2485 Clouds 21 1019 56 10000 5.1 60 17:56 18.02.2020
2486 Clouds 22 1019 56 10000 5.1 60 17:37 18.02.2020
2487 Clouds 22 1020 57 10000 5.7 60 17:18 18.02.2020
2488 Clouds 23 1019 47 10000 6.2 70 16:39 18.02.2020
2489 Clouds 24 1019 53 10000 7.2 80 16:19 18.02.2020
2490 Clouds 24 1019 44 10000 10.3 90 15:41 18.02.2020
2491 Clouds 24 1020 47 10000 4.6 30 15:20 18.02.2020
2492 Clouds 23 1020 54 10000 5.1 70 14:57 18.02.2020
2493 Clouds 24 1020 54 10000 5.1 70 14:39 18.02.2020
2494 Clouds 25 1020 54 10000 5.1 70 14:20 18.02.2020
2495 Clouds 25 1020 44 10000 9.3 60 13:42 18.02.2020
2496 Clouds 24 1021 47 10000 7.7 50 13:23 18.02.2020
2497 Clouds 24 1021 47 10000 7.7 50 12:59 18.02.2020
2498 Clouds 24 1021 47 10000 7.7 50 12:41 18.02.2020
2499 Clouds 25 1022 57 10000 6.2 50 12:22 18.02.2020
2500 Clouds 24 1022 50 10000 7.7 30 11:55 18.02.2020
2501 Clouds 23 1023 60 10000 6.2 70 11:37 18.02.2020
2502 Clouds 23 1023 60 10000 6.2 70 11:18 18.02.2020
2503 Clouds 24 1022 50 10000 5.1 70 10:41 18.02.2020
2504 Clouds 22 1023 64 10000 5.1 50 10:18 18.02.2020
2505 Clouds 22 1023 64 10000 7.7 70 09:56 18.02.2020
2506 Clouds 21 1024 77 10000 4.1 40 09:37 18.02.2020
2507 Clouds 21 1024 77 10000 4.1 40 09:19 18.02.2020
2508 Clouds 20 1023 73 10000 5.1 50 08:44 18.02.2020
2509 Clouds 20 1024 82 10000 4.1 50 08:21 18.02.2020
2510 Clouds 19 1023 82 10000 4.1 60 07:59 18.02.2020
2511 Clouds 19 1023 82 10000 4.1 60 07:41 18.02.2020
2512 Clouds 18 1023 93 10000 3.6 70 07:22 18.02.2020
2513 Clouds 18 1023 88 10000 5.1 90 06:43 18.02.2020
2514 Clouds 17 1022 93 10000 2.6 60 06:25 18.02.2020
2515 Clouds 17 1021 88 10000 2.6 70 05:47 18.02.2020
2516 Clouds 17 1020 88 10000 2.6 40 04:43 18.02.2020
2517 Clouds 16 1021 93 10000 1.5 350 03:38 18.02.2020
2518 Clouds 16 1020 93 10000 2.1 360 02:54 18.02.2020
2519 Clouds 16 1021 93 10000 2.1 10 01:23 18.02.2020
2520 Clouds 16 1021 93 10000 2.1 50 00:22 18.02.2020
2521 Clouds 16 1021 93 10000 2.1 50 00:22 18.02.2020
2522 Clouds 16 1021 93 10000 2.1 50 23:57 17.02.2020
2523 Clouds 16 1021 93 10000 2.1 50 23:38 17.02.2020
2524 Clouds 17 1022 93 10000 2.1 30 23:19 17.02.2020
2525 Clouds 17 1022 93 10000 2.6 40 22:42 17.02.2020
2526 Clouds 18 1022 93 10000 2.6 40 22:21 17.02.2020
2527 Clouds 18 1021 93 10000 5.1 60 21:59 17.02.2020
2528 Clouds 17 1022 88 10000 3.6 70 21:38 17.02.2020
2529 Clouds 18 1022 88 10000 3.6 70 21:18 17.02.2020
2530 Clouds 19 1020 88 10000 5.1 60 20:42 17.02.2020
2531 Clouds 19 1021 88 10000 5.7 50 20:21 17.02.2020
2532 Clouds 19 1020 77 10000 5.1 90 19:59 17.02.2020
2533 Clouds 20 1020 77 10000 5.1 90 19:41 17.02.2020
2534 Clouds 20 1021 77 10000 5.7 60 19:20 17.02.2020
2535 Clouds 19 1020 73 10000 6.2 80 18:38 17.02.2020
2536 Clouds 21 1020 73 10000 6.2 80 18:20 17.02.2020
2537 Clouds 21 1020 73 10000 6.2 80 18:20 17.02.2020
2538 Clouds 21 1019 56 10000 5.1 60 17:59 17.02.2020
2539 Clouds 22 1019 56 10000 5.1 60 17:38 17.02.2020
2540 Clouds 22 1019 56 10000 5.1 60 17:38 17.02.2020
2541 Clouds 23 1019 53 10000 5.7 60 17:19 17.02.2020
2542 Clouds 23 1018 50 10000 6.2 60 16:58 17.02.2020
2543 -273 0 0 0 0 0 16:40 17.02.2020
2544 Clouds 24 1018 47 10000 7.2 70 16:21 17.02.2020
2545 Clouds 23 1018 47 10000 7.2 70 15:45 17.02.2020
2546 Clouds 25 1019 47 10000 6.7 60 15:27 17.02.2020
2547 Clouds 23 1018 44 10000 10.3 60 14:57 17.02.2020
2548 Clouds 24 1019 44 10000 7.7 60 14:39 17.02.2020
2549 Clouds 24 1019 44 10000 7.7 60 14:20 17.02.2020
2550 Clouds 25 1019 44 10000 7.7 60 13:55 17.02.2020
2551 Clouds 24 1020 44 10000 6.2 60 13:36 17.02.2020
2552 Clouds 25 1020 44 10000 6.2 60 13:18 17.02.2020
2553 Clouds 25 1020 44 10000 6.2 60 13:18 17.02.2020
2554 Clouds 25 1018 50 10000 7.7 60 12:42 17.02.2020
2555 Clouds 24 1020 53 10000 6.2 70 12:22 17.02.2020
2556 Clouds 25 1021 50 10000 7.7 60 11:50 17.02.2020
2557 Clouds 24 1021 53 10000 6.2 40 11:29 17.02.2020
2558 Clouds 24 1021 53 10000 6.2 60 10:59 17.02.2020
2559 Clouds 25 1021 53 10000 6.2 60 10:40 17.02.2020
2560 Clouds 23 1023 60 10000 5.1 50 10:22 17.02.2020
2561 Clouds 23 1023 60 10000 5.1 50 10:21 17.02.2020
2562 Clouds 23 1023 60 10000 5.7 60 09:58 17.02.2020
2563 Clouds 23 1023 60 10000 5.7 60 09:40 17.02.2020
2564 Clouds 21 1023 77 10000 3.1 10 09:20 17.02.2020
2565 Clouds 21 1023 73 10000 5.7 60 08:56 17.02.2020
2566 Clouds 20 1023 82 10000 3.1 30 08:38 17.02.2020
2567 Clouds 20 1023 82 10000 3.1 30 08:19 17.02.2020
2568 Clouds 19 1022 77 10000 2.6 40 07:40 17.02.2020
2569 Clouds 18 1023 93 10000 2.6 60 07:22 17.02.2020
2570 Clouds 17 1022 93 10000 2.6 60 06:51 17.02.2020
2571 Clouds 17 1023 93 10000 2.6 60 06:30 17.02.2020
2572 Clouds 17 1023 93 10000 2.6 60 06:30 17.02.2020
2573 Clouds 16 1021 88 10000 5.09 44 05:40 17.02.2020
2574 Clouds 16 1021 93 10000 1.92 41 04:58 17.02.2020
2575 Clouds 17 1021 88 10000 2.1 20 03:20 17.02.2020
2576 Clouds 16 1020 93 10000 2.11 41 01:47 17.02.2020
2577 Clouds 16 1021 88 10000 2.34 43 00:41 17.02.2020
2578 Clouds 16 1021 93 10000 2.34 43 00:19 17.02.2020
2579 Clouds 17 1021 93 10000 2.34 43 23:52 16.02.2020
2580 Clouds 17 1023 93 10000 1 0 23:29 16.02.2020
2581 Clouds 17 1022 82 10000 2.31 31 22:57 16.02.2020
2582 Clouds 17 1022 82 10000 2.31 31 22:38 16.02.2020
2583 Clouds 17 1023 88 10000 2.1 30 22:20 16.02.2020
2584 Clouds 17 1021 82 10000 2.1 60 21:56 16.02.2020
2585 Clouds 17 1021 82 10000 2.1 60 21:38 16.02.2020
2586 Clouds 17 1021 82 10000 2.31 31 21:20 16.02.2020
2587 Clouds 18 1021 82 10000 2.31 31 20:57 16.02.2020
2588 Clouds 18 1021 82 10000 2.31 31 20:38 16.02.2020
2589 Clouds 18 1022 88 10000 3.6 50 20:20 16.02.2020
2590 Clouds 18 1020 77 10000 3.1 40 19:57 16.02.2020
2591 Clouds 19 1020 77 10000 3.1 40 19:37 16.02.2020
2592 Clouds 19 1021 77 10000 4.1 50 19:18 16.02.2020
2593 Clouds 19 1021 77 10000 4.1 50 19:18 16.02.2020
2594 Clouds 19 1020 68 10000 4.1 60 18:42 16.02.2020
2595 Clouds 19 1021 72 10000 4.6 50 18:23 16.02.2020
2596 Clouds 20 1019 64 10000 3.1 60 17:55 16.02.2020
2597 Clouds 19 1020 64 10000 5.1 60 17:36 16.02.2020
2598 Clouds 21 1020 64 10000 5.1 60 17:18 16.02.2020
2599 Clouds 22 1019 56 0 5.1 90 16:54 16.02.2020
2600 Clouds 22 1019 56 0 5.1 90 16:36 16.02.2020
2601 Clouds 22 1019 60 10000 6.2 50 16:18 16.02.2020
2602 Clouds 22 1019 57 10000 7.2 80 15:41 16.02.2020
2603 Clouds 23 1019 60 10000 5.7 70 15:21 16.02.2020
2604 Clouds 23 1018 50 10000 5.1 160 14:44 16.02.2020
2605 Clouds 23 1020 64 10000 4.6 50 14:23 16.02.2020
2606 Clouds 23 1019 60 10000 3.1 60 13:57 16.02.2020
2607 Clouds 23 1019 60 10000 3.1 60 13:38 16.02.2020
2608 Clouds 22 1021 73 10000 5.7 50 13:20 16.02.2020
2609 Clouds 21 1020 73 10000 3.1 40 12:39 16.02.2020
2610 Clouds 21 1020 73 10000 3.1 40 12:39 16.02.2020
2611 Clouds 20 1022 88 10000 3.6 20 12:19 16.02.2020
2612 Clouds 19 1022 88 10000 2.6 30 11:40 16.02.2020
2613 Rain 19 1023 88 2000 5.7 10 11:20 16.02.2020
2614 Clouds 20 1023 82 10000 6.2 360 10:58 16.02.2020
2615 Clouds 20 1023 82 10000 6.2 360 10:58 16.02.2020
2616 Clouds 18 1024 82 10000 6.7 40 10:40 16.02.2020
2617 Clouds 18 1024 82 10000 6.7 40 10:21 16.02.2020
2618 Clouds 18 1024 82 10000 6.7 40 10:21 16.02.2020
2619 Rain 18 1023 88 10000 5.7 60 09:59 16.02.2020
2620 Clouds 19 1024 88 10000 5.7 50 09:38 16.02.2020
2621 Rain 19 1023 88 10000 5.7 60 09:38 16.02.2020
2622 Clouds 19 1024 88 10000 5.7 50 09:20 16.02.2020
2623 Clouds 19 1023 82 10000 5.7 20 08:56 16.02.2020
2624 Clouds 19 1023 82 10000 5.7 20 08:38 16.02.2020
2625 Clouds 18 1024 93 10000 5.1 50 08:18 16.02.2020
2626 Clouds 18 1023 82 10000 5.7 30 07:41 16.02.2020
2627 Clouds 17 1022 93 10000 3.6 70 06:54 16.02.2020
2628 Clouds 17 1022 88 10000 4.1 50 05:53 16.02.2020
2629 Clouds 16 1021 88 10000 5.7 30 04:37 16.02.2020
2630 Clouds 16 1021 88 10000 3.1 50 03:20 16.02.2020
2631 Clouds 16 1020 82 10000 2.88 39 01:58 16.02.2020
2632 Clouds 16 1020 82 10000 2.88 39 01:38 16.02.2020
2633 Clouds 15 1021 88 10000 2.6 10 01:19 16.02.2020
2634 Clouds 15 1021 93 10000 2.1 360 00:42 16.02.2020
2635 Clouds 15 1023 100 10000 2.6 10 00:22 16.02.2020
2636 Clouds 16 1023 93 10000 3.6 10 23:43 15.02.2020
2637 Clouds 17 1023 93 10000 3.6 10 23:25 15.02.2020
2638 Clouds 17 1022 88 10000 3.1 40 22:59 15.02.2020
2639 Clouds 16 1023 88 10000 3.1 10 22:40 15.02.2020
2640 Clouds 17 1023 88 10000 3.1 10 22:19 15.02.2020
2641 Clouds 18 1022 88 10000 5.1 20 21:56 15.02.2020
2642 Clouds 18 1022 88 10000 5.1 20 21:37 15.02.2020
2643 Clouds 17 1024 88 10000 3.1 20 21:19 15.02.2020
2644 Clouds 18 1023 77 10000 3.1 40 20:39 15.02.2020
2645 Rain 17 1023 88 10000 4.6 50 20:20 15.02.2020
2646 Clouds 18 1021 77 10000 5.1 60 19:44 15.02.2020
2647 Clouds 18 1022 82 10000 5.1 60 19:22 15.02.2020
2648 Clouds 19 1021 72 10000 6.7 50 18:43 15.02.2020
2649 Clouds 19 1021 72 10000 6.7 60 18:23 15.02.2020
2650 Clouds 18 1021 64 10000 7.2 60 17:58 15.02.2020
2651 Clouds 19 1021 64 10000 7.2 60 17:38 15.02.2020
2652 Clouds 21 1021 56 10000 8.2 50 17:19 15.02.2020
2653 Rain 16 1010 80 0 3.58 113 16:43 15.02.2020
2654 Clouds 24 1019 50 10000 7.2 40 16:24 15.02.2020
2655 Clouds 22 1019 50 10000 7.2 40 15:58 15.02.2020
2656 Clouds 22 1019 50 10000 7.2 40 15:58 15.02.2020
2657 Clouds 22 1019 50 10000 7.2 40 15:40 15.02.2020
2658 Clouds 21 1019 47 10000 7.7 70 15:21 15.02.2020
2659 Clouds 23 1019 47 10000 7.7 70 14:44 15.02.2020
2660 Clouds 25 1019 53 10000 8.7 60 14:19 15.02.2020
2661 Clouds 24 1019 53 10000 10.8 70 13:56 15.02.2020
2662 Clouds 25 1020 53 10000 8.7 70 13:37 15.02.2020
2663 Clouds 25 1020 53 10000 8.7 70 13:19 15.02.2020
2664 Clouds 24 1019 50 10000 7.7 50 12:42 15.02.2020
2665 Clouds 24 1021 57 10000 6.7 60 12:23 15.02.2020
2666 Clouds 23 1020 53 10000 7.2 40 11:49 15.02.2020
2667 Clouds 22 1022 60 10000 6.7 50 11:31 15.02.2020
2668 Clouds 23 1021 56 10000 6.2 50 10:56 15.02.2020
2669 Clouds 23 1021 56 10000 6.2 50 10:37 15.02.2020
2670 Clouds 21 1023 73 10000 6.2 50 10:19 15.02.2020
2671 Clouds 20 1022 64 10000 7.2 50 09:43 15.02.2020
2672 Clouds 20 1023 64 10000 7.7 60 09:25 15.02.2020
2673 Clouds 19 1023 88 10000 5.1 50 08:44 15.02.2020
2674 Clouds 18 1023 88 10000 5.1 50 08:25 15.02.2020
2675 Clouds 18 1023 88 10000 8.7 40 07:59 15.02.2020
2676 Clouds 18 1023 88 10000 8.7 40 07:39 15.02.2020
2677 Clouds 17 1023 93 10000 6.7 50 07:18 15.02.2020
2678 Rain 17 1022 93 10000 3.1 30 06:37 15.02.2020
2679 Clouds 16 1021 88 10000 2.6 50 05:55 15.02.2020
2680 Clouds 16 1021 88 10000 4.1 20 04:48 15.02.2020
2681 Clouds 15 1021 87 10000 3.1 60 03:45 15.02.2020
2682 Clouds 15 1020 87 10000 2.6 360 02:58 15.02.2020
2683 Rain 15 1020 87 10000 2.1 360 02:23 15.02.2020
2684 Rain 15 1020 87 10000 2.1 20 01:41 15.02.2020
2685 Clear 17 1020 82 10000 3.17 50 00:56 15.02.2020
2686 Clouds 16 1021 82 10000 2.6 10 00:26 15.02.2020
2687 Clouds 16 1021 82 10000 2.6 10 23:44 14.02.2020
2688 Clouds 17 1022 82 10000 2.6 10 23:20 14.02.2020
2689 Clear 17 1021 82 10000 2.71 50 22:54 14.02.2020
2690 Clear 17 1021 82 10000 2.71 50 22:36 14.02.2020
2691 Clouds 17 1023 82 10000 1.5 20 22:18 14.02.2020
2692 Clear 18 1022 77 10000 2.71 50 21:40 14.02.2020
2693 Clouds 18 1023 82 10000 2.1 10 21:20 14.02.2020
2694 Clear 18 1022 77 10000 3.1 30 20:43 14.02.2020
2695 Clouds 19 1022 77 10000 3.1 40 20:20 14.02.2020
2696 Clouds 19 1021 72 10000 4.18 53 19:56 14.02.2020
2697 Clouds 19 1021 72 10000 4.18 53 19:56 14.02.2020
2698 Clouds 19 1021 72 10000 4.18 53 19:56 14.02.2020
2699 Clouds 19 1021 72 10000 4.18 53 19:38 14.02.2020
2700 Clouds 19 1021 72 10000 4.6 40 19:18 14.02.2020
2701 Clouds 20 1020 60 10000 3.1 70 18:56 14.02.2020
2702 Clouds 19 1020 64 10000 8.2 40 18:37 14.02.2020
2703 Clouds 20 1020 64 10000 8.2 40 18:18 14.02.2020
2704 Clouds 20 1019 60 10000 9.8 60 17:42 14.02.2020
2705 Clouds 20 1019 60 10000 9.8 60 17:20 14.02.2020
2706 Clouds 21 1018 53 10000 10.3 40 16:57 14.02.2020
2707 Clouds 21 1018 53 10000 10.3 40 16:39 14.02.2020
2708 Clouds 22 1018 50 10000 9.8 50 16:20 14.02.2020
2709 Clouds 23 1018 50 10000 7.2 80 15:55 14.02.2020
2710 Clouds 23 1018 50 10000 7.2 80 15:37 14.02.2020
2711 Clouds 23 1018 50 10000 8.7 60 15:19 14.02.2020
2712 Clouds 23 1018 50 10000 8.7 60 15:19 14.02.2020
2713 Clouds 24 1018 50 10000 5.7 70 14:55 14.02.2020
2714 Clouds 23 1019 50 10000 8.2 60 14:37 14.02.2020
2715 Clouds 24 1019 50 10000 8.2 60 14:18 14.02.2020
2716 Clouds 24 1019 47 10000 7.7 70 13:39 14.02.2020
2717 Clouds 24 1020 50 10000 9.3 60 13:21 14.02.2020
2718 Clouds 23 1020 50 10000 8.2 80 12:58 14.02.2020
2719 Clouds 23 1021 57 10000 8.7 60 12:39 14.02.2020
2720 Clouds 23 1021 57 10000 8.7 60 12:20 14.02.2020
2721 Clouds 23 1021 57 10000 8.7 60 12:20 14.02.2020
2722 Clouds 23 1021 53 10000 5.1 40 11:58 14.02.2020
2723 Clouds 23 1021 57 10000 8.7 50 11:40 14.02.2020
2724 Clouds 23 1021 57 10000 8.7 50 11:20 14.02.2020
2725 Clouds 22 1021 60 10000 6.2 60 10:55 14.02.2020
2726 Clouds 22 1022 60 10000 8.2 50 10:36 14.02.2020
2727 Clouds 22 1022 60 10000 8.2 50 10:18 14.02.2020
2728 Clouds 21 1022 68 10000 7.7 40 09:39 14.02.2020
2729 Clouds 20 1023 68 10000 7.2 50 09:19 14.02.2020
2730 Clouds 21 1023 73 10000 10.3 40 08:43 14.02.2020
2731 Clouds 19 1023 77 10000 8.2 50 08:25 14.02.2020
2732 Clouds 18 1022 82 10000 5.1 70 07:56 14.02.2020
2733 Drizzle 18 1023 93 10000 6.2 60 07:38 14.02.2020
2734 Drizzle 18 1023 93 10000 6.2 60 07:18 14.02.2020
2735 Clouds 18 1022 93 10000 5.7 70 06:29 14.02.2020
2736 Clouds 17 1020 93 10000 5.1 60 05:47 14.02.2020
2737 Clouds 17 1020 93 10000 2.6 60 04:46 14.02.2020
2738 Clouds 16 1020 93 10000 2.1 20 03:29 14.02.2020
2739 Clouds 14 1008 87 0 4.92 99 02:30 14.02.2020
2740 Clouds 15 1008 85 0 4.02 98 01:27 14.02.2020
2741 Clouds 15 1008 85 0 4.47 69 00:43 14.02.2020
2742 Clouds 15 1008 86 0 3.58 110 00:43 14.02.2020
2743 Clouds 17 1021 88 10000 2.6 40 00:23 14.02.2020
2744 Clouds 17 1021 88 10000 2.6 40 23:45 13.02.2020
2745 Clouds 19 1021 88 10000 9.3 70 23:21 13.02.2020
2746 Clouds 18 1021 88 10000 9.3 70 22:44 13.02.2020
2747 Clouds 18 1022 88 10000 4.1 70 22:20 13.02.2020
2748 Clouds 18 1022 88 10000 4.1 70 22:20 13.02.2020
2749 Clouds 18 1022 88 10000 4.1 70 22:20 13.02.2020
2750 Clouds 18 1021 88 10000 5.1 70 21:59 13.02.2020
2751 Clouds 19 1021 88 10000 5.1 70 21:40 13.02.2020
2752 Clouds 18 1022 88 10000 5.1 70 21:22 13.02.2020
2753 Clouds 18 1021 93 10000 6.2 60 20:58 13.02.2020
2754 Clouds 18 1021 93 10000 6.2 60 20:39 13.02.2020
2755 Clouds 19 1021 88 10000 6.7 60 20:21 13.02.2020
2756 Rain 19 1020 88 10000 6.2 90 19:56 13.02.2020
2757 Clouds 18 1021 82 10000 6.2 60 19:37 13.02.2020
2758 Clouds 19 1021 82 10000 6.2 60 19:18 13.02.2020
2759 Clouds 19 1021 82 10000 6.2 60 19:18 13.02.2020
2760 Clouds 20 1019 77 10000 11.3 70 18:44 13.02.2020
2761 Clouds 20 1019 77 10000 11.3 70 18:44 13.02.2020
2762 Clouds 20 1019 73 10000 7.2 70 18:24 13.02.2020
2763 Clouds 20 1019 73 10000 7.2 70 18:24 13.02.2020
2764 Clouds 19 1019 73 10000 7.2 70 17:59 13.02.2020
2765 Clouds 20 1019 73 10000 7.2 70 17:40 13.02.2020
2766 Clouds 22 1019 64 10000 8.7 70 17:21 13.02.2020
2767 Clouds 21 1018 53 10000 7.7 50 16:58 13.02.2020
2768 Clouds 22 1018 53 10000 7.7 50 16:38 13.02.2020
2769 Clouds 22 1018 53 10000 7.7 50 16:38 13.02.2020
2770 Clouds 23 1018 50 10000 8.7 60 16:19 13.02.2020
2771 Clouds 23 1017 50 10000 9.3 70 15:56 13.02.2020
2772 Clouds 24 1017 47 10000 7.7 60 15:37 13.02.2020
2773 Clouds 25 1017 47 10000 7.7 60 15:19 13.02.2020
2774 Clouds 25 1017 42 10000 9.3 70 14:57 13.02.2020
2775 Clouds 24 1018 44 10000 7.7 40 14:38 13.02.2020
2776 Clouds 25 1018 44 10000 7.7 40 14:20 13.02.2020
2777 Clouds 26 1018 39 10000 8.7 80 13:47 13.02.2020
2778 Clouds 25 1019 47 10000 7.7 60 13:18 13.02.2020
2779 Clouds 25 1019 47 10000 7.7 60 13:18 13.02.2020
2780 Clouds 25 1019 44 10000 4.6 60 12:56 13.02.2020
2781 Clouds 25 1020 50 10000 6.7 40 12:37 13.02.2020
2782 Clouds 25 1020 50 10000 6.7 40 12:19 13.02.2020
2783 Clouds 24 1020 50 10000 5.1 60 11:43 13.02.2020
2784 Clouds 24 1020 50 10000 5.1 60 11:43 13.02.2020
2785 Clouds 24 1021 50 10000 9.3 60 11:20 13.02.2020
2786 Clouds 24 1021 50 10000 9.3 60 10:49 13.02.2020
2787 Clouds 23 1022 60 10000 6.7 50 10:28 13.02.2020
2788 Clouds 23 1022 64 10000 9.3 70 09:57 13.02.2020
2789 Clouds 22 1023 64 10000 6.2 60 09:38 13.02.2020
2790 Clouds 22 1023 64 10000 6.2 60 09:20 13.02.2020
2791 Clouds 22 1022 68 10000 3.6 10 08:42 13.02.2020
2792 Clouds 20 1023 73 10000 4.1 40 08:19 13.02.2020
2793 Clouds 20 1022 64 10000 4.6 50 07:41 13.02.2020
2794 Clouds 19 1023 82 10000 3.6 20 07:22 13.02.2020
2795 Clouds 19 1023 82 10000 3.6 20 07:21 13.02.2020
2796 Clouds 18 1022 82 10000 5.1 60 06:45 13.02.2020
2797 Clouds 18 1022 93 10000 4.1 50 06:21 13.02.2020
2798 Clouds 17 1021 100 10000 3.1 50 05:37 13.02.2020
2799 Clouds 17 1021 100 10000 3.1 40 04:26 13.02.2020
2800 Clouds 17 1021 93 10000 3.1 40 03:52 13.02.2020
2801 Clouds 17 1021 100 10000 3.1 60 03:26 13.02.2020
2802 Clouds 18 1020 93 10000 2.6 50 02:53 13.02.2020
2803 Clouds 17 1021 100 10000 2.6 70 02:19 13.02.2020
2804 Clouds 17 1021 93 10000 2.6 70 01:35 13.02.2020
2805 Clouds 18 1021 93 10000 3.6 70 00:40 13.02.2020
2806 Clouds 17 1021 93 10000 4.1 70 00:21 13.02.2020
2807 Clouds 18 1021 93 10000 4.6 70 23:41 12.02.2020
2808 Clouds 19 1022 93 10000 3.1 50 23:22 12.02.2020
2809 Clouds 19 1021 77 10000 5.1 90 22:48 12.02.2020
2810 Clouds 19 1022 93 10000 4.6 80 22:28 12.02.2020
2811 Clouds 19 1021 77 10000 4.6 60 21:59 12.02.2020
2812 Clouds 20 1021 77 10000 4.6 60 21:40 12.02.2020
2813 Clouds 19 1021 88 10000 4.1 50 21:20 12.02.2020
2814 Rain 20 1020 77 10000 3.6 40 20:58 12.02.2020
2815 Rain 20 1020 77 10000 3.6 40 20:39 12.02.2020
2816 Clouds 20 1021 83 10000 3.6 40 20:20 12.02.2020
2817 Rain 20 1019 68 10000 4.6 40 19:55 12.02.2020
2818 Clouds 19 1020 68 10000 4.1 60 19:37 12.02.2020
2819 Clouds 21 1020 68 10000 4.1 60 19:18 12.02.2020
2820 Clouds 21 1018 56 10000 5.7 60 18:46 12.02.2020
2821 Clouds 22 1018 60 10000 5.7 50 18:19 12.02.2020
2822 Clouds 22 1017 50 10000 7.7 70 17:56 12.02.2020
2823 Clouds 22 1017 50 10000 6.2 60 17:36 12.02.2020
2824 Clouds 23 1017 50 10000 6.2 60 17:18 12.02.2020
2825 Clouds 25 1016 44 10000 6.2 70 16:40 12.02.2020
2826 Clouds 25 1017 44 10000 5.7 60 16:20 12.02.2020
2827 Clouds 25 1016 42 10000 5.7 80 15:43 12.02.2020
2828 Clouds 25 1017 47 10000 5.7 60 15:24 12.02.2020
2829 Clouds 26 1016 39 10000 4.1 90 14:59 12.02.2020
2830 Clouds 26 1016 39 10000 4.1 90 14:41 12.02.2020
2831 Clouds 26 1017 45 10000 3.6 30 14:20 12.02.2020
2832 Clouds 26 1017 37 10000 3.1 60 13:57 12.02.2020
2833 Clouds 27 1017 37 10000 3.1 60 13:39 12.02.2020
2834 Clouds 26 1018 47 10000 3.6 40 13:20 12.02.2020
2835 Clouds 26 1018 47 10000 3.6 40 13:20 12.02.2020
2836 Clouds 26 1019 44 10000 2.6 60 12:57 12.02.2020
2837 Clouds 26 1019 44 10000 2.6 60 12:38 12.02.2020
2838 Clouds 25 1019 47 10000 2.6 100 12:18 12.02.2020
2839 Clouds 25 1019 47 10000 5.1 120 11:57 12.02.2020
2840 Clouds 25 1019 47 10000 5.1 120 11:39 12.02.2020
2841 Clouds 25 1020 54 10000 2.1 0 11:20 12.02.2020
2842 Clouds 25 1020 50 10000 3.1 70 10:55 12.02.2020
2843 Clouds 24 1021 53 10000 3.6 50 10:37 12.02.2020
2844 Clouds 24 1021 53 10000 3.6 50 10:19 12.02.2020
2845 Clouds 24 1020 50 10000 6.7 40 09:42 12.02.2020
2846 Clouds 23 1022 57 10000 4.1 50 09:42 12.02.2020
2847 Clouds 24 1022 57 10000 4.1 50 09:23 12.02.2020
2848 Clouds 23 1021 53 10000 3.1 80 08:58 12.02.2020
2849 Clouds 23 1021 53 10000 3.1 80 08:58 12.02.2020
2850 Clear 22 1022 60 10000 1.5 30 08:38 12.02.2020
2851 Clouds 22 1022 60 10000 1.5 30 08:20 12.02.2020
2852 Clouds 21 1021 64 10000 1.75 33 07:45 12.02.2020
2853 Mist 20 1022 64 7000 1.75 33 07:24 12.02.2020
2854 Clouds 19 1021 77 10000 1.75 33 06:59 12.02.2020
2855 Clouds 16 1020 87 10000 1.75 33 06:24 12.02.2020
2856 Clouds 16 1021 82 10000 1.75 33 05:44 12.02.2020
2857 Clouds 15 1020 93 10000 1.03 6 04:59 12.02.2020
2858 Clouds 16 1020 93 10000 1.03 6 04:40 12.02.2020
2859 Clouds 16 1020 82 10000 1.03 6 03:43 12.02.2020
2860 Clouds 16 1019 82 10000 1.03 6 03:24 12.02.2020
2861 Clouds 16 1020 72 10000 2.6 330 02:32 12.02.2020
2862 Clouds 16 1020 72 10000 3.1 350 01:59 12.02.2020
2863 Clouds 17 1021 68 10000 3.1 360 00:58 12.02.2020
2864 Clouds 17 1021 68 10000 3.1 360 00:39 12.02.2020
2865 Clouds 18 1021 68 10000 2.1 360 00:21 12.02.2020
2866 Clouds 18 1020 72 10000 0.97 24 23:45 11.02.2020
2867 Clouds 18 1021 77 10000 2.1 330 23:27 11.02.2020
2868 Clouds 18 1020 63 10000 2.05 15 22:56 11.02.2020
2869 Clouds 18 1021 72 10000 2.6 10 22:38 11.02.2020
2870 Clouds 18 1021 72 10000 2.6 10 22:19 11.02.2020
2871 Clouds 18 1020 63 10000 2.05 15 21:56 11.02.2020
2872 Clouds 19 1021 72 10000 2.6 20 21:37 11.02.2020
2873 Clouds 19 1021 72 10000 2.6 20 21:18 11.02.2020
2874 Clouds 19 1021 72 10000 2.6 20 21:18 11.02.2020
2875 Clear 19 1020 49 0 2.05 15 20:57 11.02.2020
2876 Clouds 19 1020 60 10000 3.6 60 20:38 11.02.2020
2877 Clear 20 1020 60 10000 3.6 60 20:19 11.02.2020
2878 Clear 20 1020 60 10000 3.6 60 20:18 11.02.2020
2879 Clear 20 1019 40 10000 3.87 70 19:54 11.02.2020
2880 Clear 20 1019 49 10000 4.6 50 19:36 11.02.2020
2881 Clear 22 1019 49 10000 4.6 50 19:18 11.02.2020
2882 Clouds 22 1018 19 10000 3.87 70 18:42 11.02.2020
2883 Clear 22 1019 46 10000 3.6 50 18:24 11.02.2020
2884 Clouds 23 1018 19 10000 3.87 70 17:55 11.02.2020
2885 Clouds 22 1018 34 10000 4.6 70 17:37 11.02.2020
2886 Clouds 24 1018 34 10000 4.6 70 17:18 11.02.2020
2887 Clouds 25 1017 18 10000 5.1 60 16:58 11.02.2020
2888 Clouds 25 1018 18 10000 6.2 80 16:38 11.02.2020
2889 Clouds 26 1018 18 10000 6.2 80 16:20 11.02.2020
2890 Clouds 27 1017 20 10000 5.1 90 15:47 11.02.2020
2891 Clouds 27 1018 23 10000 4.6 40 15:29 11.02.2020
2892 Clouds 27 1018 18 10000 7.7 60 14:59 11.02.2020
2893 Clouds 28 1018 18 10000 7.7 60 14:41 11.02.2020
2894 Clouds 28 1018 26 10000 4.6 50 14:19 11.02.2020
2895 Clouds 28 1018 23 10000 8.2 80 13:42 11.02.2020
2896 Clouds 28 1019 25 10000 5.1 70 13:23 11.02.2020
2897 Clouds 28 1018 14 10000 7.2 80 12:59 11.02.2020
2898 Clouds 28 1018 14 10000 7.2 80 12:41 11.02.2020
2899 Clouds 27 1020 26 10000 4.6 50 12:21 11.02.2020
2900 Clouds 27 1020 18 10000 2.6 60 11:56 11.02.2020
2901 Clouds 27 1020 18 10000 2.6 60 11:38 11.02.2020
2902 Clouds 26 1021 30 10000 5.1 50 11:19 11.02.2020
2903 Clouds 26 1021 19 10000 3.1 20 10:40 11.02.2020
2904 Clouds 25 1022 44 10000 3.1 50 10:21 11.02.2020
2905 Clouds 26 1021 39 10000 3.2 7 09:58 11.02.2020
2906 Clouds 25 1021 39 10000 3.2 7 09:39 11.02.2020
2907 Clear 23 1023 53 10000 2.1 60 09:21 11.02.2020
2908 Clear 23 1022 50 10000 3.2 7 08:49 11.02.2020
2909 Clouds 22 1023 60 10000 1 0 08:25 11.02.2020
2910 Clear 22 1023 60 10000 1 0 08:25 11.02.2020
2911 Clouds 22 1023 60 10000 1 0 08:25 11.02.2020
2912 Clouds 20 1022 60 10000 1.81 20 07:55 11.02.2020
2913 Clouds 20 1022 60 10000 1.81 20 07:55 11.02.2020
2914 Clouds 18 1023 77 10000 1 0 07:33 11.02.2020
2915 Clouds 17 1022 77 10000 2.6 290 06:58 11.02.2020
2916 Clouds 13 1022 93 10000 2.1 220 06:38 11.02.2020
2917 Clouds 13 1022 93 10000 2.1 220 06:38 11.02.2020
2918 Clouds 14 1022 93 10000 2.1 220 06:20 11.02.2020
2919 Clouds 14 1022 93 10000 2.1 220 06:20 11.02.2020
2920 Clouds 14 1021 77 10000 4.1 300 05:41 11.02.2020
2921 Clouds 13 1022 87 10000 1.5 260 05:20 11.02.2020
2922 Clouds 12 1021 87 10000 3.1 250 03:32 11.02.2020
2923 Clouds 12 1021 87 10000 3.1 250 03:32 11.02.2020
2924 Clouds 12 1021 87 10000 1 280 02:37 11.02.2020
2925 Clear 14 1022 82 0 1.35 21 01:52 11.02.2020
2926 Clouds 14 1021 82 10000 1 280 01:30 11.02.2020
2927 Clouds 16 1022 72 10000 1 310 00:26 11.02.2020
2928 Clouds 16 1022 77 10000 1 320 23:47 10.02.2020
2929 Clouds 16 1022 77 10000 1 20 23:29 10.02.2020
2930 Clouds 16 1023 77 10000 1 360 22:57 10.02.2020
2931 Clouds 18 1023 68 10000 1.5 40 22:37 10.02.2020
2932 Clouds 18 1023 68 10000 1.5 40 22:19 10.02.2020
2933 Clear 18 1021 56 0 1.15 21 21:40 10.02.2020
2934 Clouds 18 1022 68 10000 2.6 30 21:22 10.02.2020
2935 Clear 18 1021 49 0 1.15 21 20:56 10.02.2020
2936 Clouds 19 1021 60 10000 2.6 60 20:38 10.02.2020
2937 Clouds 19 1021 60 10000 2.6 60 20:19 10.02.2020
2938 Clear 20 1020 43 0 2.6 60 19:57 10.02.2020
2939 Clear 20 1020 43 0 2.6 60 19:57 10.02.2020
2940 Clouds 18 1020 60 10000 3.1 60 19:37 10.02.2020
2941 Clouds 20 1020 60 10000 3.1 60 19:18 10.02.2020
2942 Clouds 19 1020 52 10000 3.6 60 18:58 10.02.2020
2943 Clouds 21 1020 49 10000 2.6 60 18:38 10.02.2020
2944 Clouds 21 1020 49 10000 2.6 60 18:20 10.02.2020
2945 Clouds 22 1019 33 10000 4.1 90 17:54 10.02.2020
2946 Clouds 22 1019 33 10000 4.1 90 17:54 10.02.2020
2947 Clouds 22 1019 36 10000 4.6 80 17:36 10.02.2020
2948 Clouds 23 1019 36 10000 4.6 80 17:18 10.02.2020
2949 Clouds 24 1019 24 10000 5.1 90 16:56 10.02.2020
2950 Clouds 24 1019 28 10000 4.6 90 16:37 10.02.2020
2951 Clouds 25 1019 28 10000 4.6 90 16:18 10.02.2020
2952 Clouds 25 1019 26 10000 4.6 60 15:41 10.02.2020
2953 Clouds 25 1019 26 10000 4.6 60 15:22 10.02.2020
2954 Clouds 26 1019 20 10000 5.1 40 14:59 10.02.2020
2955 Clouds 26 1019 20 10000 5.1 40 14:40 10.02.2020
2956 Clouds 26 1020 30 10000 4.1 40 14:19 10.02.2020
2957 Clouds 26 1019 19 10000 5.1 70 13:56 10.02.2020
2958 Clouds 25 1021 32 10000 5.1 60 13:37 10.02.2020
2959 Clouds 26 1021 32 10000 5.1 60 13:18 10.02.2020
2960 Clouds 26 1020 31 10000 5.1 70 12:43 10.02.2020
2961 Clouds 25 1021 39 10000 4.6 80 12:24 10.02.2020
2962 Clouds 25 1023 31 10000 4.1 60 11:54 10.02.2020
2963 Clear 24 1012 30 0 0.89 178 11:36 10.02.2020
2964 Clouds 25 1022 36 10000 4.1 60 11:18 10.02.2020
2965 Clouds 25 1022 36 10000 4.1 60 10:44 10.02.2020
2966 Clouds 23 1022 44 10000 5.1 60 10:26 10.02.2020
2967 Clouds 23 1022 44 10000 5.1 60 09:45 10.02.2020
2968 Clouds 22 1024 53 10000 2.6 40 09:24 10.02.2020
2969 Clouds 22 1023 56 10000 3.1 60 08:43 10.02.2020
2970 Clear 20 1023 68 10000 3.1 300 08:22 10.02.2020
2971 Clouds 20 1023 68 10000 3.1 300 07:57 10.02.2020
2972 Clouds 20 1023 68 10000 3.1 300 07:36 10.02.2020
2973 Clouds 17 1023 82 10000 2.6 290 06:58 10.02.2020
2974 Clouds 13 1023 93 10000 1.5 260 05:41 10.02.2020
2975 Clouds 15 1022 87 10000 2.1 320 04:23 10.02.2020
2976 Clouds 15 1022 87 10000 2.1 360 03:31 10.02.2020
2977 Clouds 14 1022 87 10000 2.6 10 02:53 10.02.2020
2978 Clouds 12 1012 88 0 2.24 77 01:36 10.02.2020
2979 Clouds 15 1023 88 10000 2.6 10 00:48 10.02.2020
2980 Clouds 16 1023 88 10000 2.6 20 00:28 10.02.2020
2981 Clouds 16 1023 88 10000 2 12 23:44 09.02.2020
2982 Clouds 16 1024 88 10000 1.5 20 23:26 09.02.2020
2983 Clouds 16 1024 88 10000 2.1 20 22:58 09.02.2020
2984 Clouds 16 1024 88 10000 2.6 40 22:38 09.02.2020
2985 Clouds 17 1024 88 10000 2.6 40 22:19 09.02.2020
2986 Clouds 17 1023 77 10000 2.6 30 21:41 09.02.2020
2987 Clouds 17 1024 82 10000 4.1 40 21:22 09.02.2020
2988 Clouds 17 1024 82 10000 4.1 40 21:22 09.02.2020
2989 Clouds 18 1022 72 10000 2.6 30 20:47 09.02.2020
2990 Clouds 18 1023 77 10000 3.6 20 20:23 09.02.2020
2991 Clouds 18 1021 64 10000 2.6 30 19:57 09.02.2020
2992 Clouds 18 1021 64 10000 2.6 30 19:39 09.02.2020
2993 Clouds 19 1022 72 10000 5.7 40 19:20 09.02.2020
2994 Clouds 19 1022 72 10000 5.7 40 19:20 09.02.2020
2995 Clear 19 1021 56 10000 5.1 60 18:42 09.02.2020
2996 Clouds 19 1021 64 10000 5.1 50 18:24 09.02.2020
2997 Clouds 20 1020 46 10000 7.7 60 17:59 09.02.2020
2998 Clouds 20 1021 49 10000 6.7 70 17:39 09.02.2020
2999 Clouds 20 1021 49 10000 6.7 70 17:39 09.02.2020
3000 Clouds 21 1021 49 10000 6.7 70 17:21 09.02.2020
3001 Clouds 22 1020 41 10000 7.7 90 16:43 09.02.2020
3002 Clouds 23 1021 41 10000 7.2 80 16:24 09.02.2020
3003 Clouds 23 1019 44 10000 5.1 70 15:59 09.02.2020
3004 Clouds 24 1019 44 10000 5.1 70 15:41 09.02.2020
3005 Clouds 24 1020 44 10000 6.7 70 15:21 09.02.2020
3006 Clouds 24 1020 41 10000 7.7 60 14:57 09.02.2020
3007 Clouds 24 1020 41 10000 7.7 60 14:38 09.02.2020
3008 Clouds 24 1021 41 10000 6.7 70 14:20 09.02.2020
3009 Clouds 25 1020 38 10000 7.7 60 13:44 09.02.2020
3010 Clouds 25 1021 44 10000 7.7 60 13:26 09.02.2020
3011 Clouds 25 1021 41 10000 7.7 60 12:56 09.02.2020
3012 Clouds 24 1022 44 10000 6.7 60 12:37 09.02.2020
3013 Clouds 24 1022 44 10000 6.7 60 12:18 09.02.2020
3014 Clouds 24 1022 44 10000 6.7 60 12:18 09.02.2020
3015 Clouds 23 1023 56 10000 5.1 30 11:41 09.02.2020
3016 Clouds 23 1023 56 10000 5.1 30 11:20 09.02.2020
3017 Clouds 22 1024 53 10000 4.1 60 10:57 09.02.2020
3018 Clouds 22 1024 56 10000 4.1 40 10:38 09.02.2020
3019 Clouds 22 1024 56 10000 4.1 40 10:20 09.02.2020
3020 Clouds 22 1023 56 10000 5.1 60 09:41 09.02.2020
3021 Clouds 20 1025 72 10000 3.6 20 09:22 09.02.2020
3022 Clouds 19 1025 72 10000 2.1 40 08:45 09.02.2020
3023 Clouds 19 1025 72 10000 2.1 40 08:45 09.02.2020
3024 Clouds 18 1025 82 10000 3.1 90 08:26 09.02.2020
3025 Clouds 18 1024 88 10000 2.1 50 07:58 09.02.2020
3026 Mist 17 1024 93 2000 2.6 80 07:34 09.02.2020
3027 Clouds 17 1023 93 10000 5.7 90 06:46 09.02.2020
3028 Clouds 16 1023 93 10000 3.6 100 06:26 09.02.2020
3029 Clouds 15 1022 88 10000 6.29 31 05:38 09.02.2020
3030 Clouds 15 1023 93 10000 1.5 20 05:18 09.02.2020
3031 Clouds 14 1020 93 0 1 30 03:52 09.02.2020
3032 Clouds 15 1020 93 0 1.09 31 02:44 09.02.2020
3033 Clear 15 1021 93 10000 1.5 50 02:25 09.02.2020
3034 Clouds 14 1021 93 10000 3.6 20 01:35 09.02.2020
3035 Clouds 16 1022 88 10000 1 30 00:42 09.02.2020
3036 Clouds 15 1022 93 10000 2.6 10 00:23 09.02.2020
3037 Clouds 16 1022 88 10000 3.85 32 23:42 08.02.2020
3038 Clouds 17 1023 93 10000 3.1 30 23:20 08.02.2020
3039 Clouds 16 1024 88 10000 3.6 40 22:42 08.02.2020
3040 Clouds 16 1024 88 10000 3.6 40 22:22 08.02.2020
3041 Clouds 16 1024 82 10000 4.1 50 21:58 08.02.2020
3042 Clouds 16 1024 82 10000 4.1 50 21:40 08.02.2020
3043 Clouds 20 1024 82 10000 4.1 50 21:20 08.02.2020
3044 Clouds 21 1024 42 10000 2.1 40 20:56 08.02.2020
3045 Clouds 21 1024 42 10000 2.1 40 20:38 08.02.2020
3046 Clouds 18 1023 68 10000 6.2 70 20:19 08.02.2020
3047 Clouds 18 1023 68 10000 6.2 70 19:55 08.02.2020
3048 Clouds 17 1023 77 10000 2.6 70 19:36 08.02.2020
3049 Clouds 18 1023 77 10000 2.6 70 19:18 08.02.2020
3050 Clouds 19 1021 64 10000 5.1 60 18:43 08.02.2020
3051 Clouds 20 1022 64 10000 6.7 50 18:23 08.02.2020
3052 Clouds 20 1022 56 10000 4.1 60 17:44 08.02.2020
3053 Clouds 21 1021 53 10000 8.2 40 17:22 08.02.2020
3054 Clouds 22 1021 49 10000 5.1 80 16:59 08.02.2020
3055 Clouds 22 1021 47 10000 5.7 40 16:39 08.02.2020
3056 Clouds 23 1021 47 10000 5.7 40 16:21 08.02.2020
3057 Clouds 23 1021 47 10000 5.7 40 16:21 08.02.2020
3058 Clouds 23 1021 47 10000 5.7 40 16:21 08.02.2020
3059 Clouds 23 1021 47 10000 5.7 40 15:43 08.02.2020
3060 Clouds 24 1021 50 10000 9.8 70 15:19 08.02.2020
3061 Clouds 24 1021 44 10000 4.6 40 14:59 08.02.2020
3062 Clouds 24 1021 44 10000 4.6 40 14:40 08.02.2020
3063 Clouds 24 1021 44 10000 6.7 60 14:19 08.02.2020
3064 Clouds 25 1021 41 10000 4.6 70 13:43 08.02.2020
3065 Clouds 25 1021 41 10000 4.6 70 13:43 08.02.2020
3066 Clouds 24 1022 47 10000 7.7 60 13:23 08.02.2020
3067 Clouds 24 1021 44 10000 7.7 40 12:57 08.02.2020
3068 Clouds 24 1021 44 10000 7.7 40 12:37 08.02.2020
3069 Clouds 25 1023 50 10000 9.3 60 12:19 08.02.2020
3070 Clouds 24 1023 47 10000 5.1 70 11:43 08.02.2020
3071 Clouds 23 1024 50 10000 9.8 50 11:22 08.02.2020
3072 Clouds 23 1023 56 10000 9.3 90 10:57 08.02.2020
3073 Clouds 22 1024 60 10000 8.2 70 10:38 08.02.2020
3074 Clouds 22 1024 60 10000 8.2 70 10:20 08.02.2020
3075 Clouds 22 1023 60 10000 8.2 80 09:49 08.02.2020
3076 Clouds 21 1024 68 10000 7.2 40 09:24 08.02.2020
3077 Clouds 20 1024 72 10000 7.2 50 08:46 08.02.2020
3078 Clouds 18 1024 88 10000 6.2 50 08:24 08.02.2020
3079 Clouds 18 1024 88 10000 6.2 50 07:53 08.02.2020
3080 Clouds 18 1024 88 10000 5.1 50 07:34 08.02.2020
3081 Clouds 18 1023 88 10000 4.1 30 06:54 08.02.2020
3082 Clouds 16 1024 93 10000 1.5 10 06:21 08.02.2020
3083 Clear 15 1023 100 10000 1.5 50 05:34 08.02.2020
3084 Clouds 16 1022 88 10000 2.24 34 04:55 08.02.2020
3085 Clouds 15 1022 93 10000 1.5 50 04:24 08.02.2020
3086 Clouds 16 1021 88 10000 3.1 40 03:38 08.02.2020
3087 Clouds 16 1022 93 10000 3.1 40 02:29 08.02.2020
3088 Clouds 16 1022 93 10000 3.1 40 01:33 08.02.2020
3089 Clouds 16 1023 93 10000 3.1 40 00:54 08.02.2020
3090 Clouds 16 1023 88 10000 2.6 40 00:25 08.02.2020
3091 Clouds 17 1023 88 10000 2.6 40 23:58 07.02.2020
3092 Clouds 17 1023 88 10000 2.6 40 23:39 07.02.2020
3093 Clouds 16 1023 88 10000 2.6 40 23:20 07.02.2020
3094 Clouds 17 1023 88 10000 2.6 40 22:42 07.02.2020
3095 Clouds 18 1024 88 10000 4.1 50 22:20 07.02.2020
3096 Clouds 18 1023 77 10000 4.1 20 21:59 07.02.2020
3097 Clouds 18 1023 77 10000 4.1 20 21:40 07.02.2020
3098 Clouds 18 1023 82 10000 4.1 40 21:20 07.02.2020
3099 Clouds 19 1022 77 10000 6.7 50 20:40 07.02.2020
3100 Clouds 19 1023 77 10000 5.1 60 20:21 07.02.2020
3101 Clouds 20 1022 73 10000 9.3 60 19:56 07.02.2020
3102 Clouds 20 1022 73 10000 9.3 60 19:37 07.02.2020
3103 Clouds 20 1022 73 10000 9.3 60 19:37 07.02.2020
3104 Clouds 20 1023 77 10000 6.7 50 19:18 07.02.2020
3105 Clouds 20 1021 68 10000 8.7 70 18:45 07.02.2020
3106 Clouds 20 1022 68 10000 5.1 50 18:26 07.02.2020
3107 Clouds 21 1020 53 10000 5.7 70 17:57 07.02.2020
3108 Clouds 21 1020 53 10000 5.7 70 17:39 07.02.2020
3109 Clouds 21 1021 60 10000 7.7 60 17:19 07.02.2020
3110 Clouds 23 1020 47 10000 7.2 80 16:50 07.02.2020
3111 Clouds 24 1020 41 10000 8.7 80 16:24 07.02.2020
3112 Clouds 24 1019 34 10000 5.1 60 15:55 07.02.2020
3113 Clouds 25 1019 36 10000 10.3 60 15:29 07.02.2020
3114 Clouds 25 1019 34 10000 11.3 60 14:58 07.02.2020
3115 Clouds 26 1019 34 10000 11.3 60 14:40 07.02.2020
3116 Clouds 26 1019 30 10000 12.3 90 14:21 07.02.2020
3117 Clouds 26 1019 30 10000 12.3 90 13:57 07.02.2020
3118 Clouds 26 1019 30 10000 12.3 90 13:38 07.02.2020
3119 Clouds 27 1020 30 10000 10.3 60 13:20 07.02.2020
3120 Clouds 26 1020 32 10000 8.2 50 12:42 07.02.2020
3121 Clouds 26 1021 34 10000 8.2 60 12:24 07.02.2020
3122 Clouds 26 1021 31 10000 5.7 60 11:58 07.02.2020
3123 Clouds 26 1021 31 10000 5.7 60 11:39 07.02.2020
3124 Clouds 25 1022 36 10000 6.7 50 11:18 07.02.2020
3125 Clouds 23 1023 53 10000 6.7 40 10:40 07.02.2020
3126 Clouds 23 1023 53 10000 6.7 40 10:20 07.02.2020
3127 Clouds 23 1023 47 10000 8.7 50 09:45 07.02.2020
3128 Clouds 22 1024 56 10000 5.7 40 09:25 07.02.2020
3129 Clouds 21 1024 49 10000 7.7 50 08:57 07.02.2020
3130 Clouds 21 1024 49 10000 7.7 50 08:37 07.02.2020
3131 Clouds 20 1025 64 10000 4.6 30 08:19 07.02.2020
3132 Clouds 20 1023 68 10000 2.6 60 07:40 07.02.2020
3133 Clouds 18 1024 77 10000 2.6 30 07:19 07.02.2020
3134 Clouds 16 1023 87 10000 3.57 29 06:43 07.02.2020
3135 Clouds 16 1023 87 10000 3.57 29 06:22 07.02.2020
3136 Haze 15 1022 93 10000 3.57 29 05:43 07.02.2020
3137 Clouds 14 1021 82 10000 1.73 44 03:58 07.02.2020
3138 Clouds 15 1022 93 10000 3.1 10 02:30 07.02.2020
3139 Clouds 11 1014 82 0 1.8 21 01:34 07.02.2020
3140 Clouds 15 1024 82 10000 2.6 350 00:38 07.02.2020
3141 Clouds 16 1023 77 10000 3.1 60 23:56 06.02.2020
3142 Clouds 15 1024 82 10000 2.1 20 23:36 06.02.2020
3143 Rain 16 1024 82 10000 2.1 20 23:18 06.02.2020
3144 Rain 15 1025 82 10000 3.1 20 22:42 06.02.2020
3145 Rain 16 1022 77 10000 2.6 40 22:42 06.02.2020
3146 Rain 16 1025 82 10000 3.1 20 22:23 06.02.2020
3147 Rain 16 1025 77 10000 3.6 30 21:37 06.02.2020
3148 Rain 17 1025 77 10000 3.6 30 21:19 06.02.2020
3149 Rain 17 1023 68 10000 4.1 20 20:56 06.02.2020
3150 Rain 17 1023 68 10000 4.1 20 20:37 06.02.2020
3151 Clouds 18 1024 72 10000 4.1 50 20:18 06.02.2020
3152 Clouds 18 1023 60 10000 4.1 40 19:58 06.02.2020
3153 Clouds 18 1023 60 10000 4.1 40 19:39 06.02.2020
3154 Clouds 18 1021 52 10000 5.1 40 19:21 06.02.2020
3155 Clouds 19 1021 52 10000 5.1 40 18:57 06.02.2020
3156 Clouds 18 1022 56 10000 5.1 50 18:38 06.02.2020
3157 Clouds 19 1022 56 10000 5.1 50 18:20 06.02.2020
3158 Clouds 20 1021 40 10000 5.1 60 17:42 06.02.2020
3159 Clouds 21 1021 43 10000 6.2 70 17:21 06.02.2020
3160 Clouds 21 1020 49 10000 5.1 40 16:57 06.02.2020
3161 Clouds 21 1020 49 10000 5.1 40 16:39 06.02.2020
3162 Clouds 22 1020 36 10000 8.7 50 16:20 06.02.2020
3163 Clouds 23 1020 41 10000 8.7 60 15:42 06.02.2020
3164 Clouds 23 1020 41 10000 8.7 60 15:21 06.02.2020
3165 Clouds 23 1019 44 10000 6.2 90 14:47 06.02.2020
3166 Clouds 22 1020 50 10000 5.7 70 14:26 06.02.2020
3167 Clouds 25 1020 47 10000 5.1 90 13:55 06.02.2020
3168 Clouds 25 1020 47 10000 5.1 90 13:36 06.02.2020
3169 Clouds 25 1021 47 10000 6.2 90 13:18 06.02.2020
3170 Clouds 25 1021 47 10000 6.2 90 12:43 06.02.2020
3171 Clouds 25 1021 47 10000 6.2 90 12:43 06.02.2020
3172 Clouds 24 1022 53 10000 4.1 90 12:19 06.02.2020
3173 Clouds 24 1022 53 10000 4.1 90 11:56 06.02.2020
3174 Clouds 22 1022 53 10000 4.1 90 11:37 06.02.2020
3175 Clouds 22 1023 57 10000 4.1 70 11:18 06.02.2020
3176 Clouds 22 1023 56 10000 6.2 60 10:56 06.02.2020
3177 Clouds 21 1023 64 10000 5.1 60 10:37 06.02.2020
3178 Clouds 21 1023 64 10000 5.1 60 10:18 06.02.2020
3179 Clouds 22 1023 64 10000 5.1 60 09:43 06.02.2020
3180 Clouds 22 1023 64 10000 5.1 60 09:43 06.02.2020
3181 Clouds 21 1024 68 10000 5.7 60 09:20 06.02.2020
3182 Clouds 20 1023 72 10000 5.1 30 08:47 06.02.2020
3183 Clouds 20 1023 72 10000 5.1 30 08:47 06.02.2020
3184 Clouds 20 1024 73 10000 4.1 30 08:25 06.02.2020
3185 Clouds 19 1023 72 10000 5.1 60 07:58 06.02.2020
3186 Clouds 18 1024 82 10000 3.6 20 07:33 06.02.2020
3187 Clouds 18 1023 88 10000 2.6 360 06:59 06.02.2020
3188 Clouds 16 1023 93 10000 1.5 350 06:21 06.02.2020
3189 Clouds 15 1022 93 10000 3.98 32 05:44 06.02.2020
3190 Clouds 14 1022 100 10000 1 300 04:18 06.02.2020
3191 Clouds 14 1022 93 10000 1 0 03:19 06.02.2020
3192 Clouds 15 1022 93 10000 2.1 350 02:25 06.02.2020
3193 Clouds 15 1022 100 10000 1 0 01:25 06.02.2020
3194 Clouds 16 1022 93 10000 2.1 360 00:53 06.02.2020
3195 Clouds 17 1023 93 10000 2.1 20 00:23 06.02.2020
3196 Clouds 17 1023 93 10000 3.1 60 23:43 05.02.2020
3197 Clouds 17 1023 93 10000 1.5 10 23:24 05.02.2020
3198 Clouds 17 1023 93 10000 5.1 60 22:57 05.02.2020
3199 Clouds 17 1023 93 10000 5.1 60 22:39 05.02.2020
3200 Clouds 17 1024 100 10000 2.1 40 22:20 05.02.2020
3201 Clouds 17 1023 82 10000 5.1 70 21:41 05.02.2020
3202 Clouds 17 1024 88 10000 4.1 60 21:23 05.02.2020
3203 Clouds 17 1024 82 10000 4.1 60 20:57 05.02.2020
3204 Clouds 18 1023 82 10000 3.6 60 20:38 05.02.2020
3205 Clouds 17 1023 82 10000 3.6 60 20:38 05.02.2020
3206 Clouds 18 1023 82 10000 3.6 60 20:19 05.02.2020
3207 Clouds 18 1021 72 10000 5.1 60 19:55 05.02.2020
3208 Clouds 18 1021 72 10000 5.1 60 19:37 05.02.2020
3209 Clouds 19 1022 72 10000 4.1 40 19:18 05.02.2020
3210 Clouds 19 1020 64 10000 5.1 60 18:44 05.02.2020
3211 Clouds 20 1021 64 10000 5.1 50 18:21 05.02.2020
3212 Clouds 20 1019 56 10000 5.1 60 17:58 05.02.2020
3213 Clouds 20 1020 56 10000 6.2 70 17:37 05.02.2020
3214 Clouds 21 1020 56 10000 6.2 70 17:18 05.02.2020
3215 Clouds 22 1019 53 10000 5.1 70 16:44 05.02.2020
3216 Clouds 22 1019 53 10000 6.2 70 16:25 05.02.2020
3217 Clouds 23 1018 50 10000 5.1 60 15:59 05.02.2020
3218 Clouds 23 1018 50 10000 5.1 60 15:59 05.02.2020
3219 Clouds 23 1018 50 10000 5.1 60 15:40 05.02.2020
3220 Clouds 23 1019 53 10000 5.7 70 15:19 05.02.2020
3221 Clouds 23 1018 50 10000 5.1 90 14:54 05.02.2020
3222 Clouds 24 1018 50 10000 5.1 90 14:36 05.02.2020
3223 Clouds 23 1019 53 10000 6.2 70 14:18 05.02.2020
3224 Clouds 25 1019 50 10000 4.1 70 13:40 05.02.2020
3225 Clouds 23 1021 57 10000 6.2 70 13:22 05.02.2020
3226 Clouds 24 1021 47 10000 7.7 70 12:43 05.02.2020
3227 Clouds 25 1021 53 10000 5.7 80 12:24 05.02.2020
3228 Clouds 25 1021 47 10000 5.1 80 11:57 05.02.2020
3229 Clouds 24 1021 47 10000 5.1 80 11:38 05.02.2020
3230 Clouds 23 1022 53 10000 6.7 50 11:20 05.02.2020
3231 Clouds 23 1021 56 10000 5.1 60 10:42 05.02.2020
3232 Clouds 22 1023 60 10000 5.7 40 10:24 05.02.2020
3233 Clouds 22 1023 56 10000 5.1 30 09:58 05.02.2020
3234 Clouds 23 1023 56 10000 5.1 30 09:37 05.02.2020
3235 Clouds 21 1024 64 10000 5.1 40 09:19 05.02.2020
3236 Clouds 21 1023 68 10000 5.1 60 08:44 05.02.2020
3237 Clouds 20 1023 73 10000 4.1 40 08:24 05.02.2020
3238 Clouds 20 1023 68 10000 5.1 60 07:55 05.02.2020
3239 Clouds 18 1023 82 10000 1.5 10 07:33 05.02.2020
3240 Clouds 18 1022 82 10000 1.5 30 06:50 05.02.2020
3241 Clouds 17 1022 82 10000 1.5 30 06:23 05.02.2020
3242 Clouds 15 1021 93 10000 4.46 31 05:54 05.02.2020
3243 Clouds 16 1021 93 10000 2.1 350 05:19 05.02.2020
3244 Clouds 15 1021 100 10000 2.1 360 04:52 05.02.2020
3245 Clouds 15 1021 93 10000 2.1 360 03:52 05.02.2020
3246 Clouds 15 1021 100 10000 2.6 30 02:26 05.02.2020
3247 Clouds 16 1021 93 10000 1 10 01:53 05.02.2020
3248 Clouds 16 1022 93 10000 2.1 60 00:43 05.02.2020
3249 Clouds 16 1022 100 10000 2.6 20 23:58 04.02.2020
3250 Clouds 16 1022 100 10000 2.6 20 23:39 04.02.2020
3251 Clouds 17 1023 93 10000 2.6 40 23:18 04.02.2020
3252 Clouds 17 1023 88 10000 2.6 70 22:56 04.02.2020
3253 Clouds 17 1023 88 10000 2.6 70 22:38 04.02.2020
3254 Clouds 18 1024 93 10000 3.1 50 22:19 04.02.2020
3255 Clouds 17 1022 88 10000 4.1 80 21:54 04.02.2020
3256 Clouds 18 1022 88 10000 4.1 80 21:54 04.02.2020
3257 Clouds 16 1023 88 10000 4.6 50 21:36 04.02.2020
3258 Clouds 16 1023 88 10000 4.6 50 21:18 04.02.2020
3259 Clouds 17 1022 77 10000 4.1 40 20:42 04.02.2020
3260 Clouds 18 1022 77 10000 4.1 40 20:21 04.02.2020
3261 Clouds 18 1021 72 10000 3.1 60 19:58 04.02.2020
3262 Clouds 18 1021 72 10000 3.1 60 19:40 04.02.2020
3263 Clouds 18 1021 77 10000 4.6 10 19:22 04.02.2020
3264 Clouds 18 1021 72 10000 4.6 40 18:56 04.02.2020
3265 Clouds 18 1020 68 10000 4.1 50 18:37 04.02.2020
3266 Clouds 19 1020 68 10000 4.1 50 18:18 04.02.2020
3267 Clouds 19 1019 60 10000 6.2 70 17:43 04.02.2020
3268 Clouds 20 1019 60 10000 6.2 70 17:21 04.02.2020
3269 Clouds 20 1019 60 10000 6.2 70 17:21 04.02.2020
3270 Clouds 21 1018 50 10000 6.2 80 16:56 04.02.2020
3271 Clouds 21 1019 50 10000 8.2 80 16:37 04.02.2020
3272 Clouds 22 1019 50 10000 8.2 80 16:19 04.02.2020
3273 Clouds 23 1019 53 10000 5.7 80 15:56 04.02.2020
3274 Clouds 23 1019 53 10000 5.7 80 15:37 04.02.2020
3275 Clouds 23 1019 53 10000 6.2 80 15:18 04.02.2020
3276 Clouds 22 1018 47 10000 5.7 90 14:42 04.02.2020
3277 Clouds 25 1018 50 10000 4.6 50 14:23 04.02.2020
3278 Clouds 25 1018 50 10000 4.6 50 14:23 04.02.2020
3279 Clouds 25 1018 50 10000 4.6 50 13:57 04.02.2020
3280 Clouds 24 1020 50 10000 6.2 60 13:39 04.02.2020
3281 Clouds 24 1020 50 10000 6.2 60 13:20 04.02.2020
3282 Clouds 24 1020 50 10000 6.2 60 12:44 04.02.2020
3283 Clouds 24 1021 53 10000 6.2 50 12:26 04.02.2020
3284 Clouds 23 1021 50 10000 6.2 50 11:58 04.02.2020
3285 Clouds 23 1021 50 10000 6.2 50 11:39 04.02.2020
3286 Clouds 23 1022 60 10000 5.1 40 11:21 04.02.2020
3287 Clouds 21 1023 60 10000 5.7 50 10:55 04.02.2020
3288 Clouds 21 1023 64 10000 5.1 50 10:36 04.02.2020
3289 Clouds 22 1023 60 10000 5.7 50 10:36 04.02.2020
3290 Clouds 22 1023 64 10000 5.1 50 10:18 04.02.2020
3291 Clouds 21 1024 64 10000 4.6 40 09:40 04.02.2020
3292 Clouds 21 1024 60 10000 5.1 60 09:22 04.02.2020
3293 Clouds 20 1023 73 10000 4.6 80 08:50 04.02.2020
3294 Clouds 19 1024 77 10000 4.6 60 08:29 04.02.2020
3295 Clouds 19 1024 77 10000 4.6 60 08:29 04.02.2020
3296 Clouds 19 1023 82 10000 3.1 70 07:59 04.02.2020
3297 Clouds 19 1023 82 10000 3.1 70 07:39 04.02.2020
3298 Clouds 18 1023 88 10000 3.6 80 07:21 04.02.2020
3299 Clouds 17 1023 88 10000 3.1 60 06:42 04.02.2020
3300 Clouds 16 1021 93 10000 2.95 17 05:40 04.02.2020
3301 Clouds 16 1022 93 10000 1.5 30 05:22 04.02.2020
3302 Clouds 16 1022 93 10000 2.1 20 03:50 04.02.2020
3303 Clouds 16 1022 93 10000 2.1 10 03:31 04.02.2020
3304 Clouds 16 1022 93 10000 2.1 350 02:51 04.02.2020
3305 Clouds 16 1022 93 10000 2.1 20 02:28 04.02.2020
3306 Clouds 16 1022 93 10000 2.6 50 01:50 04.02.2020
3307 Clouds 16 1022 82 10000 2.6 10 01:32 04.02.2020
3308 Clouds 17 1023 88 10000 3.1 360 00:27 04.02.2020
3309 Clouds 16 1023 88 10000 2.25 35 23:57 03.02.2020
3310 Clouds 16 1023 88 10000 2.25 35 23:39 03.02.2020
3311 Clouds 16 1023 88 10000 2.6 30 23:19 03.02.2020
3312 Clouds 16 1023 88 10000 2.6 30 22:39 03.02.2020
3313 Rain 17 1023 88 10000 2.46 39 22:20 03.02.2020
3314 Rain 17 1023 88 10000 2.46 39 21:54 03.02.2020
3315 Clouds 18 1024 88 10000 3.6 360 21:36 03.02.2020
3316 Clouds 18 1024 88 10000 3.6 360 21:18 03.02.2020
3317 Clouds 18 1024 82 10000 2.6 50 20:41 03.02.2020
3318 Clouds 18 1023 88 10000 3.1 50 20:19 03.02.2020
3319 Clouds 18 1021 82 10000 7.7 360 19:56 03.02.2020
3320 Clouds 18 1021 82 10000 7.7 360 19:38 03.02.2020
3321 Clouds 18 1022 88 10000 4.6 90 19:19 03.02.2020
3322 Clouds 19 1021 77 10000 5.7 90 18:43 03.02.2020
3323 Clouds 19 1021 77 10000 5.7 90 18:24 03.02.2020
3324 Clouds 20 1019 60 10000 5.1 60 17:59 03.02.2020
3325 Clouds 20 1019 60 10000 5.1 60 17:59 03.02.2020
3326 Clouds 20 1019 60 10000 5.1 60 17:40 03.02.2020
3327 Clouds 21 1019 56 10000 6.7 70 17:20 03.02.2020
3328 Clouds 21 1019 56 10000 6.7 70 17:20 03.02.2020
3329 Clouds 21 1018 50 10000 7.7 70 16:58 03.02.2020
3330 Clouds 21 1018 50 10000 7.7 70 16:58 03.02.2020
3331 Clouds 20 1019 53 10000 6.2 80 16:38 03.02.2020
3332 Clouds 22 1019 53 10000 6.2 80 16:20 03.02.2020
3333 Clouds 23 1018 50 10000 6.2 80 15:54 03.02.2020
3334 Clouds 22 1019 53 10000 6.7 80 15:36 03.02.2020
3335 Clouds 23 1019 53 10000 6.7 80 15:18 03.02.2020
3336 Clouds 23 1019 53 10000 5.7 80 14:41 03.02.2020
3337 Clouds 24 1019 50 10000 5.1 70 14:22 03.02.2020
3338 Clouds 24 1019 50 10000 6.7 70 13:55 03.02.2020
3339 Clouds 23 1020 53 10000 4.6 50 13:37 03.02.2020
3340 Clouds 23 1020 53 10000 4.6 50 13:19 03.02.2020
3341 Clouds 23 1021 50 10000 4.6 20 12:41 03.02.2020
3342 Clouds 23 1021 53 10000 5.1 100 12:23 03.02.2020
3343 Clouds 23 1021 53 10000 3.1 100 11:59 03.02.2020
3344 Clouds 22 1022 60 10000 3.1 70 11:38 03.02.2020
3345 Clouds 23 1022 60 10000 3.1 70 11:19 03.02.2020
3346 Clouds 23 1022 60 10000 5.1 130 10:54 03.02.2020
3347 Clouds 23 1022 60 10000 5.1 130 10:36 03.02.2020
3348 Clouds 22 1023 64 10000 3.1 50 10:18 03.02.2020
3349 Clouds 22 1023 64 10000 3.1 50 10:18 03.02.2020
3350 Clouds 22 1023 69 10000 4.6 80 09:38 03.02.2020
3351 Clouds 21 1023 68 10000 3.1 70 09:19 03.02.2020
3352 Clouds 21 1023 68 10000 4.76 32 08:40 03.02.2020
3353 Clouds 21 1024 77 10000 2.6 50 08:22 03.02.2020
3354 Clouds 20 1023 73 10000 2.27 52 07:42 03.02.2020
3355 Clouds 18 1024 88 10000 2.1 30 07:23 03.02.2020
3356 Clouds 18 1023 93 10000 2.27 52 06:56 03.02.2020
3357 Clouds 17 1023 93 10000 1 0 06:31 03.02.2020
3358 Clouds 17 1022 93 10000 2.27 52 05:51 03.02.2020
3359 Clouds 16 1023 93 10000 1 330 05:31 03.02.2020
3360 Clouds 16 1021 88 10000 1.48 37 04:45 03.02.2020
3361 Clouds 17 1021 93 10000 1.48 37 02:48 03.02.2020
3362 Clouds 17 1022 88 10000 1 0 02:27 03.02.2020
3363 Clouds 16 1022 93 10000 2.1 360 00:49 03.02.2020
3364 Clouds 16 1023 88 10000 2.6 10 00:27 03.02.2020
3365 Clouds 16 1023 93 10000 1.5 20 23:56 02.02.2020
3366 Clouds 17 1023 88 10000 1.5 20 23:36 02.02.2020
3367 Clouds 18 1023 88 10000 1.5 20 23:18 02.02.2020
3368 Clouds 17 1024 88 10000 3.1 20 22:39 02.02.2020
3369 Clouds 18 1024 88 10000 3.1 20 22:21 02.02.2020
3370 Clouds 18 1023 88 10000 1.71 36 21:58 02.02.2020
3371 Clouds 17 1024 88 10000 3.1 20 21:39 02.02.2020
3372 Clouds 18 1024 88 10000 3.1 20 21:20 02.02.2020
3373 Clouds 18 1023 88 10000 1.71 36 20:57 02.02.2020
3374 Clouds 18 1023 82 10000 3.1 70 20:39 02.02.2020
3375 Clouds 18 1023 82 10000 3.1 70 20:20 02.02.2020
3376 Clouds 18 1022 77 10000 1.76 54 19:57 02.02.2020
3377 Clouds 18 1022 77 10000 1.76 54 19:38 02.02.2020
3378 Clouds 18 1023 77 10000 4.6 80 19:38 02.02.2020
3379 Clouds 19 1023 77 10000 4.6 80 19:20 02.02.2020
3380 Clouds 19 1021 77 10000 1.76 54 18:55 02.02.2020
3381 Clouds 19 1021 77 10000 1.76 54 18:37 02.02.2020
3382 Clouds 19 1022 73 10000 1.5 50 18:18 02.02.2020
3383 Clouds 19 1021 77 10000 1.76 54 17:57 02.02.2020
3384 Clouds 19 1021 56 10000 4.6 80 17:37 02.02.2020
3385 Clouds 20 1021 56 10000 4.6 80 17:18 02.02.2020
3386 Clouds 20 1020 73 10000 3.19 68 16:56 02.02.2020
3387 Clouds 20 1020 49 10000 6.2 60 16:37 02.02.2020
3388 Clouds 21 1020 49 10000 6.2 60 16:18 02.02.2020
3389 Rain 22 1020 69 7000 5.7 220 15:54 02.02.2020
3390 Rain 22 1020 69 7000 5.7 220 15:36 02.02.2020
3391 Clouds 21 1020 53 10000 5.1 60 15:18 02.02.2020
3392 Clouds 21 1019 73 10000 3.19 68 14:41 02.02.2020
3393 Clouds 21 1020 50 10000 2.6 90 14:19 02.02.2020
3394 Clouds 21 1020 60 10000 2.6 250 13:58 02.02.2020
3395 Clouds 24 1020 60 10000 2.6 250 13:39 02.02.2020
3396 Clouds 24 1020 57 10000 2.6 0 13:20 02.02.2020
3397 Clouds 21 1021 64 10000 5.1 160 12:55 02.02.2020
3398 Rain 14 1013 95 0 4.43 75 12:36 02.02.2020
3399 Clouds 21 1021 60 10000 5.7 180 12:18 02.02.2020
3400 Clouds 24 1021 60 10000 5.7 180 11:41 02.02.2020
3401 Clouds 24 1022 57 10000 1 0 11:41 02.02.2020
3402 Clouds 24 1022 57 10000 1 0 11:19 02.02.2020
3403 Clouds 23 1022 60 10000 2.1 130 10:57 02.02.2020
3404 Clouds 22 1024 73 10000 1.5 0 10:38 02.02.2020
3405 Clouds 20 1024 73 10000 1.5 0 10:20 02.02.2020
3406 Clouds 20 1023 68 10000 2.32 40 09:56 02.02.2020
3407 Clouds 21 1024 73 10000 3.1 240 09:38 02.02.2020
3408 Clouds 19 1024 73 10000 3.1 240 09:20 02.02.2020
3409 Clouds 18 1023 77 10000 1.88 82 08:44 02.02.2020
3410 Clouds 17 1023 82 10000 2.32 40 08:24 02.02.2020
3411 Clouds 17 1023 82 10000 1.51 277 07:47 02.02.2020
3412 Clouds 16 1024 88 10000 1.5 210 07:28 02.02.2020
3413 Clouds 16 1023 88 10000 1.51 277 06:45 02.02.2020
3414 Clouds 15 1023 93 10000 2.1 230 06:27 02.02.2020
3415 Clouds 15 1022 100 10000 1.51 277 05:48 02.02.2020
3416 Clouds 15 1022 100 10000 3.1 230 04:52 02.02.2020
3417 Clouds 15 1023 93 10000 3.1 70 03:30 02.02.2020
3418 Clouds 15 1023 93 10000 1.81 357 02:35 02.02.2020
3419 Clouds 15 1023 93 10000 2.1 37 01:55 02.02.2020
3420 Clouds 15 1023 93 10000 1 40 01:26 02.02.2020
3421 Clouds 15 1023 93 10000 1 360 00:44 02.02.2020
3422 Clouds 15 1023 93 10000 1 360 00:23 02.02.2020
3423 Clouds 16 1024 93 10000 2.1 60 23:47 01.02.2020
3424 Clouds 16 1024 93 10000 2.1 60 23:47 01.02.2020
3425 Rain 16 1023 93 10000 2.76 37 23:23 01.02.2020
3426 Rain 16 1023 93 10000 0.92 335 22:59 01.02.2020
3427 Rain 16 1023 93 10000 0.92 335 22:41 01.02.2020
3428 Clouds 16 1024 93 10000 3.1 40 22:18 01.02.2020
3429 Clouds 16 1023 93 10000 0.92 335 21:39 01.02.2020
3430 Clouds 16 1023 88 10000 0.92 335 21:18 01.02.2020
3431 Clouds 16 1023 88 10000 2.6 40 20:41 01.02.2020
3432 Clouds 17 1023 93 10000 1 0 20:20 01.02.2020
3433 Clouds 17 1021 88 10000 5.1 270 19:57 01.02.2020
3434 Clouds 17 1021 88 10000 5.1 270 19:39 01.02.2020
3435 Clouds 17 1022 93 10000 3.6 260 19:20 01.02.2020
3436 Thunderstorm 17 1021 88 10000 0.63 293 18:58 01.02.2020
3437 Thunderstorm 17 1021 88 10000 0.63 293 18:40 01.02.2020
3438 Thunderstorm 17 1021 88 10000 0.63 293 18:40 01.02.2020
3439 Thunderstorm 17 1022 93 10000 3.1 260 18:22 01.02.2020
3440 Rain 17 1020 82 10000 0.63 293 17:58 01.02.2020
3441 Rain 17 1020 82 10000 0.63 293 17:39 01.02.2020
3442 Thunderstorm 19 1021 88 10000 5.1 300 17:20 01.02.2020
3443 Rain 20 1019 61 10000 2.6 40 16:56 01.02.2020
3444 Rain 20 1019 61 10000 2.6 40 16:38 01.02.2020
3445 Rain 20 1019 61 10000 2.6 40 16:38 01.02.2020
3446 Rain 20 1019 82 10000 2.1 0 16:19 01.02.2020
3447 Clouds 20 1018 61 10000 4.1 280 15:41 01.02.2020
3448 Clouds 22 1018 64 10000 3.6 260 15:22 01.02.2020
3449 Clouds 23 1018 57 10000 7.2 270 14:57 01.02.2020
3450 Rain 19 1010 86 0 0.89 222 14:38 01.02.2020
3451 Clouds 22 1019 57 10000 4.1 240 14:20 01.02.2020
3452 Clouds 23 1019 57 10000 4.1 240 13:43 01.02.2020
3453 Clouds 22 1020 64 10000 4.6 260 13:20 01.02.2020
3454 Clouds 22 1020 64 10000 3.1 270 12:44 01.02.2020
3455 Rain 20 1021 82 10000 4.1 260 12:25 01.02.2020
3456 Clouds 19 1021 82 10000 5.1 260 11:56 01.02.2020
3457 Rain 17 1012 91 0 1.25 167 11:37 01.02.2020
3458 Rain 18 1022 82 10000 7.2 260 11:18 01.02.2020
3459 Rain 18 1022 82 10000 7.2 260 10:55 01.02.2020
3460 Clouds 18 1023 83 10000 3.6 170 10:37 01.02.2020
3461 Clouds 18 1023 83 10000 3.6 170 10:18 01.02.2020
3462 Clouds 18 1024 82 10000 1.5 120 09:41 01.02.2020
3463 Clouds 18 1024 82 10000 1.5 120 09:41 01.02.2020
3464 Clouds 18 1024 82 10000 1.5 120 09:23 01.02.2020
3465 Clouds 18 1024 82 10000 1 0 08:59 01.02.2020
3466 Clouds 17 1024 82 10000 1 0 08:38 01.02.2020
3467 Clouds 17 1023 93 10000 1.48 252 07:47 01.02.2020
3468 Clouds 16 1024 93 10000 3.1 80 07:25 01.02.2020
3469 Clouds 16 1023 93 10000 1.48 252 06:50 01.02.2020
3470 Clouds 16 1023 93 10000 1.48 252 06:50 01.02.2020
3471 Rain 16 1023 93 10000 1.5 40 06:19 01.02.2020
3472 Clouds 15 1022 93 10000 1.48 252 05:50 01.02.2020
3473 Rain 14 1022 93 10000 3.6 330 03:40 01.02.2020
3474 Rain 15 1022 93 10000 1.5 300 03:20 01.02.2020
3475 Rain 15 1021 93 10000 2.1 200 02:43 01.02.2020
3476 Rain 15 1021 93 10000 2.6 270 02:22 01.02.2020
3477 Rain 15 1020 100 10000 0.2 218 01:49 01.02.2020
3478 Rain 15 1021 93 10000 4.1 240 01:30 01.02.2020
3479 Clouds 15 1021 93 10000 2.6 230 00:27 01.02.2020
3480 Clouds 16 1022 93 10000 1.5 250 23:43 31.01.2020
3481 Clouds 17 1022 93 10000 2.1 70 23:19 31.01.2020
3482 Rain 17 1021 93 10000 2.07 57 22:58 31.01.2020
3483 Rain 17 1021 93 10000 2.07 57 22:40 31.01.2020
3484 Clouds 17 1022 88 10000 3.1 40 22:21 31.01.2020
3485 Rain 17 1021 100 10000 6.2 30 21:55 31.01.2020
3486 Clouds 18 1022 88 10000 4.1 40 21:37 31.01.2020
3487 Clouds 18 1022 88 10000 4.1 40 21:19 31.01.2020
3488 Rain 18 1021 88 10000 5.1 50 20:56 31.01.2020
3489 Clouds 18 1021 88 10000 3.6 40 20:37 31.01.2020
3490 Clouds 19 1021 88 10000 3.6 40 20:18 31.01.2020
3491 Clouds 19 1020 83 10000 4.1 50 19:55 31.01.2020
3492 Thunderstorm 20 1020 83 10000 5.1 60 19:36 31.01.2020
3493 Thunderstorm 21 1020 83 10000 5.1 60 19:18 31.01.2020
3494 Clouds 21 1019 60 10000 6.2 70 18:39 31.01.2020
3495 Clouds 21 1019 68 10000 4.6 70 18:21 31.01.2020
3496 Clouds 21 1018 57 10000 3.1 80 17:46 31.01.2020
3497 Clouds 21 1019 60 10000 4.1 80 17:28 31.01.2020
3498 Clouds 22 1017 50 10000 4.6 90 16:59 31.01.2020
3499 Clouds 22 1018 53 10000 5.7 80 16:39 31.01.2020
3500 Clouds 22 1018 53 10000 5.7 80 16:19 31.01.2020
3501 Clouds 23 1017 50 10000 5.1 90 15:58 31.01.2020
3502 Clouds 23 1017 50 10000 5.1 90 15:40 31.01.2020
3503 Clouds 23 1017 53 10000 5.7 90 15:20 31.01.2020
3504 Clouds 23 1017 50 10000 5.1 100 14:45 31.01.2020
3505 Clouds 24 1018 50 10000 4.1 80 14:26 31.01.2020
3506 Clouds 24 1018 47 10000 3.1 50 13:59 31.01.2020
3507 Clouds 23 1019 50 10000 3.6 50 13:38 31.01.2020
3508 Clouds 23 1019 50 10000 3.6 50 13:20 31.01.2020
3509 Clouds 23 1020 53 10000 3.1 50 12:45 31.01.2020
3510 Clouds 24 1020 53 10000 3.6 60 12:24 31.01.2020
3511 Clouds 24 1020 53 10000 4.1 70 11:56 31.01.2020
3512 Clouds 24 1020 53 10000 4.1 70 11:37 31.01.2020
3513 Clouds 23 1022 53 10000 4.1 60 11:19 31.01.2020
3514 Clouds 22 1021 64 10000 4.1 50 10:44 31.01.2020
3515 Clouds 22 1023 57 10000 4.1 50 10:23 31.01.2020
3516 Clouds 22 1023 73 10000 5.1 30 09:59 31.01.2020
3517 Clouds 22 1023 64 10000 2.1 30 09:41 31.01.2020
3518 Clouds 21 1023 64 10000 2.1 30 09:21 31.01.2020
3519 Clouds 19 1023 73 10000 2.87 44 08:54 31.01.2020
3520 Clouds 18 1024 82 10000 3.1 250 08:28 31.01.2020
3521 Clouds 17 1023 93 10000 1.61 3 07:59 31.01.2020
3522 Clouds 17 1023 93 10000 1.61 3 07:40 31.01.2020
3523 Clouds 17 1024 93 10000 2.6 230 07:18 31.01.2020
3524 Clouds 16 1023 93 10000 1.5 200 06:27 31.01.2020
3525 Clouds 16 1023 93 10000 1.61 3 05:53 31.01.2020
3526 Mist 16 1023 93 6000 0.5 40 05:19 31.01.2020
3527 Clouds 16 1022 93 10000 2.6 20 03:47 31.01.2020
3528 Clouds 18 1021 93 10000 4.1 50 01:54 31.01.2020
3529 Clouds 16 1022 93 10000 3.1 60 01:29 31.01.2020
3530 Rain 17 1023 93 8000 3.1 70 00:38 31.01.2020
3531 Rain 16 1023 93 8000 3.1 70 00:20 31.01.2020
3532 Clouds 16 1023 93 10000 2.1 30 23:40 30.01.2020
3533 Rain 17 1023 93 6000 3.1 50 23:40 30.01.2020
3534 Clouds 17 1023 93 10000 2.1 30 23:21 30.01.2020
3535 Clouds 17 1022 88 10000 1.24 38 22:38 30.01.2020
3536 Clouds 17 1023 93 10000 3.1 30 22:20 30.01.2020
3537 Clouds 19 1022 88 10000 3.1 50 21:58 30.01.2020
3538 Clouds 18 1022 88 10000 3.1 50 21:39 30.01.2020
3539 Clouds 18 1023 88 10000 3.6 40 21:18 30.01.2020
3540 Clouds 17 1022 82 10000 4.1 50 20:56 30.01.2020
3541 Clouds 17 1023 88 10000 2.6 50 20:37 30.01.2020
3542 Clouds 18 1023 88 10000 2.6 50 20:19 30.01.2020
3543 Clouds 18 1021 77 10000 2.6 70 19:42 30.01.2020
3544 Clouds 18 1022 82 10000 3.1 40 19:19 30.01.2020
3545 Clouds 18 1021 77 10000 2.1 20 18:58 30.01.2020
3546 Clouds 19 1021 77 10000 3.6 50 18:36 30.01.2020
3547 Clouds 19 1021 77 10000 3.6 50 18:18 30.01.2020
3548 Clouds 19 1020 68 10000 5.1 90 17:41 30.01.2020
3549 Clouds 21 1020 68 10000 4.6 70 17:19 30.01.2020
3550 Clouds 21 1019 60 10000 8.2 70 16:58 30.01.2020
3551 Clouds 21 1019 60 10000 8.2 70 16:39 30.01.2020
3552 Clouds 21 1019 64 10000 5.7 60 16:21 30.01.2020
3553 Clouds 22 1019 64 10000 6.7 70 15:44 30.01.2020
3554 Clouds 22 1019 64 10000 6.7 70 15:21 30.01.2020
3555 Clouds 23 1018 60 10000 7.2 70 14:57 30.01.2020
3556 Clouds 23 1020 64 10000 8.2 70 14:38 30.01.2020
3557 Clouds 23 1020 64 10000 8.2 70 14:20 30.01.2020
3558 Clouds 22 1019 60 10000 5.1 70 13:41 30.01.2020
3559 Clouds 22 1019 60 10000 5.1 70 13:41 30.01.2020
3560 Clouds 22 1020 60 10000 4.6 40 13:23 30.01.2020
3561 Clouds 22 1021 60 10000 4.1 50 12:55 30.01.2020
3562 Clouds 22 1022 60 10000 4.1 40 12:37 30.01.2020
3563 Clouds 22 1021 60 10000 4.1 50 12:37 30.01.2020
3564 Clouds 22 1022 60 10000 4.1 40 12:18 30.01.2020
3565 Clouds 22 1021 60 10000 7.7 60 11:41 30.01.2020
3566 Clouds 21 1023 64 10000 4.1 70 11:22 30.01.2020
3567 Clouds 21 1022 64 10000 4.1 70 10:58 30.01.2020
3568 Clouds 21 1022 64 10000 4.1 70 10:39 30.01.2020
3569 Clouds 21 1024 68 10000 3.6 80 10:20 30.01.2020
3570 Clouds 21 1024 73 10000 6.2 50 09:45 30.01.2020
3571 Clouds 20 1024 73 10000 2.6 40 09:24 30.01.2020
3572 Clouds 19 1024 88 10000 4.1 20 08:43 30.01.2020
3573 Clouds 19 1025 82 10000 2.6 50 08:22 30.01.2020
3574 Clouds 18 1024 88 10000 0.92 346 07:58 30.01.2020
3575 Clouds 18 1024 88 10000 0.92 346 07:39 30.01.2020
3576 Clouds 17 1024 93 10000 2.6 360 07:18 30.01.2020
3577 Clouds 16 1023 93 10000 0.92 346 06:44 30.01.2020
3578 Clouds 16 1024 93 10000 2.1 10 06:25 30.01.2020
3579 Clouds 16 1023 93 10000 1.5 350 05:30 30.01.2020
3580 Clouds 16 1023 93 10000 1.5 360 04:57 30.01.2020
3581 Clouds 15 1023 100 10000 2.1 40 03:48 30.01.2020
3582 Clouds 15 1023 100 10000 1.5 60 03:00 30.01.2020
3583 Clouds 16 1023 100 10000 3.6 80 01:35 30.01.2020
3584 Clouds 16 1023 93 10000 3.1 70 00:37 30.01.2020
3585 Clouds 16 1023 93 10000 3.1 80 00:18 30.01.2020
3586 Clouds 16 1023 93 10000 3.1 80 23:43 29.01.2020
3587 Clouds 16 1023 93 10000 4.6 50 23:20 29.01.2020
3588 Clouds 17 1023 93 10000 4.1 60 22:56 29.01.2020
3589 Clouds 17 1023 93 10000 4.1 60 22:56 29.01.2020
3590 Clouds 17 1023 93 10000 5.1 60 22:37 29.01.2020
3591 Clouds 17 1023 93 10000 5.1 60 22:18 29.01.2020
3592 Rain 17 1023 100 10000 4.1 50 21:55 29.01.2020
3593 Rain 17 1023 100 10000 4.1 50 21:36 29.01.2020
3594 Rain 17 1024 93 10000 5.1 80 21:18 29.01.2020
3595 Clouds 18 1023 93 10000 6.2 60 20:54 29.01.2020
3596 Clouds 18 1023 93 10000 6.2 60 20:36 29.01.2020
3597 Clouds 18 1023 93 10000 6.2 90 20:18 29.01.2020
3598 Clouds 19 1021 88 10000 5.7 40 19:54 29.01.2020
3599 Rain 15 1014 90 0 2.67 83 19:36 29.01.2020
3600 Clouds 19 1020 77 10000 4.6 70 19:18 29.01.2020
3601 Clouds 18 1021 88 10000 5.1 80 18:40 29.01.2020
3602 Clouds 19 1021 88 10000 5.1 80 18:19 29.01.2020
3603 Clouds 19 1019 77 10000 7.2 60 17:41 29.01.2020
3604 Clouds 19 1019 77 10000 7.2 60 17:41 29.01.2020
3605 Clouds 20 1020 73 10000 6.2 80 17:23 29.01.2020
3606 Clouds 20 1020 73 10000 6.2 80 17:23 29.01.2020
3607 Clouds 21 1018 68 10000 4.1 80 16:57 29.01.2020
3608 Clouds 21 1018 68 10000 4.1 80 16:39 29.01.2020
3609 Clouds 22 1018 57 10000 4.6 90 16:19 29.01.2020
3610 Clouds 22 1018 57 10000 5.7 90 15:39 29.01.2020
3611 Clouds 22 1018 57 10000 5.7 90 15:21 29.01.2020
3612 Clouds 24 1018 60 10000 5.1 60 14:57 29.01.2020
3613 Clouds 24 1018 60 10000 5.1 60 14:39 29.01.2020
3614 Clouds 23 1018 57 10000 6.2 60 14:18 29.01.2020
3615 Clouds 23 1018 57 10000 6.2 60 13:40 29.01.2020
3616 Clouds 22 1019 61 10000 3.1 60 13:22 29.01.2020
3617 Clouds 22 1020 64 10000 4.6 50 12:56 29.01.2020
3618 Clouds 22 1020 64 10000 4.6 50 12:38 29.01.2020
3619 Clouds 23 1021 64 10000 3.6 50 12:20 29.01.2020
3620 Clouds 23 1020 57 10000 4.6 80 11:47 29.01.2020
3621 Clouds 21 1021 68 10000 4.1 60 11:24 29.01.2020
3622 Clouds 21 1021 68 10000 4.1 60 10:58 29.01.2020
3623 Clouds 21 1021 68 10000 4.1 60 10:40 29.01.2020
3624 Clouds 21 1022 73 10000 2.1 30 10:20 29.01.2020
3625 Clouds 20 1023 82 10000 2.6 70 09:40 29.01.2020
3626 Clouds 19 1023 82 10000 2.6 70 09:22 29.01.2020
3627 Clouds 20 1022 77 10000 2.6 40 08:58 29.01.2020
3628 Clouds 19 1023 82 10000 2.6 20 08:39 29.01.2020
3629 Clouds 18 1023 82 10000 2.6 20 08:20 29.01.2020
3630 Clouds 17 1023 88 10000 2.6 30 07:45 29.01.2020
3631 Clouds 17 1023 88 10000 2.1 10 07:24 29.01.2020
3632 Clouds 17 1021 88 10000 3.37 33 06:55 29.01.2020
3633 Clouds 17 1021 88 10000 3.37 33 06:37 29.01.2020
3634 Clouds 17 1022 88 10000 1 320 06:18 29.01.2020
3635 Clouds 16 1021 93 10000 3.37 33 05:44 29.01.2020
3636 Clouds 16 1022 93 10000 2.1 330 05:25 29.01.2020
3637 Clouds 16 1021 93 10000 1.55 17 04:37 29.01.2020
3638 Clouds 16 1021 100 3000 1.5 60 02:50 29.01.2020
3639 Clouds 16 1021 100 10000 1 0 02:18 29.01.2020
3640 Clouds 16 1022 93 10000 2.6 50 00:43 29.01.2020
3641 Clouds 16 1022 93 10000 2.1 40 00:24 29.01.2020
3642 Clouds 16 1023 93 10000 2.1 30 23:58 28.01.2020
3643 Clouds 16 1022 93 10000 1.5 360 23:37 28.01.2020
3644 Clouds 16 1022 93 10000 1.5 360 23:18 28.01.2020
3645 Clouds 16 1023 100 10000 2.1 10 22:40 28.01.2020
3646 Clouds 16 1023 100 10000 3.1 30 22:21 28.01.2020
3647 Clouds 16 1023 93 10000 3.1 20 21:42 28.01.2020
3648 Clouds 16 1023 93 10000 3.1 20 21:42 28.01.2020
3649 Clouds 17 1023 93 10000 3.1 20 21:23 28.01.2020
3650 Clouds 17 1023 93 10000 3.1 20 21:23 28.01.2020
3651 Clouds 17 1021 93 10000 2.16 31 20:58 28.01.2020
3652 Clouds 17 1022 93 10000 3.1 20 20:40 28.01.2020
3653 Clouds 17 1022 93 10000 3.1 20 20:21 28.01.2020
3654 Clouds 17 1021 93 10000 3.1 20 19:39 28.01.2020
3655 Clouds 17 1021 93 10000 3.1 20 19:21 28.01.2020
3656 Clouds 17 1020 88 10000 1 20 18:59 28.01.2020
3657 Clouds 18 1020 88 10000 1 20 18:40 28.01.2020
3658 Clouds 17 1021 93 10000 3.6 40 18:22 28.01.2020
3659 Clouds 17 1021 93 10000 3.6 40 18:21 28.01.2020
3660 Rain 18 1019 88 10000 5.1 40 17:59 28.01.2020
3661 Clouds 17 1020 93 10000 3.6 50 17:38 28.01.2020
3662 Clouds 18 1020 93 10000 3.6 50 17:19 28.01.2020
3663 Clouds 18 1019 82 10000 3.1 40 16:55 28.01.2020
3664 Clouds 18 1020 88 10000 6.2 60 16:37 28.01.2020
3665 Clouds 19 1020 88 10000 6.2 60 16:19 28.01.2020
3666 Rain 19 1019 77 10000 5.1 40 15:44 28.01.2020
3667 Clouds 20 1019 88 10000 7.7 50 15:19 28.01.2020
3668 Clouds 21 1019 68 10000 6.2 60 14:55 28.01.2020
3669 Clouds 20 1020 94 10000 6.2 70 14:36 28.01.2020
3670 Clouds 20 1020 94 10000 6.2 70 14:18 28.01.2020
3671 Clouds 21 1019 68 10000 6.2 60 13:39 28.01.2020
3672 Clouds 20 1020 78 10000 6.2 70 13:21 28.01.2020
3673 Clouds 20 1020 78 10000 6.2 70 13:21 28.01.2020
3674 Clouds 20 1020 77 10000 5.1 90 12:42 28.01.2020
3675 Clouds 19 1021 82 10000 5.1 60 12:24 28.01.2020
3676 Clouds 19 1021 82 10000 4.1 60 11:55 28.01.2020
3677 Clouds 20 1021 82 10000 4.1 60 11:37 28.01.2020
3678 Clouds 19 1023 88 10000 4.6 70 11:18 28.01.2020
3679 Clouds 19 1022 82 10000 5.1 90 10:40 28.01.2020
3680 -273 0 0 0 0 0 10:22 28.01.2020
3681 Clouds 19 1022 82 10000 3.6 60 09:55 28.01.2020
3682 Clouds 19 1022 82 10000 3.6 60 09:55 28.01.2020
3683 Clouds 19 1023 88 10000 4.1 30 09:36 28.01.2020
3684 Clouds 19 1023 88 10000 4.1 30 09:18 28.01.2020
3685 Clouds 19 1023 93 10000 3.6 20 08:40 28.01.2020
3686 Clouds 18 1023 93 10000 5.1 40 08:19 28.01.2020
3687 Clouds 17 1022 100 10000 3.1 40 07:38 28.01.2020
3688 Rain 16 1021 93 5000 4.1 30 06:51 28.01.2020
3689 Clouds 16 1022 93 10000 2.1 360 06:28 28.01.2020
3690 Clouds 16 1021 100 10000 2.55 58 05:55 28.01.2020
3691 Clouds 17 1022 93 10000 3.6 90 05:33 28.01.2020
3692 Clouds 14 1022 100 10000 4.1 100 04:38 28.01.2020
3693 Clouds 14 1021 100 10000 3.1 100 03:33 28.01.2020
3694 Rain 16 1021 100 6000 4.1 90 02:25 28.01.2020
3695 Rain 16 1021 100 6000 4.1 90 02:25 28.01.2020
3696 Clouds 17 1020 93 10000 2.64 44 01:58 28.01.2020
3697 Clouds 17 1020 93 10000 2.64 44 01:40 28.01.2020
3698 Clouds 16 1021 93 9000 2.6 50 00:51 28.01.2020
3699 Clouds 15 1021 93 9000 2.1 30 00:29 28.01.2020
3700 Clouds 16 1022 93 10000 2.1 30 23:52 27.01.2020
3701 Clouds 16 1022 93 10000 2.6 50 23:30 27.01.2020
3702 Clouds 16 1022 93 10000 2.6 50 22:59 27.01.2020
3703 Clouds 16 1022 93 10000 2.6 50 22:41 27.01.2020
3704 Clouds 17 1022 93 10000 3.6 50 22:20 27.01.2020
3705 Clouds 17 1022 93 10000 2.6 30 21:56 27.01.2020
3706 Clouds 17 1023 93 10000 3.6 30 21:37 27.01.2020
3707 Clouds 17 1023 93 10000 3.6 30 21:18 27.01.2020
3708 Clouds 17 1022 93 10000 3.1 20 20:54 27.01.2020
3709 Clouds 17 1022 93 10000 3.6 20 20:36 27.01.2020
3710 Clouds 17 1022 93 10000 3.6 20 20:18 27.01.2020
3711 Clouds 17 1022 93 10000 3.6 20 19:41 27.01.2020
3712 Clouds 17 1022 93 10000 3.6 20 19:23 27.01.2020
3713 Clouds 17 1020 93 10000 5.1 50 18:56 27.01.2020
3714 Clouds 17 1020 93 10000 5.1 50 18:56 27.01.2020
3715 Clouds 17 1020 93 10000 5.1 50 18:38 27.01.2020
3716 Rain 17 1021 93 8000 4.1 30 18:20 27.01.2020
3717 Clouds 17 1019 100 10000 4.1 20 17:39 27.01.2020
3718 Clouds 19 1019 93 10000 3.1 50 17:21 27.01.2020
3719 Clouds 19 1019 93 10000 3.1 50 16:59 27.01.2020
3720 Clouds 20 1019 82 10000 6.2 50 16:41 27.01.2020
3721 Clouds 18 1019 82 10000 6.2 50 16:23 27.01.2020
3722 Clouds 19 1020 82 10000 5.1 20 15:55 27.01.2020
3723 Clouds 19 1019 77 10000 6.7 50 15:37 27.01.2020
3724 Clouds 19 1019 77 10000 6.7 50 15:37 27.01.2020
3725 Clouds 20 1019 77 10000 6.7 50 15:18 27.01.2020
3726 Clouds 20 1019 77 10000 6.7 50 15:18 27.01.2020
3727 Clouds 20 1019 83 10000 6.2 50 14:43 27.01.2020
3728 Clouds 20 1020 77 10000 5.7 40 14:23 27.01.2020
3729 Drizzle 20 1021 88 10000 5.7 50 13:58 27.01.2020
3730 Drizzle 20 1021 88 10000 5.7 50 13:40 27.01.2020
3731 Clouds 19 1021 82 10000 5.1 50 13:20 27.01.2020
3732 Drizzle 20 1021 93 9000 5.1 90 12:55 27.01.2020
3733 Rain 20 1022 88 6000 7.2 60 12:37 27.01.2020
3734 Rain 20 1022 88 6000 7.2 60 12:18 27.01.2020
3735 Rain 21 1021 83 9000 8.2 70 11:41 27.01.2020
3736 Rain 21 1022 77 10000 6.7 40 11:21 27.01.2020
3737 Clouds 22 1021 68 10000 6.2 70 10:43 27.01.2020
3738 Clouds 21 1023 77 10000 5.7 30 10:24 27.01.2020
3739 Clouds 21 1022 77 10000 5.1 50 09:56 27.01.2020
3740 Clouds 20 1023 82 10000 4.6 40 09:38 27.01.2020
3741 Clouds 20 1023 82 10000 4.6 40 09:18 27.01.2020
3742 Clouds 18 1024 93 10000 3.6 60 08:42 27.01.2020
3743 Clouds 18 1024 93 10000 3.6 60 08:20 27.01.2020
3744 -273 0 0 0 0 0 07:54 27.01.2020
3745 Clouds 18 1023 88 10000 2.6 80 07:34 27.01.2020
3746 Clouds 18 1023 93 10000 3.1 80 06:53 27.01.2020
3747 Clouds 17 1023 93 10000 2.6 80 06:25 27.01.2020
3748 Clouds 17 1022 93 10000 2.6 70 05:24 27.01.2020
3749 Clouds 16 1020 93 10000 3.1 70 03:49 27.01.2020
3750 Clouds 16 1022 93 10000 2.1 50 02:38 27.01.2020
3751 Clouds 17 1021 93 10000 1.26 23 01:29 27.01.2020
3752 Clouds 16 1022 93 10000 2.1 50 00:57 27.01.2020
3753 Clouds 16 1022 93 10000 2.1 50 00:36 27.01.2020
3754 Clouds 16 1022 93 10000 2.1 50 00:18 27.01.2020
3755 Clouds 16 1022 93 10000 2.1 50 00:18 27.01.2020
3756 Clouds 17 1022 93 10000 2.1 50 23:41 26.01.2020
3757 Clouds 17 1022 93 10000 2.1 50 23:41 26.01.2020
3758 Clouds 17 1022 93 10000 2.6 30 23:19 26.01.2020
3759 Clouds 17 1022 93 10000 3.1 20 22:54 26.01.2020
3760 Clouds 17 1022 93 10000 3.1 20 22:36 26.01.2020
3761 Clouds 17 1023 93 10000 2.6 20 22:18 26.01.2020
3762 Clouds 17 1023 93 10000 3.1 30 21:55 26.01.2020
3763 Clouds 17 1023 88 10000 2.6 40 21:37 26.01.2020
3764 Clouds 17 1023 88 10000 2.6 40 21:18 26.01.2020
3765 Clouds 17 1023 88 10000 2.6 40 21:18 26.01.2020
3766 Clouds 18 1023 88 10000 2.1 10 20:55 26.01.2020
3767 Clouds 17 1022 93 10000 2.6 40 20:36 26.01.2020
3768 Clouds 17 1022 93 10000 2.6 40 20:18 26.01.2020
3769 Clouds 17 1021 93 10000 2.1 20 19:41 26.01.2020
3770 Clouds 18 1022 88 10000 3.6 50 19:21 26.01.2020
3771 Clouds 18 1020 88 10000 4.1 50 18:59 26.01.2020
3772 Clouds 18 1020 88 10000 4.1 50 18:40 26.01.2020
3773 Clouds 18 1021 88 10000 4.1 30 18:22 26.01.2020
3774 Clouds 18 1020 88 10000 5.1 50 17:58 26.01.2020
3775 Clouds 19 1020 88 10000 5.1 50 17:38 26.01.2020
3776 Clouds 19 1020 82 10000 5.1 60 17:19 26.01.2020
3777 Clouds 19 1019 88 10000 4.1 60 16:58 26.01.2020
3778 Clouds 20 1019 88 10000 4.1 60 16:39 26.01.2020
3779 Clouds 20 1020 77 10000 5.1 60 16:20 26.01.2020
3780 Clouds 20 1019 83 10000 5.1 70 15:57 26.01.2020
3781 Clouds 20 1019 83 10000 5.1 70 15:39 26.01.2020
3782 Clouds 20 1020 83 10000 7.7 70 15:18 26.01.2020
3783 Clouds 18 1008 78 0 4.92 114 14:40 26.01.2020
3784 Clouds 18 1009 78 0 2.68 106 14:20 26.01.2020
3785 Clouds 21 1009 70 0 3.58 119 13:43 26.01.2020
3786 Clouds 22 1009 65 0 0.89 117 13:21 26.01.2020
3787 Clouds 23 1009 61 0 1.34 97 12:58 26.01.2020
3788 Clouds 22 1010 62 0 2.24 41 12:40 26.01.2020
3789 Clouds 21 1010 61 0 0.45 131 12:21 26.01.2020
3790 Clouds 22 1011 64 0 2.24 57 11:57 26.01.2020
3791 Clouds 21 1011 64 0 2.68 102 11:39 26.01.2020
3792 Clouds 20 1011 67 0 0.89 69 11:19 26.01.2020
3793 Clouds 19 1023 93 10000 4.6 20 10:58 26.01.2020
3794 Clouds 19 1023 93 10000 4.6 20 10:38 26.01.2020
3795 Clouds 19 1023 93 10000 4.6 20 10:20 26.01.2020
3796 Clouds 18 1024 93 10000 5.1 20 09:57 26.01.2020
3797 Clouds 18 1024 93 10000 5.1 20 09:39 26.01.2020
3798 Rain 18 1024 93 5000 4.1 40 09:20 26.01.2020
3799 Rain 17 1025 100 5000 6.2 30 08:43 26.01.2020
3800 Rain 17 1025 100 5000 5.1 50 08:22 26.01.2020
3801 Rain 17 1024 93 9000 5.1 50 07:57 26.01.2020
3802 Rain 17 1024 93 9000 5.1 50 07:39 26.01.2020
3803 Rain 17 1024 100 4000 7.2 50 07:20 26.01.2020
3804 Clouds 16 1023 93 10000 2.1 60 06:30 26.01.2020
3805 Clouds 16 1021 93 9000 5.36 40 05:31 26.01.2020
3806 Clouds 17 1021 93 9000 1.94 40 04:45 26.01.2020
3807 Clouds 17 1021 93 8000 1.94 40 02:42 26.01.2020
3808 Clouds 16 1022 93 10000 1 0 01:48 26.01.2020
3809 Clouds 16 1022 93 10000 1.5 90 01:24 26.01.2020
3810 Clouds 16 1022 93 10000 1.5 80 00:48 26.01.2020
3811 Clouds 16 1023 93 10000 2.1 60 00:29 26.01.2020
3812 Clouds 16 1012 78 0 1.99 41 23:41 25.01.2020
3813 Clouds 16 1012 77 0 0.45 56 23:22 25.01.2020
3814 Clouds 16 1012 77 0 1.34 85 22:58 25.01.2020
3815 Clouds 16 1013 76 0 1.79 100 22:40 25.01.2020
3816 Clouds 16 1013 76 0 4.02 98 22:19 25.01.2020
3817 Clouds 16 1013 76 0 3.13 94 21:57 25.01.2020
3818 Clouds 16 1013 78 0 3.13 125 21:38 25.01.2020
3819 Clouds 16 1013 80 0 0.89 98 21:19 25.01.2020
3820 Clouds 18 1017 88 0 1.2 70 20:44 25.01.2020
3821 Rain 17 1013 80 0 0.89 49 20:25 25.01.2020
3822 Clouds 17 1013 79 0 0.45 88 19:55 25.01.2020
3823 Clouds 17 1012 81 0 2.68 82 19:37 25.01.2020
3824 Clouds 17 1012 80 0 2.68 101 19:18 25.01.2020
3825 Clouds 17 1012 79 0 3.58 103 18:41 25.01.2020
3826 Rain 17 1012 81 0 3.13 83 18:21 25.01.2020
3827 Clouds 17 1011 84 0 3.58 105 17:58 25.01.2020
3828 Clouds 17 1011 84 0 4.47 75 17:38 25.01.2020
3829 Clouds 17 1010 83 0 3.13 74 17:18 25.01.2020
3830 Clouds 17 1010 82 0 3.13 81 16:42 25.01.2020
3831 Clouds 17 1010 81 0 4.47 114 16:23 25.01.2020
3832 Clouds 18 1010 81 0 3.58 75 15:58 25.01.2020
3833 Clouds 18 1010 79 0 0.89 105 15:39 25.01.2020
3834 Clouds 18 1010 77 0 2.68 86 15:20 25.01.2020
3835 Clouds 18 1010 77 0 2.68 86 15:20 25.01.2020
3836 Clouds 19 1009 77 0 2.24 112 14:42 25.01.2020
3837 Clouds 20 1010 73 0 7.7 49 14:19 25.01.2020
3838 Clouds 22 1010 66 0 0.89 50 13:45 25.01.2020
3839 Clouds 22 1010 62 0 0.45 50 13:27 25.01.2020
3840 Clouds 21 1012 69 0 3.58 21 12:58 25.01.2020
3841 Clouds 21 1012 69 0 3.58 21 12:39 25.01.2020
3842 Clouds 22 1021 64 10000 5.1 50 12:20 25.01.2020
3843 Clouds 22 1021 64 10000 5.1 50 11:40 25.01.2020
3844 Clouds 21 1023 69 10000 5.7 40 11:20 25.01.2020
3845 Rain 21 1022 88 10000 6.7 20 10:56 25.01.2020
3846 Clouds 20 1023 77 10000 5.7 50 10:38 25.01.2020
3847 Clouds 20 1023 77 10000 5.7 50 10:18 25.01.2020
3848 Clouds 21 1024 77 10000 5.7 60 09:40 25.01.2020
3849 Clouds 20 1024 82 10000 5.1 40 09:19 25.01.2020
3850 Clouds 19 1024 93 10000 4.6 40 08:43 25.01.2020
3851 Clouds 18 1023 88 10000 5.1 60 07:59 25.01.2020
3852 Clouds 18 1023 88 10000 4.1 40 07:36 25.01.2020
3853 Clouds 17 1021 93 10000 2.6 30 06:41 25.01.2020
3854 Clouds 17 1022 93 10000 2.1 30 06:22 25.01.2020
3855 Clouds 17 1021 93 10000 4.14 34 05:43 25.01.2020
3856 Clouds 16 1022 93 10000 2.6 40 04:24 25.01.2020
3857 Clouds 16 1022 93 10000 3.1 90 03:50 25.01.2020
3858 Clouds 17 1022 93 10000 2.6 80 02:38 25.01.2020
3859 Clouds 17 1022 88 10000 2.6 30 01:57 25.01.2020
3860 Clouds 16 1022 88 10000 2.1 40 01:23 25.01.2020
3861 Clouds 17 1022 88 10000 2.1 40 00:41 25.01.2020
3862 Clouds 17 1022 88 10000 2.1 40 00:41 25.01.2020
3863 Clouds 17 1022 88 10000 2.1 40 00:22 25.01.2020
3864 Clouds 17 1023 88 10000 1.5 350 23:42 24.01.2020
3865 Clouds 17 1023 88 10000 1.5 350 23:24 24.01.2020
3866 Clouds 17 1023 88 10000 1.5 360 22:47 24.01.2020
3867 Clouds 18 1023 88 10000 2.1 360 22:28 24.01.2020
3868 Clouds 18 1022 88 10000 1.06 38 21:59 24.01.2020
3869 Clouds 17 1023 82 10000 2.1 40 21:41 24.01.2020
3870 Clouds 18 1023 82 10000 2.1 40 21:19 24.01.2020
3871 Clouds 18 1021 88 10000 2.6 20 20:44 24.01.2020
3872 Clouds 19 1023 82 10000 3.6 40 20:23 24.01.2020
3873 Clouds 19 1021 77 10000 4.1 40 19:59 24.01.2020
3874 Clouds 19 1021 77 10000 4.1 40 19:40 24.01.2020
3875 Clouds 19 1022 82 10000 4.1 60 19:22 24.01.2020
3876 Clouds 19 1020 88 10000 3.6 40 18:57 24.01.2020
3877 Clouds 19 1020 88 10000 3.6 40 18:39 24.01.2020
3878 Clouds 19 1021 82 10000 2.6 60 18:21 24.01.2020
3879 Clouds 19 1020 73 10000 2.6 80 17:42 24.01.2020
3880 Clouds 19 1020 77 10000 4.1 70 17:21 24.01.2020
3881 Clouds 19 1019 73 10000 5.1 90 16:55 24.01.2020
3882 Clouds 20 1019 73 10000 5.1 90 16:36 24.01.2020
3883 Clouds 20 1020 73 10000 6.2 90 16:18 24.01.2020
3884 Clouds 20 1020 73 10000 6.2 90 16:18 24.01.2020
3885 Clouds 21 1019 60 10000 5.1 80 15:40 24.01.2020
3886 Clouds 21 1020 64 10000 4.6 40 15:20 24.01.2020
3887 Clouds 21 1019 60 10000 4.6 40 14:42 24.01.2020
3888 Clouds 23 1020 60 10000 4.6 40 14:23 24.01.2020
3889 Clouds 23 1020 60 10000 5.1 60 13:58 24.01.2020
3890 Clouds 22 1021 68 10000 5.1 40 13:39 24.01.2020
3891 Clouds 22 1021 68 10000 5.1 40 13:19 24.01.2020
3892 Clouds 22 1020 60 10000 3.6 30 12:42 24.01.2020
3893 Clouds 20 1021 60 10000 6.2 60 12:19 24.01.2020
3894 Clouds 20 1021 64 10000 7.2 90 11:44 24.01.2020
3895 Clouds 21 1022 69 10000 6.2 50 11:19 24.01.2020
3896 Clouds 21 1022 69 10000 5.1 90 10:43 24.01.2020
3897 Clouds 20 1023 77 10000 3.6 100 10:23 24.01.2020
3898 Clouds 21 1022 68 10000 3.1 60 09:59 24.01.2020
3899 Clouds 20 1024 77 10000 2.1 120 09:40 24.01.2020
3900 Clouds 20 1024 77 10000 2.1 120 09:22 24.01.2020
3901 Clouds 19 1023 82 10000 4.1 50 08:41 24.01.2020
3902 Clouds 19 1024 82 10000 2.6 90 08:20 24.01.2020
3903 Clouds 19 1023 82 10000 3.1 80 07:53 24.01.2020
3904 Clouds 18 1022 82 10000 0.09 168 07:35 24.01.2020
3905 Clouds 18 1022 82 10000 0.09 168 06:48 24.01.2020
3906 Clouds 16 1022 82 10000 0.5 60 06:29 24.01.2020
3907 Clouds 17 1021 82 10000 0.09 168 05:59 24.01.2020
3908 Clouds 16 1020 82 10000 0.74 267 04:58 24.01.2020
3909 Clouds 16 1021 88 10000 2.1 340 02:53 24.01.2020
3910 Clouds 18 1020 82 10000 3.1 10 02:26 24.01.2020
3911 Clouds 18 1020 82 10000 3.1 10 02:26 24.01.2020
3912 Clouds 18 1020 88 10000 4.1 20 01:46 24.01.2020
3913 Clouds 17 1021 88 10000 2.1 360 01:28 24.01.2020
3914 Clouds 16 1022 88 10000 3.1 360 00:26 24.01.2020
3915 Clouds 17 1022 88 10000 2.6 360 23:51 23.01.2020
3916 Clouds 17 1022 88 10000 2.6 20 23:31 23.01.2020
3917 Clouds 17 1022 88 10000 3.1 30 22:59 23.01.2020
3918 Clouds 18 1022 88 10000 3.1 30 22:38 23.01.2020
3919 Clouds 18 1022 88 10000 3.1 30 22:38 23.01.2020
3920 Clouds 18 1022 88 10000 3.1 40 22:19 23.01.2020
3921 Clouds 18 1022 88 10000 2.1 20 21:57 23.01.2020
3922 Clouds 18 1022 88 10000 2.1 20 21:39 23.01.2020
3923 Clouds 18 1023 88 10000 3.6 50 21:20 23.01.2020
3924 Clouds 18 1023 82 10000 4.1 50 20:59 23.01.2020
3925 Clouds 18 1023 82 10000 4.1 50 20:39 23.01.2020
3926 Clouds 19 1022 82 10000 4.1 60 20:20 23.01.2020
3927 Clouds 19 1021 82 10000 2.1 70 19:56 23.01.2020
3928 Clouds 19 1021 82 10000 2.1 70 19:38 23.01.2020
3929 Clouds 19 1021 77 10000 5.7 50 19:19 23.01.2020
3930 Clouds 20 1020 77 10000 4.1 60 18:55 23.01.2020
3931 Clouds 20 1020 77 10000 4.1 60 18:36 23.01.2020
3932 Clouds 20 1020 77 10000 5.1 70 18:18 23.01.2020
3933 Clouds 19 1019 68 10000 5.7 80 17:42 23.01.2020
3934 Clouds 21 1019 68 10000 5.7 80 17:20 23.01.2020
3935 Clouds 21 1018 64 10000 5.1 70 16:57 23.01.2020
3936 Clouds 20 1018 64 10000 4.6 60 16:37 23.01.2020
3937 Clouds 21 1018 64 10000 4.6 60 16:18 23.01.2020
3938 Clouds 22 1017 60 10000 5.7 70 15:56 23.01.2020
3939 Rain 18 1008 85 0 0.45 92 15:37 23.01.2020
3940 Clouds 22 1017 64 10000 3.1 50 15:18 23.01.2020
3941 Clouds 22 1017 64 10000 3.1 50 14:55 23.01.2020
3942 Clouds 21 1018 60 10000 6.2 50 14:37 23.01.2020
3943 Clouds 22 1018 60 10000 6.2 50 14:19 23.01.2020
3944 Clouds 23 1018 60 10000 4.1 90 13:43 23.01.2020
3945 Clouds 22 1019 60 10000 4.6 40 13:20 23.01.2020
3946 Clouds 23 1019 60 10000 5.1 80 12:54 23.01.2020
3947 Clouds 22 1020 69 10000 5.1 60 12:36 23.01.2020
3948 Clouds 22 1020 69 10000 5.1 60 12:18 23.01.2020
3949 Clouds 22 1019 69 10000 4.1 70 11:42 23.01.2020
3950 Clouds 21 1021 68 10000 5.7 60 11:23 23.01.2020
3951 Clouds 21 1020 68 10000 5.1 50 10:56 23.01.2020
3952 Clouds 21 1022 73 10000 4.6 50 10:38 23.01.2020
3953 Clouds 21 1022 73 10000 4.6 50 10:18 23.01.2020
3954 Clouds 21 1021 73 10000 4.1 50 09:40 23.01.2020
3955 Clouds 20 1022 77 10000 4.1 30 09:21 23.01.2020
3956 Clouds 19 1021 77 10000 2.6 20 08:43 23.01.2020
3957 Clouds 19 1021 77 10000 2.6 20 08:25 23.01.2020
3958 Clouds 19 1021 82 10000 2.1 20 07:52 23.01.2020
3959 Clouds 18 1021 82 10000 2.1 350 07:27 23.01.2020
3960 Clouds 18 1020 93 10000 3.79 23 06:58 23.01.2020
3961 Clouds 17 1021 93 10000 1.5 10 06:25 23.01.2020
3962 Clouds 16 1020 93 10000 2.1 330 05:59 23.01.2020
3963 Clouds 17 1020 93 10000 3.1 350 04:25 23.01.2020
3964 Clouds 16 1020 93 10000 1 360 02:50 23.01.2020
3965 Rain 17 1019 100 10000 3.1 20 01:53 23.01.2020
3966 Clouds 17 1021 88 10000 1 0 00:44 23.01.2020
3967 Clouds 16 1021 93 10000 2.1 30 00:22 23.01.2020
3968 Rain 17 1021 93 10000 2.6 50 23:46 22.01.2020
3969 Clouds 18 1021 88 10000 3.1 40 23:28 22.01.2020
3970 Rain 18 1020 82 10000 2.1 20 22:43 22.01.2020
3971 Clouds 18 1021 77 10000 3.1 30 22:25 22.01.2020
3972 Clouds 18 1020 77 10000 5.1 60 21:58 22.01.2020
3973 Clouds 18 1021 77 10000 2.6 50 21:36 22.01.2020
3974 Clouds 18 1021 77 10000 2.6 50 21:36 22.01.2020
3975 Clouds 19 1021 77 10000 2.6 50 21:18 22.01.2020
3976 Clouds 19 1021 72 10000 3.6 40 20:42 22.01.2020
3977 Clouds 19 1021 72 10000 3.6 40 20:23 22.01.2020
3978 Clouds 19 1019 68 0 3.1 70 19:59 22.01.2020
3979 Clouds 19 1019 68 0 3.1 70 19:41 22.01.2020
3980 Clouds 20 1019 68 10000 4.1 50 19:21 22.01.2020
3981 Clouds 20 1018 60 0 5.1 70 18:59 22.01.2020
3982 Clouds 20 1018 60 0 5.1 70 18:40 22.01.2020
3983 Clouds 20 1019 68 10000 5.1 50 18:21 22.01.2020
3984 Clouds 20 1017 64 0 4.1 70 17:57 22.01.2020
3985 Clouds 20 1017 56 10000 5.7 30 17:39 22.01.2020
3986 Clouds 21 1017 56 10000 5.7 30 17:20 22.01.2020
3987 Clouds 22 1017 57 10000 6.7 50 16:55 22.01.2020
3988 Clouds 22 1017 57 10000 6.7 50 16:55 22.01.2020
3989 Clouds 22 1017 57 10000 6.7 50 16:55 22.01.2020
3990 Clouds 22 1016 60 10000 5.1 60 16:37 22.01.2020
3991 Clouds 23 1016 60 10000 5.1 60 16:18 22.01.2020
3992 Clouds 23 1016 53 0 3.1 70 15:42 22.01.2020
3993 Clouds 23 1016 53 10000 5.1 70 15:23 22.01.2020
3994 Clouds 24 1016 47 0 4.1 60 14:59 22.01.2020
3995 Clouds 24 1017 57 10000 5.7 70 14:38 22.01.2020
3996 Clouds 24 1017 57 10000 5.7 70 14:20 22.01.2020
3997 Clouds 24 1016 47 0 5.1 50 13:56 22.01.2020
3998 Clouds 24 1016 47 0 5.1 50 13:56 22.01.2020
3999 Clouds 24 1005 59 0 0.45 228 13:37 22.01.2020
4000 Clouds 25 1017 47 0 3.1 20 13:19 22.01.2020
4001 Clouds 25 1017 47 0 3.1 20 12:56 22.01.2020
4002 Clouds 25 1017 47 0 3.1 20 12:56 22.01.2020
4003 Clouds 25 1019 53 10000 4.6 30 12:38 22.01.2020
4004 Clouds 25 1019 53 10000 4.6 30 12:19 22.01.2020
4005 Clouds 25 1018 50 0 3.1 90 11:56 22.01.2020
4006 Clouds 24 1020 57 10000 4.6 50 11:38 22.01.2020
4007 Clouds 24 1020 57 10000 4.6 50 11:19 22.01.2020
4008 Clouds 24 1019 53 0 3.1 50 10:45 22.01.2020
4009 Clouds 23 1021 56 10000 4.1 40 10:21 22.01.2020
4010 Clouds 23 1021 69 0 5.1 50 09:57 22.01.2020
4011 Clouds 23 1021 69 0 5.1 50 09:39 22.01.2020
4012 Clouds 22 1021 64 10000 4.1 40 09:20 22.01.2020
4013 Clouds 22 1021 64 0 4.1 40 08:55 22.01.2020
4014 Clouds 21 1021 68 10000 3.6 30 08:36 22.01.2020
4015 Clouds 20 1021 68 10000 3.6 30 08:18 22.01.2020
4016 Clouds 19 1021 68 10000 2.1 50 07:42 22.01.2020
4017 Clouds 18 1021 93 10000 0.5 0 07:23 22.01.2020
4018 Clouds 17 1021 93 10000 1 180 06:33 22.01.2020
4019 Clouds 16 1019 82 10000 3.1 300 05:45 22.01.2020
4020 Clouds 18 1019 82 10000 1 350 04:25 22.01.2020
4021 Clouds 18 1019 88 10000 1 40 03:26 22.01.2020
4022 Clouds 18 1019 88 10000 1 0 02:39 22.01.2020
4023 Clouds 18 1019 82 10000 2.1 20 00:47 22.01.2020
4024 Clouds 18 1019 82 10000 2.1 20 00:47 22.01.2020
4025 Clouds 19 1019 82 10000 2.1 360 00:27 22.01.2020
4026 Clouds 18 1020 82 10000 3.1 20 23:55 21.01.2020
4027 Clouds 17 1020 82 10000 3.1 10 23:37 21.01.2020
4028 Clouds 18 1020 82 10000 3.1 10 23:18 21.01.2020
4029 Clouds 19 1020 77 10000 2.1 20 22:40 21.01.2020
4030 Clouds 19 1020 77 10000 2.1 20 22:21 21.01.2020
4031 Clouds 19 1019 77 10000 1.76 23 21:58 21.01.2020
4032 Clouds 19 1019 77 10000 1.76 23 21:38 21.01.2020
4033 Clouds 20 1020 77 10000 3.1 40 21:20 21.01.2020
4034 Clouds 19 1020 77 10000 4.1 50 20:57 21.01.2020
4035 Clouds 19 1020 77 10000 4.1 50 20:38 21.01.2020
4036 Clouds 20 1019 73 10000 4.1 40 20:20 21.01.2020
4037 Clouds 21 1018 68 10000 4.1 30 19:57 21.01.2020
4038 Clouds 21 1018 68 10000 4.1 30 19:38 21.01.2020
4039 Clouds 21 1019 73 10000 4.6 40 19:20 21.01.2020
4040 Clouds 21 1017 68 10000 4.6 20 18:55 21.01.2020
4041 Clouds 20 1018 64 10000 4.6 10 18:37 21.01.2020
4042 Clouds 21 1018 64 10000 4.6 10 18:18 21.01.2020
4043 Clouds 20 1018 64 10000 3.6 20 17:45 21.01.2020
4044 Clouds 20 1017 64 10000 4.6 40 17:20 21.01.2020
4045 Clouds 21 1017 60 10000 5.1 30 16:59 21.01.2020
4046 Clouds 21 1017 60 10000 5.1 30 16:37 21.01.2020
4047 Clouds 22 1017 60 10000 6.7 20 16:19 21.01.2020
4048 Clouds 23 1016 53 10000 5.7 30 15:54 21.01.2020
4049 Clouds 23 1016 54 10000 4.6 50 15:36 21.01.2020
4050 Clouds 24 1016 54 10000 4.6 50 15:18 21.01.2020
4051 Clouds 25 1016 50 10000 4.6 80 14:38 21.01.2020
4052 Clouds 24 1017 51 10000 4.1 50 14:20 21.01.2020
4053 Clouds 25 1016 47 10000 3.6 20 13:40 21.01.2020
4054 Clouds 25 1017 54 10000 3.6 40 13:19 21.01.2020
4055 Clouds 25 1017 47 10000 4.1 60 12:45 21.01.2020
4056 Clouds 25 1018 57 10000 3.6 0 12:27 21.01.2020
4057 Clouds 24 1018 53 10000 3.6 280 11:58 21.01.2020
4058 Clouds 24 1018 53 10000 3.6 280 11:40 21.01.2020
4059 Clouds 24 1019 57 10000 3.6 40 11:21 21.01.2020
4060 Clouds 24 1019 57 10000 4.57 21 10:55 21.01.2020
4061 Clouds 22 1020 60 10000 3.6 60 10:37 21.01.2020
4062 Clouds 23 1020 60 10000 3.6 60 10:18 21.01.2020
4063 Clouds 23 1021 64 10000 4.1 60 09:41 21.01.2020
4064 Clouds 23 1021 64 10000 4.1 60 09:22 21.01.2020
4065 Clouds 22 1020 56 10000 3.6 30 08:50 21.01.2020
4066 Clouds 22 1021 64 10000 2.6 30 08:30 21.01.2020
4067 Clouds 21 1021 68 10000 3.1 40 07:59 21.01.2020
4068 Clouds 21 1021 68 10000 3.1 40 07:40 21.01.2020
4069 Clouds 21 1021 68 10000 3.1 40 07:40 21.01.2020
4070 Clouds 19 1022 88 10000 1 0 07:21 21.01.2020
4071 Clouds 19 1020 82 10000 4.07 31 06:49 21.01.2020
4072 Clouds 17 1021 93 10000 1.5 210 06:26 21.01.2020
4073 Haze 16 1020 88 10000 4.07 31 05:42 21.01.2020
4074 Clouds 16 1019 93 10000 1.57 27 04:39 21.01.2020
4075 Clouds 16 1019 93 10000 2.1 10 02:56 21.01.2020
4076 Clouds 16 1019 88 10000 2.6 360 01:53 21.01.2020
4077 Clouds 16 1020 88 10000 2.6 10 01:18 21.01.2020
4078 Clouds 17 1020 93 10000 2.1 360 00:36 21.01.2020
4079 Clouds 18 1020 88 10000 2.6 30 23:59 20.01.2020
4080 Clouds 17 1020 88 10000 2.6 30 23:39 20.01.2020
4081 Clouds 17 1020 88 10000 2.6 30 23:39 20.01.2020
4082 Clouds 17 1021 93 10000 2.6 30 23:19 20.01.2020
4083 Clouds 18 1021 88 10000 3.6 30 22:56 20.01.2020
4084 Clouds 18 1021 88 10000 4.6 20 22:37 20.01.2020
4085 Clouds 19 1021 88 10000 4.6 20 22:19 20.01.2020
4086 Clouds 19 1020 82 10000 3.1 30 21:57 20.01.2020
4087 Clouds 19 1020 82 10000 3.1 30 21:37 20.01.2020
4088 Clouds 19 1021 82 10000 3.1 30 21:19 20.01.2020
4089 Clouds 19 1020 77 10000 3.1 30 20:55 20.01.2020
4090 Clouds 19 1021 82 10000 4.6 40 20:36 20.01.2020
4091 Clouds 19 1021 82 10000 4.6 40 20:18 20.01.2020
4092 Clouds 19 1020 82 10000 4.6 50 19:56 20.01.2020
4093 Clouds 19 1020 82 10000 4.6 50 19:37 20.01.2020
4094 Clouds 21 1020 73 10000 5.7 40 19:18 20.01.2020
4095 Clouds 20 1019 73 10000 5.1 40 18:43 20.01.2020
4096 Clouds 20 1019 73 10000 5.1 40 18:43 20.01.2020
4097 Clouds 21 1019 68 10000 5.1 50 18:22 20.01.2020
4098 Clouds 22 1017 60 10000 5.7 30 17:41 20.01.2020
4099 Clouds 23 1018 60 10000 5.7 60 17:20 20.01.2020
4100 Clouds 23 1018 60 10000 5.7 60 17:20 20.01.2020
4101 Clouds 24 1016 50 10000 5.1 70 16:59 20.01.2020
4102 Clouds 24 1016 50 10000 5.1 70 16:37 20.01.2020
4103 Clouds 24 1017 54 10000 5.1 90 16:18 20.01.2020
4104 Clouds 24 1017 54 10000 5.1 90 16:18 20.01.2020
4105 Clouds 24 1017 54 10000 5.1 90 16:18 20.01.2020
4106 Clouds 25 1016 50 10000 5.1 100 15:56 20.01.2020
4107 Clouds 25 1016 50 10000 5.1 100 15:38 20.01.2020
4108 Clouds 25 1016 47 10000 5.1 120 15:20 20.01.2020
4109 Clouds 26 1017 51 10000 3.6 110 14:41 20.01.2020
4110 Clouds 26 1017 51 10000 3.6 110 14:22 20.01.2020
4111 Clouds 26 1017 50 10000 4.1 160 13:58 20.01.2020
4112 Clouds 26 1017 50 10000 4.1 160 13:40 20.01.2020
4113 Clouds 25 1018 54 10000 2.1 60 13:21 20.01.2020
4114 Clouds 25 1018 50 10000 4.1 340 12:46 20.01.2020
4115 Clouds 25 1019 54 10000 3.6 60 12:28 20.01.2020
4116 Clouds 24 1019 53 10000 2.6 80 11:58 20.01.2020
4117 Clouds 24 1019 53 10000 2.6 80 11:39 20.01.2020
4118 Clouds 24 1021 57 10000 3.1 30 11:21 20.01.2020
4119 Clouds 24 1020 57 10000 3.6 330 10:48 20.01.2020
4120 Clouds 23 1022 64 10000 3.1 50 10:22 20.01.2020
4121 -273 0 0 0 0 0 10:22 20.01.2020
4122 Clouds 22 1022 68 10000 3.1 60 09:57 20.01.2020
4123 Clouds 22 1022 68 10000 3.1 60 09:38 20.01.2020
4124 Clouds 21 1022 68 10000 3.6 40 09:19 20.01.2020
4125 Clouds 21 1023 73 10000 4.6 50 08:43 20.01.2020
4126 Clouds 20 1023 68 10000 4.6 40 08:25 20.01.2020
4127 Clouds 20 1022 72 10000 1.59 18 07:43 20.01.2020
4128 Clouds 19 1023 82 10000 1.5 10 07:23 20.01.2020
4129 Mist 18 1023 93 8000 1 230 06:46 20.01.2020
4130 Clouds 16 1013 76 0 1.59 18 06:26 20.01.2020
4131 Clouds 13 1013 90 0 1.59 18 05:42 20.01.2020
4132 Clouds 14 1021 93 10000 1.09 20 05:21 20.01.2020
4133 Clouds 15 1021 93 10000 1.09 20 04:41 20.01.2020
4134 Clouds 15 1021 93 10000 1.5 30 02:57 20.01.2020
4135 Clouds 17 1020 88 10000 1.76 13 01:52 20.01.2020
4136 Clouds 17 1021 88 10000 3.1 20 01:26 20.01.2020
4137 Clouds 17 1021 82 10000 2.1 360 00:44 20.01.2020
4138 Clouds 17 1021 88 10000 2.1 10 00:22 20.01.2020
4139 Clouds 16 1021 88 10000 2.1 10 23:39 19.01.2020
4140 Clouds 17 1022 82 10000 1.5 20 23:20 19.01.2020
4141 Clouds 17 1022 82 10000 1.5 20 23:20 19.01.2020
4142 Clouds 17 1021 82 10000 3.1 360 22:56 19.01.2020
4143 Clouds 16 1022 82 10000 2.6 30 22:38 19.01.2020
4144 Clouds 17 1022 82 10000 2.6 30 22:20 19.01.2020
4145 Clouds 17 1020 77 10000 2.6 30 21:56 19.01.2020
4146 Clouds 17 1022 82 10000 3.1 50 21:38 19.01.2020
4147 Clouds 17 1022 82 10000 3.1 50 21:20 19.01.2020
4148 Clouds 18 1021 77 10000 2.1 20 20:57 19.01.2020
4149 Clouds 18 1021 77 10000 2.1 20 20:39 19.01.2020
4150 Clouds 18 1022 77 10000 3.6 30 20:20 19.01.2020
4151 Clouds 18 1020 77 10000 3.1 50 19:57 19.01.2020
4152 Clouds 19 1020 77 10000 3.1 50 19:39 19.01.2020
4153 Clouds 19 1021 72 10000 4.1 50 19:20 19.01.2020
4154 Clouds 19 1019 82 10000 3.02 42 18:56 19.01.2020
4155 Clouds 19 1019 82 10000 3.02 42 18:38 19.01.2020
4156 Clouds 19 1019 72 10000 4.1 40 18:20 19.01.2020
4157 Clouds 20 1018 77 10000 4.1 40 17:58 19.01.2020
4158 Clouds 20 1018 77 10000 4.1 40 17:40 19.01.2020
4159 Clouds 21 1018 73 10000 6.2 50 17:20 19.01.2020
4160 Rain 22 1017 60 8000 8.2 50 16:59 19.01.2020
4161 Clouds 23 1018 60 10000 6.2 70 16:38 19.01.2020
4162 Clouds 23 1018 60 10000 6.2 70 16:20 19.01.2020
4163 Clouds 23 1016 54 10000 5.1 50 15:58 19.01.2020
4164 Clouds 24 1016 54 10000 5.1 50 15:38 19.01.2020
4165 Clouds 26 1017 54 10000 3.6 70 15:20 19.01.2020
4166 Clouds 27 1016 47 10000 3.6 110 14:57 19.01.2020
4167 Clouds 26 1017 54 10000 2.6 90 14:38 19.01.2020
4168 Clouds 25 1017 54 10000 2.6 90 14:18 19.01.2020
4169 Clouds 24 1017 50 10000 3.03 36 13:57 19.01.2020
4170 Clouds 23 1018 53 10000 2.6 140 13:38 19.01.2020
4171 Clouds 24 1018 53 10000 2.6 140 13:19 19.01.2020
4172 Clouds 24 1018 53 10000 4.1 110 12:55 19.01.2020
4173 Clouds 22 1019 72 10000 4.1 80 12:37 19.01.2020
4174 Clouds 22 1019 72 10000 4.1 80 12:19 19.01.2020
4175 Clouds 24 1020 53 10000 2.79 37 11:42 19.01.2020
4176 Clouds 24 1021 57 10000 3.1 60 11:20 19.01.2020
4177 Clouds 24 1020 50 10000 4.07 20 10:56 19.01.2020
4178 Clouds 24 1020 50 10000 4.07 20 10:56 19.01.2020
4179 Clouds 24 1020 50 10000 4.07 20 10:56 19.01.2020
4180 Clouds 24 1020 50 10000 4.07 20 10:38 19.01.2020
4181 Clouds 23 1021 57 10000 2.6 60 10:19 19.01.2020
4182 Clouds 22 1022 56 10000 3.1 50 09:55 19.01.2020
4183 Clouds 22 1022 56 10000 3.1 50 09:55 19.01.2020
4184 Clouds 22 1022 56 10000 3.1 50 09:55 19.01.2020
4185 Clouds 22 1022 56 10000 3.1 50 09:55 19.01.2020
4186 Clouds 23 1022 56 10000 3.1 20 09:37 19.01.2020
4187 Clouds 22 1022 56 10000 3.1 20 09:18 19.01.2020
4188 Clouds 21 1021 64 10000 4.07 20 08:48 19.01.2020
4189 Clouds 20 1023 64 10000 3.1 20 08:28 19.01.2020
4190 Clouds 20 1023 64 10000 3.1 20 07:42 19.01.2020
4191 Clouds 19 1022 72 10000 3.6 20 07:22 19.01.2020
4192 Clouds 18 1022 82 10000 2.6 20 06:54 19.01.2020
4193 Clouds 17 1022 88 10000 1.5 20 06:21 19.01.2020
4194 Clouds 16 1020 88 10000 0.5 0 02:47 19.01.2020
4195 Clouds 17 1020 93 10000 1.83 24 02:24 19.01.2020
4196 Clouds 17 1021 88 10000 2.1 40 01:28 19.01.2020
4197 Clouds 17 1021 93 10000 2.6 20 00:54 19.01.2020
4198 Clouds 17 1021 88 10000 1.5 360 00:29 19.01.2020
4199 Clouds 17 1021 88 10000 1.5 350 23:59 18.01.2020
4200 Clouds 17 1021 88 10000 1.5 350 23:41 18.01.2020
4201 Clouds 18 1021 82 10000 1.5 350 23:23 18.01.2020
4202 Clouds 18 1021 82 10000 2.1 360 22:55 18.01.2020
4203 Clouds 18 1021 82 10000 2.1 360 22:37 18.01.2020
4204 Clouds 17 1022 82 10000 2.6 360 22:19 18.01.2020
4205 Clouds 17 1022 82 10000 2.1 360 21:57 18.01.2020
4206 Clouds 17 1021 77 10000 2.6 20 21:38 18.01.2020
4207 Clouds 18 1021 77 10000 2.6 20 21:20 18.01.2020
4208 Clouds 17 1021 77 10000 3.6 40 20:44 18.01.2020
4209 Clouds 19 1021 82 10000 3.6 40 20:21 18.01.2020
4210 Clouds 19 1020 64 10000 2.1 50 19:59 18.01.2020
4211 Clouds 19 1020 64 10000 2.1 50 19:41 18.01.2020
4212 Clouds 19 1020 72 10000 3.6 30 19:22 18.01.2020
4213 Clouds 20 1019 64 10000 2.1 50 18:43 18.01.2020
4214 Clouds 20 1019 64 10000 4.6 40 18:24 18.01.2020
4215 Clouds 21 1018 64 10000 3.01 35 17:57 18.01.2020
4216 Clouds 20 1018 60 10000 5.7 60 17:39 18.01.2020
4217 Clouds 21 1018 60 10000 5.7 60 17:19 18.01.2020
4218 Clouds 22 1016 60 10000 4.66 60 16:56 18.01.2020
4219 Clouds 21 1017 57 10000 5.1 70 16:37 18.01.2020
4220 Clouds 22 1017 57 10000 5.1 70 16:19 18.01.2020
4221 Clouds 22 1017 57 10000 4.1 50 15:43 18.01.2020
4222 Clouds 24 1017 57 10000 3.6 70 15:24 18.01.2020
4223 Clouds 24 1016 57 10000 3.1 70 14:58 18.01.2020
4224 Clouds 24 1016 57 10000 3.1 70 14:39 18.01.2020
4225 Clouds 25 1017 61 10000 4.1 110 14:18 18.01.2020
4226 Clouds 24 1017 65 10000 5.1 180 13:45 18.01.2020
4227 Clouds 24 1018 54 10000 2.1 0 13:27 18.01.2020
4228 Clouds 24 1018 57 10000 2.1 110 12:59 18.01.2020
4229 Clouds 25 1018 57 10000 2.1 110 12:40 18.01.2020
4230 Clouds 24 1019 61 10000 4.6 80 12:21 18.01.2020
4231 Clouds 23 1020 60 10000 3.6 80 11:44 18.01.2020
4232 Clouds 24 1020 60 10000 3.6 80 11:24 18.01.2020
4233 Clouds 24 1020 53 10000 4.1 70 10:57 18.01.2020
4234 Clouds 23 1021 60 10000 4.1 60 10:38 18.01.2020
4235 Clouds 24 1021 60 10000 4.1 60 10:20 18.01.2020
4236 Clouds 24 1021 60 10000 4.1 60 10:20 18.01.2020
4237 Clouds 25 1020 57 10000 3.1 90 09:48 18.01.2020
4238 Clouds 23 1022 64 10000 3.6 40 09:30 18.01.2020
4239 Clouds 22 1021 60 10000 4.76 27 08:57 18.01.2020
4240 Clouds 21 1022 73 10000 2.6 30 08:39 18.01.2020
4241 Clouds 21 1022 73 10000 2.6 30 08:19 18.01.2020
4242 Clouds 20 1021 77 10000 3.32 32 07:50 18.01.2020
4243 Clouds 19 1022 72 10000 1.5 30 07:31 18.01.2020
4244 Clouds 18 1021 88 10000 3.32 32 06:48 18.01.2020
4245 Clouds 17 1020 93 10000 3.32 32 05:59 18.01.2020
4246 Clouds 16 1021 88 10000 1 330 05:25 18.01.2020
4247 Clouds 16 1019 88 10000 1.5 20 03:25 18.01.2020
4248 Rain 17 1019 88 10000 2.07 2 01:56 18.01.2020
4249 Rain 16 1020 88 10000 1.5 10 01:35 18.01.2020
4250 Clouds 16 1020 93 10000 2.1 30 00:37 18.01.2020
4251 Clouds 17 1020 93 10000 2.1 30 00:18 18.01.2020
4252 Clouds 17 1020 93 10000 2.1 30 00:18 18.01.2020
4253 Clouds 17 1020 93 10000 2.1 30 00:18 18.01.2020
4254 Clouds 17 1021 93 10000 1 10 23:44 17.01.2020
4255 Clouds 18 1021 88 10000 2.6 40 23:20 17.01.2020
4256 Clouds 18 1020 82 10000 2.6 30 22:59 17.01.2020
4257 Clouds 18 1020 82 10000 2.6 30 22:40 17.01.2020
4258 Clouds 18 1021 88 10000 2.1 360 22:18 17.01.2020
4259 Clouds 18 1020 82 10000 2.27 27 21:41 17.01.2020
4260 Clouds 18 1021 82 10000 3.1 20 21:22 17.01.2020
4261 Clouds 18 1020 72 10000 3.6 10 20:58 17.01.2020
4262 Clouds 17 1020 77 10000 4.1 40 20:39 17.01.2020
4263 Clouds 18 1020 77 10000 4.1 40 20:20 17.01.2020
4264 Clouds 18 1019 72 10000 3.1 50 19:57 17.01.2020
4265 Clouds 18 1020 68 10000 4.6 30 19:38 17.01.2020
4266 Clouds 19 1020 68 10000 4.6 30 19:19 17.01.2020
4267 Clouds 18 1020 68 10000 5.1 40 18:56 17.01.2020
4268 Clouds 19 1019 68 10000 5.1 40 18:36 17.01.2020
4269 Clouds 20 1018 68 10000 6.2 50 18:18 17.01.2020
4270 Clouds 20 1018 68 10000 6.2 50 17:39 17.01.2020
4271 Clouds 23 1018 69 10000 6.2 50 17:21 17.01.2020
4272 Clouds 22 1017 60 10000 4.6 40 16:44 17.01.2020
4273 Clouds 24 1018 60 10000 5.7 60 16:21 17.01.2020
4274 Clouds 25 1016 57 10000 3.1 50 15:58 17.01.2020
4275 Clouds 22 1016 57 10000 3.1 50 15:58 17.01.2020
4276 Clouds 22 1016 57 10000 3.1 50 15:40 17.01.2020
4277 Clouds 22 1017 61 10000 3.1 50 15:22 17.01.2020
4278 Clouds 22 1017 57 10000 4.9 55 14:43 17.01.2020
4279 Clouds 24 1017 60 10000 3.1 80 14:25 17.01.2020
4280 Clouds 24 1017 57 10000 2.6 110 13:46 17.01.2020
4281 Clouds 24 1018 61 10000 3.6 50 13:23 17.01.2020
4282 Clouds 24 1018 60 10000 3.1 100 12:48 17.01.2020
4283 Clouds 24 1019 61 10000 3.6 60 12:24 17.01.2020
4284 Clouds 24 1019 60 10000 4.6 30 11:56 17.01.2020
4285 Clouds 24 1019 60 10000 4.6 30 11:37 17.01.2020
4286 Clouds 23 1020 60 10000 3.1 50 11:18 17.01.2020
4287 Clouds 23 1020 60 10000 3.1 50 10:42 17.01.2020
4288 Clouds 23 1020 60 10000 3.1 50 10:42 17.01.2020
4289 Clouds 22 1021 69 10000 2.1 80 10:22 17.01.2020
4290 Clouds 23 1021 69 10000 3.97 22 09:57 17.01.2020
4291 Clouds 21 1023 77 10000 3.1 220 09:37 17.01.2020
4292 Clouds 21 1023 77 10000 3.1 220 09:18 17.01.2020
4293 Clouds 21 1022 77 10000 2.6 200 08:42 17.01.2020
4294 Clouds 18 1023 77 10000 1.5 210 08:24 17.01.2020
4295 Clouds 18 1022 82 10000 3.25 18 07:53 17.01.2020
4296 Clouds 17 1023 82 10000 0.5 0 07:31 17.01.2020
4297 Clouds 17 1021 93 10000 3.25 18 06:57 17.01.2020
4298 Clouds 18 1022 88 10000 3.25 18 06:38 17.01.2020
4299 Clouds 17 1021 93 10000 3.25 18 05:28 17.01.2020
4300 Clouds 14 1011 94 0 1.73 17 03:39 17.01.2020
4301 Clouds 14 1010 93 0 1.73 17 02:45 17.01.2020
4302 Clouds 16 1021 88 10000 2.6 30 01:46 17.01.2020
4303 Clouds 14 1010 93 0 2.15 27 01:27 17.01.2020
4304 Clouds 15 1010 91 0 2.22 25 00:46 17.01.2020
4305 Clouds 15 1010 90 0 2.22 25 00:21 17.01.2020
4306 Clouds 17 1022 88 10000 5.1 60 23:43 16.01.2020
4307 Clouds 18 1022 88 10000 5.1 60 23:25 16.01.2020
4308 Clouds 18 1021 82 10000 5.1 40 22:55 16.01.2020
4309 Clouds 18 1021 82 10000 5.1 40 22:37 16.01.2020
4310 Clouds 18 1022 88 10000 3.6 40 22:18 16.01.2020
4311 Clouds 18 1021 82 10000 3.6 40 21:54 16.01.2020
4312 Clouds 18 1022 88 10000 3.6 50 21:36 16.01.2020
4313 Clouds 18 1022 88 10000 3.6 50 21:18 16.01.2020
4314 Clouds 18 1021 82 10000 4.6 70 20:40 16.01.2020
4315 Clouds 18 1022 88 10000 4.1 40 20:21 16.01.2020
4316 Clouds 18 1020 77 10000 5.1 60 19:58 16.01.2020
4317 Clouds 19 1021 82 10000 6.2 50 19:40 16.01.2020
4318 Clouds 19 1021 82 10000 6.2 50 19:22 16.01.2020
4319 Clouds 19 1019 73 10000 7.2 60 18:57 16.01.2020
4320 Clouds 19 1019 73 10000 7.2 60 18:38 16.01.2020
4321 Clouds 20 1020 73 10000 6.7 50 18:19 16.01.2020
4322 Clouds 20 1018 68 10000 5.1 60 17:58 16.01.2020
4323 Clouds 19 1019 68 10000 6.7 60 17:39 16.01.2020
4324 Clouds 21 1019 68 10000 6.7 60 17:20 16.01.2020
4325 Clouds 21 1019 60 10000 6.7 70 16:42 16.01.2020
4326 Clouds 23 1018 60 10000 6.2 70 16:24 16.01.2020
4327 Clouds 23 1017 57 10000 5.1 60 15:59 16.01.2020
4328 Clouds 22 1018 60 10000 5.1 70 15:39 16.01.2020
4329 Clouds 23 1018 60 10000 5.1 70 15:20 16.01.2020
4330 Clouds 24 1017 57 10000 6.2 70 14:45 16.01.2020
4331 Clouds 23 1018 60 10000 5.7 60 14:24 16.01.2020
4332 Clouds 23 1018 57 10000 5.1 90 13:56 16.01.2020
4333 Clouds 23 1018 57 10000 5.1 90 13:37 16.01.2020
4334 Clouds 24 1019 60 10000 5.7 50 13:19 16.01.2020
4335 Clouds 24 1020 60 10000 4.6 60 12:42 16.01.2020
4336 Clouds 24 1020 60 10000 4.6 60 12:22 16.01.2020
4337 Clouds 23 1020 57 10000 3.1 90 11:43 16.01.2020
4338 Clouds 24 1020 57 10000 3.1 90 11:43 16.01.2020
4339 Clouds 23 1021 60 10000 4.6 50 11:24 16.01.2020
4340 Clouds 22 1021 64 10000 4.6 80 10:59 16.01.2020
4341 Clouds 22 1022 64 10000 4.1 40 10:38 16.01.2020
4342 Clouds 22 1022 64 10000 4.1 40 10:20 16.01.2020
4343 Clouds 22 1023 68 10000 3.1 50 09:56 16.01.2020
4344 Clouds 21 1023 73 10000 4.1 30 09:37 16.01.2020
4345 Clouds 21 1023 73 10000 4.1 30 09:19 16.01.2020
4346 Clouds 21 1023 77 10000 5.1 40 08:48 16.01.2020
4347 Clouds 20 1023 82 10000 4.1 50 08:29 16.01.2020
4348 Clouds 19 1022 82 10000 5.1 70 07:57 16.01.2020
4349 Clouds 19 1023 88 10000 3.6 30 07:37 16.01.2020
4350 Clouds 18 1023 88 10000 3.6 30 07:18 16.01.2020
4351 Clouds 18 1021 93 10000 5.1 60 06:42 16.01.2020
4352 Clouds 17 1021 93 10000 5.1 60 05:58 16.01.2020
4353 Clouds 17 1021 93 10000 5.1 60 05:40 16.01.2020
4354 Clouds 17 1020 93 10000 3.1 60 04:37 16.01.2020
4355 Clouds 16 1021 93 10000 4.1 50 04:37 16.01.2020
4356 Clouds 15 1020 93 10000 3.6 60 03:28 16.01.2020
4357 Clouds 16 1020 93 10000 3.6 60 02:42 16.01.2020
4358 Clouds 17 1021 93 10000 4.6 60 00:53 16.01.2020
4359 Clouds 17 1022 93 10000 4.1 40 00:24 16.01.2020
4360 Clouds 17 1022 93 10000 4.6 30 23:48 15.01.2020
4361 Clouds 17 1022 93 10000 4.6 30 23:23 15.01.2020
4362 Clouds 17 1022 93 10000 3.6 30 22:57 15.01.2020
4363 Clouds 17 1022 93 10000 3.6 30 22:39 15.01.2020
4364 Clouds 18 1022 93 10000 3.6 20 22:19 15.01.2020
4365 Clouds 18 1022 93 10000 3.6 20 22:19 15.01.2020
4366 Clouds 18 1020 93 10000 6.2 70 21:58 15.01.2020
4367 Clouds 18 1020 93 10000 6.2 70 21:38 15.01.2020
4368 Clouds 19 1021 93 10000 3.6 40 21:20 15.01.2020
4369 Clouds 18 1020 88 10000 5.1 60 20:58 15.01.2020
4370 Clouds 18 1020 88 10000 5.1 60 20:40 15.01.2020
4371 Clouds 18 1021 88 10000 5.7 40 20:20 15.01.2020
4372 Clouds 19 1020 82 10000 6.2 70 19:55 15.01.2020
4373 Clouds 19 1020 82 10000 6.2 70 19:37 15.01.2020
4374 Clouds 19 1020 82 10000 5.7 50 19:19 15.01.2020
4375 Clouds 19 1019 68 10000 5.1 70 18:57 15.01.2020
4376 Clouds 19 1019 68 10000 5.1 70 18:57 15.01.2020
4377 Clouds 19 1019 68 10000 5.1 70 18:38 15.01.2020
4378 Clouds 20 1019 73 10000 4.6 60 18:20 15.01.2020
4379 Clouds 21 1018 60 10000 5.1 70 17:58 15.01.2020
4380 Clouds 22 1018 60 10000 5.1 70 17:39 15.01.2020
4381 Clouds 21 1018 64 10000 6.2 50 17:20 15.01.2020
4382 Clouds 23 1018 53 10000 6.2 70 16:42 15.01.2020
4383 Clouds 23 1018 53 10000 6.2 70 16:24 15.01.2020
4384 Clouds 23 1017 47 10000 5.1 70 15:59 15.01.2020
4385 Clouds 24 1017 47 10000 5.1 70 15:41 15.01.2020
4386 Clouds 24 1018 44 10000 5.7 70 15:20 15.01.2020
4387 Clouds 24 1018 47 10000 7.7 60 14:45 15.01.2020
4388 Clouds 24 1018 50 10000 5.1 60 14:21 15.01.2020
4389 Clouds 24 1018 47 10000 6.2 60 13:58 15.01.2020
4390 Clouds 23 1019 50 10000 6.2 40 13:40 15.01.2020
4391 Clouds 24 1019 50 10000 6.2 40 13:22 15.01.2020
4392 Clouds 24 1019 50 10000 6.2 60 12:55 15.01.2020
4393 Clouds 23 1020 53 10000 6.2 40 12:36 15.01.2020
4394 Clouds 23 1020 53 10000 6.2 40 12:18 15.01.2020
4395 Clouds 23 1021 57 10000 5.7 60 11:38 15.01.2020
4396 Clouds 23 1021 57 10000 5.7 60 11:20 15.01.2020
4397 Clouds 23 1021 60 10000 5.1 60 10:48 15.01.2020
4398 Clouds 23 1022 69 10000 4.1 30 10:28 15.01.2020
4399 Clouds 22 1022 56 10000 5.1 60 09:59 15.01.2020
4400 Clouds 22 1022 56 10000 5.1 60 09:41 15.01.2020
4401 Clouds 21 1023 73 10000 4.1 20 09:21 15.01.2020
4402 Clouds 21 1023 77 10000 5.1 60 08:44 15.01.2020
4403 Clouds 21 1023 77 10000 5.1 60 08:44 15.01.2020
4404 Clouds 19 1023 82 10000 5.1 50 08:26 15.01.2020
4405 Clouds 19 1023 88 10000 3.1 40 07:54 15.01.2020
4406 Clouds 17 1023 93 10000 3.6 40 07:33 15.01.2020
4407 Clouds 17 1022 93 10000 2.6 30 06:54 15.01.2020
4408 Clouds 17 1022 93 10000 4.1 50 06:28 15.01.2020
4409 Clouds 16 1020 100 10000 4.1 40 04:57 15.01.2020
4410 Clouds 16 1020 93 10000 3.6 30 03:20 15.01.2020
4411 Clouds 16 1020 93 10000 3.1 60 01:48 15.01.2020
4412 Clouds 16 1020 93 10000 4.6 80 01:22 15.01.2020
4413 Clouds 16 1021 93 10000 5.1 90 00:37 15.01.2020
4414 Clouds 16 1021 93 10000 5.1 90 00:19 15.01.2020
4415 Clouds 16 1021 93 10000 5.1 80 23:46 14.01.2020
4416 Clouds 16 1021 93 10000 5.1 90 23:27 14.01.2020
4417 Clouds 17 1021 93 10000 5.1 90 22:57 14.01.2020
4418 Clouds 16 1021 93 10000 5.1 90 22:39 14.01.2020
4419 Clouds 16 1021 93 10000 5.7 80 22:18 14.01.2020
4420 Clouds 16 1021 93 10000 5.7 80 21:57 14.01.2020
4421 Clouds 17 1021 88 10000 4.6 80 21:38 14.01.2020
4422 Clouds 18 1021 88 10000 4.6 80 21:19 14.01.2020
4423 Clouds 18 1020 88 10000 3.1 100 20:42 14.01.2020
4424 Clouds 18 1020 82 10000 4.1 70 20:23 14.01.2020
4425 Clouds 18 1020 82 10000 4.1 70 19:57 14.01.2020
4426 Clouds 17 1020 88 10000 4.1 60 19:39 14.01.2020
4427 Clouds 18 1020 88 10000 4.1 60 19:21 14.01.2020
4428 Clouds 18 1019 82 10000 3.1 70 18:59 14.01.2020
4429 Clouds 18 1019 82 10000 3.1 70 18:40 14.01.2020
4430 Clouds 19 1018 83 10000 5.1 60 18:20 14.01.2020
4431 Clouds 19 1018 83 10000 5.1 60 17:55 14.01.2020
4432 Clouds 18 1018 77 10000 6.2 70 17:36 14.01.2020
4433 Clouds 20 1018 77 10000 6.2 70 17:18 14.01.2020
4434 Clouds 21 1017 64 10000 6.2 80 16:42 14.01.2020
4435 Clouds 21 1017 64 10000 6.2 80 16:22 14.01.2020
4436 Clouds 22 1017 60 10000 5.1 70 15:56 14.01.2020
4437 Clouds 24 1017 64 10000 4.6 50 15:38 14.01.2020
4438 Clouds 23 1017 64 10000 4.6 50 15:19 14.01.2020
4439 Clouds 23 1017 64 10000 4.6 50 15:18 14.01.2020
4440 Clouds 23 1017 60 10000 5.1 30 14:43 14.01.2020
4441 Clouds 22 1018 57 10000 4.6 80 14:20 14.01.2020
4442 Clouds 21 1018 64 10000 4.1 70 13:55 14.01.2020
4443 Clouds 22 1018 64 10000 4.1 70 13:37 14.01.2020
4444 Clouds 22 1019 64 10000 4.1 60 13:18 14.01.2020
4445 Clouds 22 1019 60 10000 4.1 70 12:41 14.01.2020
4446 Clouds 21 1019 64 10000 5.1 50 12:20 14.01.2020
4447 Clouds 21 1020 68 10000 4.1 70 11:43 14.01.2020
4448 Clouds 21 1020 69 10000 5.7 60 11:23 14.01.2020
4449 Clouds 21 1021 73 10000 5.7 50 10:59 14.01.2020
4450 Clouds 20 1021 73 10000 6.2 50 10:40 14.01.2020
4451 Clouds 20 1021 73 10000 6.2 50 10:20 14.01.2020
4452 Clouds 19 1021 77 10000 4.1 360 09:58 14.01.2020
4453 Clouds 19 1022 82 10000 4.6 40 09:40 14.01.2020
4454 Clouds 19 1022 82 10000 4.6 40 09:20 14.01.2020
4455 Clouds 19 1022 88 10000 3.6 30 08:48 14.01.2020
4456 Clouds 19 1022 88 10000 3.6 30 08:25 14.01.2020
4457 Clouds 18 1022 88 10000 5.1 60 07:53 14.01.2020
4458 Clouds 18 1022 100 10000 3.1 30 07:33 14.01.2020
4459 Clouds 17 1021 88 10000 4.6 30 06:56 14.01.2020
4460 Clouds 15 1021 100 10000 1.5 30 06:34 14.01.2020
4461 Clouds 17 1021 100 10000 1.5 350 05:28 14.01.2020
4462 Clouds 14 1020 88 10000 1.5 340 03:52 14.01.2020
4463 Clouds 14 1020 88 10000 1.5 340 03:52 14.01.2020
4464 Clouds 15 1019 100 10000 2.14 27 02:50 14.01.2020
4465 Clouds 15 1020 100 7000 3.6 360 01:58 14.01.2020
4466 Rain 15 1020 100 7000 4.6 10 00:53 14.01.2020
4467 Rain 15 1021 93 8000 4.6 20 00:35 14.01.2020
4468 Rain 15 1021 100 2000 3.6 110 23:56 13.01.2020
4469 Clouds 16 1021 88 10000 2.6 80 23:37 13.01.2020
4470 Clouds 17 1021 88 10000 2.6 80 23:18 13.01.2020
4471 Rain 17 1020 93 10000 2.6 330 22:45 13.01.2020
4472 Clouds 17 1021 93 10000 2.6 40 22:22 13.01.2020
4473 Clouds 17 1020 93 10000 2.32 20 21:58 13.01.2020
4474 Clouds 17 1020 93 10000 2.32 20 21:58 13.01.2020
4475 Clouds 17 1020 93 10000 2.32 20 21:39 13.01.2020
4476 Clouds 18 1022 93 10000 2.1 40 21:19 13.01.2020
4477 Clouds 17 1021 82 10000 2.32 20 20:59 13.01.2020
4478 Clouds 17 1021 82 10000 2.32 20 20:41 13.01.2020
4479 Clouds 18 1021 93 10000 2.6 80 20:22 13.01.2020
4480 Clouds 18 1020 82 10000 2.71 47 19:59 13.01.2020
4481 Clouds 18 1020 82 10000 2.71 47 19:40 13.01.2020
4482 Clouds 18 1021 82 10000 3.1 50 19:20 13.01.2020
4483 Clouds 18 1021 82 10000 3.1 50 19:20 13.01.2020
4484 Rain 18 1019 82 10000 2.1 50 18:58 13.01.2020
4485 Rain 18 1019 82 10000 2.1 50 18:37 13.01.2020
4486 Rain 18 1019 82 10000 2.1 50 18:37 13.01.2020
4487 Clouds 18 1019 88 10000 3.1 50 18:19 13.01.2020
4488 Clouds 18 1018 68 10000 2.71 47 17:55 13.01.2020
4489 Clouds 20 1018 64 10000 3.1 60 17:36 13.01.2020
4490 Clouds 20 1018 64 10000 3.1 60 17:18 13.01.2020
4491 Rain 18 1011 75 0 3.67 36 16:40 13.01.2020
4492 Rain 18 1011 75 0 3.67 36 16:40 13.01.2020
4493 Rain 18 1011 75 0 3.67 36 16:21 13.01.2020
4494 Rain 17 1010 85 0 3.67 36 15:54 13.01.2020
4495 Rain 18 1010 81 0 3.67 36 15:36 13.01.2020
4496 Rain 19 1010 74 0 3.67 36 15:18 13.01.2020
4497 Rain 20 1010 69 0 3.67 36 14:40 13.01.2020
4498 Rain 20 1010 74 0 1.18 232 14:22 13.01.2020
4499 Rain 19 1010 81 0 1.34 208 13:56 13.01.2020
4500 Rain 19 1010 85 0 0.45 208 13:38 13.01.2020
4501 Rain 18 1010 86 0 0.75 111 13:20 13.01.2020
4502 Rain 18 1010 86 0 0.75 111 13:20 13.01.2020
4503 Rain 17 1012 92 0 0.75 111 12:43 13.01.2020
4504 Clouds 19 1021 82 10000 5.1 270 12:23 13.01.2020
4505 Clouds 19 1021 82 10000 5.1 270 11:59 13.01.2020
4506 Clouds 17 1022 88 10000 3.6 220 11:38 13.01.2020
4507 Clouds 17 1022 88 10000 3.6 220 11:19 13.01.2020
4508 Rain 18 1022 88 10000 2.6 250 10:56 13.01.2020
4509 Rain 18 1022 88 10000 2.6 250 10:38 13.01.2020
4510 Rain 18 1023 93 10000 3.1 230 10:20 13.01.2020
4511 Rain 18 1022 88 10000 3.1 230 09:44 13.01.2020
4512 Clouds 17 1024 93 10000 2.1 220 09:26 13.01.2020
4513 Rain 17 1023 93 10000 3.6 240 08:59 13.01.2020
4514 Rain 17 1023 93 10000 3.6 240 08:38 13.01.2020
4515 Rain 16 1024 93 10000 1.5 220 08:19 13.01.2020
4516 Rain 15 1023 93 8000 2.6 270 07:45 13.01.2020
4517 Rain 15 1024 93 10000 1.5 260 07:27 13.01.2020
4518 Rain 15 1022 100 8000 1.35 251 06:39 13.01.2020
4519 Rain 15 1022 93 10000 1.5 310 05:57 13.01.2020
4520 Rain 14 1022 100 10000 1.5 200 05:19 13.01.2020
4521 Rain 14 1021 93 10000 2.1 340 03:46 13.01.2020
4522 Clouds 14 1021 88 10000 7.2 290 02:51 13.01.2020
4523 Clouds 15 1021 88 10000 5.1 270 02:31 13.01.2020
4524 Clouds 15 1021 93 10000 3.1 230 01:33 13.01.2020
4525 Clouds 15 1021 93 10000 2.1 250 00:59 13.01.2020
4526 Clouds 15 1021 93 10000 2.6 220 00:37 13.01.2020
4527 Clouds 15 1021 93 10000 2.6 220 00:18 13.01.2020
4528 Rain 15 1022 93 10000 5.7 260 23:41 12.01.2020
4529 Rain 15 1022 93 10000 5.7 260 23:22 12.01.2020
4530 Rain 15 1023 93 10000 2.1 230 22:57 12.01.2020
4531 Rain 15 1023 93 10000 2.1 230 22:39 12.01.2020
4532 Rain 15 1023 93 10000 5.1 270 22:20 12.01.2020
4533 Rain 15 1022 93 10000 5.1 260 21:55 12.01.2020
4534 Rain 15 1022 93 10000 5.1 260 21:37 12.01.2020
4535 Rain 14 1022 100 3000 4.6 250 21:19 12.01.2020
4536 Rain 15 1022 100 1000 5.1 270 20:55 12.01.2020
4537 Rain 14 1022 100 1000 5.1 270 20:37 12.01.2020
4538 Rain 15 1022 93 2000 3.1 260 20:19 12.01.2020
4539 Rain 15 1021 93 10000 4.6 280 19:54 12.01.2020
4540 Clouds 17 1021 77 10000 4.6 270 19:36 12.01.2020
4541 Clouds 17 1021 77 10000 4.6 270 19:18 12.01.2020
4542 Clouds 17 1021 68 10000 1.5 170 18:56 12.01.2020
4543 Clouds 17 1021 68 10000 1.5 170 18:38 12.01.2020
4544 Clouds 18 1020 64 10000 3.6 180 18:19 12.01.2020
4545 Clouds 19 1019 53 10000 5.1 90 17:42 12.01.2020
4546 Clouds 19 1019 53 10000 5.1 90 17:21 12.01.2020
4547 Clouds 20 1018 50 10000 4.1 70 16:58 12.01.2020
4548 Clouds 21 1018 50 10000 1.5 100 16:39 12.01.2020
4549 Clouds 21 1018 50 10000 1.5 100 16:20 12.01.2020
4550 Clouds 22 1018 54 10000 4.1 250 15:55 12.01.2020
4551 Clouds 22 1018 54 10000 5.7 240 15:37 12.01.2020
4552 Clouds 21 1018 54 10000 4.1 250 15:37 12.01.2020
4553 Clouds 22 1018 54 10000 5.7 240 15:19 12.01.2020
4554 Clouds 21 1018 42 10000 3.1 90 14:42 12.01.2020
4555 Clouds 21 1018 42 10000 3.1 90 14:23 12.01.2020
4556 Clouds 22 1018 44 10000 3.6 160 13:57 12.01.2020
4557 Clouds 22 1018 44 10000 3.6 160 13:39 12.01.2020
4558 Clouds 23 1019 47 10000 2.1 30 13:20 12.01.2020
4559 Clouds 23 1019 57 10000 3.1 180 12:56 12.01.2020
4560 Clouds 23 1019 57 10000 3.1 180 12:37 12.01.2020
4561 Clouds 22 1020 47 10000 3.1 110 12:18 12.01.2020
4562 Rain 19 1012 79 0 0.89 215 11:42 12.01.2020
4563 Clouds 23 1021 57 10000 4.1 170 11:22 12.01.2020
4564 Clouds 23 1021 57 10000 4.1 170 10:56 12.01.2020
4565 Clouds 23 1022 57 10000 2.6 230 10:37 12.01.2020
4566 Clouds 23 1022 57 10000 2.6 230 10:19 12.01.2020
4567 Clouds 24 1022 60 10000 2.6 220 09:42 12.01.2020
4568 Clouds 22 1023 68 10000 2.1 170 09:23 12.01.2020
4569 Clouds 22 1023 68 10000 1.5 150 08:48 12.01.2020
4570 Clouds 19 1023 77 10000 3.1 220 08:24 12.01.2020
4571 Clouds 19 1022 77 10000 2.16 355 07:49 12.01.2020
4572 Clouds 18 1023 88 10000 2.1 220 07:30 12.01.2020
4573 Clouds 17 1022 88 10000 2.16 355 06:59 12.01.2020
4574 Clouds 17 1022 88 10000 2.16 355 06:59 12.01.2020
4575 Clouds 17 1022 88 10000 2.16 355 06:59 12.01.2020
4576 Clouds 18 1022 93 10000 1.5 230 06:36 12.01.2020
4577 Clouds 17 1021 93 10000 2.16 355 05:52 12.01.2020
4578 Clouds 15 1021 88 10000 1 0 04:56 12.01.2020
4579 Clouds 15 1021 88 10000 1 250 03:43 12.01.2020
4580 Clouds 15 1021 93 10000 2.6 350 02:46 12.01.2020
4581 Clouds 16 1021 93 10000 2.6 10 02:24 12.01.2020
4582 Clouds 16 1021 88 10000 2.6 350 01:34 12.01.2020
4583 Clouds 16 1021 88 10000 1.5 340 00:46 12.01.2020
4584 Clouds 16 1021 88 10000 2.1 20 00:22 12.01.2020
4585 Clouds 16 1021 88 10000 2.1 20 00:22 12.01.2020
4586 Clouds 16 1022 88 10000 2.6 360 23:57 11.01.2020
4587 Clouds 16 1022 88 10000 2.1 30 23:39 11.01.2020
4588 Clouds 16 1022 88 10000 2.1 30 23:18 11.01.2020
4589 Clouds 17 1022 82 10000 2.6 30 22:56 11.01.2020
4590 Clouds 17 1022 82 10000 2.6 30 22:37 11.01.2020
4591 Clouds 17 1022 82 10000 3.1 30 22:19 11.01.2020
4592 Clouds 17 1022 77 10000 3.1 20 21:44 11.01.2020
4593 Clouds 18 1022 72 10000 3.1 20 21:19 11.01.2020
4594 Clouds 18 1021 72 10000 1.62 1 20:57 11.01.2020
4595 Clouds 18 1021 72 10000 1.62 1 20:39 11.01.2020
4596 Clouds 17 1021 72 10000 3.1 30 20:19 11.01.2020
4597 Clouds 18 1021 68 10000 3.6 30 19:57 11.01.2020
4598 Clouds 18 1021 77 10000 3.6 30 19:38 11.01.2020
4599 Clouds 20 1021 77 10000 3.6 30 19:38 11.01.2020
4600 Clouds 20 1021 77 10000 3.6 30 19:20 11.01.2020
4601 Clouds 20 1019 53 10000 2.6 40 18:55 11.01.2020
4602 Clouds 21 1019 68 10000 5.1 50 18:37 11.01.2020
4603 Clouds 21 1019 68 10000 5.1 50 18:18 11.01.2020
4604 Clouds 21 1018 50 10000 3.6 60 17:57 11.01.2020
4605 Clouds 21 1018 50 10000 3.6 60 17:57 11.01.2020
4606 Clouds 21 1018 50 10000 3.6 60 17:39 11.01.2020
4607 Clouds 22 1019 53 10000 5.7 70 17:18 11.01.2020
4608 Clouds 25 1018 39 10000 5.7 70 16:44 11.01.2020
4609 Clouds 25 1018 39 10000 5.7 70 16:24 11.01.2020
4610 Clouds 26 1017 44 10000 5.1 90 15:56 11.01.2020
4611 Clouds 20 1017 36 10000 5.7 80 15:38 11.01.2020
4612 Clouds 20 1017 36 10000 5.7 80 15:20 11.01.2020
4613 Clouds 20 1017 39 10000 5.1 100 14:46 11.01.2020
4614 Clouds 27 1018 36 10000 4.6 90 14:25 11.01.2020
4615 Clouds 26 1018 44 10000 5.7 100 13:57 11.01.2020
4616 Clouds 27 1018 42 10000 3.6 70 13:38 11.01.2020
4617 Clouds 27 1018 42 10000 3.6 70 13:20 11.01.2020
4618 Clouds 26 1019 50 10000 3.1 80 12:56 11.01.2020
4619 Clouds 26 1019 50 10000 3.1 80 12:37 11.01.2020
4620 Clouds 25 1020 47 10000 3.6 0 12:19 11.01.2020
4621 Clouds 23 1019 50 10000 4.1 60 11:42 11.01.2020
4622 Clouds 23 1021 53 10000 2.6 0 11:24 11.01.2020
4623 Clouds 23 1020 57 10000 3.3 12 10:47 11.01.2020
4624 Clouds 23 1020 57 10000 3.3 12 10:47 11.01.2020
4625 Clouds 22 1021 60 10000 2.6 0 10:25 11.01.2020
4626 Clouds 23 1021 73 10000 2.1 180 09:44 11.01.2020
4627 Clouds 21 1022 68 10000 2.1 60 09:21 11.01.2020
4628 Clouds 21 1022 73 10000 2.6 20 08:59 11.01.2020
4629 Clouds 20 1022 82 10000 1 0 08:40 11.01.2020
4630 Clouds 19 1022 82 10000 1 0 08:19 11.01.2020
4631 Clouds 19 1022 77 10000 4.1 270 07:43 11.01.2020
4632 Clouds 17 1022 93 8000 1.5 170 07:24 11.01.2020
4633 Clouds 17 1021 88 10000 3.1 290 06:43 11.01.2020
4634 Fog 17 1021 100 400 0.5 290 05:30 11.01.2020
4635 Clouds 14 1021 93 10000 1 320 04:42 11.01.2020
4636 Clouds 14 1021 93 10000 1.5 310 04:24 11.01.2020
4637 Clouds 15 1021 93 10000 1 0 02:48 11.01.2020
4638 Clouds 16 1020 93 10000 2.29 28 01:47 11.01.2020
4639 Mist 16 1021 93 4000 1.5 60 01:28 11.01.2020
4640 Clouds 16 1021 93 10000 2.1 70 00:54 11.01.2020
4641 Clouds 16 1021 93 10000 3.1 80 00:29 11.01.2020
4642 Clouds 16 1021 88 10000 3.6 80 23:59 10.01.2020
4643 Clouds 17 1022 88 10000 3.1 90 23:39 10.01.2020
4644 Clouds 16 1022 88 10000 3.1 90 23:20 10.01.2020
4645 Clouds 17 1022 88 10000 2.1 50 22:54 10.01.2020
4646 Clouds 17 1022 88 10000 3.1 40 22:36 10.01.2020
4647 Clouds 17 1022 88 10000 3.1 40 22:18 10.01.2020
4648 Clouds 17 1022 88 10000 3.1 60 21:41 10.01.2020
4649 Clouds 18 1022 88 10000 3.6 60 21:21 10.01.2020
4650 Clouds 18 1021 77 10000 4.1 70 20:59 10.01.2020
4651 Clouds 18 1021 77 10000 4.1 70 20:40 10.01.2020
4652 Clouds 19 1021 77 10000 5.7 50 20:22 10.01.2020
4653 Clouds 19 1020 73 10000 5.1 60 19:41 10.01.2020
4654 Clouds 19 1020 77 10000 4.1 50 19:21 10.01.2020
4655 Clouds 20 1019 64 10000 5.1 60 18:58 10.01.2020
4656 Clouds 19 1019 64 10000 5.1 60 18:40 10.01.2020
4657 Clouds 20 1019 77 10000 5.1 60 18:18 10.01.2020
4658 Clouds 20 1018 60 10000 5.1 60 17:56 10.01.2020
4659 Clouds 20 1018 60 10000 4.6 40 17:38 10.01.2020
4660 Clouds 22 1018 60 10000 4.6 40 17:20 10.01.2020
4661 Clouds 22 1017 50 10000 5.1 30 16:55 10.01.2020
4662 Clouds 22 1018 47 10000 6.7 50 16:36 10.01.2020
4663 Clouds 23 1018 47 10000 6.7 50 16:18 10.01.2020
4664 Clouds 23 1017 47 10000 6.2 60 15:55 10.01.2020
4665 Clouds 22 1017 47 10000 6.2 60 15:36 10.01.2020
4666 Clouds 24 1017 47 10000 6.2 60 15:18 10.01.2020
4667 Clouds 24 1017 47 10000 6.2 60 15:18 10.01.2020
4668 Clouds 24 1018 47 10000 4.1 70 14:42 10.01.2020
4669 Clouds 24 1018 47 10000 4.1 70 14:20 10.01.2020
4670 Clouds 26 1018 41 10000 4.1 60 13:59 10.01.2020
4671 Clouds 26 1018 41 10000 4.1 60 13:41 10.01.2020
4672 Clouds 24 1019 47 10000 4.1 70 13:23 10.01.2020
4673 Clouds 24 1019 50 10000 5.1 90 12:58 10.01.2020
4674 Clouds 24 1019 50 10000 5.1 90 12:38 10.01.2020
4675 Clouds 24 1020 54 10000 4.1 70 12:19 10.01.2020
4676 Clouds 24 1021 50 10000 4.6 70 11:55 10.01.2020
4677 Clouds 24 1021 50 10000 4.6 70 11:37 10.01.2020
4678 Clouds 23 1021 60 10000 3.1 40 11:18 10.01.2020
4679 Clouds 23 1022 60 10000 2.1 0 10:42 10.01.2020
4680 Clouds 22 1022 60 10000 2.1 0 10:24 10.01.2020
4681 Clouds 22 1021 60 10000 2.1 50 09:56 10.01.2020
4682 Clouds 21 1023 68 10000 3.6 30 09:38 10.01.2020
4683 Clouds 21 1023 68 10000 3.6 30 09:20 10.01.2020
4684 Clouds 21 1022 73 10000 2.6 30 08:42 10.01.2020
4685 Clouds 20 1023 82 10000 3.1 40 08:23 10.01.2020
4686 Clouds 20 1023 82 10000 3.1 40 08:23 10.01.2020
4687 Clouds 19 1021 77 10000 2.92 16 07:46 10.01.2020
4688 Clouds 19 1022 88 10000 3.1 30 07:26 10.01.2020
4689 Clouds 18 1021 88 10000 2.92 16 06:46 10.01.2020
4690 Clouds 17 1022 93 10000 1.5 20 06:26 10.01.2020
4691 Clouds 16 1020 93 10000 2.92 16 05:51 10.01.2020
4692 Clouds 15 1020 93 10000 1.5 40 03:45 10.01.2020
4693 Clouds 15 1020 93 10000 1 0 03:22 10.01.2020
4694 Clouds 15 1020 93 10000 1.5 290 02:49 10.01.2020
4695 Clouds 16 1019 88 10000 2.52 38 01:47 10.01.2020
4696 Clouds 17 1021 93 10000 1.5 40 01:28 10.01.2020
4697 Clouds 16 1021 93 10000 1.5 40 00:44 10.01.2020
4698 Clouds 16 1021 93 10000 1.5 40 23:58 09.01.2020
4699 Clouds 16 1021 93 10000 1.5 20 23:39 09.01.2020
4700 Clouds 16 1021 93 10000 1.5 20 23:20 09.01.2020
4701 Clouds 16 1021 93 10000 1.5 30 22:57 09.01.2020
4702 Clouds 16 1021 93 10000 1.5 30 22:39 09.01.2020
4703 Clouds 18 1022 88 10000 2.1 30 22:19 09.01.2020
4704 Clouds 18 1022 88 10000 2.1 30 22:19 09.01.2020
4705 Clouds 18 1022 88 10000 2.1 30 22:19 09.01.2020
4706 Clouds 18 1021 88 10000 3.23 41 21:57 09.01.2020
4707 Clouds 18 1021 88 10000 3.23 41 21:38 09.01.2020
4708 Clouds 18 1021 88 10000 3.1 20 21:19 09.01.2020
4709 Clouds 18 1020 88 10000 3.23 41 20:58 09.01.2020
4710 Clouds 18 1020 88 10000 3.23 41 20:39 09.01.2020
4711 Clouds 18 1020 88 10000 3.23 41 20:39 09.01.2020
4712 Clouds 18 1020 88 10000 3.47 30 20:20 09.01.2020
4713 Clouds 18 1021 88 10000 2.6 50 19:58 09.01.2020
4714 Clouds 18 1019 82 10000 3.47 30 19:38 09.01.2020
4715 Clouds 18 1019 82 10000 3.47 30 19:19 09.01.2020
4716 Clouds 18 1019 77 10000 3.1 50 18:55 09.01.2020
4717 Clouds 19 1019 77 10000 3.1 50 18:55 09.01.2020
4718 Clouds 18 1019 77 10000 4.6 50 18:37 09.01.2020
4719 Clouds 19 1019 77 10000 4.6 50 18:19 09.01.2020
4720 Clouds 20 1018 68 10000 4.1 60 17:41 09.01.2020
4721 Clouds 21 1019 68 10000 6.2 60 17:18 09.01.2020
4722 Clouds 21 1019 68 10000 6.2 60 16:55 09.01.2020
4723 Clouds 21 1017 60 10000 6.7 60 16:36 09.01.2020
4724 Clouds 21 1017 60 10000 6.7 60 16:18 09.01.2020
4725 Clouds 23 1017 57 10000 6.2 40 15:41 09.01.2020
4726 Clouds 23 1017 57 10000 6.2 40 15:19 09.01.2020
4727 Clouds 23 1017 57 10000 5.7 60 14:55 09.01.2020
4728 Clouds 23 1017 60 10000 7.7 60 14:36 09.01.2020
4729 Clouds 23 1017 60 10000 7.7 60 14:36 09.01.2020
4730 Clouds 24 1018 53 10000 6.2 70 14:18 09.01.2020
4731 Clouds 24 1018 53 10000 6.2 70 13:54 09.01.2020
4732 Clouds 24 1018 53 10000 6.2 70 13:36 09.01.2020
4733 Clouds 23 1019 57 10000 4.1 50 13:18 09.01.2020
4734 Clouds 23 1020 60 10000 3.6 50 12:41 09.01.2020
4735 Clouds 23 1020 60 10000 3.6 50 12:22 09.01.2020
4736 Clouds 22 1020 60 10000 3.6 50 11:58 09.01.2020
4737 Clouds 22 1021 64 10000 4.1 50 11:40 09.01.2020
4738 Clouds 22 1021 64 10000 4.1 50 11:22 09.01.2020
4739 Clouds 19 1021 88 10000 2.6 90 10:44 09.01.2020
4740 Clouds 19 1021 88 10000 2.6 90 10:23 09.01.2020
4741 Clouds 19 1023 93 10000 2.1 10 09:59 09.01.2020
4742 Rain 18 1021 93 9000 4.32 29 09:40 09.01.2020
4743 Rain 18 1021 93 9000 4.32 29 09:21 09.01.2020
4744 Rain 18 1023 93 10000 2.6 10 08:55 09.01.2020
4745 Rain 18 1022 88 9000 4.1 80 08:37 09.01.2020
4746 Rain 18 1022 88 9000 4.1 80 08:19 09.01.2020
4747 Clouds 17 1022 88 8000 2.6 50 07:42 09.01.2020
4748 Clouds 18 1022 88 8000 2.6 50 07:24 09.01.2020
4749 Clouds 17 1021 93 10000 2.6 30 06:39 09.01.2020
4750 Clouds 17 1021 93 10000 2.6 30 06:20 09.01.2020
4751 Clouds 16 1022 93 10000 1 20 05:50 09.01.2020
4752 Clouds 16 1022 93 10000 1 20 05:50 09.01.2020
4753 Clouds 13 1021 93 10000 2.16 57 04:44 09.01.2020
4754 Clouds 14 1021 100 10000 1 20 03:54 09.01.2020
4755 Clouds 15 1021 93 10000 2.1 40 02:54 09.01.2020
4756 Clouds 15 1020 93 10000 3.1 30 02:28 09.01.2020
4757 Clouds 14 1021 93 10000 2.1 50 01:39 09.01.2020
4758 Clouds 15 1021 93 10000 1.5 40 00:43 09.01.2020
4759 Clouds 16 1021 88 10000 1.5 10 00:21 09.01.2020
4760 Clouds 17 1021 88 10000 1.5 10 23:55 08.01.2020
4761 Clouds 16 1022 93 10000 2.1 10 23:37 08.01.2020
4762 Clouds 15 1022 93 10000 2.1 10 23:18 08.01.2020
4763 Clouds 17 1022 88 10000 2.6 350 22:39 08.01.2020
4764 Clouds 17 1022 88 10000 2.6 350 22:21 08.01.2020
4765 Clouds 17 1022 93 10000 2.6 340 21:58 08.01.2020
4766 Clouds 16 1022 88 10000 3.1 360 21:39 08.01.2020
4767 Clouds 16 1022 88 10000 3.1 360 21:20 08.01.2020
4768 Clouds 17 1022 93 10000 2.6 10 20:58 08.01.2020
4769 Clouds 16 1022 88 10000 2.6 20 20:40 08.01.2020
4770 Clouds 16 1022 88 10000 2.6 20 20:20 08.01.2020
4771 Clouds 16 1022 88 10000 3.6 50 19:56 08.01.2020
4772 Clouds 18 1021 88 10000 4.6 60 19:37 08.01.2020
4773 Clouds 16 1021 88 10000 3.6 70 19:19 08.01.2020
4774 Clouds 16 1021 88 10000 3.6 70 18:56 08.01.2020
4775 Clouds 17 1021 77 10000 4.6 60 18:37 08.01.2020
4776 Clouds 18 1021 77 10000 4.6 60 18:18 08.01.2020
4777 Clouds 19 1019 64 10000 5.1 60 17:55 08.01.2020
4778 Clouds 19 1019 64 10000 5.1 60 17:36 08.01.2020
4779 Clouds 19 1020 64 10000 5.1 40 17:18 08.01.2020
4780 Clouds 20 1020 64 10000 5.1 40 16:54 08.01.2020
4781 Clouds 19 1020 56 10000 6.2 40 16:36 08.01.2020
4782 Clouds 20 1019 60 10000 5.7 50 16:18 08.01.2020
4783 Clouds 20 1019 56 10000 5.7 50 15:40 08.01.2020
4784 Clouds 21 1019 56 10000 5.7 50 15:20 08.01.2020
4785 Clouds 21 1019 60 10000 5.1 60 14:56 08.01.2020
4786 Clouds 21 1019 56 10000 5.1 60 14:38 08.01.2020
4787 Clouds 21 1019 56 10000 5.1 60 14:19 08.01.2020
4788 Clouds 20 1020 64 10000 6.2 60 13:40 08.01.2020
4789 Clouds 21 1020 64 10000 6.2 60 13:19 08.01.2020
4790 Clouds 19 1021 88 10000 4.6 40 12:42 08.01.2020
4791 Clouds 19 1021 88 10000 4.6 40 12:19 08.01.2020
4792 Clouds 19 1021 88 10000 4.6 40 11:55 08.01.2020
4793 Clouds 19 1021 88 10000 4.6 40 11:55 08.01.2020
4794 Rain 18 1021 88 8000 5.1 60 11:37 08.01.2020
4795 Rain 17 1021 88 8000 5.1 60 11:19 08.01.2020
4796 Rain 18 1023 93 4000 8.7 40 10:55 08.01.2020
4797 Rain 19 1022 88 10000 6.2 30 10:37 08.01.2020
4798 Rain 19 1022 88 10000 6.2 30 10:18 08.01.2020
4799 Clouds 19 1023 77 10000 7.2 70 09:41 08.01.2020
4800 Clouds 19 1023 77 10000 7.2 70 09:19 08.01.2020
4801 Clouds 19 1023 82 10000 7.7 60 08:56 08.01.2020
4802 Rain 18 1023 88 10000 5.1 70 08:37 08.01.2020
4803 Rain 18 1023 88 10000 5.1 70 08:19 08.01.2020
4804 Clouds 17 1022 93 10000 5.1 80 07:48 08.01.2020
4805 Clouds 17 1022 93 10000 5.1 80 07:29 08.01.2020
4806 Rain 16 1021 93 8000 2.6 40 06:45 08.01.2020
4807 Rain 16 1022 93 7000 4.1 20 06:19 08.01.2020
4808 Clouds 15 1021 93 10000 2.6 40 05:41 08.01.2020
4809 Clouds 15 1021 93 10000 2.6 50 04:56 08.01.2020
4810 Clouds 15 1021 93 10000 2.6 50 04:24 08.01.2020
4811 Clouds 15 1021 93 10000 2.6 90 02:45 08.01.2020
4812 Clouds 16 1020 93 10000 2.1 50 02:21 08.01.2020
4813 Clouds 16 1020 93 10000 3.6 90 01:42 08.01.2020
4814 Clouds 15 1020 93 10000 2.1 100 00:59 08.01.2020
4815 Clouds 15 1021 82 10000 2.6 90 00:27 08.01.2020
4816 Clouds 15 1021 88 10000 3.1 60 23:55 07.01.2020
4817 Clouds 16 1021 93 10000 2.6 60 23:37 07.01.2020
4818 Clouds 17 1021 93 10000 2.6 60 23:19 07.01.2020
4819 Clouds 16 1022 93 10000 3.6 40 22:40 07.01.2020
4820 Clouds 16 1022 93 10000 4.1 80 22:20 07.01.2020
4821 Clouds 16 1022 93 10000 3.6 70 21:55 07.01.2020
4822 Clouds 16 1022 93 10000 3.6 70 21:37 07.01.2020
4823 Clouds 16 1022 93 10000 3.6 70 21:19 07.01.2020
4824 Clouds 17 1022 93 10000 4.1 70 20:55 07.01.2020
4825 Clouds 16 1022 93 10000 4.1 60 20:36 07.01.2020
4826 Clouds 16 1022 93 10000 4.1 60 20:36 07.01.2020
4827 Clouds 18 1022 93 10000 4.1 60 20:18 07.01.2020
4828 Clouds 17 1022 88 10000 3.6 60 19:38 07.01.2020
4829 Clouds 17 1022 88 10000 3.6 60 19:19 07.01.2020
4830 -273 0 0 0 0 0 18:58 07.01.2020
4831 Clouds 18 1021 88 10000 4.6 70 18:58 07.01.2020
4832 Clouds 18 1021 88 10000 3.6 60 18:40 07.01.2020
4833 Clouds 18 1020 88 10000 4.6 80 18:18 07.01.2020
4834 Clouds 18 1020 88 10000 4.6 80 17:58 07.01.2020
4835 Clouds 18 1019 82 10000 4.6 90 17:39 07.01.2020
4836 Clouds 20 1019 82 10000 4.6 90 17:20 07.01.2020
4837 Clouds 20 1019 77 10000 6.2 80 16:56 07.01.2020
4838 Clouds 21 1018 64 10000 5.7 80 16:37 07.01.2020
4839 Clouds 21 1019 64 10000 6.7 80 16:18 07.01.2020
4840 Clouds 21 1019 64 10000 6.7 80 15:55 07.01.2020
4841 Clouds 21 1018 69 10000 6.7 100 15:36 07.01.2020
4842 Clouds 21 1018 69 10000 6.7 100 15:18 07.01.2020
4843 Clouds 21 1019 69 10000 7.2 70 14:42 07.01.2020
4844 Clouds 21 1019 69 10000 7.2 70 14:23 07.01.2020
4845 Clouds 21 1019 69 10000 6.7 70 13:56 07.01.2020
4846 Clouds 21 1019 69 10000 6.7 70 13:56 07.01.2020
4847 Clouds 21 1019 77 10000 7.2 90 13:37 07.01.2020
4848 Clouds 21 1019 77 10000 7.2 90 13:18 07.01.2020
4849 Clouds 21 1020 83 10000 7.2 90 12:40 07.01.2020
4850 Clouds 21 1020 83 10000 7.2 90 12:40 07.01.2020
4851 Clouds 22 1020 83 10000 7.2 90 12:19 07.01.2020
4852 Clouds 23 1021 64 10000 6.7 70 11:43 07.01.2020
4853 Clouds 22 1021 64 10000 6.7 70 11:23 07.01.2020
4854 Clouds 22 1021 64 10000 6.2 50 10:58 07.01.2020
4855 Clouds 22 1021 64 10000 5.1 60 10:40 07.01.2020
4856 Clouds 22 1021 64 10000 5.1 60 10:22 07.01.2020
4857 Clouds 22 1022 64 10000 6.2 60 09:56 07.01.2020
4858 Clouds 23 1021 64 10000 9.3 30 09:37 07.01.2020
4859 Clouds 23 1021 64 10000 9.3 30 09:19 07.01.2020
4860 Clouds 22 1022 68 10000 6.2 50 08:41 07.01.2020
4861 Clouds 22 1022 68 10000 6.2 50 08:41 07.01.2020
4862 Clouds 20 1022 68 10000 6.2 50 08:20 07.01.2020
4863 Clouds 20 1022 69 10000 6.2 80 07:49 07.01.2020
4864 Clouds 19 1022 88 10000 7.7 60 07:25 07.01.2020
4865 Clouds 18 1022 93 10000 2.6 70 06:52 07.01.2020
4866 Clouds 18 1022 93 10000 2.6 70 06:32 07.01.2020
4867 Clouds 16 1022 93 10000 3.6 80 05:42 07.01.2020
4868 Clouds 15 1021 93 10000 2.6 80 03:52 07.01.2020
4869 Clouds 15 1021 100 10000 2.6 80 03:25 07.01.2020
4870 Clouds 16 1020 93 10000 2.6 40 02:20 07.01.2020
4871 Clouds 16 1020 93 10000 2.6 30 01:40 07.01.2020
4872 Clouds 16 1020 93 10000 1.5 60 01:18 07.01.2020
4873 Clouds 15 1021 93 10000 2.1 70 00:21 07.01.2020
4874 Clouds 16 1021 93 10000 2.1 40 23:58 06.01.2020
4875 Clouds 16 1021 93 10000 2.6 50 23:39 06.01.2020
4876 Clouds 16 1021 93 10000 2.6 50 23:21 06.01.2020
4877 Clouds 17 1022 93 10000 1.5 40 22:56 06.01.2020
4878 Clouds 17 1022 88 10000 1.5 50 22:37 06.01.2020
4879 Clouds 17 1022 88 10000 1.5 50 22:19 06.01.2020
4880 Clouds 17 1022 88 10000 3.1 70 21:54 06.01.2020
4881 Clouds 17 1022 88 10000 4.1 50 21:36 06.01.2020
4882 Clouds 17 1022 88 10000 4.1 50 21:36 06.01.2020
4883 Clouds 18 1022 88 10000 4.1 50 21:18 06.01.2020
4884 Clouds 18 1022 88 10000 5.1 60 20:54 06.01.2020
4885 Clouds 18 1022 88 10000 5.1 60 20:54 06.01.2020
4886 Clouds 19 1021 82 10000 5.1 60 20:36 06.01.2020
4887 Clouds 19 1021 83 10000 5.1 60 20:18 06.01.2020
4888 Clouds 19 1021 83 10000 5.1 60 19:55 06.01.2020
4889 Clouds 18 1021 77 10000 4.6 70 19:36 06.01.2020
4890 Clouds 20 1021 77 10000 4.6 70 19:18 06.01.2020
4891 Clouds 20 1019 68 10000 5.1 60 18:43 06.01.2020
4892 Clouds 20 1019 68 10000 5.1 60 18:20 06.01.2020
4893 Clouds 20 1018 64 10000 7.7 30 17:39 06.01.2020
4894 Clouds 22 1018 57 10000 6.7 40 17:20 06.01.2020
4895 Clouds 22 1018 57 10000 6.7 40 16:57 06.01.2020
4896 Clouds 21 1018 53 10000 6.2 50 16:38 06.01.2020
4897 Clouds 23 1018 50 10000 5.7 40 16:19 06.01.2020
4898 Clouds 23 1017 44 10000 5.1 60 15:44 06.01.2020
4899 Clouds 24 1017 44 10000 5.1 60 15:22 06.01.2020
4900 Clouds 24 1017 47 10000 4.6 50 14:59 06.01.2020
4901 Clouds 25 1017 44 10000 6.2 60 14:41 06.01.2020
4902 Clouds 23 1018 47 10000 6.2 90 14:22 06.01.2020
4903 Clouds 24 1018 47 10000 6.2 90 13:59 06.01.2020
4904 Clouds 24 1018 47 10000 6.2 90 13:59 06.01.2020
4905 Clouds 24 1018 47 10000 6.2 90 13:39 06.01.2020
4906 Clouds 24 1018 47 10000 6.2 90 13:20 06.01.2020
4907 Clouds 25 1018 50 10000 4.1 50 12:55 06.01.2020
4908 Clouds 24 1018 47 10000 3.6 30 12:37 06.01.2020
4909 Clouds 24 1020 53 10000 4.1 30 12:18 06.01.2020
4910 Clouds 23 1020 53 10000 4.6 40 11:41 06.01.2020
4911 Clouds 23 1021 60 10000 4.6 30 11:23 06.01.2020
4912 Clouds 23 1021 60 10000 4.6 30 10:59 06.01.2020
4913 Clouds 23 1020 60 10000 5.1 20 10:40 06.01.2020
4914 Clouds 22 1020 60 10000 5.1 20 10:20 06.01.2020
4915 Clouds 23 1021 60 10000 3.6 10 09:39 06.01.2020
4916 Clouds 23 1021 60 10000 3.6 10 09:20 06.01.2020
4917 Clouds 22 1022 73 10000 5.1 40 08:52 06.01.2020
4918 Clouds 22 1021 68 10000 4.1 40 08:34 06.01.2020
4919 Clouds 20 1022 73 10000 5.1 40 07:57 06.01.2020
4920 Clouds 19 1021 82 10000 5.1 360 07:37 06.01.2020
4921 Clouds 18 1021 88 10000 3.6 30 06:49 06.01.2020
4922 Clouds 18 1021 88 10000 3.6 30 06:30 06.01.2020
4923 Clouds 18 1021 88 10000 2.1 20 05:48 06.01.2020
4924 Clouds 17 1021 93 10000 2.6 30 04:55 06.01.2020
4925 Clouds 16 1020 93 10000 1.5 20 04:21 06.01.2020
4926 Clouds 17 1020 93 10000 1.5 20 03:26 06.01.2020
4927 Clouds 17 1020 82 10000 1.91 36 02:26 06.01.2020
4928 Clouds 17 1020 88 10000 2.1 10 01:49 06.01.2020
4929 Clouds 17 1020 88 10000 2.1 10 01:29 06.01.2020
4930 Clouds 17 1020 88 10000 2.1 20 00:44 06.01.2020
4931 Clouds 17 1020 88 10000 2.1 20 00:24 06.01.2020
4932 Clouds 17 1021 82 10000 2.1 40 23:57 05.01.2020
4933 Clouds 17 1021 82 10000 2.1 40 23:37 05.01.2020
4934 Clouds 18 1021 82 10000 2.1 40 23:19 05.01.2020
4935 Clouds 18 1021 77 10000 3.1 60 22:40 05.01.2020
4936 Clouds 18 1021 77 10000 3.1 60 22:40 05.01.2020
4937 Clouds 18 1021 77 10000 3.1 60 22:20 05.01.2020
4938 Clouds 18 1022 82 10000 2.1 20 21:56 05.01.2020
4939 Clouds 18 1021 77 10000 3.1 40 21:38 05.01.2020
4940 Clouds 18 1021 77 10000 3.1 40 21:20 05.01.2020
4941 Clouds 18 1021 77 10000 2.6 30 20:56 05.01.2020
4942 Clouds 18 1020 72 10000 3.6 40 20:38 05.01.2020
4943 Clouds 18 1020 72 10000 3.6 40 20:19 05.01.2020
4944 Clouds 19 1020 77 10000 2.1 10 19:58 05.01.2020
4945 -273 0 0 0 0 0 19:38 05.01.2020
4946 Clouds 19 1020 73 10000 4.1 40 19:19 05.01.2020
4947 Clouds 19 1020 73 10000 4.1 40 18:55 05.01.2020
4948 Clouds 20 1018 60 10000 4.6 40 18:37 05.01.2020
4949 Clouds 20 1018 60 10000 4.6 40 18:37 05.01.2020
4950 Clouds 20 1018 60 10000 4.6 40 18:19 05.01.2020
4951 Clouds 20 1019 60 10000 4.1 50 17:57 05.01.2020
4952 Clouds 21 1018 56 10000 5.7 60 17:38 05.01.2020
4953 Clouds 21 1018 56 10000 5.7 60 17:19 05.01.2020
4954 Clouds 20 1019 53 10000 5.1 80 16:55 05.01.2020
4955 Clouds 20 1018 53 10000 6.2 70 16:37 05.01.2020
4956 Clouds 23 1018 53 10000 6.2 70 16:19 05.01.2020
4957 Clouds 21 1018 47 10000 7.2 80 15:37 05.01.2020
4958 Clouds 21 1018 47 10000 7.2 80 15:19 05.01.2020
4959 Clouds 26 1017 47 10000 6.7 80 14:55 05.01.2020
4960 Clouds 21 1017 44 10000 5.1 70 14:37 05.01.2020
4961 Clouds 26 1017 44 10000 5.1 70 14:18 05.01.2020
4962 Clouds 27 1018 44 10000 3.6 60 13:54 05.01.2020
4963 Clouds 27 1018 44 10000 3.6 60 13:36 05.01.2020
4964 Clouds 24 1018 44 10000 3.6 60 13:18 05.01.2020
4965 Clouds 24 1018 44 10000 5.7 70 12:55 05.01.2020
4966 Clouds 26 1018 44 10000 5.7 70 12:36 05.01.2020
4967 Clouds 26 1018 44 10000 5.7 70 12:36 05.01.2020
4968 Clouds 26 1018 44 10000 5.7 70 12:18 05.01.2020
4969 Clouds 25 1019 50 10000 5.1 30 11:43 05.01.2020
4970 Clouds 25 1019 50 10000 5.1 30 11:43 05.01.2020
4971 Clouds 25 1019 50 10000 5.1 30 11:43 05.01.2020
4972 Clouds 25 1019 50 10000 5.1 30 11:43 05.01.2020
4973 Clouds 25 1019 50 10000 5.1 30 11:43 05.01.2020
4974 Clouds 25 1019 50 10000 5.1 30 11:19 05.01.2020
4975 Clouds 24 1020 57 10000 4.6 80 10:58 05.01.2020
4976 Clouds 24 1020 57 10000 4.6 80 10:58 05.01.2020
4977 Clouds 24 1020 57 10000 4.6 80 10:58 05.01.2020
4978 Clouds 22 1020 53 10000 4.1 70 10:39 05.01.2020
4979 Clouds 22 1020 53 10000 4.1 70 10:39 05.01.2020
4980 Clouds 22 1020 53 10000 4.1 70 10:39 05.01.2020
4981 Clouds 22 1020 53 10000 4.1 70 10:39 05.01.2020
4982 Clouds 22 1020 53 10000 4.1 70 10:39 05.01.2020
4983 Clouds 22 1020 53 10000 4.1 70 10:18 05.01.2020
4984 Clouds 22 1020 56 10000 3.85 37 09:41 05.01.2020
4985 Clouds 22 1020 56 10000 3.85 37 09:22 05.01.2020
4986 Clouds 22 1022 64 10000 3.1 50 08:49 05.01.2020
4987 Clouds 21 1021 56 10000 3.6 60 08:30 05.01.2020
4988 Clouds 21 1022 60 10000 2.6 80 07:56 05.01.2020
4989 Clouds 20 1021 60 10000 2.6 60 07:37 05.01.2020
4990 Clouds 20 1021 60 10000 2.6 60 07:19 05.01.2020
4991 Mist 15 1022 93 7000 1 190 05:59 05.01.2020
4992 Clouds 14 1021 93 10000 2.1 230 05:32 05.01.2020
4993 Clouds 15 1021 88 10000 1.5 20 04:43 05.01.2020
4994 Clouds 16 1021 88 10000 1.5 20 04:18 05.01.2020
4995 Clouds 16 1021 88 10000 1.5 20 04:18 05.01.2020
4996 Clouds 16 1020 88 10000 2.1 350 02:46 05.01.2020
4997 Clouds 15 1020 88 10000 3.1 360 02:24 05.01.2020
4998 Clouds 16 1020 88 10000 3.6 30 01:48 05.01.2020
4999 Clouds 15 1020 88 10000 2.1 30 01:19 05.01.2020
5000 Clouds 15 1021 88 10000 1.5 350 00:42 05.01.2020
5001 Clouds 15 1021 88 10000 1.5 350 00:42 05.01.2020
5002 Clouds 15 1021 88 10000 1.5 350 00:23 05.01.2020
5003 Clouds 15 1021 88 10000 1.5 20 23:59 04.01.2020
5004 Clouds 15 1021 88 10000 2.1 10 23:40 04.01.2020
5005 Clouds 16 1021 88 10000 2.1 10 23:19 04.01.2020
5006 Clouds 16 1021 88 10000 2.1 10 23:19 04.01.2020
5007 Clouds 17 1022 82 10000 2.6 40 22:40 04.01.2020
5008 Clouds 17 1022 82 10000 2.6 40 22:22 04.01.2020
5009 Clouds 16 1022 88 10000 2.6 360 21:58 04.01.2020
5010 Clouds 16 1022 82 10000 2.6 30 21:39 04.01.2020
5011 Clouds 16 1022 82 10000 2.6 30 21:39 04.01.2020
5012 Clouds 16 1022 82 10000 2.6 30 21:20 04.01.2020
5013 Clouds 17 1021 77 10000 2.6 30 20:59 04.01.2020
5014 Clouds 17 1021 77 10000 2.6 30 20:40 04.01.2020
5015 Clouds 17 1021 77 10000 2.6 30 20:21 04.01.2020
5016 Clouds 17 1023 82 10000 3.1 30 19:57 04.01.2020
5017 Clouds 17 1023 82 10000 3.1 30 19:57 04.01.2020
5018 Clouds 17 1021 77 10000 5.1 60 19:38 04.01.2020
5019 Clouds 17 1021 77 10000 5.1 60 19:20 04.01.2020
5020 Clouds 18 1022 82 10000 3.6 70 18:55 04.01.2020
5021 Clouds 18 1021 72 10000 5.1 80 18:36 04.01.2020
5022 Clouds 18 1021 72 10000 5.1 80 18:18 04.01.2020
5023 Clouds 18 1020 72 10000 5.1 90 17:41 04.01.2020
5024 Clouds 18 1020 72 10000 5.1 90 17:41 04.01.2020
5025 Clouds 18 1020 72 10000 5.1 90 17:23 04.01.2020
5026 Clouds 20 1020 43 10000 6.2 60 16:58 04.01.2020
5027 Clouds 20 1020 43 10000 6.2 60 16:39 04.01.2020
5028 Clouds 20 1020 43 10000 6.2 60 16:39 04.01.2020
5029 Clouds 21 1020 49 10000 5.1 40 16:21 04.01.2020
5030 Clouds 21 1020 49 10000 5.1 40 15:54 04.01.2020
5031 Clouds 22 1019 38 10000 6.2 60 15:36 04.01.2020
5032 Clouds 22 1019 38 10000 6.2 60 15:18 04.01.2020
5033 Clouds 23 1019 38 10000 6.2 70 14:42 04.01.2020
5034 Clouds 23 1019 38 10000 6.2 70 14:42 04.01.2020
5035 Clouds 22 1020 44 10000 7.7 60 14:20 04.01.2020
5036 Clouds 22 1020 44 10000 7.7 60 13:59 04.01.2020
5037 Clouds 22 1019 38 10000 9.3 60 13:38 04.01.2020
5038 Clouds 23 1019 38 10000 9.3 60 13:19 04.01.2020
5039 Clouds 22 1020 50 10000 7.7 80 12:57 04.01.2020
5040 Clouds 23 1020 50 10000 9.3 60 12:39 04.01.2020
5041 Clouds 23 1020 50 10000 9.3 60 12:18 04.01.2020
5042 Clouds 23 1021 50 10000 7.7 80 11:56 04.01.2020
5043 Clouds 23 1021 50 10000 9.3 70 11:37 04.01.2020
5044 Clouds 23 1021 50 10000 9.3 70 11:18 04.01.2020
5045 Clouds 22 1021 53 10000 9.3 70 10:40 04.01.2020
5046 Clouds 22 1021 53 10000 9.3 70 10:21 04.01.2020
5047 Clouds 22 1022 53 10000 4.6 70 09:47 04.01.2020
5048 Clouds 22 1022 60 10000 5.1 70 09:26 04.01.2020
5049 Clouds 21 1023 64 10000 4.6 100 08:49 04.01.2020
5050 Clouds 22 1023 68 10000 6.2 30 08:29 04.01.2020
5051 Clouds 19 1023 68 10000 4.6 60 07:59 04.01.2020
5052 Clouds 18 1023 77 10000 4.6 70 07:40 04.01.2020
5053 Clouds 18 1023 77 10000 2.1 20 06:46 04.01.2020
5054 Clouds 16 1023 93 10000 2.1 50 05:59 04.01.2020
5055 Clouds 15 1023 93 10000 1.5 360 04:53 04.01.2020
5056 Clouds 14 1022 93 10000 1.5 360 04:32 04.01.2020
5057 Clouds 15 1022 93 10000 2.6 350 03:37 04.01.2020
5058 Clouds 15 1022 93 10000 2.6 350 03:18 04.01.2020
5059 Clouds 15 1022 100 10000 1.5 360 02:20 04.01.2020
5060 Clouds 15 1022 100 10000 1.5 360 01:53 04.01.2020
5061 Clouds 15 1022 100 10000 2.6 20 01:30 04.01.2020
5062 Rain 15 1023 93 8000 4.6 360 00:30 04.01.2020
5063 Rain 14 1023 93 8000 4.6 360 23:59 03.01.2020
5064 Rain 15 1024 93 7000 5.7 30 23:38 03.01.2020
5065 Clouds 16 1023 77 10000 2.6 50 23:20 03.01.2020
5066 Clouds 16 1024 77 10000 2.1 40 22:41 03.01.2020
5067 Clouds 16 1024 77 10000 2.1 40 22:19 03.01.2020
5068 Clouds 16 1024 77 10000 0.5 10 21:58 03.01.2020
5069 Clouds 16 1024 77 10000 2.6 30 21:38 03.01.2020
5070 Clouds 16 1024 77 10000 2.6 30 21:38 03.01.2020
5071 Clouds 16 1024 77 10000 2.6 30 21:19 03.01.2020
5072 Clouds 16 1024 77 10000 3.6 50 20:57 03.01.2020
5073 Clouds 16 1024 72 10000 4.1 60 20:39 03.01.2020
5074 Clouds 18 1024 72 10000 4.1 60 20:18 03.01.2020
5075 Clouds 18 1024 72 10000 3.1 70 19:55 03.01.2020
5076 Clouds 18 1023 68 10000 5.7 40 19:37 03.01.2020
5077 Clouds 18 1023 68 10000 5.7 40 19:18 03.01.2020
5078 Clouds 18 1022 72 10000 6.7 60 18:41 03.01.2020
5079 Clouds 18 1022 72 10000 6.7 60 18:23 03.01.2020
5080 Clouds 19 1022 77 10000 7.2 50 17:55 03.01.2020
5081 Clouds 20 1021 64 10000 5.1 80 17:36 03.01.2020
5082 Clouds 20 1021 64 10000 5.1 80 17:36 03.01.2020
5083 Clouds 21 1020 49 10000 6.7 40 17:18 03.01.2020
5084 Clouds 21 1020 49 10000 6.7 40 16:42 03.01.2020
5085 Clouds 21 1020 49 10000 6.7 40 16:22 03.01.2020
5086 Clouds 22 1020 50 10000 7.2 60 15:44 03.01.2020
5087 Clouds 22 1020 50 10000 7.2 60 15:19 03.01.2020
5088 Clouds 22 1020 50 10000 7.2 60 15:19 03.01.2020
5089 Clouds 22 1020 53 10000 7.2 60 14:59 03.01.2020
5090 Clouds 23 1020 50 10000 8.2 80 14:38 03.01.2020
5091 Clouds 23 1020 50 10000 8.2 80 14:19 03.01.2020
5092 Clouds 23 1020 50 10000 9.8 90 13:43 03.01.2020
5093 Clouds 23 1020 50 10000 9.8 90 13:24 03.01.2020
5094 Clouds 23 1022 50 10000 7.2 50 12:58 03.01.2020
5095 Clouds 23 1022 44 10000 8.2 60 12:38 03.01.2020
5096 Clouds 23 1022 44 10000 8.2 60 12:20 03.01.2020
5097 Clouds 23 1022 44 10000 8.2 60 11:44 03.01.2020
5098 Clouds 23 1021 50 10000 9.8 60 11:20 03.01.2020
5099 Clouds 22 1022 57 10000 7.2 80 10:44 03.01.2020
5100 Clouds 22 1022 57 10000 7.2 80 10:25 03.01.2020
5101 Clouds 22 1022 57 10000 7.2 80 10:25 03.01.2020
5102 Clouds 22 1024 60 10000 6.7 60 09:58 03.01.2020
5103 Clouds 22 1023 60 10000 8.7 60 09:39 03.01.2020
5104 Clouds 22 1023 60 10000 8.7 60 09:21 03.01.2020
5105 Clouds 21 1024 73 10000 4.1 40 08:56 03.01.2020
5106 Clouds 21 1023 72 10000 5.7 40 08:38 03.01.2020
5107 Clouds 20 1023 72 10000 5.7 40 08:19 03.01.2020
5108 Clouds 19 1023 77 10000 4.1 60 07:40 03.01.2020
5109 Clouds 19 1023 77 10000 4.1 60 07:18 03.01.2020
5110 Clouds 18 1024 88 10000 4.1 20 06:49 03.01.2020
5111 Clouds 18 1024 88 10000 4.1 20 06:49 03.01.2020
5112 Clouds 17 1024 88 10000 4.1 20 06:30 03.01.2020
5113 Clouds 16 1024 88 10000 2.6 10 05:45 03.01.2020
5114 Clouds 16 1022 88 10000 3.6 360 04:22 03.01.2020
5115 Clouds 14 1022 88 10000 3.1 20 02:56 03.01.2020
5116 Clouds 15 1022 88 10000 3.1 20 02:33 03.01.2020
5117 Clouds 15 1022 88 10000 2.6 40 01:44 03.01.2020
5118 Clouds 16 1022 88 10000 5.1 30 00:50 03.01.2020
5119 Clouds 16 1022 88 10000 3.1 30 00:31 03.01.2020
5120 Clouds 16 1022 88 10000 3.6 30 23:56 02.01.2020
5121 Clouds 16 1023 88 10000 3.1 30 23:38 02.01.2020
5122 Clouds 16 1023 88 10000 3.1 30 23:19 02.01.2020
5123 Clouds 16 1023 82 10000 3.1 30 22:57 02.01.2020
5124 Clouds 16 1023 82 10000 2.6 20 22:38 02.01.2020
5125 Clouds 16 1023 82 10000 3.1 30 22:18 02.01.2020
5126 Clouds 16 1023 82 10000 2.6 20 21:41 02.01.2020
5127 Clouds 16 1023 82 10000 2.6 20 21:23 02.01.2020
5128 Clouds 16 1023 77 10000 3.6 30 20:59 02.01.2020
5129 Clouds 16 1023 77 10000 4.6 40 20:39 02.01.2020
5130 Clouds 18 1023 77 10000 4.6 40 20:21 02.01.2020
5131 Clouds 18 1023 77 10000 4.6 30 19:56 02.01.2020
5132 Clear 18 1021 68 0 5.1 40 19:38 02.01.2020
5133 Clear 18 1021 68 0 5.1 40 19:19 02.01.2020
5134 Clear 18 1021 64 0 3.6 70 18:58 02.01.2020
5135 Clear 18 1021 64 0 3.6 70 18:39 02.01.2020
5136 Clear 18 1021 64 0 3.6 70 18:21 02.01.2020
5137 Clouds 17 1022 64 10000 5.7 50 17:56 02.01.2020
5138 Clouds 18 1021 56 10000 6.2 50 17:37 02.01.2020
5139 Clouds 20 1021 60 10000 6.2 40 17:19 02.01.2020
5140 Clouds 20 1021 60 10000 6.2 40 16:56 02.01.2020
5141 Clouds 21 1020 40 10000 6.7 50 16:38 02.01.2020
5142 Clouds 22 1020 47 10000 7.7 50 16:20 02.01.2020
5143 Clouds 22 1020 47 10000 10.3 60 15:45 02.01.2020
5144 Clouds 22 1020 38 10000 8.7 60 15:24 02.01.2020
5145 Clouds 22 1020 38 10000 8.7 60 14:59 02.01.2020
5146 Clouds 22 1020 47 10000 7.7 60 14:39 02.01.2020
5147 Clouds 22 1020 47 10000 7.7 60 14:39 02.01.2020
5148 Clouds 24 1020 47 10000 7.7 60 14:21 02.01.2020
5149 Clouds 24 1020 47 10000 7.7 50 13:58 02.01.2020
5150 Clouds 24 1019 50 10000 6.7 40 13:40 02.01.2020
5151 Clouds 24 1020 50 10000 7.7 60 13:19 02.01.2020
5152 Clouds 23 1020 50 10000 7.2 50 12:43 02.01.2020
5153 Clouds 23 1020 50 10000 7.2 50 12:23 02.01.2020
5154 Clouds 23 1022 57 10000 5.7 40 11:43 02.01.2020
5155 Clouds 23 1022 57 10000 5.7 40 11:24 02.01.2020
5156 Clouds 22 1022 57 10000 5.7 40 10:56 02.01.2020
5157 Clouds 23 1022 60 10000 6.7 40 10:37 02.01.2020
5158 Clouds 21 1022 60 10000 6.7 40 10:18 02.01.2020
5159 Clouds 21 1022 68 10000 5.1 40 09:41 02.01.2020
5160 Clouds 20 1024 73 10000 6.2 50 09:22 02.01.2020
5161 Clouds 20 1023 68 10000 5.7 60 08:44 02.01.2020
5162 Clouds 20 1023 68 10000 5.7 60 08:25 02.01.2020
5163 Clouds 18 1024 77 10000 4.6 50 07:48 02.01.2020
5164 Clouds 18 1023 82 10000 5.7 40 07:28 02.01.2020
5165 Clouds 17 1022 88 10000 4.1 50 06:43 02.01.2020
5166 Clouds 16 1022 93 10000 4.1 50 05:58 02.01.2020
5167 Clouds 14 1020 93 10000 2.81 30 04:38 02.01.2020
5168 Clouds 14 1020 93 10000 2.81 30 04:19 02.01.2020
5169 Clouds 13 1020 87 10000 2.1 10 02:25 02.01.2020
5170 Clouds 14 1020 87 10000 1.5 350 01:57 02.01.2020
5171 Clouds 14 1020 87 10000 1.5 350 01:32 02.01.2020
5172 Clouds 14 1020 87 10000 1 320 00:52 02.01.2020
5173 Clouds 14 1021 87 10000 2.1 360 00:32 02.01.2020
5174 Clouds 15 1021 87 10000 1.5 350 23:48 01.01.2020
5175 Clouds 15 1021 87 10000 1.5 350 23:25 01.01.2020
5176 Clouds 15 1022 87 10000 0.5 0 22:55 01.01.2020
5177 Clouds 15 1022 82 10000 2.6 20 22:37 01.01.2020
5178 Clouds 17 1022 82 10000 2.6 20 22:18 01.01.2020
5179 Clouds 17 1022 72 10000 2.6 20 21:42 01.01.2020
5180 Clouds 17 1022 82 10000 2.6 20 21:21 01.01.2020
5181 Clouds 17 1022 82 10000 2.6 20 20:59 01.01.2020
5182 Clouds 17 1021 72 10000 2.6 30 20:39 01.01.2020
5183 Clouds 17 1021 72 10000 2.6 30 20:20 01.01.2020
5184 Clouds 18 1021 77 10000 3.1 20 19:58 01.01.2020
5185 Clouds 18 1020 64 10000 3.6 30 19:39 01.01.2020
5186 Clouds 18 1020 64 10000 3.6 30 19:20 01.01.2020
5187 Clouds 18 1021 77 10000 4.6 30 18:57 01.01.2020
5188 Clouds 18 1021 77 10000 4.6 30 18:57 01.01.2020
5189 Clouds 19 1020 60 10000 3.1 70 18:39 01.01.2020
5190 Clouds 19 1020 60 10000 3.1 70 18:20 01.01.2020
5191 Clouds 19 1020 68 10000 4.1 50 17:59 01.01.2020
5192 Clouds 19 1019 53 10000 5.1 60 17:40 01.01.2020
5193 Clouds 20 1019 53 10000 5.1 60 17:40 01.01.2020
5194 Clouds 19 1019 53 10000 5.1 60 17:20 01.01.2020
5195 Clouds 19 1020 56 10000 6.7 70 16:59 01.01.2020
5196 Clouds 20 1019 47 10000 8.2 70 16:38 01.01.2020
5197 Clouds 22 1019 47 10000 8.2 70 16:20 01.01.2020
5198 Clouds 22 1019 44 10000 8.7 70 15:57 01.01.2020
5199 Clouds 23 1018 50 10000 7.2 70 15:38 01.01.2020
5200 Clouds 23 1018 50 10000 7.2 70 15:20 01.01.2020
5201 Clouds 23 1018 44 10000 7.7 80 14:56 01.01.2020
5202 Clouds 23 1018 47 10000 8.2 80 14:37 01.01.2020
5203 Clouds 23 1018 47 10000 8.2 80 14:19 01.01.2020
5204 Clouds 24 1018 47 10000 6.7 50 13:55 01.01.2020
5205 Clouds 24 1018 41 10000 5.1 90 13:36 01.01.2020
5206 Clouds 24 1019 44 10000 6.7 60 13:18 01.01.2020
5207 Clouds 24 1018 41 10000 5.1 90 13:18 01.01.2020
5208 Clouds 23 1020 44 10000 6.2 50 12:40 01.01.2020
5209 Clouds 24 1020 44 10000 6.2 50 12:20 01.01.2020
5210 Clouds 24 1020 44 10000 6.2 50 11:57 01.01.2020
5211 Clouds 24 1020 44 10000 6.2 50 11:57 01.01.2020
5212 Clouds 24 1019 44 10000 5.1 70 11:39 01.01.2020
5213 Clouds 23 1019 44 10000 5.1 70 11:20 01.01.2020
5214 Clouds 23 1021 47 10000 4.6 60 10:55 01.01.2020
5215 Clouds 22 1021 49 10000 8.2 70 10:37 01.01.2020
5216 Clouds 22 1022 60 10000 5.1 40 10:18 01.01.2020
5217 Clouds 22 1021 53 10000 7.2 50 09:40 01.01.2020
5218 Clouds 21 1021 53 10000 7.2 50 09:22 01.01.2020
5219 Clouds 20 1022 60 10000 6.2 50 08:57 01.01.2020
5220 Clouds 21 1022 60 10000 6.2 50 08:57 01.01.2020
5221 Clouds 21 1022 60 10000 6.2 50 08:57 01.01.2020
5222 Clouds 20 1022 64 10000 5.7 40 08:38 01.01.2020
5223 Clouds 20 1022 64 10000 5.7 40 08:19 01.01.2020
5224 Clouds 20 1022 64 10000 6.2 50 07:57 01.01.2020
5225 Clouds 19 1023 68 10000 4.1 40 07:38 01.01.2020
5226 Clouds 18 1022 72 10000 3.6 30 06:55 01.01.2020
5227 Clouds 17 1021 77 10000 2.6 40 06:36 01.01.2020
5228 Haze 14 1021 93 10000 5.72 25 05:48 01.01.2020
5229 Clouds 12 1021 93 10000 1.5 60 04:20 01.01.2020
5230 Clouds 14 1020 93 10000 1 0 03:39 01.01.2020
5231 Clouds 15 1020 93 10000 1 0 03:21 01.01.2020
5232 Clouds 15 1019 88 10000 2.6 20 02:41 01.01.2020
5233 Clouds 15 1019 88 10000 2.6 20 02:22 01.01.2020
5234 Clouds 15 1020 88 10000 3.1 30 01:41 01.01.2020
5235 Clouds 14 1020 88 10000 3.1 30 01:22 01.01.2020
5236 Clouds 15 1021 93 10000 2.1 10 00:45 01.01.2020
5237 Clouds 14 1020 93 10000 3.6 60 00:45 01.01.2020
5238 Clouds 15 1021 93 10000 2.1 10 00:26 01.01.2020
5239 Clouds 15 1021 93 10000 2.1 10 23:56 31.12.2019
5240 Clouds 15 1021 93 10000 2.1 340 23:36 31.12.2019
5241 Clouds 16 1021 93 10000 2.1 340 23:18 31.12.2019
5242 Clouds 16 1021 93 10000 2.6 10 22:55 31.12.2019
5243 Clouds 16 1021 88 10000 4.1 30 22:36 31.12.2019
5244 Clouds 16 1021 88 10000 4.1 30 22:18 31.12.2019
5245 Clouds 16 1021 88 10000 2.6 360 21:42 31.12.2019
5246 Clouds 16 1021 88 10000 2.6 360 21:24 31.12.2019
5247 Clouds 17 1021 88 10000 4.6 30 20:57 31.12.2019
5248 Clouds 17 1021 82 10000 5.7 40 20:38 31.12.2019
5249 Clouds 17 1021 82 10000 5.7 40 20:20 31.12.2019
5250 Clouds 17 1021 88 10000 3.1 20 19:55 31.12.2019
5251 Clouds 17 1020 77 10000 3.6 20 19:37 31.12.2019
5252 Clouds 18 1021 77 10000 4.6 40 19:18 31.12.2019
5253 Clouds 18 1021 77 10000 4.6 40 18:55 31.12.2019
5254 Clouds 18 1019 72 10000 4.1 70 18:37 31.12.2019
5255 Clouds 18 1019 72 10000 4.1 70 18:19 31.12.2019
5256 Clouds 19 1020 77 10000 4.6 50 17:55 31.12.2019
5257 Clouds 19 1019 68 10000 3.1 50 17:36 31.12.2019
5258 Clouds 19 1019 68 10000 3.1 50 17:36 31.12.2019
5259 Clouds 20 1019 68 10000 6.7 50 17:18 31.12.2019
5260 Clouds 20 1019 68 10000 6.7 50 16:55 31.12.2019
5261 Clouds 21 1018 56 10000 6.2 60 16:36 31.12.2019
5262 Clouds 21 1018 56 10000 6.2 60 16:18 31.12.2019
5263 Clouds 22 1018 50 10000 7.2 70 15:55 31.12.2019
5264 Clouds 22 1018 50 10000 7.2 70 15:37 31.12.2019
5265 Clouds 22 1018 50 10000 7.2 70 15:19 31.12.2019
5266 Clouds 23 1019 53 10000 4.6 70 14:55 31.12.2019
5267 Clouds 23 1018 50 10000 2.6 60 14:37 31.12.2019
5268 Clouds 23 1018 50 10000 2.6 60 14:37 31.12.2019
5269 Clouds 23 1018 50 10000 2.6 60 14:18 31.12.2019
5270 Clouds 22 1019 57 10000 4.6 60 13:55 31.12.2019
5271 Clouds 22 1019 53 10000 3.1 40 13:37 31.12.2019
5272 Clouds 22 1019 53 10000 3.1 40 13:19 31.12.2019
5273 Clouds 22 1020 57 10000 5.1 70 12:54 31.12.2019
5274 Clouds 22 1021 60 10000 6.7 50 12:36 31.12.2019
5275 Clouds 22 1021 60 10000 6.7 50 12:36 31.12.2019
5276 Clouds 22 1021 60 10000 6.7 50 12:18 31.12.2019
5277 Clouds 22 1021 60 10000 6.7 50 11:54 31.12.2019
5278 Clouds 22 1021 60 10000 4.6 70 11:36 31.12.2019
5279 Clouds 22 1021 60 10000 4.6 70 11:36 31.12.2019
5280 Clouds 22 1021 60 10000 4.6 70 11:18 31.12.2019
5281 Clouds 22 1021 53 10000 5.1 40 10:54 31.12.2019
5282 Clouds 21 1021 53 10000 5.1 40 10:36 31.12.2019
5283 Clouds 21 1021 53 10000 5.1 40 10:36 31.12.2019
5284 Clouds 21 1022 64 10000 6.7 30 10:18 31.12.2019
5285 Clouds 21 1022 64 10000 6.7 30 09:54 31.12.2019
5286 Clouds 21 1022 53 10000 8.7 50 09:36 31.12.2019
5287 Clouds 21 1022 53 10000 8.7 50 09:18 31.12.2019
5288 Clouds 20 1023 68 10000 6.2 40 08:42 31.12.2019
5289 Clouds 20 1023 68 10000 6.2 40 08:21 31.12.2019
5290 Clouds 19 1022 64 10000 4.1 60 07:44 31.12.2019
5291 Clouds 19 1022 64 10000 4.1 60 07:22 31.12.2019
5292 Clouds 17 1023 82 10000 1.5 80 06:51 31.12.2019
5293 Clouds 17 1023 82 10000 1.5 80 06:51 31.12.2019
5294 Clouds 17 1023 72 10000 1.5 90 06:27 31.12.2019
5295 Clouds 13 1021 93 10000 1 190 04:54 31.12.2019
5296 Clouds 13 1021 93 10000 1 330 04:24 31.12.2019
5297 Clouds 14 1020 93 10000 1.5 360 02:57 31.12.2019
5298 Clear 14 1020 93 10000 1.5 360 02:21 31.12.2019
5299 Clear 14 1020 93 10000 2.1 350 01:50 31.12.2019
5300 Clear 14 1020 93 10000 2.1 10 01:31 31.12.2019
5301 Clouds 14 1021 93 10000 1 350 00:49 31.12.2019
5302 Clouds 14 1021 93 10000 0.5 30 00:25 31.12.2019
5303 Clouds 14 1021 93 10000 1.5 10 23:58 30.12.2019
5304 Clouds 15 1021 93 10000 1.5 30 23:40 30.12.2019
5305 Clouds 15 1021 93 10000 1.5 30 23:22 30.12.2019
5306 Clouds 15 1021 93 10000 1.5 50 22:59 30.12.2019
5307 Clouds 15 1022 88 10000 1.5 60 22:41 30.12.2019
5308 Clouds 15 1022 88 10000 1.5 60 22:21 30.12.2019
5309 Clouds 16 1022 82 10000 2.6 50 21:57 30.12.2019
5310 Clouds 17 1021 82 10000 3.6 40 21:39 30.12.2019
5311 Clouds 16 1021 82 10000 3.6 40 21:20 30.12.2019
5312 Clouds 16 1021 82 10000 3.6 40 20:59 30.12.2019
5313 Clouds 17 1021 82 10000 4.6 40 20:41 30.12.2019
5314 Clouds 17 1021 82 10000 4.6 40 20:20 30.12.2019
5315 Clouds 17 1021 82 10000 4.6 40 19:59 30.12.2019
5316 Clouds 17 1021 82 10000 5.7 50 19:39 30.12.2019
5317 Clouds 18 1021 82 10000 5.7 50 19:19 30.12.2019
5318 Clouds 19 1021 77 10000 6.2 50 18:59 30.12.2019
5319 Clouds 19 1019 77 10000 6.2 30 18:41 30.12.2019
5320 Clouds 19 1019 77 10000 6.2 30 18:20 30.12.2019
5321 Clouds 19 1019 77 10000 6.2 50 17:58 30.12.2019
5322 Clouds 19 1018 68 10000 7.7 60 17:39 30.12.2019
5323 Clouds 20 1018 73 10000 6.7 70 17:19 30.12.2019
5324 Clouds 20 1018 73 10000 6.7 70 16:58 30.12.2019
5325 Clouds 21 1018 64 10000 8.2 80 16:38 30.12.2019
5326 Clouds 20 1018 64 10000 8.2 80 16:20 30.12.2019
5327 Clouds 21 1018 60 10000 6.2 70 15:56 30.12.2019
5328 Clouds 21 1017 60 10000 8.2 60 15:37 30.12.2019
5329 Clouds 22 1017 60 10000 8.2 60 15:19 30.12.2019
5330 Clouds 22 1017 53 10000 6.7 30 14:43 30.12.2019
5331 Clouds 22 1017 53 10000 6.7 30 14:20 30.12.2019
5332 Clouds 22 1018 60 10000 5.1 70 13:58 30.12.2019
5333 Clouds 21 1018 60 10000 6.2 70 13:40 30.12.2019
5334 Clouds 22 1018 60 10000 6.2 70 13:40 30.12.2019
5335 Clouds 22 1018 60 10000 6.2 70 13:22 30.12.2019
5336 Clouds 23 1019 60 10000 6.2 50 12:56 30.12.2019
5337 Clouds 23 1018 57 10000 7.7 50 12:37 30.12.2019
5338 Clouds 23 1019 57 10000 6.2 60 12:18 30.12.2019
5339 Clouds 23 1019 57 10000 6.2 60 11:45 30.12.2019
5340 Clouds 22 1019 56 10000 4.6 60 11:20 30.12.2019
5341 Clouds 23 1020 57 10000 6.7 60 10:58 30.12.2019
5342 Clouds 22 1019 56 10000 4.6 50 10:40 30.12.2019
5343 Clouds 22 1019 56 10000 4.6 50 10:19 30.12.2019
5344 Clouds 22 1020 64 10000 6.7 50 09:42 30.12.2019
5345 Clouds 21 1020 64 10000 6.7 50 09:20 30.12.2019
5346 Clouds 20 1022 72 10000 5.7 50 08:56 30.12.2019
5347 Clouds 20 1021 46 10000 6.2 60 08:38 30.12.2019
5348 Clouds 20 1021 46 10000 6.2 60 08:19 30.12.2019
5349 Clouds 19 1021 77 10000 5.1 50 07:44 30.12.2019
5350 Clouds 19 1021 77 10000 5.1 50 07:18 30.12.2019
5351 Clouds 18 1020 82 10000 2.6 20 06:29 30.12.2019
5352 Clouds 16 1019 72 10000 2.4 20 04:29 30.12.2019
5353 Clouds 16 1020 88 10000 2.6 360 03:43 30.12.2019
5354 Clouds 15 1019 93 10000 2.6 10 02:41 30.12.2019
5355 Clouds 16 1019 93 10000 2.6 10 02:21 30.12.2019
5356 Clouds 16 1019 93 10000 5.1 70 01:27 30.12.2019
5357 Clouds 16 1020 93 10000 2.1 40 00:56 30.12.2019
5358 Clouds 16 1020 93 10000 2.1 40 00:36 30.12.2019
5359 Clouds 16 1020 93 10000 3.1 50 23:42 29.12.2019
5360 Clouds 16 1020 93 10000 3.1 50 23:24 29.12.2019
5361 Clouds 17 1021 88 10000 3.6 50 22:58 29.12.2019
5362 Clouds 16 1021 88 10000 3.6 50 22:38 29.12.2019
5363 Clouds 18 1021 88 10000 3.6 50 22:20 29.12.2019
5364 Clouds 17 1020 88 10000 5.1 50 21:55 29.12.2019
5365 Clouds 17 1020 88 10000 5.1 50 21:55 29.12.2019
5366 Clouds 17 1020 88 10000 5.1 50 21:37 29.12.2019
5367 Clouds 17 1020 88 10000 5.1 50 21:18 29.12.2019
5368 Clouds 17 1020 88 10000 5.7 60 20:55 29.12.2019
5369 Rain 17 1019 93 10000 2.55 48 20:37 29.12.2019
5370 Rain 17 1019 93 10000 2.08 45 20:37 29.12.2019
5371 Clouds 18 1020 82 10000 4.6 60 20:18 29.12.2019
5372 Clouds 18 1020 82 10000 4.6 60 19:55 29.12.2019
5373 Rain 18 1019 88 10000 4.1 40 19:37 29.12.2019
5374 Rain 18 1019 88 10000 4.1 40 19:37 29.12.2019
5375 Rain 18 1019 88 10000 4.1 40 19:18 29.12.2019
5376 Clouds 17 1020 82 10000 5.7 50 18:54 29.12.2019
5377 Clouds 17 1019 82 10000 4.6 50 18:36 29.12.2019
5378 Clouds 19 1019 73 10000 4.6 50 18:18 29.12.2019
5379 Clouds 19 1019 73 10000 4.6 50 17:54 29.12.2019
5380 Clouds 19 1017 73 10000 3.6 60 17:36 29.12.2019
5381 Clouds 19 1017 73 10000 3.6 60 17:18 29.12.2019
5382 Clouds 18 1018 68 10000 5.1 50 16:54 29.12.2019
5383 Clouds 18 1018 68 10000 5.1 50 16:54 29.12.2019
5384 Clouds 20 1017 64 10000 6.2 70 16:36 29.12.2019
5385 Clouds 19 1017 64 10000 6.2 70 16:18 29.12.2019
5386 Clouds 19 1017 64 10000 6.2 70 15:54 29.12.2019
5387 Clouds 20 1016 60 10000 6.2 80 15:36 29.12.2019
5388 Clouds 21 1016 57 10000 7.2 70 15:18 29.12.2019
5389 Clouds 23 1016 57 10000 7.2 70 14:46 29.12.2019
5390 Clouds 24 1016 60 10000 5.1 280 14:19 29.12.2019
5391 Clouds 25 1016 57 10000 6.2 70 13:59 29.12.2019
5392 Clouds 25 1016 57 10000 6.2 50 13:40 29.12.2019
5393 Clouds 25 1016 57 10000 6.2 50 13:22 29.12.2019
5394 Clouds 25 1017 57 10000 6.2 50 12:58 29.12.2019
5395 Clouds 25 1017 53 10000 9.3 80 12:39 29.12.2019
5396 Clouds 25 1017 53 10000 9.3 80 12:21 29.12.2019
5397 Clouds 25 1017 57 10000 5.1 70 11:43 29.12.2019
5398 Clouds 25 1017 57 10000 5.1 70 11:23 29.12.2019
5399 Clouds 22 1018 61 10000 6.2 60 10:59 29.12.2019
5400 Clouds 23 1018 64 10000 5.7 30 10:40 29.12.2019
5401 Clouds 23 1018 64 10000 5.7 30 10:19 29.12.2019
5402 Clouds 21 1020 78 10000 5.1 50 09:47 29.12.2019
5403 Clouds 22 1020 78 10000 5.1 50 09:28 29.12.2019
5404 Clouds 22 1020 78 10000 5.1 50 09:28 29.12.2019
5405 Clouds 21 1020 73 10000 3.6 30 08:59 29.12.2019
5406 Clouds 20 1019 68 10000 4.1 70 08:41 29.12.2019
5407 Clouds 20 1019 68 10000 4.1 70 08:23 29.12.2019
5408 Clouds 19 1020 82 10000 3.1 30 07:49 29.12.2019
5409 Clouds 19 1020 82 10000 3.1 30 07:27 29.12.2019
5410 Clouds 19 1021 77 10000 4.1 40 06:52 29.12.2019
5411 Clouds 16 1020 93 10000 2.1 10 06:22 29.12.2019
5412 Clouds 18 1020 93 10000 2.1 10 05:45 29.12.2019
5413 Clouds 15 1019 93 10000 2.6 20 04:33 29.12.2019
5414 Clouds 15 1019 93 10000 2.6 20 03:39 29.12.2019
5415 Clouds 15 1018 93 10000 2.6 40 02:49 29.12.2019
5416 Clouds 15 1018 93 10000 4.1 30 02:19 29.12.2019
5417 Clouds 15 1018 100 10000 4.1 50 01:31 29.12.2019
5418 Clouds 15 1018 100 10000 4.1 50 01:31 29.12.2019
5419 Clouds 16 1018 93 10000 3.6 40 00:51 29.12.2019
5420 Clouds 16 1018 93 10000 2.6 30 00:25 29.12.2019
5421 Rain 15 1019 93 10000 1.5 10 23:56 28.12.2019
5422 Rain 15 1019 93 8000 1 0 23:37 28.12.2019
5423 Rain 15 1020 93 6000 2.1 70 23:18 28.12.2019
5424 Clouds 16 1020 88 10000 2.1 250 22:38 28.12.2019
5425 Clouds 16 1020 88 10000 2.1 250 22:38 28.12.2019
5426 Clouds 16 1020 88 10000 2.1 250 22:19 28.12.2019
5427 Clouds 16 1020 88 10000 2.1 240 21:57 28.12.2019
5428 Clouds 16 1019 93 10000 2.1 210 21:38 28.12.2019
5429 Clouds 16 1019 93 10000 2.1 210 21:20 28.12.2019
5430 Clouds 17 1020 88 10000 1.5 10 20:55 28.12.2019
5431 Clouds 17 1020 88 10000 1.5 10 20:55 28.12.2019
5432 Clouds 17 1020 88 10000 1.5 10 20:36 28.12.2019
5433 Clouds 17 1020 88 10000 1.5 10 20:18 28.12.2019
5434 Clouds 16 1019 93 10000 1.5 350 19:54 28.12.2019
5435 Clouds 18 1019 93 10000 1.5 350 19:36 28.12.2019
5436 Clouds 18 1019 88 10000 2.1 360 19:18 28.12.2019
5437 Clouds 18 1018 77 10000 3.33 49 18:43 28.12.2019
5438 Clouds 18 1018 77 10000 3.33 49 18:20 28.12.2019
5439 Clouds 17 1018 88 10000 2.6 40 17:59 28.12.2019
5440 Clouds 17 1018 82 10000 1 30 17:41 28.12.2019
5441 Clouds 18 1017 82 10000 0.5 0 17:21 28.12.2019
5442 Clouds 18 1017 82 10000 0.5 0 16:55 28.12.2019
5443 Clouds 18 1016 82 10000 4.94 44 16:36 28.12.2019
5444 Clouds 18 1016 82 10000 4.94 44 16:36 28.12.2019
5445 Clouds 18 1016 82 10000 4.94 44 16:18 28.12.2019
5446 Clouds 18 1017 82 10000 2.6 140 15:43 28.12.2019
5447 Clouds 18 1017 82 10000 2.6 140 15:21 28.12.2019
5448 Clouds 18 1017 77 10000 1.5 220 14:48 28.12.2019
5449 Rain 22 1016 73 10000 5.7 250 14:26 28.12.2019
5450 Rain 23 1016 69 10000 3.6 10 13:58 28.12.2019
5451 Clouds 24 1016 56 10000 9.3 290 13:40 28.12.2019
5452 Clouds 24 1016 56 10000 9.3 290 13:21 28.12.2019
5453 Clouds 24 1016 61 10000 3.1 80 12:58 28.12.2019
5454 Clouds 22 1016 64 10000 3.6 80 12:40 28.12.2019
5455 Clouds 21 1016 64 10000 3.6 80 12:21 28.12.2019
5456 Clouds 20 1018 64 10000 3.6 80 11:40 28.12.2019
5457 Clouds 22 1018 64 10000 3.6 80 11:21 28.12.2019
5458 Clouds 22 1019 69 10000 2.1 150 10:56 28.12.2019
5459 Clouds 22 1019 69 10000 2.1 190 10:38 28.12.2019
5460 Clouds 22 1019 69 10000 2.1 190 10:19 28.12.2019
5461 Clouds 22 1020 73 10000 2.6 110 09:54 28.12.2019
5462 Clouds 22 1020 73 10000 1.5 0 09:36 28.12.2019
5463 Clouds 22 1020 73 10000 1.5 0 09:18 28.12.2019
5464 Clouds 20 1021 82 10000 1.5 180 08:42 28.12.2019
5465 Clouds 18 1021 82 10000 1.5 180 08:23 28.12.2019
5466 Clouds 18 1021 82 10000 2.1 190 07:47 28.12.2019
5467 Clouds 18 1021 93 10000 2.6 190 07:22 28.12.2019
5468 Clouds 16 1021 100 10000 2.1 160 05:51 28.12.2019
5469 Clouds 15 1019 100 10000 3.1 70 03:48 28.12.2019
5470 Clouds 15 1019 100 10000 4.1 70 02:51 28.12.2019
5471 Rain 16 1018 100 10000 4.6 60 02:20 28.12.2019
5472 Clouds 16 1018 100 10000 4.1 70 01:56 28.12.2019
5473 Clouds 16 1018 100 10000 4.6 50 01:23 28.12.2019
5474 Clouds 17 1019 93 10000 4.6 70 00:48 28.12.2019
5475 Clouds 16 1019 93 10000 4.6 70 00:30 28.12.2019
5476 Clouds 16 1019 93 10000 3.1 50 23:58 27.12.2019
5477 Clouds 17 1019 100 10000 5.1 70 23:39 27.12.2019
5478 Clouds 17 1019 100 10000 5.1 70 23:19 27.12.2019
5479 Clouds 16 1019 93 10000 5.1 70 22:56 27.12.2019
5480 Clouds 16 1019 93 10000 4.1 70 22:37 27.12.2019
5481 Clouds 16 1019 93 10000 4.1 70 22:19 27.12.2019
5482 Clouds 17 1019 94 10000 3.6 60 21:43 27.12.2019
5483 Clouds 17 1019 94 10000 3.6 60 21:25 27.12.2019
5484 Clouds 17 1019 94 10000 3.1 40 20:58 27.12.2019
5485 Clouds 17 1019 94 10000 3.6 40 20:40 27.12.2019
5486 Clouds 18 1019 94 10000 3.6 40 20:21 27.12.2019
5487 Clouds 18 1018 88 10000 3.48 47 19:41 27.12.2019
5488 Clouds 18 1018 88 10000 3.48 47 19:20 27.12.2019
5489 Clouds 18 1019 88 10000 1 0 18:57 27.12.2019
5490 Clouds 17 1018 88 10000 0.5 0 18:37 27.12.2019
5491 Clouds 17 1018 88 10000 0.5 0 18:19 27.12.2019
5492 Clouds 17 1018 88 10000 2.1 220 17:55 27.12.2019
5493 Clouds 17 1017 88 10000 1.5 10 17:37 27.12.2019
5494 Clouds 17 1017 88 10000 1.5 10 17:18 27.12.2019
5495 Clouds 17 1016 93 10000 4.6 360 16:44 27.12.2019
5496 Clouds 18 1016 93 10000 4.6 360 16:26 27.12.2019
5497 Rain 17 1016 93 10000 7.2 330 15:59 27.12.2019
5498 Clouds 20 1016 61 10000 4.1 60 15:40 27.12.2019
5499 Clouds 22 1016 61 10000 4.1 60 15:20 27.12.2019
5500 Rain 22 1015 61 10000 3.1 60 14:56 27.12.2019
5501 Rain 26 1016 61 10000 7.7 270 14:38 27.12.2019
5502 Clouds 26 1016 57 10000 4.1 80 14:20 27.12.2019
5503 Rain 26 1016 61 10000 7.7 270 14:20 27.12.2019
5504 Clouds 26 1016 57 10000 4.1 80 13:48 27.12.2019
5505 Clouds 26 1016 61 10000 4.6 120 13:25 27.12.2019
5506 Clouds 20 1017 61 10000 3.1 100 12:58 27.12.2019
5507 Clouds 21 1018 61 10000 2.6 0 12:39 27.12.2019
5508 Clouds 24 1018 61 10000 2.6 0 12:21 27.12.2019
5509 Clouds 24 1018 65 10000 3.1 120 11:43 27.12.2019
5510 Clouds 24 1018 65 10000 3.1 120 11:43 27.12.2019
5511 Clouds 23 1018 65 10000 3.1 120 11:23 27.12.2019
5512 Clouds 23 1018 64 10000 1.5 0 10:55 27.12.2019
5513 Clouds 23 1018 60 10000 2.1 170 10:37 27.12.2019
5514 Clouds 22 1018 60 10000 2.1 170 10:19 27.12.2019
5515 Clouds 21 1022 77 10000 3.31 27 09:42 27.12.2019
5516 Clouds 20 1022 77 10000 3.31 27 09:21 27.12.2019
5517 Clouds 20 1020 73 10000 1 0 08:56 27.12.2019
5518 Clouds 20 1020 82 10000 3.31 27 08:36 27.12.2019
5519 Clouds 19 1021 88 10000 1.5 60 07:51 27.12.2019
5520 Clouds 18 1021 93 10000 2.6 60 07:32 27.12.2019
5521 Clouds 19 1020 93 10000 3.1 40 06:37 27.12.2019
5522 Drizzle 18 1019 93 10000 2.1 50 05:37 27.12.2019
5523 Clouds 15 1019 100 10000 3.1 80 03:40 27.12.2019
5524 Clouds 15 1020 100 10000 2.6 80 02:21 27.12.2019
5525 Clouds 16 1020 93 10000 1 0 01:38 27.12.2019
5526 Clouds 16 1020 93 10000 1 0 01:19 27.12.2019
5527 Clouds 16 1020 93 10000 2.1 70 00:43 27.12.2019
5528 Clouds 16 1020 93 10000 2.1 70 00:24 27.12.2019
5529 Clouds 16 1021 93 10000 1 20 23:42 26.12.2019
5530 Clouds 17 1021 93 10000 1 20 23:22 26.12.2019
5531 Clouds 16 1021 93 10000 1.5 0 22:48 26.12.2019
5532 Clouds 16 1021 93 10000 2.61 13 22:23 26.12.2019
5533 Clouds 16 1021 93 10000 2.61 13 21:59 26.12.2019
5534 Rain 16 1021 93 6000 1 0 21:39 26.12.2019
5535 Rain 18 1021 93 6000 1 0 21:20 26.12.2019
5536 Rain 18 1021 82 10000 2.6 150 20:46 26.12.2019
5537 Clouds 18 1020 77 10000 4.07 34 20:23 26.12.2019
5538 Clouds 18 1021 88 10000 1.5 150 19:59 26.12.2019
5539 Clouds 17 1020 82 10000 3.6 110 19:40 26.12.2019
5540 Clouds 16 1020 82 10000 3.6 110 19:22 26.12.2019
5541 Clouds 16 1020 82 10000 4.1 120 18:58 26.12.2019
5542 Clouds 17 1019 77 10000 3.1 70 18:40 26.12.2019
5543 Clouds 19 1019 77 10000 3.1 70 18:20 26.12.2019
5544 Clouds 19 1019 77 10000 3.1 40 17:57 26.12.2019
5545 Clouds 17 1018 77 10000 3.6 10 17:38 26.12.2019
5546 Clouds 17 1018 77 10000 3.6 10 17:38 26.12.2019
5547 Clouds 17 1018 77 10000 3.6 10 17:38 26.12.2019
5548 Clouds 19 1018 77 10000 3.6 10 17:19 26.12.2019
5549 Clouds 20 1017 64 10000 6.7 280 16:45 26.12.2019
5550 Clouds 23 1017 64 10000 6.7 280 16:24 26.12.2019
5551 Clouds 22 1017 64 10000 3.1 280 15:56 26.12.2019
5552 Clouds 20 1017 64 10000 3.1 280 15:56 26.12.2019
5553 Clouds 18 1017 68 10000 5.1 260 15:38 26.12.2019
5554 Clouds 19 1017 68 10000 5.1 260 15:18 26.12.2019
5555 Clouds 20 1017 73 10000 6.2 270 14:40 26.12.2019
5556 Clouds 22 1017 73 10000 6.2 270 14:22 26.12.2019
5557 Clouds 23 1017 73 10000 4.1 270 13:44 26.12.2019
5558 Clouds 23 1017 73 10000 4.1 270 13:44 26.12.2019
5559 Clouds 23 1017 73 10000 4.1 270 13:22 26.12.2019
5560 Clouds 26 1018 54 10000 4.1 70 12:58 26.12.2019
5561 Clouds 26 1018 54 10000 4.1 70 12:58 26.12.2019
5562 Clouds 22 1018 54 10000 4.1 70 12:39 26.12.2019
5563 Clouds 21 1018 54 10000 4.1 70 12:21 26.12.2019
5564 Clouds 25 1019 57 10000 3.6 60 11:58 26.12.2019
5565 Clouds 24 1019 60 10000 2.6 70 11:39 26.12.2019
5566 Clouds 22 1019 60 10000 2.6 70 11:20 26.12.2019
5567 Clouds 21 1020 64 10000 2.6 90 10:49 26.12.2019
5568 Clouds 21 1020 60 10000 4.1 80 10:20 26.12.2019
5569 Clouds 23 1021 64 10000 2.6 50 09:53 26.12.2019
5570 Clouds 23 1021 60 10000 3.6 40 09:32 26.12.2019
5571 Clouds 20 1022 68 10000 2.6 60 08:55 26.12.2019
5572 Clouds 21 1022 73 10000 2.1 30 08:37 26.12.2019
5573 Clouds 19 1022 73 10000 2.1 30 08:18 26.12.2019
5574 Clouds 18 1022 77 10000 3.1 40 07:31 26.12.2019
5575 Clouds 18 1022 82 10000 2.1 30 06:54 26.12.2019
5576 Clouds 17 1021 88 10000 3.74 30 06:33 26.12.2019
5577 Clouds 16 1022 93 10000 2.1 40 05:46 26.12.2019
5578 Clouds 17 1021 93 10000 2.1 20 04:59 26.12.2019
5579 Clouds 16 1019 88 10000 1.74 10 04:32 26.12.2019
5580 Clouds 15 1020 93 10000 3.1 30 03:19 26.12.2019
5581 Clouds 16 1020 93 10000 3.1 50 02:40 26.12.2019
5582 Clouds 15 1020 93 10000 3.1 50 02:19 26.12.2019
5583 Clouds 16 1020 93 10000 2.6 50 01:41 26.12.2019
5584 Mist 16 1020 93 5000 3.1 60 01:22 26.12.2019
5585 Clouds 17 1020 93 10000 3.6 70 00:41 26.12.2019
5586 Clouds 16 1020 93 10000 3.6 70 00:22 26.12.2019
5587 Clouds 16 1021 93 10000 3.1 70 23:42 25.12.2019
5588 Clouds 18 1021 93 10000 3.1 70 23:21 25.12.2019
5589 Clouds 18 1021 93 10000 3.1 50 22:59 25.12.2019
5590 Clouds 16 1022 93 10000 3.6 60 22:40 25.12.2019
5591 Clouds 16 1022 93 10000 3.6 60 22:22 25.12.2019
5592 Clouds 16 1022 93 10000 3.6 60 22:22 25.12.2019
5593 Clouds 16 1022 93 10000 3.6 50 21:59 25.12.2019
5594 Clouds 16 1022 93 10000 2.6 40 21:40 25.12.2019
5595 Clouds 18 1022 93 10000 2.6 40 21:22 25.12.2019
5596 Clouds 18 1021 88 10000 2.6 30 20:57 25.12.2019
5597 Clouds 17 1021 88 10000 2.6 50 20:39 25.12.2019
5598 Clouds 18 1021 88 10000 2.6 50 20:18 25.12.2019
5599 Clouds 17 1021 82 10000 2.6 30 19:44 25.12.2019
5600 Clouds 18 1021 82 10000 2.6 30 19:25 25.12.2019
5601 Clouds 18 1020 82 10000 3.6 50 18:59 25.12.2019
5602 Clouds 19 1019 73 10000 4.1 40 18:39 25.12.2019
5603 Clouds 19 1019 73 10000 4.1 40 18:20 25.12.2019
5604 Clouds 20 1018 68 10000 5.1 60 17:43 25.12.2019
5605 Clouds 21 1018 68 10000 5.7 60 17:21 25.12.2019
5606 Clouds 21 1018 68 10000 5.7 60 16:59 25.12.2019
5607 Clouds 21 1017 53 10000 7.2 80 16:39 25.12.2019
5608 Clouds 21 1017 53 10000 7.2 80 16:19 25.12.2019
5609 Clouds 21 1018 57 10000 4.6 60 15:57 25.12.2019
5610 Clouds 21 1018 57 10000 4.6 60 15:57 25.12.2019
5611 Clouds 21 1017 53 10000 6.2 70 15:39 25.12.2019
5612 Clouds 21 1017 53 10000 6.2 70 15:20 25.12.2019
5613 Clouds 22 1017 57 10000 6.2 70 14:58 25.12.2019
5614 Clouds 22 1017 53 10000 5.1 90 14:39 25.12.2019
5615 Clouds 22 1017 53 10000 5.1 90 14:21 25.12.2019
5616 Clouds 23 1018 57 10000 5.1 80 13:55 25.12.2019
5617 Clouds 23 1017 53 10000 5.1 60 13:36 25.12.2019
5618 Clouds 23 1018 57 10000 4.6 80 13:18 25.12.2019
5619 Clouds 23 1019 53 10000 5.1 80 12:39 25.12.2019
5620 Clouds 22 1019 53 10000 5.1 80 12:20 25.12.2019
5621 Clouds 22 1019 57 10000 4.1 60 11:55 25.12.2019
5622 Clouds 22 1019 57 10000 6.2 60 11:37 25.12.2019
5623 Clouds 22 1019 57 10000 6.2 60 11:18 25.12.2019
5624 Clouds 21 1020 68 10000 5.1 40 10:38 25.12.2019
5625 Clouds 21 1020 68 10000 5.1 40 10:19 25.12.2019
5626 Clouds 21 1020 68 10000 5.1 40 10:19 25.12.2019
5627 Clouds 21 1021 69 10000 4.6 30 09:50 25.12.2019
5628 Clouds 22 1021 68 10000 5.1 90 09:32 25.12.2019
5629 Clouds 20 1022 73 10000 5.7 40 08:51 25.12.2019
5630 Clouds 20 1022 73 10000 5.7 40 08:30 25.12.2019
5631 Clouds 19 1022 82 10000 5.1 50 07:50 25.12.2019
5632 Clouds 19 1021 82 10000 5.1 40 07:31 25.12.2019
5633 Clouds 18 1022 93 10000 4.6 30 06:50 25.12.2019
5634 Clouds 17 1022 93 10000 4.1 50 06:22 25.12.2019
5635 Clouds 16 1021 93 10000 3.1 50 05:18 25.12.2019
5636 Clouds 16 1020 100 10000 3.1 40 04:39 25.12.2019
5637 Clouds 16 1020 100 10000 3.1 40 04:20 25.12.2019
5638 Clouds 16 1019 93 10000 2.1 50 03:41 25.12.2019
5639 Clouds 16 1020 93 10000 4.6 60 02:51 25.12.2019
5640 Clouds 16 1020 93 10000 4.6 60 02:20 25.12.2019
5641 Clouds 16 1020 93 10000 4.1 70 01:25 25.12.2019
5642 Clouds 16 1020 93 10000 1.5 40 00:52 25.12.2019
5643 Clouds 16 1021 93 10000 1.5 70 00:29 25.12.2019
5644 Clouds 16 1021 93 10000 2.1 70 23:56 24.12.2019
5645 Rain 17 1021 88 10000 5.1 60 23:38 24.12.2019
5646 Rain 17 1021 88 10000 5.1 60 23:20 24.12.2019
5647 Clouds 17 1021 88 10000 3.1 40 22:40 24.12.2019
5648 Clouds 17 1021 88 10000 3.1 40 22:21 24.12.2019
5649 Clouds 17 1022 88 10000 4.1 40 21:43 24.12.2019
5650 Clouds 17 1022 88 10000 4.1 40 21:23 24.12.2019
5651 Clouds 17 1022 88 10000 4.1 40 21:23 24.12.2019
5652 Clouds 17 1022 88 10000 6.2 40 20:57 24.12.2019
5653 Clouds 17 1022 88 10000 5.1 40 20:39 24.12.2019
5654 Clouds 17 1022 88 10000 5.1 40 20:18 24.12.2019
5655 Clouds 18 1021 77 10000 4.6 50 19:44 24.12.2019
5656 Clouds 20 1020 73 10000 6.2 50 19:20 24.12.2019
5657 Clouds 19 1020 64 10000 4.1 50 18:44 24.12.2019
5658 Clouds 20 1020 64 10000 4.1 50 18:24 24.12.2019
5659 Clouds 20 1019 73 10000 4.6 50 17:59 24.12.2019
5660 Clouds 20 1019 64 10000 4.1 50 17:38 24.12.2019
5661 Clouds 20 1019 64 10000 4.1 50 17:20 24.12.2019
5662 Clouds 20 1019 64 10000 5.7 80 16:55 24.12.2019
5663 Clouds 19 1019 64 10000 5.7 80 16:37 24.12.2019
5664 Clouds 22 1018 60 10000 5.1 80 16:19 24.12.2019
5665 Clouds 22 1018 60 10000 5.1 80 15:55 24.12.2019
5666 Clouds 22 1018 53 10000 5.1 60 15:36 24.12.2019
5667 Clouds 22 1018 53 10000 5.1 60 15:18 24.12.2019
5668 Clouds 22 1018 53 10000 5.1 90 14:55 24.12.2019
5669 Clouds 20 1018 57 10000 5.1 80 14:37 24.12.2019
5670 Clouds 22 1018 57 10000 5.1 80 14:19 24.12.2019
5671 Clouds 22 1018 60 10000 4.1 60 13:55 24.12.2019
5672 Clouds 22 1018 60 10000 4.1 60 13:55 24.12.2019
5673 Clouds 21 1019 60 10000 4.1 70 13:37 24.12.2019
5674 Clouds 22 1019 60 10000 4.1 70 13:19 24.12.2019
5675 Clouds 22 1019 57 10000 4.6 50 12:55 24.12.2019
5676 Clouds 21 1020 60 10000 5.7 90 12:36 24.12.2019
5677 Clouds 22 1020 60 10000 5.7 90 12:18 24.12.2019
5678 Clouds 22 1020 60 10000 3.6 50 11:55 24.12.2019
5679 Clouds 22 1021 64 10000 3.6 40 11:36 24.12.2019
5680 Clouds 21 1021 64 10000 3.6 40 11:18 24.12.2019
5681 Clouds 21 1021 69 10000 3.1 30 10:55 24.12.2019
5682 Clouds 22 1021 73 10000 3.1 10 10:36 24.12.2019
5683 Clouds 21 1021 73 10000 3.1 10 10:18 24.12.2019
5684 Clouds 20 1022 77 10000 3.1 30 09:54 24.12.2019
5685 Clouds 19 1021 82 10000 2.6 30 09:36 24.12.2019
5686 Clouds 19 1021 82 10000 2.6 30 09:18 24.12.2019
5687 Clouds 18 1022 93 10000 3.1 30 08:43 24.12.2019
5688 Clouds 17 1022 93 10000 3.1 30 08:20 24.12.2019
5689 Clouds 18 1022 82 10000 3.68 26 07:45 24.12.2019
5690 Clouds 18 1022 82 10000 3.68 26 07:25 24.12.2019
5691 Clouds 17 1023 88 10000 5.1 70 06:58 24.12.2019
5692 Clouds 17 1021 93 10000 3.6 50 06:38 24.12.2019
5693 Clouds 17 1021 93 10000 3.6 50 06:18 24.12.2019
5694 Clouds 16 1021 100 10000 2.01 30 05:20 24.12.2019
5695 Clouds 15 1022 100 10000 3.1 80 04:44 24.12.2019
5696 Clouds 16 1022 93 10000 3.1 70 03:50 24.12.2019
5697 Rain 15 1021 100 10000 4.1 90 03:18 24.12.2019
5698 Clouds 15 1021 100 10000 3.1 130 02:21 24.12.2019
5699 Clouds 15 1021 100 10000 3.1 130 01:50 24.12.2019
5700 Clouds 15 1021 93 10000 3.6 100 01:21 24.12.2019
5701 Clouds 16 1021 93 10000 3.1 80 00:45 24.12.2019
5702 Clouds 16 1021 93 10000 4.1 80 00:23 24.12.2019
5703 Clouds 16 1022 93 10000 3.6 80 23:56 23.12.2019
5704 Clouds 16 1022 93 10000 4.1 90 23:37 23.12.2019
5705 Clouds 16 1022 93 10000 4.1 90 23:19 23.12.2019
5706 Clouds 16 1022 93 10000 4.1 80 22:56 23.12.2019
5707 Clouds 16 1022 93 10000 3.6 80 22:36 23.12.2019
5708 Clouds 17 1022 93 10000 3.6 80 22:18 23.12.2019
5709 Clouds 17 1022 100 10000 3.6 80 21:55 23.12.2019
5710 Clouds 17 1021 88 10000 6.2 80 21:36 23.12.2019
5711 Clouds 17 1021 88 10000 6.2 80 21:18 23.12.2019
5712 Clouds 17 1022 93 10000 4.1 50 20:56 23.12.2019
5713 Clouds 17 1021 88 10000 4.6 50 20:38 23.12.2019
5714 Clouds 17 1021 88 10000 4.6 50 20:18 23.12.2019
5715 Clouds 17 1022 93 10000 3.6 50 19:55 23.12.2019
5716 Clouds 18 1020 88 10000 3.6 70 19:37 23.12.2019
5717 Clouds 18 1020 88 10000 3.6 70 19:19 23.12.2019
5718 Clouds 17 1021 88 10000 4.1 60 18:55 23.12.2019
5719 Clouds 17 1021 88 10000 3.6 50 18:37 23.12.2019
5720 Clouds 17 1021 88 10000 3.6 50 18:19 23.12.2019
5721 Clouds 18 1021 88 10000 4.6 50 17:55 23.12.2019
5722 Clouds 19 1019 64 10000 4.1 60 17:37 23.12.2019
5723 Clouds 19 1019 64 10000 4.1 60 17:18 23.12.2019
5724 Clouds 20 1018 60 10000 4.1 50 16:42 23.12.2019
5725 Clouds 22 1018 57 10000 6.7 70 16:19 23.12.2019
5726 Clouds 21 1018 57 10000 6.7 70 15:59 23.12.2019
5727 Clouds 20 1018 57 10000 7.2 70 15:38 23.12.2019
5728 Clouds 20 1018 57 10000 7.2 70 15:20 23.12.2019
5729 Clouds 20 1018 57 10000 7.2 60 14:59 23.12.2019
5730 Clouds 21 1018 57 10000 5.7 60 14:41 23.12.2019
5731 Clouds 22 1018 57 10000 5.7 60 14:23 23.12.2019
5732 Clouds 22 1019 53 10000 5.7 70 13:58 23.12.2019
5733 Clouds 21 1019 53 10000 5.7 70 13:40 23.12.2019
5734 Clouds 20 1019 60 10000 4.6 60 13:22 23.12.2019
5735 Clouds 21 1019 53 10000 5.7 70 13:22 23.12.2019
5736 Clouds 20 1019 60 10000 4.6 60 12:57 23.12.2019
5737 Clouds 21 1020 60 10000 4.1 60 12:39 23.12.2019
5738 Clouds 22 1020 60 10000 4.1 60 12:20 23.12.2019
5739 Clouds 24 1020 60 10000 4.1 60 11:44 23.12.2019
5740 Clouds 24 1020 60 10000 4.1 60 11:44 23.12.2019
5741 Clouds 22 1021 64 10000 3.6 60 11:26 23.12.2019
5742 Clouds 22 1021 64 10000 3.6 60 10:59 23.12.2019
5743 Clouds 22 1022 64 10000 2.6 50 10:41 23.12.2019
5744 Clouds 22 1022 64 10000 2.6 50 10:21 23.12.2019
5745 Clouds 22 1023 68 10000 3.6 30 09:59 23.12.2019
5746 Clouds 20 1023 77 10000 3.1 40 09:40 23.12.2019
5747 Clouds 19 1023 77 10000 3.1 40 09:21 23.12.2019
5748 Clouds 19 1023 77 10000 4.1 50 08:58 23.12.2019
5749 Clouds 19 1023 88 10000 2.1 70 08:40 23.12.2019
5750 Clouds 18 1023 88 10000 2.1 70 08:22 23.12.2019
5751 Clouds 17 1023 88 10000 2.6 70 07:47 23.12.2019
5752 Clouds 17 1023 88 10000 2.6 70 07:20 23.12.2019
5753 Clouds 17 1023 93 10000 4.1 70 06:53 23.12.2019
5754 Clouds 18 1022 88 10000 5.1 70 06:26 23.12.2019
5755 Clouds 16 1023 100 10000 3.1 30 05:56 23.12.2019
5756 Clouds 16 1021 93 10000 2.6 70 05:29 23.12.2019
5757 Clouds 16 1022 100 10000 2.6 60 04:31 23.12.2019
5758 Clouds 16 1022 100 10000 3.1 70 03:26 23.12.2019
5759 Clouds 16 1021 93 10000 4.1 60 02:42 23.12.2019
5760 Clouds 16 1021 93 10000 4.1 60 02:19 23.12.2019
5761 Clouds 15 1021 100 10000 4.6 70 01:42 23.12.2019
5762 Clouds 15 1021 100 10000 4.6 70 01:23 23.12.2019
5763 Clouds 16 1021 93 10000 4.1 70 00:43 23.12.2019
5764 Clouds 16 1021 93 10000 4.1 70 00:23 23.12.2019
5765 Clouds 16 1022 93 10000 3.6 60 23:40 22.12.2019
5766 Clouds 17 1022 93 10000 3.6 60 23:21 22.12.2019
5767 Clouds 17 1023 93 10000 3.1 30 22:58 22.12.2019
5768 Clouds 17 1023 93 10000 3.1 30 22:58 22.12.2019
5769 Clouds 17 1022 93 10000 3.6 60 22:40 22.12.2019
5770 Clouds 17 1022 93 10000 3.6 60 22:21 22.12.2019
5771 Clouds 17 1023 100 10000 5.1 50 21:58 22.12.2019
5772 Rain 17 1022 93 10000 3.1 50 21:40 22.12.2019
5773 Rain 17 1022 93 10000 3.1 50 21:21 22.12.2019
5774 Clouds 18 1023 93 10000 3.1 50 20:58 22.12.2019
5775 Clouds 18 1022 88 10000 2.6 20 20:39 22.12.2019
5776 Clouds 17 1022 88 10000 2.6 20 20:19 22.12.2019
5777 Clouds 17 1023 93 10000 2.6 30 19:57 22.12.2019
5778 Clouds 17 1021 82 10000 3.1 20 19:38 22.12.2019
5779 Clouds 17 1021 82 10000 3.1 20 19:19 22.12.2019
5780 Clouds 18 1020 82 10000 5.1 50 18:42 22.12.2019
5781 Clouds 17 1020 82 10000 5.1 50 18:23 22.12.2019
5782 Clouds 18 1021 82 10000 5.1 60 17:56 22.12.2019
5783 Clouds 18 1019 77 10000 3.6 70 17:38 22.12.2019
5784 Clouds 18 1019 77 10000 3.6 70 17:19 22.12.2019
5785 Clouds 19 1020 77 10000 5.7 40 16:57 22.12.2019
5786 Clouds 19 1019 73 10000 6.2 60 16:38 22.12.2019
5787 Clouds 19 1019 73 10000 6.2 60 16:20 22.12.2019
5788 Clouds 20 1019 64 10000 7.7 60 15:56 22.12.2019
5789 Clouds 20 1019 64 10000 7.7 60 15:56 22.12.2019
5790 Clouds 20 1018 56 10000 8.7 50 15:38 22.12.2019
5791 Clouds 21 1018 57 10000 8.2 50 15:19 22.12.2019
5792 Clouds 21 1018 57 10000 8.2 50 14:55 22.12.2019
5793 Clouds 21 1017 57 10000 9.3 90 14:36 22.12.2019
5794 Clouds 21 1017 57 10000 9.3 90 14:18 22.12.2019
5795 Clouds 21 1018 60 10000 6.7 70 13:55 22.12.2019
5796 Clouds 21 1018 53 10000 6.2 80 13:36 22.12.2019
5797 Clouds 21 1018 53 10000 6.2 80 13:18 22.12.2019
5798 Clouds 20 1019 60 10000 6.2 70 12:55 22.12.2019
5799 Clouds 20 1019 60 10000 6.2 70 12:55 22.12.2019
5800 Clouds 20 1019 57 10000 5.7 70 12:37 22.12.2019
5801 Clouds 20 1019 57 10000 5.7 70 12:18 22.12.2019
5802 Clouds 20 1020 53 10000 5.1 60 11:56 22.12.2019
5803 Clouds 21 1020 64 10000 4.1 30 11:37 22.12.2019
5804 Clouds 21 1021 68 10000 5.7 50 11:18 22.12.2019
5805 Clouds 21 1021 68 10000 5.7 50 10:54 22.12.2019
5806 Clouds 21 1021 64 10000 3.6 20 10:36 22.12.2019
5807 Clouds 22 1021 64 10000 3.6 20 10:18 22.12.2019
5808 Clouds 20 1022 73 10000 5.1 30 09:56 22.12.2019
5809 Clouds 19 1021 72 10000 4.6 90 09:37 22.12.2019
5810 Clouds 19 1023 82 10000 5.1 40 09:19 22.12.2019
5811 Clouds 19 1022 82 10000 4.1 30 08:39 22.12.2019
5812 Clouds 19 1022 82 10000 4.1 30 08:21 22.12.2019
5813 Clouds 18 1023 82 10000 0.16 325 07:40 22.12.2019
5814 Clouds 18 1023 82 10000 0.16 325 07:21 22.12.2019
5815 Clouds 16 1022 88 10000 0.16 325 06:41 22.12.2019
5816 Clouds 15 1023 93 10000 0.16 325 05:56 22.12.2019
5817 Clouds 14 1022 93 10000 0.16 325 05:24 22.12.2019
5818 Clouds 14 1021 100 10000 0.73 51 04:31 22.12.2019
5819 Clouds 13 1022 93 10000 1.5 240 03:58 22.12.2019
5820 Clouds 13 1021 93 10000 1 0 02:43 22.12.2019
5821 Clouds 13 1021 93 10000 1 0 02:43 22.12.2019
5822 Clouds 16 1021 93 10000 1 0 01:54 22.12.2019
5823 Clouds 16 1021 93 10000 2.1 80 01:31 22.12.2019
5824 Clouds 14 1021 93 10000 3.6 30 00:48 22.12.2019
5825 Clouds 14 1021 93 10000 3.6 30 00:26 22.12.2019
5826 Clouds 14 1022 87 10000 5.7 30 23:57 21.12.2019
5827 Clouds 14 1022 88 10000 5.7 40 23:38 21.12.2019
5828 Clouds 14 1022 88 10000 5.7 40 23:19 21.12.2019
5829 Clouds 14 1023 93 10000 4.1 30 22:45 21.12.2019
5830 Clouds 14 1023 93 10000 4.1 30 22:20 21.12.2019
5831 Clouds 17 1023 93 10000 3.6 20 21:58 21.12.2019
5832 Clouds 17 1023 93 10000 3.1 10 21:38 21.12.2019
5833 Clouds 17 1023 93 10000 3.1 10 21:20 21.12.2019
5834 Clouds 15 1023 93 10000 2.1 360 20:59 21.12.2019
5835 Clouds 15 1022 93 10000 1.96 63 20:40 21.12.2019
5836 Clouds 15 1022 93 10000 3.04 42 20:22 21.12.2019
5837 Clouds 15 1023 93 10000 1.5 30 19:58 21.12.2019
5838 Clouds 15 1023 93 10000 1 250 19:40 21.12.2019
5839 Clouds 16 1023 93 10000 1 0 19:19 21.12.2019
5840 Clouds 16 1023 93 10000 1 0 18:55 21.12.2019
5841 Clouds 16 1021 88 10000 3.04 42 18:37 21.12.2019
5842 Clouds 16 1021 88 10000 3.04 42 18:19 21.12.2019
5843 Rain 17 1021 93 10000 4.1 30 17:55 21.12.2019
5844 Clouds 17 1019 82 10000 3.04 42 17:36 21.12.2019
5845 Clouds 17 1019 82 10000 3.87 56 17:18 21.12.2019
5846 Clouds 17 1019 82 10000 3.87 56 17:18 21.12.2019
5847 Rain 18 1018 77 10000 3.87 56 16:41 21.12.2019
5848 Rain 17 1018 77 10000 3.87 56 16:19 21.12.2019
5849 Clouds 21 1019 77 10000 5.1 50 15:57 21.12.2019
5850 Clouds 19 1018 60 10000 2.6 330 15:39 21.12.2019
5851 Clouds 19 1018 60 10000 2.6 330 15:20 21.12.2019
5852 Thunderstorm 21 1018 57 10000 7.2 40 14:57 21.12.2019
5853 Clouds 22 1017 53 10000 5.1 70 14:38 21.12.2019
5854 Clouds 22 1017 53 10000 5.1 70 14:20 21.12.2019
5855 Clouds 22 1018 50 10000 5.1 30 13:56 21.12.2019
5856 Clouds 22 1017 50 10000 7.2 50 13:38 21.12.2019
5857 Clouds 22 1017 50 10000 7.2 50 13:18 21.12.2019
5858 Clouds 22 1018 50 10000 5.7 50 12:55 21.12.2019
5859 Clouds 20 1019 50 10000 5.7 50 12:37 21.12.2019
5860 Clouds 22 1019 50 10000 5.7 50 12:18 21.12.2019
5861 Clouds 21 1019 53 10000 4.6 20 11:44 21.12.2019
5862 Clouds 25 1019 53 10000 4.6 20 11:26 21.12.2019
5863 Clouds 23 1020 57 10000 6.2 30 10:57 21.12.2019
5864 Clouds 23 1020 57 10000 6.2 30 10:57 21.12.2019
5865 Clouds 21 1020 60 10000 5.1 30 10:38 21.12.2019
5866 Clouds 21 1020 60 10000 5.1 30 10:20 21.12.2019
5867 Clouds 20 1021 64 10000 5.1 50 09:56 21.12.2019
5868 Clouds 20 1022 64 10000 4.6 50 09:37 21.12.2019
5869 Clouds 20 1022 64 10000 4.6 50 09:18 21.12.2019
5870 Clouds 21 1022 73 10000 4.6 40 08:44 21.12.2019
5871 Clouds 20 1022 73 10000 4.6 40 08:25 21.12.2019
5872 Clouds 16 1022 73 10000 5.7 50 07:46 21.12.2019
5873 Clouds 17 1022 77 10000 5.7 20 07:22 21.12.2019
5874 Clouds 17 1022 88 10000 4.1 40 06:46 21.12.2019
5875 Clouds 18 1022 88 10000 4.1 40 06:26 21.12.2019
5876 Clouds 17 1022 93 10000 4.1 40 05:55 21.12.2019
5877 Clouds 16 1020 93 10000 3.1 50 04:58 21.12.2019
5878 Clouds 16 1020 93 10000 3.1 50 04:58 21.12.2019
5879 Clouds 16 1020 93 10000 2.6 40 03:59 21.12.2019
5880 Clouds 16 1020 93 10000 2.6 40 03:18 21.12.2019
5881 Clouds 16 1020 93 10000 3.6 10 02:18 21.12.2019
5882 Clouds 16 1020 93 10000 2.6 360 01:38 21.12.2019
5883 Clouds 16 1020 93 10000 2.6 360 01:20 21.12.2019
5884 Clouds 16 1021 88 10000 3.1 360 00:37 21.12.2019
5885 Clouds 16 1021 88 10000 3.1 360 00:18 21.12.2019
5886 Clouds 16 1021 88 10000 5.1 30 23:38 20.12.2019
5887 Clouds 17 1021 82 10000 5.1 60 23:19 20.12.2019
5888 Clouds 17 1021 82 10000 5.1 60 22:43 20.12.2019
5889 Clouds 17 1021 82 10000 5.1 60 22:22 20.12.2019
5890 Clouds 17 1022 88 10000 3.1 50 21:59 20.12.2019
5891 Clouds 17 1022 82 10000 4.1 50 21:40 20.12.2019
5892 Clouds 17 1022 82 10000 4.1 50 21:20 20.12.2019
5893 Clouds 17 1022 82 10000 3.6 50 20:56 20.12.2019
5894 Clouds 17 1022 82 10000 3.6 50 20:36 20.12.2019
5895 Clouds 17 1022 82 10000 3.6 50 20:18 20.12.2019
5896 Clouds 18 1022 77 10000 5.1 70 19:42 20.12.2019
5897 Clouds 19 1021 77 10000 4.1 70 19:21 20.12.2019
5898 Clouds 19 1021 77 10000 4.1 70 18:58 20.12.2019
5899 Clouds 18 1021 77 10000 4.1 50 18:39 20.12.2019
5900 Clouds 18 1021 77 10000 4.1 50 18:39 20.12.2019
5901 Clouds 19 1021 77 10000 4.1 50 18:21 20.12.2019
5902 Clouds 19 1020 68 10000 5.1 60 17:55 20.12.2019
5903 Clouds 20 1019 68 10000 5.7 80 17:37 20.12.2019
5904 Clouds 20 1019 68 10000 5.7 80 17:18 20.12.2019
5905 Clouds 21 1018 53 10000 6.2 80 16:40 20.12.2019
5906 Clouds 22 1018 53 10000 6.2 80 16:21 20.12.2019
5907 Clouds 22 1017 50 10000 5.1 90 15:57 20.12.2019
5908 Clouds 22 1017 50 10000 5.1 90 15:39 20.12.2019
5909 Clouds 23 1017 47 10000 5.1 60 15:20 20.12.2019
5910 Clouds 23 1017 47 10000 5.1 20 14:59 20.12.2019
5911 Clouds 23 1017 47 10000 5.1 20 14:41 20.12.2019
5912 Clouds 23 1018 47 10000 4.6 50 14:23 20.12.2019
5913 Clouds 23 1018 47 10000 4.6 60 13:56 20.12.2019
5914 Clouds 24 1019 50 10000 4.1 60 13:37 20.12.2019
5915 Clouds 24 1019 50 10000 4.1 60 13:18 20.12.2019
5916 Clouds 25 1018 44 10000 3.1 80 12:55 20.12.2019
5917 Clouds 24 1019 50 10000 5.1 60 12:36 20.12.2019
5918 Clouds 24 1019 50 10000 5.1 60 12:18 20.12.2019
5919 Clouds 24 1019 47 10000 3.1 60 11:56 20.12.2019
5920 Clouds 23 1019 47 10000 3.1 60 11:37 20.12.2019
5921 Clouds 23 1020 50 10000 5.7 50 11:18 20.12.2019
5922 Clouds 23 1021 43 10000 5.1 90 10:54 20.12.2019
5923 Clouds 22 1011 47 0 0.45 157 10:36 20.12.2019
5924 Clouds 22 1021 43 10000 3.6 60 10:18 20.12.2019
5925 Clouds 22 1022 49 10000 5.7 40 09:41 20.12.2019
5926 Clouds 22 1022 46 10000 5.7 40 09:21 20.12.2019
5927 Clouds 21 1022 46 10000 5.1 40 08:44 20.12.2019
5928 Clouds 20 1023 52 10000 5.1 60 08:26 20.12.2019
5929 Clouds 20 1022 60 10000 4.1 50 07:59 20.12.2019
5930 Clouds 19 1022 60 10000 4.1 50 07:41 20.12.2019
5931 Clouds 17 1023 77 10000 2.6 70 07:20 20.12.2019
5932 Clouds 16 1022 87 10000 5.77 32 06:52 20.12.2019
5933 Mist 15 1023 93 5000 5.77 32 06:33 20.12.2019
5934 Mist 13 1022 87 8000 1.5 240 05:56 20.12.2019
5935 Mist 12 1022 87 8000 1.5 240 05:38 20.12.2019
5936 Clouds 11 1021 93 10000 0.5 0 04:34 20.12.2019
5937 Clouds 14 1021 93 10000 2.3 12 03:31 20.12.2019
5938 Clouds 13 1020 93 10000 1.5 360 02:45 20.12.2019
5939 Clouds 15 1020 87 10000 2.29 25 01:54 20.12.2019
5940 Clouds 15 1021 87 10000 2.1 10 01:34 20.12.2019
5941 Clouds 15 1021 87 10000 2.1 10 00:49 20.12.2019
5942 Clouds 15 1022 87 10000 2.1 360 00:30 20.12.2019
5943 Clouds 15 1022 87 10000 2.1 360 23:57 19.12.2019
5944 Clouds 15 1022 87 10000 2.1 360 23:38 19.12.2019
5945 Clouds 16 1022 87 10000 2.6 10 23:19 19.12.2019
5946 Clouds 16 1022 87 10000 2.6 10 23:19 19.12.2019
5947 Clouds 15 1022 87 10000 3.1 30 22:38 19.12.2019
5948 Clouds 16 1022 87 10000 3.1 30 22:20 19.12.2019
5949 Clouds 15 1022 82 10000 3.6 20 21:56 19.12.2019
5950 Clouds 15 1022 82 10000 3.6 20 21:38 19.12.2019
5951 Clouds 15 1022 82 10000 3.6 30 21:19 19.12.2019
5952 Clouds 15 1022 82 10000 4.6 40 20:56 19.12.2019
5953 Clouds 16 1022 77 10000 4.1 30 20:37 19.12.2019
5954 Clouds 16 1022 77 10000 4.1 30 20:37 19.12.2019
5955 Clouds 17 1022 77 10000 4.1 30 20:18 19.12.2019
5956 Clouds 17 1022 77 10000 4.1 30 20:18 19.12.2019
5957 Clouds 17 1021 63 10000 3.1 40 19:57 19.12.2019
5958 Clouds 17 1021 63 10000 3.1 40 19:39 19.12.2019
5959 Clouds 17 1021 72 10000 5.1 40 19:19 19.12.2019
5960 Clouds 16 1021 72 10000 4.1 40 18:56 19.12.2019
5961 Clouds 16 1021 72 10000 4.1 40 18:38 19.12.2019
5962 Clouds 16 1020 63 10000 5.1 60 18:18 19.12.2019
5963 Clouds 17 1020 52 10000 6.2 70 17:55 19.12.2019
5964 Clouds 17 1019 52 10000 6.2 80 17:37 19.12.2019
5965 Clouds 20 1019 52 10000 6.2 80 17:18 19.12.2019
5966 Clouds 20 1018 33 10000 10.3 90 16:55 19.12.2019
5967 Clouds 21 1019 38 10000 7.7 80 16:36 19.12.2019
5968 Clouds 22 1019 38 10000 7.7 80 16:18 19.12.2019
5969 Clouds 22 1018 41 10000 5.1 90 15:55 19.12.2019
5970 Clouds 23 1018 38 10000 5.7 40 15:36 19.12.2019
5971 Clouds 23 1018 38 10000 5.7 40 15:18 19.12.2019
5972 Clouds 23 1018 36 10000 4.1 60 14:42 19.12.2019
5973 Clouds 24 1018 41 10000 6.2 50 14:20 19.12.2019
5974 Clouds 24 1018 29 10000 5.1 50 13:58 19.12.2019
5975 Clouds 24 1019 33 10000 7.7 60 13:38 19.12.2019
5976 Clouds 24 1019 33 10000 7.7 60 13:19 19.12.2019
5977 Clouds 24 1019 27 10000 10.3 90 12:57 19.12.2019
5978 Clouds 24 1020 31 10000 8.2 70 12:39 19.12.2019
5979 Clouds 24 1020 31 10000 8.2 70 12:38 19.12.2019
5980 Clouds 23 1020 31 10000 8.2 70 12:19 19.12.2019
5981 Clouds 23 1020 31 10000 8.2 70 12:19 19.12.2019
5982 Clouds 23 1020 31 10000 8.2 70 12:19 19.12.2019
5983 Clouds 23 1021 38 10000 7.7 60 11:58 19.12.2019
5984 Clouds 23 1021 38 10000 7.7 60 11:40 19.12.2019
5985 Clouds 23 1020 33 10000 4.1 70 11:18 19.12.2019
5986 Clouds 23 1020 33 10000 4.1 70 10:56 19.12.2019
5987 Clouds 22 1021 46 10000 5.1 50 10:38 19.12.2019
5988 Clouds 21 1021 46 10000 5.1 50 10:19 19.12.2019
5989 Clouds 21 1021 49 10000 4.6 50 09:54 19.12.2019
5990 Clouds 20 1022 52 10000 6.7 50 09:36 19.12.2019
5991 Clouds 21 1022 52 10000 6.7 50 09:18 19.12.2019
5992 Clouds 19 1023 68 10000 5.7 50 08:41 19.12.2019
5993 Clouds 19 1023 68 10000 5.7 50 08:19 19.12.2019
5994 Clouds 18 1022 72 10000 4.6 60 07:58 19.12.2019
5995 Clouds 18 1022 72 10000 4.6 60 07:38 19.12.2019
5996 Clouds 17 1023 88 10000 4.1 20 07:19 19.12.2019
5997 Clouds 17 1022 77 10000 2.1 30 06:50 19.12.2019
5998 Clouds 17 1022 77 10000 2.1 30 06:50 19.12.2019
5999 Clouds 16 1023 93 10000 3.6 20 06:29 19.12.2019
6000 Clouds 15 1021 87 10000 3.6 40 05:55 19.12.2019
6001 Clouds 14 1022 93 10000 2.6 20 05:36 19.12.2019
6002 Clouds 14 1021 93 10000 4 30 04:52 19.12.2019
6003 Clouds 15 1021 93 10000 3.1 20 03:23 19.12.2019
6004 Clouds 14 1021 93 10000 3.1 30 02:23 19.12.2019
6005 Clouds 15 1021 88 10000 4.1 50 01:23 19.12.2019
6006 Clouds 14 1022 93 10000 4.6 50 00:44 19.12.2019
6007 Clouds 15 1022 88 10000 4.1 40 00:24 19.12.2019
6008 Clouds 15 1022 88 10000 3.1 40 23:57 18.12.2019
6009 Clouds 15 1022 88 10000 4.1 50 23:38 18.12.2019
6010 Clouds 15 1022 88 10000 4.1 50 23:18 18.12.2019
6011 Clouds 15 1022 88 10000 4.1 60 22:55 18.12.2019
6012 Clouds 16 1022 88 10000 4.6 60 22:37 18.12.2019
6013 Clouds 17 1022 88 10000 4.6 60 22:19 18.12.2019
6014 Clouds 16 1021 82 10000 5.1 70 21:56 18.12.2019
6015 Clouds 16 1022 88 10000 5.7 50 21:38 18.12.2019
6016 Clouds 17 1022 88 10000 5.7 50 21:19 18.12.2019
6017 Clouds 16 1022 88 10000 5.1 50 20:55 18.12.2019
6018 Clouds 18 1022 82 10000 5.1 60 20:37 18.12.2019
6019 Clouds 18 1022 82 10000 5.1 60 20:19 18.12.2019
6020 Clouds 18 1021 77 10000 7.7 60 19:55 18.12.2019
6021 Clouds 18 1021 77 10000 5.7 60 19:37 18.12.2019
6022 Clouds 18 1021 77 10000 5.7 60 19:18 18.12.2019
6023 Clouds 18 1019 77 10000 6.2 70 18:44 18.12.2019
6024 Clouds 19 1020 77 10000 5.1 70 18:25 18.12.2019
6025 Clouds 19 1018 68 10000 6.7 70 17:57 18.12.2019
6026 Clouds 19 1019 68 10000 6.7 80 17:39 18.12.2019
6027 Clouds 20 1019 68 10000 6.7 80 17:19 18.12.2019
6028 Clouds 20 1018 64 10000 5.7 70 16:57 18.12.2019
6029 Clouds 19 1019 64 10000 6.7 70 16:38 18.12.2019
6030 Clouds 19 1019 64 10000 6.7 70 16:20 18.12.2019
6031 Clouds 20 1018 60 10000 7.7 70 15:55 18.12.2019
6032 Clouds 21 1018 57 10000 7.2 80 15:37 18.12.2019
6033 Clouds 21 1018 57 10000 7.2 80 15:37 18.12.2019
6034 Clouds 21 1018 57 10000 7.2 70 15:19 18.12.2019
6035 Clouds 22 1018 57 10000 6.2 80 14:42 18.12.2019
6036 Clouds 23 1018 57 10000 6.2 80 14:22 18.12.2019
6037 Clouds 24 1018 53 10000 5.7 40 13:57 18.12.2019
6038 Clouds 23 1018 50 10000 6.2 50 13:39 18.12.2019
6039 Clouds 23 1018 50 10000 6.2 50 13:20 18.12.2019
6040 Clouds 23 1018 53 10000 6.7 40 12:59 18.12.2019
6041 Clouds 23 1019 53 10000 5.1 50 12:38 18.12.2019
6042 Clouds 22 1019 53 10000 5.1 50 12:20 18.12.2019
6043 Clouds 22 1019 57 10000 5.7 50 11:56 18.12.2019
6044 Clouds 22 1020 53 10000 5.1 30 11:38 18.12.2019
6045 Clouds 22 1020 53 10000 5.1 30 11:19 18.12.2019
6046 Clouds 22 1020 57 10000 5.7 60 10:56 18.12.2019
6047 Clouds 22 1020 56 10000 4.1 60 10:38 18.12.2019
6048 Clouds 22 1020 56 10000 4.1 60 10:20 18.12.2019
6049 Clouds 22 1021 56 10000 5.7 50 09:50 18.12.2019
6050 Clouds 21 1021 60 10000 5.1 30 09:50 18.12.2019
6051 Clouds 22 1021 60 10000 5.1 30 09:18 18.12.2019
6052 Clouds 20 1022 72 10000 4.1 30 08:41 18.12.2019
6053 Clouds 20 1022 72 10000 4.1 30 08:23 18.12.2019
6054 Clouds 18 1022 88 10000 5.1 20 07:55 18.12.2019
6055 Clouds 18 1022 88 10000 5.1 20 07:36 18.12.2019
6056 Clouds 18 1022 88 10000 5.1 20 07:18 18.12.2019
6057 Clouds 17 1021 88 10000 7.7 50 06:49 18.12.2019
6058 Clouds 17 1021 88 10000 7.7 50 06:22 18.12.2019
6059 Clouds 16 1021 100 9000 5.1 60 05:27 18.12.2019
6060 Clouds 15 1021 100 10000 3.6 50 03:31 18.12.2019
6061 Clouds 15 1020 100 10000 3.6 70 02:41 18.12.2019
6062 Clouds 16 1020 100 10000 3.6 70 02:23 18.12.2019
6063 Clouds 16 1020 93 10000 4.1 50 01:42 18.12.2019
6064 Clouds 16 1020 93 10000 4.1 50 01:24 18.12.2019
6065 Clouds 15 1021 93 10000 4.1 80 00:42 18.12.2019
6066 Clouds 15 1021 93 10000 4.1 80 00:24 18.12.2019
6067 Clouds 15 1021 93 10000 4.1 80 00:24 18.12.2019
6068 Clouds 16 1021 93 10000 3.1 70 23:58 17.12.2019
6069 Clouds 16 1021 93 10000 2.6 90 23:39 17.12.2019
6070 Clouds 15 1021 93 10000 2.6 90 23:20 17.12.2019
6071 Clouds 16 1022 93 10000 3.6 60 22:57 17.12.2019
6072 Clouds 16 1022 93 10000 3.1 70 22:38 17.12.2019
6073 Clouds 17 1022 93 10000 3.1 70 22:19 17.12.2019
6074 Clouds 17 1022 88 10000 3.1 60 21:57 17.12.2019
6075 Clouds 17 1021 88 10000 4.1 30 21:38 17.12.2019
6076 Clouds 17 1021 88 10000 4.1 30 21:20 17.12.2019
6077 Clouds 18 1022 88 10000 2.6 40 20:58 17.12.2019
6078 Clouds 17 1022 88 10000 3.1 40 20:39 17.12.2019
6079 Clouds 18 1022 88 10000 3.1 40 20:19 17.12.2019
6080 Clouds 17 1021 88 10000 3.1 20 19:57 17.12.2019
6081 Clouds 18 1020 88 10000 5.1 60 19:39 17.12.2019
6082 Clouds 17 1020 88 10000 5.1 60 19:19 17.12.2019
6083 Thunderstorm 18 1021 82 10000 4.1 40 18:56 17.12.2019
6084 Thunderstorm 17 1021 82 10000 4.1 50 18:37 17.12.2019
6085 Clouds 19 1020 77 10000 4.6 40 18:19 17.12.2019
6086 Clouds 19 1020 77 10000 4.6 40 18:19 17.12.2019
6087 Clouds 19 1018 68 10000 5.1 70 17:42 17.12.2019
6088 Clouds 20 1019 73 10000 5.1 70 17:21 17.12.2019
6089 Clouds 20 1019 73 10000 5.1 70 16:57 17.12.2019
6090 Clouds 20 1017 60 10000 5.1 90 16:38 17.12.2019
6091 Clouds 21 1015 57 10000 6.2 90 16:19 17.12.2019
6092 Clouds 21 1015 57 10000 6.2 90 15:59 17.12.2019
6093 Clouds 19 1015 57 10000 6.2 90 15:38 17.12.2019
6094 Clouds 21 1015 57 10000 6.2 90 15:19 17.12.2019
6095 Clouds 21 1015 57 10000 5.1 80 14:56 17.12.2019
6096 Clouds 21 1015 57 10000 5.1 80 14:56 17.12.2019
6097 Clouds 21 1015 57 10000 5.1 80 14:38 17.12.2019
6098 Clouds 21 1015 57 10000 5.1 80 14:19 17.12.2019
6099 Clouds 22 1017 60 10000 5.7 90 13:56 17.12.2019
6100 Clouds 21 1017 57 10000 6.2 90 13:38 17.12.2019
6101 Clouds 22 1017 57 10000 6.2 90 13:19 17.12.2019
6102 Clouds 22 1018 53 10000 4.6 70 13:19 17.12.2019
6103 Clouds 22 1018 53 10000 4.6 70 12:58 17.12.2019
6104 Clouds 24 1018 53 10000 7.2 70 12:38 17.12.2019
6105 Clouds 24 1018 60 10000 4.1 70 12:18 17.12.2019
6106 Clouds 24 1018 60 10000 4.1 70 11:56 17.12.2019
6107 Clouds 22 1018 53 10000 5.7 50 11:36 17.12.2019
6108 Clouds 22 1018 53 10000 5.7 50 11:18 17.12.2019
6109 Clouds 22 1019 53 10000 2.6 40 10:57 17.12.2019
6110 Clouds 23 1019 53 10000 2.6 40 10:38 17.12.2019
6111 Clouds 23 1019 53 10000 2.6 40 10:19 17.12.2019
6112 Clouds 22 1020 60 10000 5.7 40 09:55 17.12.2019
6113 Clouds 21 1020 60 10000 2.6 60 09:37 17.12.2019
6114 Clouds 21 1020 60 10000 2.6 60 09:18 17.12.2019
6115 Clouds 21 1021 68 10000 5.1 80 08:40 17.12.2019
6116 Clouds 20 1021 68 10000 5.1 80 08:22 17.12.2019
6117 Clouds 19 1022 77 10000 3.6 50 07:59 17.12.2019
6118 Clouds 18 1021 82 10000 3.6 10 07:41 17.12.2019
6119 Clouds 18 1021 82 10000 3.6 10 07:22 17.12.2019
6120 Clouds 17 1021 93 10000 3.6 40 06:43 17.12.2019
6121 Clouds 17 1021 93 10000 3.6 40 06:24 17.12.2019
6122 Clouds 17 1020 93 10000 3.1 40 05:42 17.12.2019
6123 Clouds 15 1021 100 10000 3.6 30 04:58 17.12.2019
6124 Clouds 14 1020 93 10000 3.6 40 03:55 17.12.2019
6125 Clouds 16 1019 88 10000 2.85 42 02:26 17.12.2019
6126 Clouds 15 1019 93 10000 1.5 10 01:22 17.12.2019
6127 Clouds 15 1019 93 10000 1.5 10 00:48 17.12.2019
6128 Clouds 15 1020 100 10000 2.1 50 00:22 17.12.2019
6129 Clouds 16 1020 93 10000 2.6 40 23:58 16.12.2019
6130 Clouds 16 1020 93 10000 2.1 40 23:40 16.12.2019
6131 Clouds 17 1020 93 10000 2.1 40 23:18 16.12.2019
6132 Clouds 17 1020 93 10000 2.6 40 22:55 16.12.2019
6133 Clouds 16 1020 93 10000 4.1 40 22:36 16.12.2019
6134 Clouds 17 1020 88 10000 3.6 40 22:18 16.12.2019
6135 Clouds 17 1020 88 10000 3.6 40 21:54 16.12.2019
6136 Clouds 17 1019 88 10000 3.6 60 21:36 16.12.2019
6137 Clouds 17 1019 88 10000 3.6 60 21:18 16.12.2019
6138 Clouds 18 1020 82 10000 3.1 60 20:56 16.12.2019
6139 Clouds 18 1019 77 10000 2.6 40 20:37 16.12.2019
6140 Clouds 17 1019 77 10000 2.6 40 20:18 16.12.2019
6141 Clouds 18 1020 82 10000 4.1 30 19:55 16.12.2019
6142 Clouds 17 1019 77 10000 3.1 60 19:36 16.12.2019
6143 Clouds 17 1019 77 10000 3.1 60 19:18 16.12.2019
6144 Clouds 18 1019 82 10000 4.1 30 18:54 16.12.2019
6145 Clouds 18 1018 68 10000 3.6 30 18:36 16.12.2019
6146 Clouds 19 1018 77 10000 4.1 40 18:18 16.12.2019
6147 Clouds 19 1018 77 10000 4.1 40 17:55 16.12.2019
6148 Clouds 19 1017 68 10000 4.1 70 17:37 16.12.2019
6149 Clouds 19 1017 68 10000 4.1 70 17:18 16.12.2019
6150 Clouds 20 1018 64 10000 6.2 50 16:54 16.12.2019
6151 Clouds 21 1017 56 10000 4.1 50 16:36 16.12.2019
6152 Clouds 21 1017 56 10000 4.1 50 16:18 16.12.2019
6153 Clouds 21 1017 60 10000 6.2 60 15:54 16.12.2019
6154 Clouds 22 1016 57 10000 4.6 60 15:36 16.12.2019
6155 Clouds 22 1016 57 10000 4.6 60 15:18 16.12.2019
6156 Clouds 22 1017 57 10000 5.1 80 14:54 16.12.2019
6157 Clouds 22 1017 53 10000 7.7 90 14:36 16.12.2019
6158 Clouds 23 1017 53 10000 7.7 90 14:18 16.12.2019
6159 Clouds 23 1018 50 10000 4.6 100 13:38 16.12.2019
6160 Clouds 23 1018 50 10000 4.6 100 13:20 16.12.2019
6161 Clouds 23 1018 57 10000 4.6 60 12:58 16.12.2019
6162 Clouds 23 1018 57 10000 4.6 60 12:58 16.12.2019
6163 Clouds 23 1020 57 10000 4.6 50 12:40 16.12.2019
6164 Clouds 23 1020 57 10000 4.6 50 12:20 16.12.2019
6165 Clouds 23 1020 57 10000 4.6 50 11:59 16.12.2019
6166 Clouds 23 1019 56 10000 3.6 70 11:41 16.12.2019
6167 Clouds 22 1019 56 10000 3.6 70 11:21 16.12.2019
6168 Clouds 22 1021 60 10000 3.6 40 10:59 16.12.2019
6169 Clouds 22 1020 56 10000 5.1 40 10:40 16.12.2019
6170 Clouds 22 1020 56 10000 5.1 40 10:40 16.12.2019
6171 Clouds 21 1020 56 10000 5.1 40 10:20 16.12.2019
6172 Clouds 21 1021 60 10000 3.6 60 09:46 16.12.2019
6173 Clouds 21 1021 60 10000 3.6 60 09:28 16.12.2019
6174 Clouds 20 1022 68 10000 3.6 40 08:58 16.12.2019
6175 Clouds 21 1021 68 10000 5.1 60 08:38 16.12.2019
6176 Clouds 19 1021 68 10000 5.1 60 08:19 16.12.2019
6177 Clouds 18 1021 77 10000 4.1 80 07:51 16.12.2019
6178 Clouds 18 1021 77 10000 4.1 80 07:31 16.12.2019
6179 Clouds 17 1022 88 10000 3.1 20 06:48 16.12.2019
6180 Clouds 17 1021 88 10000 3.1 30 06:27 16.12.2019
6181 Clouds 16 1022 93 10000 2.6 30 05:58 16.12.2019
6182 Clouds 16 1020 93 10000 5.09 28 05:39 16.12.2019
6183 Clouds 16 1020 93 10000 2.56 20 05:21 16.12.2019
6184 Clouds 16 1020 93 10000 2.56 20 02:50 16.12.2019
6185 Clouds 16 1020 93 10000 3.6 20 01:45 16.12.2019
6186 Clouds 16 1020 93 10000 2.6 70 00:56 16.12.2019
6187 Clouds 16 1020 93 10000 2.6 70 00:37 16.12.2019
6188 Clouds 16 1020 93 10000 4.1 60 00:18 16.12.2019
6189 Clouds 16 1020 93 10000 4.1 60 23:40 15.12.2019
6190 Clouds 16 1020 93 10000 4.1 60 23:40 15.12.2019
6191 Clouds 16 1020 93 10000 4.1 60 23:22 15.12.2019
6192 Clouds 17 1021 93 10000 4.1 10 22:57 15.12.2019
6193 Clouds 17 1021 88 10000 2.27 36 22:38 15.12.2019
6194 Clouds 17 1021 88 10000 2.27 36 22:19 15.12.2019
6195 Clouds 16 1022 93 10000 3.6 20 21:57 15.12.2019
6196 Clouds 16 1021 93 10000 2.6 20 21:38 15.12.2019
6197 Clouds 16 1021 93 10000 2.6 20 21:19 15.12.2019
6198 Clouds 16 1021 93 10000 2.6 20 21:19 15.12.2019
6199 Rain 17 1022 93 10000 3.6 60 20:57 15.12.2019
6200 Clouds 17 1020 93 10000 5.1 70 20:39 15.12.2019
6201 Clouds 17 1020 93 10000 5.1 70 20:39 15.12.2019
6202 Clouds 17 1020 93 10000 5.1 70 20:20 15.12.2019
6203 Clouds 17 1021 93 10000 3.1 30 19:58 15.12.2019
6204 Clouds 17 1020 93 10000 2.6 60 19:39 15.12.2019
6205 Clouds 17 1020 93 10000 2.6 60 19:19 15.12.2019
6206 Clouds 17 1021 93 10000 4.6 60 18:57 15.12.2019
6207 Clouds 17 1020 88 10000 5.1 80 18:39 15.12.2019
6208 Thunderstorm 18 1020 93 10000 6.7 80 18:19 15.12.2019
6209 Thunderstorm 18 1020 93 10000 6.7 80 17:56 15.12.2019
6210 Clouds 18 1020 73 10000 5.7 80 17:37 15.12.2019
6211 Clouds 20 1020 73 10000 5.7 80 17:37 15.12.2019
6212 Clouds 20 1019 68 10000 6.7 90 17:19 15.12.2019
6213 Clouds 20 1019 68 10000 6.7 90 16:57 15.12.2019
6214 Clouds 21 1018 56 10000 5.1 60 16:39 15.12.2019
6215 Clouds 21 1018 56 10000 5.1 60 16:20 15.12.2019
6216 Clouds 21 1018 57 10000 4.6 80 15:55 15.12.2019
6217 Clouds 21 1018 57 10000 4.6 80 15:55 15.12.2019
6218 Clouds 21 1018 57 10000 4.6 80 15:55 15.12.2019
6219 Clouds 22 1018 60 10000 5.1 40 15:37 15.12.2019
6220 Clouds 22 1018 60 10000 5.1 40 15:18 15.12.2019
6221 Clouds 22 1018 53 10000 5.1 80 14:55 15.12.2019
6222 Clouds 22 1018 53 10000 5.1 90 14:36 15.12.2019
6223 Clouds 22 1019 57 10000 4.1 50 14:18 15.12.2019
6224 Clouds 22 1019 57 10000 4.1 50 13:56 15.12.2019
6225 Clouds 22 1019 56 10000 5.1 40 13:37 15.12.2019
6226 Clouds 22 1020 60 10000 2.6 40 13:19 15.12.2019
6227 Clouds 22 1019 56 10000 5.1 40 13:19 15.12.2019
6228 Clouds 22 1020 60 10000 2.6 40 12:56 15.12.2019
6229 Clouds 22 1020 60 10000 2.6 40 12:38 15.12.2019
6230 Clouds 22 1020 60 10000 2.6 40 12:20 15.12.2019
6231 Clouds 21 1021 64 10000 5.1 70 11:39 15.12.2019
6232 Clouds 21 1021 64 10000 5.1 70 11:20 15.12.2019
6233 Clouds 21 1021 64 10000 5.1 70 11:20 15.12.2019
6234 Clouds 21 1021 64 10000 5.1 40 10:58 15.12.2019
6235 Clouds 21 1021 64 10000 5.1 40 10:40 15.12.2019
6236 Clouds 20 1023 68 10000 4.6 40 10:20 15.12.2019
6237 Clouds 20 1023 68 10000 4.6 40 09:59 15.12.2019
6238 Clouds 21 1023 72 10000 2.6 60 09:38 15.12.2019
6239 Clouds 20 1023 72 10000 2.6 60 09:20 15.12.2019
6240 Clouds 20 1023 72 10000 2.6 60 09:20 15.12.2019
6241 Clouds 20 1023 77 10000 4.1 60 08:56 15.12.2019
6242 Clouds 19 1024 82 10000 4.6 50 08:38 15.12.2019
6243 Clouds 18 1024 82 10000 4.6 50 08:20 15.12.2019
6244 Clouds 18 1024 82 10000 4.1 40 07:55 15.12.2019
6245 Clouds 17 1023 93 10000 4.1 30 07:33 15.12.2019
6246 Clouds 17 1022 88 10000 2.6 30 06:31 15.12.2019
6247 Clouds 16 1023 93 10000 3.1 40 05:51 15.12.2019
6248 Clouds 15 1023 93 10000 2.6 30 05:25 15.12.2019
6249 Clouds 14 1022 93 10000 2.6 10 04:24 15.12.2019
6250 Clouds 14 1022 93 10000 2.6 360 03:22 15.12.2019
6251 Clouds 15 1022 93 10000 2.6 10 02:33 15.12.2019
6252 Clouds 15 1022 93 10000 3.1 20 01:44 15.12.2019
6253 Clouds 15 1022 93 10000 3.1 20 01:25 15.12.2019
6254 Clouds 15 1022 93 10000 3.6 30 00:54 15.12.2019
6255 Clouds 15 1022 93 10000 3.6 30 00:35 15.12.2019
6256 Clouds 15 1023 93 10000 4.6 40 23:58 14.12.2019
6257 Clouds 15 1023 93 10000 3.6 40 23:38 14.12.2019
6258 Clouds 16 1023 93 10000 4.1 40 23:18 14.12.2019
6259 Clouds 16 1023 93 10000 4.1 40 22:57 14.12.2019
6260 Clouds 16 1021 88 10000 2.6 60 22:39 14.12.2019
6261 Clouds 16 1021 88 10000 2.6 60 22:39 14.12.2019
6262 Clouds 16 1021 88 10000 2.6 60 22:20 14.12.2019
6263 Clouds 15 1023 93 10000 4.1 50 21:55 14.12.2019
6264 Clouds 15 1023 93 10000 4.1 50 21:55 14.12.2019
6265 Clouds 16 1023 88 10000 4.1 50 21:37 14.12.2019
6266 Clouds 17 1023 88 10000 4.1 50 21:18 14.12.2019
6267 Clouds 16 1023 93 10000 5.7 60 20:55 14.12.2019
6268 Clouds 17 1021 93 10000 5.1 60 20:37 14.12.2019
6269 Clouds 17 1021 93 10000 5.1 60 20:19 14.12.2019
6270 Clouds 17 1021 93 10000 5.1 60 19:40 14.12.2019
6271 Clouds 17 1021 93 10000 5.1 60 19:21 14.12.2019
6272 Clouds 17 1022 93 10000 3.6 70 18:58 14.12.2019
6273 Clouds 17 1021 88 10000 4.1 60 18:39 14.12.2019
6274 Clouds 17 1021 88 10000 4.1 60 18:21 14.12.2019
6275 Clouds 17 1021 88 10000 5.7 70 17:59 14.12.2019
6276 Clouds 17 1020 88 10000 5.1 60 17:41 14.12.2019
6277 Clouds 19 1021 82 10000 6.2 70 17:22 14.12.2019
6278 Clouds 19 1019 77 10000 9.3 90 16:42 14.12.2019
6279 Clouds 20 1019 77 10000 9.3 90 16:19 14.12.2019
6280 Clouds 21 1019 73 10000 8.2 100 15:57 14.12.2019
6281 Clouds 21 1018 57 10000 5.1 90 15:38 14.12.2019
6282 Clouds 21 1018 57 10000 5.1 90 15:38 14.12.2019
6283 Clouds 21 1018 57 10000 5.1 90 15:19 14.12.2019
6284 Clouds 22 1019 68 10000 5.7 100 14:57 14.12.2019
6285 Clouds 23 1019 50 10000 5.1 90 14:38 14.12.2019
6286 Clouds 23 1019 50 10000 5.1 90 14:18 14.12.2019
6287 Clouds 23 1020 64 10000 5.7 90 13:44 14.12.2019
6288 Clouds 22 1020 60 10000 4.1 40 13:20 14.12.2019
6289 Clouds 22 1020 60 10000 4.1 40 12:58 14.12.2019
6290 Rain 21 1010 65 0 0.89 24 12:40 14.12.2019
6291 Rain 21 1010 65 0 0.89 24 12:40 14.12.2019
6292 Clouds 22 1021 56 10000 5.1 40 12:20 14.12.2019
6293 Clouds 22 1021 56 10000 5.1 40 11:58 14.12.2019
6294 Clouds 22 1021 56 10000 5.1 40 11:58 14.12.2019
6295 Clouds 22 1021 56 10000 5.1 40 11:39 14.12.2019
6296 Clouds 22 1023 68 10000 4.1 60 11:19 14.12.2019
6297 Clouds 22 1021 56 10000 5.1 40 11:19 14.12.2019
6298 Clouds 21 1023 68 10000 4.1 60 10:57 14.12.2019
6299 Clouds 21 1022 64 10000 5.1 60 10:39 14.12.2019
6300 Clouds 21 1022 64 10000 5.1 60 10:20 14.12.2019
6301 Clouds 20 1023 73 10000 5.1 40 09:55 14.12.2019
6302 Clouds 20 1023 73 10000 5.1 40 09:55 14.12.2019
6303 Clouds 19 1023 77 10000 4.6 40 09:36 14.12.2019
6304 Clouds 19 1024 77 10000 3.6 30 09:18 14.12.2019
6305 Rain 18 1023 77 8000 5.1 70 08:41 14.12.2019
6306 Rain 17 1023 77 8000 5.1 70 08:19 14.12.2019
6307 Clouds 17 1023 82 10000 6.7 70 07:43 14.12.2019
6308 Clouds 17 1023 82 10000 6.7 70 07:23 14.12.2019
6309 Clouds 18 1023 93 10000 4.6 40 06:55 14.12.2019
6310 Clouds 18 1022 88 10000 3.1 80 06:36 14.12.2019
6311 Clouds 16 1023 88 10000 3.1 40 05:56 14.12.2019
6312 Clouds 16 1023 88 10000 3.1 40 05:56 14.12.2019
6313 Clouds 15 1021 93 10000 3.6 30 04:42 14.12.2019
6314 Clouds 15 1021 93 10000 3.1 20 02:31 14.12.2019
6315 Clouds 16 1021 100 10000 2.1 40 01:46 14.12.2019
6316 Clouds 15 1021 100 10000 1.5 20 01:28 14.12.2019
6317 Rain 15 1022 100 10000 2.1 10 00:44 14.12.2019
6318 Rain 15 1022 100 10000 2.1 10 00:26 14.12.2019
6319 Clouds 16 1022 88 10000 1.5 10 23:44 13.12.2019
6320 Clouds 16 1022 88 10000 1.5 10 23:22 13.12.2019
6321 Clouds 16 1022 93 10000 2.1 20 23:00 13.12.2019
6322 Clouds 16 1021 88 10000 3.1 40 22:40 13.12.2019
6323 Clouds 16 1021 88 10000 3.1 40 22:19 13.12.2019
6324 Clouds 17 1021 88 10000 5.1 50 21:55 13.12.2019
6325 Clouds 16 1021 88 10000 5.1 50 21:37 13.12.2019
6326 Clouds 17 1021 88 10000 5.1 50 21:19 13.12.2019
6327 Clouds 17 1021 88 10000 5.1 30 20:41 13.12.2019
6328 Clouds 17 1021 88 10000 9.8 50 20:22 13.12.2019
6329 Clouds 17 1021 88 10000 9.8 50 19:59 13.12.2019
6330 Clouds 17 1022 88 10000 7.2 50 19:40 13.12.2019
6331 Clouds 18 1022 88 10000 7.2 50 19:22 13.12.2019
6332 Clouds 18 1020 82 10000 5.7 60 18:58 13.12.2019
6333 Clouds 18 1020 82 10000 5.7 60 18:40 13.12.2019
6334 Clouds 19 1020 77 10000 7.2 70 18:19 13.12.2019
6335 Clouds 19 1019 64 10000 8.2 70 17:43 13.12.2019
6336 Clouds 19 1019 64 10000 8.2 70 17:43 13.12.2019
6337 Clouds 21 1019 68 10000 6.2 80 17:20 13.12.2019
6338 Clouds 21 1018 50 10000 7.2 30 16:59 13.12.2019
6339 Clouds 20 1019 57 10000 6.2 60 16:39 13.12.2019
6340 Clouds 21 1019 57 10000 6.2 60 16:20 13.12.2019
6341 Clouds 21 1019 57 10000 6.2 80 15:58 13.12.2019
6342 Clouds 22 1018 53 10000 4.1 80 15:37 13.12.2019
6343 Clouds 22 1018 53 10000 4.1 80 15:18 13.12.2019
6344 Clouds 22 1019 57 10000 4.6 80 14:41 13.12.2019
6345 Clouds 23 1019 50 10000 4.1 80 14:21 13.12.2019
6346 Clouds 23 1020 60 10000 4.6 70 13:58 13.12.2019
6347 Clouds 22 1020 60 10000 4.6 70 13:39 13.12.2019
6348 Clouds 23 1020 60 10000 4.6 70 13:21 13.12.2019
6349 Clouds 23 1020 50 10000 7.7 100 12:42 13.12.2019
6350 Clouds 23 1021 57 10000 4.1 80 12:20 13.12.2019
6351 Clouds 22 1021 57 10000 5.1 30 11:57 13.12.2019
6352 Clouds 21 1022 64 10000 3.6 50 11:39 13.12.2019
6353 Clouds 21 1022 64 10000 3.6 50 11:21 13.12.2019
6354 Clouds 21 1021 68 10000 2.6 100 10:43 13.12.2019
6355 Clouds 21 1023 73 10000 3.6 60 10:23 13.12.2019
6356 Clouds 21 1023 73 10000 3.6 60 09:59 13.12.2019
6357 Clouds 21 1023 73 10000 3.6 40 09:39 13.12.2019
6358 Clouds 20 1023 73 10000 3.6 40 09:19 13.12.2019
6359 Clouds 19 1023 82 10000 4.6 30 08:41 13.12.2019
6360 Clouds 19 1023 82 10000 4.6 30 08:23 13.12.2019
6361 Clouds 18 1022 77 10000 3.1 60 07:46 13.12.2019
6362 Clouds 17 1022 93 10000 3.6 30 07:23 13.12.2019
6363 Clouds 17 1021 93 10000 3.1 30 06:55 13.12.2019
6364 Clouds 17 1022 93 10000 2.1 50 06:29 13.12.2019
6365 Clouds 16 1021 88 10000 2.1 60 05:47 13.12.2019
6366 Clouds 16 1021 93 10000 1.5 50 05:28 13.12.2019
6367 Clouds 14 1021 88 10000 2.1 20 04:46 13.12.2019
6368 Clouds 15 1021 88 10000 1.5 30 03:47 13.12.2019
6369 Clouds 15 1020 93 10000 1 0 02:34 13.12.2019
6370 Clouds 15 1020 93 10000 0.5 0 01:47 13.12.2019
6371 Clouds 16 1020 100 10000 2.31 34 00:57 13.12.2019
6372 Clouds 16 1020 100 10000 2.31 34 00:37 13.12.2019
6373 Clouds 15 1021 93 10000 2.6 360 23:59 12.12.2019
6374 Clouds 15 1021 93 10000 2.6 360 23:59 12.12.2019
6375 Clouds 14 1021 93 10000 2.6 30 23:39 12.12.2019
6376 Clouds 15 1021 93 10000 2.6 30 23:21 12.12.2019
6377 Clouds 15 1021 93 10000 2.1 350 22:56 12.12.2019
6378 Clouds 15 1021 93 10000 2.1 350 22:56 12.12.2019
6379 Clouds 15 1021 93 10000 2.1 350 22:37 12.12.2019
6380 Clouds 15 1021 88 10000 2.6 30 22:19 12.12.2019
6381 Clouds 15 1022 93 10000 2.1 40 21:55 12.12.2019
6382 Clouds 16 1021 93 10000 2.6 40 21:36 12.12.2019
6383 Clouds 15 1022 93 10000 2.1 40 21:36 12.12.2019
6384 Clouds 16 1021 93 10000 2.6 40 21:18 12.12.2019
6385 Clouds 16 1020 93 10000 5.1 90 20:55 12.12.2019
6386 Clouds 17 1021 88 10000 3.1 100 20:37 12.12.2019
6387 Clouds 17 1021 88 10000 3.1 100 20:19 12.12.2019
6388 Clouds 16 1021 93 10000 4.1 80 19:42 12.12.2019
6389 Clouds 17 1021 93 10000 4.1 80 19:23 12.12.2019
6390 Clouds 17 1019 88 10000 5.1 70 18:58 12.12.2019
6391 Clouds 17 1019 88 10000 5.1 70 18:40 12.12.2019
6392 Clouds 17 1019 88 10000 5.1 70 18:40 12.12.2019
6393 Clouds 18 1020 88 10000 4.6 70 18:21 12.12.2019
6394 Clouds 18 1018 82 10000 5.1 70 17:58 12.12.2019
6395 Clouds 18 1018 82 10000 5.1 70 17:40 12.12.2019
6396 Clouds 19 1018 82 10000 6.2 70 17:21 12.12.2019
6397 Clouds 19 1017 73 10000 7.7 70 16:58 12.12.2019
6398 Clouds 19 1017 73 10000 7.7 70 16:40 12.12.2019
6399 Clouds 20 1017 69 10000 8.7 70 16:21 12.12.2019
6400 Clouds 21 1016 56 10000 9.3 80 15:57 12.12.2019
6401 Clouds 22 1016 56 10000 9.3 80 15:39 12.12.2019
6402 Clouds 22 1017 57 10000 6.2 40 15:18 12.12.2019
6403 Clouds 23 1017 53 10000 5.7 60 14:38 12.12.2019
6404 Clouds 23 1017 53 10000 5.7 60 14:38 12.12.2019
6405 Clouds 23 1017 53 10000 5.7 60 14:20 12.12.2019
6406 Clouds 23 1016 57 10000 5.1 70 13:58 12.12.2019
6407 Clouds 23 1018 60 10000 4.1 60 13:40 12.12.2019
6408 Clouds 22 1018 60 10000 4.1 60 13:22 12.12.2019
6409 Clouds 23 1018 60 10000 5.1 60 12:59 12.12.2019
6410 Clouds 23 1018 60 10000 5.1 60 12:40 12.12.2019
6411 Clouds 23 1019 60 10000 4.6 80 12:22 12.12.2019
6412 Clouds 22 1020 64 10000 5.1 60 11:57 12.12.2019
6413 Clouds 20 1021 64 10000 4.1 50 11:38 12.12.2019
6414 Clouds 20 1021 64 10000 4.1 50 11:38 12.12.2019
6415 Clouds 21 1021 64 10000 4.1 50 11:20 12.12.2019
6416 Clouds 21 1020 68 10000 5.1 70 10:57 12.12.2019
6417 Clouds 20 1022 60 10000 3.6 50 10:39 12.12.2019
6418 Clouds 20 1022 60 10000 3.6 50 10:21 12.12.2019
6419 Clouds 21 1021 73 10000 5.1 40 09:55 12.12.2019
6420 Clouds 20 1022 77 10000 3.6 40 09:37 12.12.2019
6421 Clouds 20 1022 77 10000 3.6 40 09:19 12.12.2019
6422 Clouds 20 1021 77 10000 4.6 90 08:43 12.12.2019
6423 Clouds 18 1022 82 10000 2.6 50 08:25 12.12.2019
6424 Clouds 18 1021 88 10000 2.1 60 07:49 12.12.2019
6425 Clouds 17 1022 88 10000 2.1 20 07:27 12.12.2019
6426 Clouds 17 1021 93 10000 2.76 24 06:56 12.12.2019
6427 Clouds 16 1021 93 10000 1 0 06:35 12.12.2019
6428 Clouds 15 1020 93 10000 2.76 24 05:42 12.12.2019
6429 Clouds 15 1019 88 10000 2.65 27 04:55 12.12.2019
6430 Clouds 14 1020 48 10000 2.1 50 04:23 12.12.2019
6431 Clouds 14 1020 93 10000 2.6 20 02:40 12.12.2019
6432 Clouds 15 1020 93 10000 2.6 20 02:22 12.12.2019
6433 Clouds 15 1020 88 10000 2.6 10 01:54 12.12.2019
6434 Clouds 15 1020 93 10000 2.6 350 01:32 12.12.2019
6435 Clouds 15 1020 88 10000 3.1 350 00:47 12.12.2019
6436 Clouds 15 1020 88 10000 3.1 10 00:21 12.12.2019
6437 Clouds 15 1021 93 10000 3.1 360 23:45 11.12.2019
6438 Clouds 16 1021 93 10000 2.6 350 23:21 11.12.2019
6439 Clouds 16 1020 93 10000 2.6 30 22:59 11.12.2019
6440 Clouds 16 1020 93 10000 2.6 30 22:39 11.12.2019
6441 Clouds 17 1021 93 10000 2.6 10 22:21 11.12.2019
6442 Clouds 17 1020 93 10000 2.95 37 21:59 11.12.2019
6443 Clouds 16 1021 93 10000 4.1 40 21:39 11.12.2019
6444 Clouds 17 1021 93 10000 4.1 40 21:20 11.12.2019
6445 Clouds 17 1020 93 10000 3.1 20 20:58 11.12.2019
6446 Clouds 17 1020 93 10000 3.1 20 20:39 11.12.2019
6447 Clouds 17 1021 93 10000 3.6 30 20:19 11.12.2019
6448 Clouds 17 1020 88 10000 3.1 40 19:59 11.12.2019
6449 Clouds 16 1020 93 10000 3.6 50 19:40 11.12.2019
6450 Clouds 16 1020 93 10000 3.6 50 19:40 11.12.2019
6451 Clouds 17 1020 93 10000 3.6 50 19:21 11.12.2019
6452 Clouds 17 1019 82 10000 5.7 40 18:57 11.12.2019
6453 Clouds 18 1019 88 10000 4.1 80 18:38 11.12.2019
6454 Clouds 18 1019 88 10000 4.1 80 18:18 11.12.2019
6455 Rain 18 1018 93 10000 6.2 90 17:55 11.12.2019
6456 Rain 18 1018 93 10000 6.2 90 17:37 11.12.2019
6457 Clouds 19 1019 82 10000 7.7 90 17:18 11.12.2019
6458 Clouds 20 1018 60 10000 5.1 80 16:55 11.12.2019
6459 Clouds 20 1018 60 10000 6.7 80 16:36 11.12.2019
6460 Clouds 21 1018 60 10000 6.7 80 16:18 11.12.2019
6461 Clouds 22 1016 60 10000 7.2 70 15:54 11.12.2019
6462 Clouds 22 1018 57 10000 6.7 70 15:36 11.12.2019
6463 Clouds 22 1018 57 10000 6.7 70 15:18 11.12.2019
6464 Clouds 22 1017 57 10000 4.6 80 14:54 11.12.2019
6465 Clouds 22 1018 57 10000 5.1 70 14:36 11.12.2019
6466 Clouds 22 1018 57 10000 5.1 70 14:36 11.12.2019
6467 Clouds 22 1018 57 10000 5.1 70 14:18 11.12.2019
6468 Clouds 22 1018 60 10000 5.7 70 13:41 11.12.2019
6469 Clouds 23 1019 60 10000 5.7 60 13:21 11.12.2019
6470 Clouds 22 1018 64 10000 4.6 70 12:57 11.12.2019
6471 Clouds 21 1020 64 10000 5.7 70 12:38 11.12.2019
6472 Clouds 22 1020 64 10000 5.7 70 12:20 11.12.2019
6473 Clouds 22 1020 64 10000 8.2 50 11:58 11.12.2019
6474 Clouds 21 1020 64 10000 8.2 50 11:39 11.12.2019
6475 Clouds 22 1021 64 10000 6.2 50 11:19 11.12.2019
6476 Clouds 21 1021 68 10000 7.7 70 10:57 11.12.2019
6477 Clouds 21 1021 68 10000 7.7 70 10:38 11.12.2019
6478 Clouds 20 1022 73 10000 6.7 40 10:19 11.12.2019
6479 Clouds 20 1021 72 10000 7.2 30 09:44 11.12.2019
6480 Clouds 19 1023 77 10000 5.1 40 09:21 11.12.2019
6481 Clouds 19 1022 77 10000 6.7 30 08:58 11.12.2019
6482 Clouds 19 1022 77 10000 6.7 30 08:58 11.12.2019
6483 Clouds 19 1022 77 10000 6.7 30 08:39 11.12.2019
6484 Clouds 18 1023 82 10000 4.6 50 08:20 11.12.2019
6485 Clouds 18 1023 82 10000 4.6 50 08:20 11.12.2019
6486 Clouds 18 1021 77 10000 5.1 60 07:59 11.12.2019
6487 Clouds 18 1021 77 10000 5.1 60 07:41 11.12.2019
6488 Clouds 17 1022 88 10000 3.6 40 07:22 11.12.2019
6489 Clouds 18 1022 88 10000 4.1 50 06:44 11.12.2019
6490 Clouds 16 1022 93 10000 3.6 70 06:23 11.12.2019
6491 Clouds 16 1020 93 10000 2.6 60 05:46 11.12.2019
6492 Clouds 16 1021 93 10000 2.6 50 05:27 11.12.2019
6493 Clouds 15 1020 93 10000 1.93 32 04:47 11.12.2019
6494 Clouds 15 1020 93 10000 3.1 20 02:50 11.12.2019
6495 Clouds 15 1020 93 10000 4.1 40 01:30 11.12.2019
6496 Clouds 15 1021 93 10000 4.1 40 00:56 11.12.2019
6497 Clouds 16 1021 88 10000 4.1 50 00:36 11.12.2019
6498 Clouds 16 1021 88 10000 4.1 50 00:18 11.12.2019
6499 Clouds 16 1021 88 10000 4.6 40 23:41 10.12.2019
6500 Clouds 16 1021 93 10000 4.6 30 23:21 10.12.2019
6501 Clouds 18 1020 93 10000 5.1 30 22:41 10.12.2019
6502 Clouds 17 1021 93 10000 4.6 30 22:22 10.12.2019
6503 Clouds 17 1020 93 10000 2.6 60 21:58 10.12.2019
6504 Clouds 17 1020 93 10000 2.6 60 21:39 10.12.2019
6505 Clouds 17 1021 93 10000 4.6 50 21:21 10.12.2019
6506 Clouds 17 1020 93 10000 3.6 60 20:58 10.12.2019
6507 Clouds 17 1020 93 10000 3.6 60 20:38 10.12.2019
6508 Clouds 17 1021 93 10000 2.6 30 20:19 10.12.2019
6509 Clouds 17 1021 93 10000 2.6 30 20:19 10.12.2019
6510 Clouds 17 1021 93 10000 2.6 30 20:19 10.12.2019
6511 Clouds 17 1021 93 10000 2.6 30 20:19 10.12.2019
6512 Clouds 17 1021 93 10000 2.6 30 20:19 10.12.2019
6513 Clouds 16 1021 93 10000 3.6 30 19:56 10.12.2019
6514 Clouds 16 1021 93 10000 3.6 30 19:38 10.12.2019
6515 Clouds 17 1020 88 10000 3.6 40 19:20 10.12.2019
6516 Clouds 17 1020 93 10000 3.6 40 18:55 10.12.2019
6517 Clouds 18 1019 88 10000 3.6 50 18:36 10.12.2019
6518 Clouds 17 1019 88 10000 3.6 50 18:36 10.12.2019
6519 Clouds 18 1019 88 10000 3.6 50 18:18 10.12.2019
6520 Clouds 18 1018 77 10000 2.6 40 17:42 10.12.2019
6521 Clouds 18 1018 82 10000 4.6 50 17:22 10.12.2019
6522 Clouds 19 1018 72 10000 5.1 30 16:58 10.12.2019
6523 Clouds 18 1018 68 10000 5.7 50 16:39 10.12.2019
6524 Clouds 19 1018 68 10000 5.7 50 16:19 10.12.2019
6525 Clouds 19 1018 68 10000 5.1 40 15:39 10.12.2019
6526 Clouds 21 1018 68 10000 5.1 40 15:19 10.12.2019
6527 Clouds 20 1017 60 10000 5.1 60 14:56 10.12.2019
6528 Clouds 20 1018 77 10000 6.2 30 14:38 10.12.2019
6529 Clouds 20 1018 77 10000 6.2 30 14:20 10.12.2019
6530 Clouds 21 1018 64 10000 4.1 40 13:58 10.12.2019
6531 Clouds 20 1018 73 10000 5.1 40 13:40 10.12.2019
6532 Clouds 20 1018 73 10000 5.1 40 13:20 10.12.2019
6533 Clouds 20 1018 73 10000 5.1 40 13:20 10.12.2019
6534 Clouds 20 1019 73 10000 6.2 50 12:49 10.12.2019
6535 Clouds 20 1020 73 10000 5.7 70 12:28 10.12.2019
6536 Clouds 19 1020 77 10000 7.2 70 11:58 10.12.2019
6537 Clouds 19 1020 77 10000 7.2 70 11:40 10.12.2019
6538 Clouds 19 1021 77 10000 5.7 40 11:21 10.12.2019
6539 Clouds 18 1021 77 10000 5.1 30 10:43 10.12.2019
6540 Clouds 17 1022 88 10000 6.2 40 10:24 10.12.2019
6541 Clouds 18 1021 82 10000 5.1 40 09:57 10.12.2019
6542 Clouds 18 1022 93 10000 4.6 30 09:39 10.12.2019
6543 Clouds 18 1022 93 10000 4.6 30 09:20 10.12.2019
6544 Clouds 17 1023 100 10000 4.6 50 08:58 10.12.2019
6545 Clouds 17 1023 100 10000 4.6 50 08:39 10.12.2019
6546 Clouds 17 1023 93 10000 3.6 30 08:21 10.12.2019
6547 Rain 15 1021 93 8000 5.1 40 07:45 10.12.2019
6548 Rain 15 1022 100 10000 7.7 30 07:27 10.12.2019
6549 Rain 15 1021 100 6000 5.1 30 06:56 10.12.2019
6550 Rain 15 1022 93 10000 5.1 60 06:38 10.12.2019
6551 Rain 15 1022 93 10000 5.1 60 06:19 10.12.2019
6552 Rain 15 1021 93 10000 4.6 60 05:51 10.12.2019
6553 Clouds 15 1020 93 10000 1.5 70 04:23 10.12.2019
6554 Clouds 16 1019 93 10000 4.6 80 03:27 10.12.2019
6555 Clouds 16 1019 93 10000 1.5 70 02:36 10.12.2019
6556 Clouds 15 1020 93 10000 2.1 80 01:40 10.12.2019
6557 Rain 15 1020 93 10000 2.6 90 01:19 10.12.2019
6558 Clouds 16 1021 93 10000 2.6 80 00:31 10.12.2019
6559 Rain 14 1012 94 0 1.28 63 23:59 09.12.2019
6560 Rain 14 1012 94 0 1.28 63 23:59 09.12.2019
6561 Rain 14 1012 94 0 1.28 63 23:39 09.12.2019
6562 Clouds 17 1020 93 10000 1.53 74 23:21 09.12.2019
6563 Clouds 17 1020 93 10000 1.53 74 22:57 09.12.2019
6564 Clouds 17 1020 93 10000 1.53 74 22:39 09.12.2019
6565 Clouds 17 1021 93 10000 4.1 60 22:18 09.12.2019
6566 Clouds 17 1021 93 10000 4.1 60 22:18 09.12.2019
6567 Clouds 17 1020 88 10000 5.1 60 21:56 09.12.2019
6568 Clouds 17 1020 88 10000 5.1 60 21:38 09.12.2019
6569 Clouds 17 1021 93 10000 5.1 60 21:18 09.12.2019
6570 Clouds 17 1019 93 10000 3.6 60 20:56 09.12.2019
6571 Clouds 17 1019 93 10000 3.6 60 20:37 09.12.2019
6572 Clouds 17 1020 93 10000 3.1 50 20:19 09.12.2019
6573 Clouds 17 1018 93 10000 4.1 60 19:55 09.12.2019
6574 Clouds 16 1019 93 10000 4.1 40 19:37 09.12.2019
6575 Clouds 16 1019 93 10000 4.1 40 19:19 09.12.2019
6576 Clouds 17 1018 88 10000 4.6 50 18:55 09.12.2019
6577 Clouds 18 1018 88 10000 4.6 50 18:36 09.12.2019
6578 Clouds 18 1018 88 10000 4.6 50 18:18 09.12.2019
6579 Clouds 18 1017 82 10000 4.1 60 17:56 09.12.2019
6580 Clouds 19 1017 83 10000 4.1 60 17:37 09.12.2019
6581 Clouds 22 1017 83 10000 4.1 60 17:19 09.12.2019
6582 Clouds 19 1016 68 10000 5.1 60 16:55 09.12.2019
6583 Clouds 19 1017 64 10000 4.1 70 16:36 09.12.2019
6584 Clouds 20 1017 64 10000 4.1 70 16:18 09.12.2019
6585 Clouds 20 1016 60 10000 1.44 95 15:55 09.12.2019
6586 Clouds 20 1016 60 10000 1.44 95 15:36 09.12.2019
6587 Clouds 21 1016 64 10000 3.6 90 15:36 09.12.2019
6588 Clouds 21 1016 64 10000 3.6 90 15:18 09.12.2019
6589 Clouds 19 1016 64 10000 3.1 90 14:42 09.12.2019
6590 Clouds 19 1016 64 10000 3.1 90 14:42 09.12.2019
6591 Clouds 21 1016 60 10000 2.6 100 14:19 09.12.2019
6592 Clouds 24 1016 64 10000 4.1 110 13:57 09.12.2019
6593 Clouds 24 1017 60 10000 4.1 70 13:38 09.12.2019
6594 Clouds 23 1017 60 10000 4.1 70 13:19 09.12.2019
6595 Clouds 23 1017 73 10000 4.1 150 12:56 09.12.2019
6596 Clouds 23 1017 73 10000 4.1 150 12:56 09.12.2019
6597 Clouds 23 1017 73 10000 4.1 150 12:37 09.12.2019
6598 Clouds 22 1018 69 10000 2.6 90 12:19 09.12.2019
6599 Clouds 23 1018 78 10000 4.1 150 11:56 09.12.2019
6600 Clouds 22 1020 73 10000 2.6 110 11:37 09.12.2019
6601 Clouds 22 1020 73 10000 2.6 110 11:18 09.12.2019
6602 Clouds 20 1020 68 10000 4.1 60 10:41 09.12.2019
6603 Clouds 20 1021 77 10000 3.1 70 10:20 09.12.2019
6604 Clouds 21 1021 73 10000 4.1 50 09:59 09.12.2019
6605 Clouds 21 1021 73 10000 4.1 50 09:40 09.12.2019
6606 Clouds 18 1022 82 10000 2.1 50 09:21 09.12.2019
6607 Clouds 20 1021 82 10000 2.6 70 08:44 09.12.2019
6608 Clouds 17 1022 88 10000 3.6 60 08:26 09.12.2019
6609 Clouds 17 1022 88 10000 3.6 60 08:26 09.12.2019
6610 Rain 17 1020 93 7000 2.6 60 07:57 09.12.2019
6611 Clouds 16 1022 93 10000 3.6 80 07:38 09.12.2019
6612 Clouds 17 1022 93 10000 3.6 80 07:20 09.12.2019
6613 Rain 17 1020 93 7000 4.1 80 06:47 09.12.2019
6614 Rain 16 1020 93 10000 3.1 90 06:24 09.12.2019
6615 Clouds 16 1018 93 10000 3.03 27 05:27 09.12.2019
6616 Clouds 16 1018 93 10000 3.03 27 04:46 09.12.2019
6617 Clouds 15 1019 93 10000 3.1 330 03:20 09.12.2019
6618 Clouds 15 1019 93 10000 2.6 70 02:24 09.12.2019
6619 Clouds 16 1019 88 10000 2.1 60 01:42 09.12.2019
6620 Clouds 16 1020 88 10000 2.6 70 00:46 09.12.2019
6621 Rain 13 1011 96 0 0.54 129 00:27 09.12.2019
6622 Rain 13 1011 95 0 0.54 129 23:43 08.12.2019
6623 Clouds 16 1020 88 10000 2.1 40 23:24 08.12.2019
6624 Clouds 16 1020 88 10000 2.1 40 22:57 08.12.2019
6625 Clouds 16 1020 88 10000 2.1 40 22:39 08.12.2019
6626 Clouds 16 1020 88 10000 2.1 40 22:39 08.12.2019
6627 Clouds 17 1019 88 10000 2.6 20 22:20 08.12.2019
6628 Clouds 17 1019 82 10000 2.6 40 21:58 08.12.2019
6629 Clouds 17 1019 82 10000 2.6 40 21:40 08.12.2019
6630 Clouds 17 1020 88 10000 2.6 40 21:21 08.12.2019
6631 Clouds 17 1019 82 10000 1.83 56 20:57 08.12.2019
6632 Clouds 16 1020 88 10000 2.6 20 20:38 08.12.2019
6633 Clouds 17 1020 88 10000 2.6 20 20:20 08.12.2019
6634 Clouds 17 1020 88 10000 2.6 20 20:20 08.12.2019
6635 Clouds 17 1019 88 10000 3.35 29 19:59 08.12.2019
6636 Clouds 17 1019 88 10000 3.35 29 19:41 08.12.2019
6637 Clouds 18 1019 82 10000 2.1 30 19:22 08.12.2019
6638 Clouds 18 1018 77 10000 3.35 29 18:55 08.12.2019
6639 Rain 14 1012 95 0 3.35 29 18:37 08.12.2019
6640 Clouds 18 1017 68 10000 2.1 80 18:19 08.12.2019
6641 Clouds 18 1017 68 10000 2.1 80 18:19 08.12.2019
6642 Clouds 18 1017 68 10000 2.1 80 17:57 08.12.2019
6643 Clouds 18 1017 68 10000 2.1 80 17:38 08.12.2019
6644 Clouds 17 1017 77 10000 5.1 70 17:38 08.12.2019
6645 Clouds 19 1017 77 10000 5.1 70 17:20 08.12.2019
6646 Clouds 19 1017 77 10000 5.1 70 17:20 08.12.2019
6647 Clouds 19 1017 77 10000 5.1 70 17:20 08.12.2019
6648 Clouds 19 1016 64 10000 2.6 10 16:57 08.12.2019
6649 Clouds 18 1016 73 10000 2.6 360 16:39 08.12.2019
6650 Clouds 18 1016 73 10000 2.6 360 16:20 08.12.2019
6651 Clouds 19 1016 69 10000 3.6 30 15:55 08.12.2019
6652 Clouds 20 1016 64 10000 3.6 30 15:36 08.12.2019
6653 Clouds 22 1016 64 10000 3.6 30 15:18 08.12.2019
6654 Clouds 21 1016 60 10000 5.1 60 14:43 08.12.2019
6655 Clouds 21 1016 64 10000 3.1 40 14:24 08.12.2019
6656 Clouds 21 1016 64 10000 3.1 40 14:24 08.12.2019
6657 Clouds 21 1016 68 10000 3.1 20 13:59 08.12.2019
6658 Clouds 21 1016 68 10000 3.1 20 13:40 08.12.2019
6659 Clouds 20 1018 73 10000 2.1 0 13:21 08.12.2019
6660 Clouds 20 1018 73 10000 2.1 0 13:21 08.12.2019
6661 Rain 19 1017 68 10000 5.1 40 12:57 08.12.2019
6662 Rain 19 1017 68 10000 5.1 40 12:38 08.12.2019
6663 Clouds 18 1019 72 10000 2.6 20 12:18 08.12.2019
6664 Clouds 18 1019 72 10000 2.6 20 11:57 08.12.2019
6665 Clouds 17 1020 88 10000 2.1 20 11:37 08.12.2019
6666 Clouds 19 1020 88 10000 2.1 20 11:19 08.12.2019
6667 Rain 19 1021 88 10000 3.1 40 10:40 08.12.2019
6668 Rain 18 1021 88 10000 3.1 40 10:22 08.12.2019
6669 Rain 19 1021 93 10000 2.1 90 09:58 08.12.2019
6670 Rain 19 1021 93 10000 2.1 90 09:39 08.12.2019
6671 Rain 18 1022 88 10000 2.6 80 09:20 08.12.2019
6672 Rain 18 1021 93 8000 5.34 40 08:59 08.12.2019
6673 Rain 18 1021 93 8000 5.34 40 08:39 08.12.2019
6674 Clouds 17 1022 93 10000 2.6 70 08:21 08.12.2019
6675 Rain 18 1021 100 8000 4.35 36 07:49 08.12.2019
6676 Clouds 17 1022 93 10000 1 0 07:21 08.12.2019
6677 Rain 17 1020 93 5000 4.35 36 06:53 08.12.2019
6678 Rain 17 1019 100 5000 4.35 36 06:23 08.12.2019
6679 Rain 17 1019 100 5000 4.35 36 05:58 08